<?xml version="1.0" encoding="UTF-8" standalone="no" ?>
<gpx xmlns="http://www.topografix.com/GPX/1/1" xmlns:xsi="http://www.w3.org/2001/XMLSchema-instance" xsi:schemaLocation="http://www.topografix.com/GPX/1/1 http://www.topografix.com/GPX/1/1/gpx.xsd" version="1.1" creator="VisuGPX - https://www.visugpx.com">
  <metadata>
    <name>Pornichet 02/06/2022</name>
    <desc><![CDATA[Sortie jeudi 02 juin 2022]]></desc>
  </metadata>
  <trk>
    <name><![CDATA[Pornichet Cyclisme]]></name>
    <trkseg>
      <trkpt lat="47.2638" lon="-2.31593">
        <ele>8.7</ele>
        <time>2022-06-02T06:52:11.000Z</time>
      </trkpt>
      <trkpt lat="47.26396" lon="-2.31607">
        <ele>9.3</ele>
        <time>2022-06-02T06:52:14.000Z</time>
      </trkpt>
      <trkpt lat="47.26398" lon="-2.31612">
        <ele>-0.40000000596046</ele>
        <time>2022-06-02T06:52:15.000Z</time>
      </trkpt>
      <trkpt lat="47.264" lon="-2.31618">
        <ele>-0.40000000596046</ele>
        <time>2022-06-02T06:52:16.000Z</time>
      </trkpt>
      <trkpt lat="47.26406" lon="-2.31653">
        <ele>-0.40000000596046</ele>
        <time>2022-06-02T06:52:22.000Z</time>
      </trkpt>
      <trkpt lat="47.26409" lon="-2.31678">
        <ele>-0.40000000596046</ele>
        <time>2022-06-02T06:52:28.000Z</time>
      </trkpt>
      <trkpt lat="47.26403" lon="-2.31683">
        <ele>-0.40000000596046</ele>
        <time>2022-06-02T06:52:31.000Z</time>
      </trkpt>
      <trkpt lat="47.26386" lon="-2.31692">
        <ele>-0.40000000596046</ele>
        <time>2022-06-02T06:52:37.000Z</time>
      </trkpt>
      <trkpt lat="47.26363" lon="-2.31706">
        <ele>-0.40000000596046</ele>
        <time>2022-06-02T06:52:42.000Z</time>
      </trkpt>
      <trkpt lat="47.26353" lon="-2.31713">
        <ele>-0.80000001192093</ele>
        <time>2022-06-02T06:52:44.000Z</time>
      </trkpt>
      <trkpt lat="47.26348" lon="-2.31716">
        <ele>-1.2000000476837</ele>
        <time>2022-06-02T06:52:45.000Z</time>
      </trkpt>
      <trkpt lat="47.26342" lon="-2.31719">
        <ele>-1.6000000238419</ele>
        <time>2022-06-02T06:52:46.000Z</time>
      </trkpt>
      <trkpt lat="47.26337" lon="-2.3172">
        <ele>-2.2000000476837</ele>
        <time>2022-06-02T06:52:47.000Z</time>
      </trkpt>
      <trkpt lat="47.26331" lon="-2.31722">
        <ele>-2.5999999046326</ele>
        <time>2022-06-02T06:52:48.000Z</time>
      </trkpt>
      <trkpt lat="47.26325" lon="-2.31725">
        <ele>-2.5999999046326</ele>
        <time>2022-06-02T06:52:49.000Z</time>
      </trkpt>
      <trkpt lat="47.26309" lon="-2.31734">
        <ele>-3</ele>
        <time>2022-06-02T06:52:52.000Z</time>
      </trkpt>
      <trkpt lat="47.26305" lon="-2.31739">
        <ele>-3.4000000953674</ele>
        <time>2022-06-02T06:52:53.000Z</time>
      </trkpt>
      <trkpt lat="47.26303" lon="-2.31744">
        <ele>-3.7999999523163</ele>
        <time>2022-06-02T06:52:54.000Z</time>
      </trkpt>
      <trkpt lat="47.26303" lon="-2.3175">
        <ele>-4.1999998092651</ele>
        <time>2022-06-02T06:52:55.000Z</time>
      </trkpt>
      <trkpt lat="47.26304" lon="-2.31757">
        <ele>-4.5999999046326</ele>
        <time>2022-06-02T06:52:56.000Z</time>
      </trkpt>
      <trkpt lat="47.26305" lon="-2.31763">
        <ele>-4.5999999046326</ele>
        <time>2022-06-02T06:52:57.000Z</time>
      </trkpt>
      <trkpt lat="47.26308" lon="-2.31806">
        <ele>-4.5999999046326</ele>
        <time>2022-06-02T06:53:04.000Z</time>
      </trkpt>
      <trkpt lat="47.26308" lon="-2.31819">
        <ele>-4.5999999046326</ele>
        <time>2022-06-02T06:53:06.000Z</time>
      </trkpt>
      <trkpt lat="47.26306" lon="-2.31842">
        <ele>-4.5999999046326</ele>
        <time>2022-06-02T06:53:10.000Z</time>
      </trkpt>
      <trkpt lat="47.26305" lon="-2.31848">
        <ele>-4.5999999046326</ele>
        <time>2022-06-02T06:53:11.000Z</time>
      </trkpt>
      <trkpt lat="47.26303" lon="-2.31871">
        <ele>-4.5999999046326</ele>
        <time>2022-06-02T06:53:15.000Z</time>
      </trkpt>
      <trkpt lat="47.26299" lon="-2.31894">
        <ele>-4.5999999046326</ele>
        <time>2022-06-02T06:53:19.000Z</time>
      </trkpt>
      <trkpt lat="47.26296" lon="-2.31898">
        <ele>-4.5999999046326</ele>
        <time>2022-06-02T06:53:20.000Z</time>
      </trkpt>
      <trkpt lat="47.2628" lon="-2.31912">
        <ele>-4.5999999046326</ele>
        <time>2022-06-02T06:53:24.000Z</time>
      </trkpt>
      <trkpt lat="47.26276" lon="-2.31916">
        <ele>-4.5999999046326</ele>
        <time>2022-06-02T06:53:25.000Z</time>
      </trkpt>
      <trkpt lat="47.26269" lon="-2.31926">
        <ele>-4.5999999046326</ele>
        <time>2022-06-02T06:53:27.000Z</time>
      </trkpt>
      <trkpt lat="47.2626" lon="-2.31943">
        <ele>-4.5999999046326</ele>
        <time>2022-06-02T06:53:30.000Z</time>
      </trkpt>
      <trkpt lat="47.26249" lon="-2.31966">
        <ele>-4.5999999046326</ele>
        <time>2022-06-02T06:53:34.000Z</time>
      </trkpt>
      <trkpt lat="47.26245" lon="-2.31976">
        <ele>-4.5999999046326</ele>
        <time>2022-06-02T06:53:36.000Z</time>
      </trkpt>
      <trkpt lat="47.26242" lon="-2.31978">
        <ele>-4.5999999046326</ele>
        <time>2022-06-02T06:53:37.000Z</time>
      </trkpt>
      <trkpt lat="47.26236" lon="-2.31979">
        <ele>-4.5999999046326</ele>
        <time>2022-06-02T06:53:39.000Z</time>
      </trkpt>
      <trkpt lat="47.26224" lon="-2.31989">
        <ele>-4.5999999046326</ele>
        <time>2022-06-02T06:53:43.000Z</time>
      </trkpt>
      <trkpt lat="47.26213" lon="-2.32">
        <ele>-4.5999999046326</ele>
        <time>2022-06-02T06:53:46.000Z</time>
      </trkpt>
      <trkpt lat="47.26206" lon="-2.32006">
        <ele>-4.5999999046326</ele>
        <time>2022-06-02T06:53:48.000Z</time>
      </trkpt>
      <trkpt lat="47.26204" lon="-2.32012">
        <ele>-4.5999999046326</ele>
        <time>2022-06-02T06:53:50.000Z</time>
      </trkpt>
      <trkpt lat="47.26203" lon="-2.32016">
        <ele>-4.5999999046326</ele>
        <time>2022-06-02T06:53:51.000Z</time>
      </trkpt>
      <trkpt lat="47.262" lon="-2.3202">
        <ele>-4.5999999046326</ele>
        <time>2022-06-02T06:53:53.000Z</time>
      </trkpt>
      <trkpt lat="47.26197" lon="-2.32021">
        <ele>-4.5999999046326</ele>
        <time>2022-06-02T06:53:55.000Z</time>
      </trkpt>
      <trkpt lat="47.26193" lon="-2.32022">
        <ele>-4.5999999046326</ele>
        <time>2022-06-02T06:53:57.000Z</time>
      </trkpt>
      <trkpt lat="47.26183" lon="-2.32025">
        <ele>-4.5999999046326</ele>
        <time>2022-06-02T06:54:00.000Z</time>
      </trkpt>
      <trkpt lat="47.26168" lon="-2.32037">
        <ele>-4.5999999046326</ele>
        <time>2022-06-02T06:54:04.000Z</time>
      </trkpt>
      <trkpt lat="47.26165" lon="-2.32043">
        <ele>-4.5999999046326</ele>
        <time>2022-06-02T06:54:05.000Z</time>
      </trkpt>
      <trkpt lat="47.26157" lon="-2.32063">
        <ele>-4.5999999046326</ele>
        <time>2022-06-02T06:54:08.000Z</time>
      </trkpt>
      <trkpt lat="47.26153" lon="-2.32076">
        <ele>-4.5999999046326</ele>
        <time>2022-06-02T06:54:10.000Z</time>
      </trkpt>
      <trkpt lat="47.2615" lon="-2.32083">
        <ele>-4.5999999046326</ele>
        <time>2022-06-02T06:54:11.000Z</time>
      </trkpt>
      <trkpt lat="47.26143" lon="-2.32109">
        <ele>-4.5999999046326</ele>
        <time>2022-06-02T06:54:15.000Z</time>
      </trkpt>
      <trkpt lat="47.26141" lon="-2.32115">
        <ele>-4.5999999046326</ele>
        <time>2022-06-02T06:54:16.000Z</time>
      </trkpt>
      <trkpt lat="47.26132" lon="-2.32147">
        <ele>-4.5999999046326</ele>
        <time>2022-06-02T06:54:21.000Z</time>
      </trkpt>
      <trkpt lat="47.26121" lon="-2.32178">
        <ele>-4.5999999046326</ele>
        <time>2022-06-02T06:54:26.000Z</time>
      </trkpt>
      <trkpt lat="47.26116" lon="-2.3219">
        <ele>-4.5999999046326</ele>
        <time>2022-06-02T06:54:28.000Z</time>
      </trkpt>
      <trkpt lat="47.26103" lon="-2.32217">
        <ele>-4.5999999046326</ele>
        <time>2022-06-02T06:54:33.000Z</time>
      </trkpt>
      <trkpt lat="47.26096" lon="-2.32227">
        <ele>-4.5999999046326</ele>
        <time>2022-06-02T06:54:35.000Z</time>
      </trkpt>
      <trkpt lat="47.26092" lon="-2.32232">
        <ele>-4.5999999046326</ele>
        <time>2022-06-02T06:54:36.000Z</time>
      </trkpt>
      <trkpt lat="47.26085" lon="-2.32243">
        <ele>-4.5999999046326</ele>
        <time>2022-06-02T06:54:38.000Z</time>
      </trkpt>
      <trkpt lat="47.2608" lon="-2.32254">
        <ele>-4.5999999046326</ele>
        <time>2022-06-02T06:54:40.000Z</time>
      </trkpt>
      <trkpt lat="47.26063" lon="-2.32271">
        <ele>-4.5999999046326</ele>
        <time>2022-06-02T06:54:44.000Z</time>
      </trkpt>
      <trkpt lat="47.2606" lon="-2.32276">
        <ele>-4.5999999046326</ele>
        <time>2022-06-02T06:54:45.000Z</time>
      </trkpt>
      <trkpt lat="47.26022" lon="-2.32321">
        <ele>-4.5999999046326</ele>
        <time>2022-06-02T06:54:54.000Z</time>
      </trkpt>
      <trkpt lat="47.2599" lon="-2.32362">
        <ele>-4.5999999046326</ele>
        <time>2022-06-02T06:55:02.000Z</time>
      </trkpt>
      <trkpt lat="47.2596" lon="-2.32401">
        <ele>-4.5999999046326</ele>
        <time>2022-06-02T06:55:10.000Z</time>
      </trkpt>
      <trkpt lat="47.25935" lon="-2.32437">
        <ele>-4.5999999046326</ele>
        <time>2022-06-02T06:55:17.000Z</time>
      </trkpt>
      <trkpt lat="47.2591" lon="-2.32468">
        <ele>-4.5999999046326</ele>
        <time>2022-06-02T06:55:24.000Z</time>
      </trkpt>
      <trkpt lat="47.25909" lon="-2.32476">
        <ele>-4.5999999046326</ele>
        <time>2022-06-02T06:55:26.000Z</time>
      </trkpt>
      <trkpt lat="47.25911" lon="-2.32478">
        <ele>-4.5999999046326</ele>
        <time>2022-06-02T06:55:27.000Z</time>
      </trkpt>
      <trkpt lat="47.2592" lon="-2.32479">
        <ele>-4.5999999046326</ele>
        <time>2022-06-02T06:55:30.000Z</time>
      </trkpt>
      <trkpt lat="47.25931" lon="-2.32494">
        <ele>-4.5999999046326</ele>
        <time>2022-06-02T06:55:34.000Z</time>
      </trkpt>
      <trkpt lat="47.25935" lon="-2.32507">
        <ele>-4.5999999046326</ele>
        <time>2022-06-02T06:55:36.000Z</time>
      </trkpt>
      <trkpt lat="47.25942" lon="-2.32534">
        <ele>-4.5999999046326</ele>
        <time>2022-06-02T06:55:40.000Z</time>
      </trkpt>
      <trkpt lat="47.25955" lon="-2.32588">
        <ele>-4.5999999046326</ele>
        <time>2022-06-02T06:55:48.000Z</time>
      </trkpt>
      <trkpt lat="47.25958" lon="-2.32601">
        <ele>-4.5999999046326</ele>
        <time>2022-06-02T06:55:50.000Z</time>
      </trkpt>
      <trkpt lat="47.25964" lon="-2.32628">
        <ele>-4.5999999046326</ele>
        <time>2022-06-02T06:55:54.000Z</time>
      </trkpt>
      <trkpt lat="47.25967" lon="-2.32649">
        <ele>-4.5999999046326</ele>
        <time>2022-06-02T06:55:57.000Z</time>
      </trkpt>
      <trkpt lat="47.25967" lon="-2.32667">
        <ele>-4.5999999046326</ele>
        <time>2022-06-02T06:56:00.000Z</time>
      </trkpt>
      <trkpt lat="47.2597" lon="-2.32669">
        <ele>-4.5999999046326</ele>
        <time>2022-06-02T06:56:01.000Z</time>
      </trkpt>
      <trkpt lat="47.25978" lon="-2.32668">
        <ele>-4.5999999046326</ele>
        <time>2022-06-02T06:56:03.000Z</time>
      </trkpt>
      <trkpt lat="47.25994" lon="-2.32671">
        <ele>-4.5999999046326</ele>
        <time>2022-06-02T06:56:07.000Z</time>
      </trkpt>
      <trkpt lat="47.26003" lon="-2.32669">
        <ele>-4.5999999046326</ele>
        <time>2022-06-02T06:56:09.000Z</time>
      </trkpt>
      <trkpt lat="47.26021" lon="-2.32667">
        <ele>-4.5999999046326</ele>
        <time>2022-06-02T06:56:13.000Z</time>
      </trkpt>
      <trkpt lat="47.26051" lon="-2.32663">
        <ele>-4.5999999046326</ele>
        <time>2022-06-02T06:56:20.000Z</time>
      </trkpt>
      <trkpt lat="47.26087" lon="-2.32656">
        <ele>-4.5999999046326</ele>
        <time>2022-06-02T06:56:28.000Z</time>
      </trkpt>
      <trkpt lat="47.26123" lon="-2.32645">
        <ele>-4.5999999046326</ele>
        <time>2022-06-02T06:56:36.000Z</time>
      </trkpt>
      <trkpt lat="47.26132" lon="-2.32644">
        <ele>-4.5999999046326</ele>
        <time>2022-06-02T06:56:38.000Z</time>
      </trkpt>
      <trkpt lat="47.26145" lon="-2.32646">
        <ele>-4.5999999046326</ele>
        <time>2022-06-02T06:56:41.000Z</time>
      </trkpt>
      <trkpt lat="47.26177" lon="-2.32656">
        <ele>-4.5999999046326</ele>
        <time>2022-06-02T06:56:48.000Z</time>
      </trkpt>
      <trkpt lat="47.26189" lon="-2.32666">
        <ele>-4.5999999046326</ele>
        <time>2022-06-02T06:56:51.000Z</time>
      </trkpt>
      <trkpt lat="47.26198" lon="-2.32674">
        <ele>-4.1999998092651</ele>
        <time>2022-06-02T06:56:53.000Z</time>
      </trkpt>
      <trkpt lat="47.26202" lon="-2.32678">
        <ele>-3.7999999523163</ele>
        <time>2022-06-02T06:56:54.000Z</time>
      </trkpt>
      <trkpt lat="47.26206" lon="-2.32682">
        <ele>-3.4000000953674</ele>
        <time>2022-06-02T06:56:55.000Z</time>
      </trkpt>
      <trkpt lat="47.2621" lon="-2.32687">
        <ele>-2.5999999046326</ele>
        <time>2022-06-02T06:56:56.000Z</time>
      </trkpt>
      <trkpt lat="47.26226" lon="-2.32706">
        <ele>-2.5999999046326</ele>
        <time>2022-06-02T06:57:00.000Z</time>
      </trkpt>
      <trkpt lat="47.26229" lon="-2.32712">
        <ele>-2.5999999046326</ele>
        <time>2022-06-02T06:57:01.000Z</time>
      </trkpt>
      <trkpt lat="47.26261" lon="-2.3276">
        <ele>-2.5999999046326</ele>
        <time>2022-06-02T06:57:09.000Z</time>
      </trkpt>
      <trkpt lat="47.26278" lon="-2.32792">
        <ele>-3</ele>
        <time>2022-06-02T06:57:14.000Z</time>
      </trkpt>
      <trkpt lat="47.2628" lon="-2.328">
        <ele>-3.4000000953674</ele>
        <time>2022-06-02T06:57:15.000Z</time>
      </trkpt>
      <trkpt lat="47.26282" lon="-2.32806">
        <ele>-3.7999999523163</ele>
        <time>2022-06-02T06:57:16.000Z</time>
      </trkpt>
      <trkpt lat="47.26284" lon="-2.32813">
        <ele>-4.4000000953674</ele>
        <time>2022-06-02T06:57:17.000Z</time>
      </trkpt>
      <trkpt lat="47.26286" lon="-2.3282">
        <ele>-4.8000001907349</ele>
        <time>2022-06-02T06:57:18.000Z</time>
      </trkpt>
      <trkpt lat="47.26288" lon="-2.32834">
        <ele>-4.8000001907349</ele>
        <time>2022-06-02T06:57:20.000Z</time>
      </trkpt>
      <trkpt lat="47.26291" lon="-2.32849">
        <ele>-4.8000001907349</ele>
        <time>2022-06-02T06:57:22.000Z</time>
      </trkpt>
      <trkpt lat="47.26304" lon="-2.32861">
        <ele>-4.8000001907349</ele>
        <time>2022-06-02T06:57:25.000Z</time>
      </trkpt>
      <trkpt lat="47.26314" lon="-2.32865">
        <ele>-4.8000001907349</ele>
        <time>2022-06-02T06:57:27.000Z</time>
      </trkpt>
      <trkpt lat="47.26318" lon="-2.3287">
        <ele>-4.8000001907349</ele>
        <time>2022-06-02T06:57:28.000Z</time>
      </trkpt>
      <trkpt lat="47.26321" lon="-2.32876">
        <ele>-4.8000001907349</ele>
        <time>2022-06-02T06:57:29.000Z</time>
      </trkpt>
      <trkpt lat="47.26327" lon="-2.32897">
        <ele>-4.8000001907349</ele>
        <time>2022-06-02T06:57:32.000Z</time>
      </trkpt>
      <trkpt lat="47.26329" lon="-2.32904">
        <ele>-4.8000001907349</ele>
        <time>2022-06-02T06:57:33.000Z</time>
      </trkpt>
      <trkpt lat="47.26354" lon="-2.32973">
        <ele>-4.8000001907349</ele>
        <time>2022-06-02T06:57:43.000Z</time>
      </trkpt>
      <trkpt lat="47.26358" lon="-2.32977">
        <ele>-4.8000001907349</ele>
        <time>2022-06-02T06:57:44.000Z</time>
      </trkpt>
      <trkpt lat="47.26364" lon="-2.32989">
        <ele>-4.8000001907349</ele>
        <time>2022-06-02T06:57:46.000Z</time>
      </trkpt>
      <trkpt lat="47.26366" lon="-2.33004">
        <ele>-4.8000001907349</ele>
        <time>2022-06-02T06:57:48.000Z</time>
      </trkpt>
      <trkpt lat="47.26366" lon="-2.33028">
        <ele>-4.8000001907349</ele>
        <time>2022-06-02T06:57:51.000Z</time>
      </trkpt>
      <trkpt lat="47.26367" lon="-2.33052">
        <ele>-4.8000001907349</ele>
        <time>2022-06-02T06:57:54.000Z</time>
      </trkpt>
      <trkpt lat="47.26371" lon="-2.33124">
        <ele>-4.8000001907349</ele>
        <time>2022-06-02T06:58:03.000Z</time>
      </trkpt>
      <trkpt lat="47.26376" lon="-2.33198">
        <ele>-4.8000001907349</ele>
        <time>2022-06-02T06:58:12.000Z</time>
      </trkpt>
      <trkpt lat="47.2638" lon="-2.33244">
        <ele>-4.8000001907349</ele>
        <time>2022-06-02T06:58:18.000Z</time>
      </trkpt>
      <trkpt lat="47.26385" lon="-2.33257">
        <ele>-4.8000001907349</ele>
        <time>2022-06-02T06:58:20.000Z</time>
      </trkpt>
      <trkpt lat="47.26399" lon="-2.33266">
        <ele>-4.8000001907349</ele>
        <time>2022-06-02T06:58:23.000Z</time>
      </trkpt>
      <trkpt lat="47.26419" lon="-2.33268">
        <ele>-4.8000001907349</ele>
        <time>2022-06-02T06:58:27.000Z</time>
      </trkpt>
      <trkpt lat="47.26423" lon="-2.33269">
        <ele>-4.8000001907349</ele>
        <time>2022-06-02T06:58:28.000Z</time>
      </trkpt>
      <trkpt lat="47.26461" lon="-2.33274">
        <ele>-4.8000001907349</ele>
        <time>2022-06-02T06:58:36.000Z</time>
      </trkpt>
      <trkpt lat="47.26499" lon="-2.3328">
        <ele>-4.8000001907349</ele>
        <time>2022-06-02T06:58:44.000Z</time>
      </trkpt>
      <trkpt lat="47.26503" lon="-2.33283">
        <ele>-4.8000001907349</ele>
        <time>2022-06-02T06:58:45.000Z</time>
      </trkpt>
      <trkpt lat="47.26512" lon="-2.3329">
        <ele>-4.8000001907349</ele>
        <time>2022-06-02T06:58:47.000Z</time>
      </trkpt>
      <trkpt lat="47.26524" lon="-2.33304">
        <ele>-4.8000001907349</ele>
        <time>2022-06-02T06:58:50.000Z</time>
      </trkpt>
      <trkpt lat="47.26526" lon="-2.33319">
        <ele>-4.8000001907349</ele>
        <time>2022-06-02T06:58:52.000Z</time>
      </trkpt>
      <trkpt lat="47.26525" lon="-2.33351">
        <ele>-4.8000001907349</ele>
        <time>2022-06-02T06:58:56.000Z</time>
      </trkpt>
      <trkpt lat="47.26532" lon="-2.33376">
        <ele>-4.8000001907349</ele>
        <time>2022-06-02T06:58:59.000Z</time>
      </trkpt>
      <trkpt lat="47.26534" lon="-2.33383">
        <ele>-4.8000001907349</ele>
        <time>2022-06-02T06:59:00.000Z</time>
      </trkpt>
      <trkpt lat="47.26546" lon="-2.33441">
        <ele>-4.8000001907349</ele>
        <time>2022-06-02T06:59:07.000Z</time>
      </trkpt>
      <trkpt lat="47.26555" lon="-2.33499">
        <ele>-4.8000001907349</ele>
        <time>2022-06-02T06:59:14.000Z</time>
      </trkpt>
      <trkpt lat="47.26558" lon="-2.33506">
        <ele>-4.8000001907349</ele>
        <time>2022-06-02T06:59:15.000Z</time>
      </trkpt>
      <trkpt lat="47.26562" lon="-2.3352">
        <ele>-4.8000001907349</ele>
        <time>2022-06-02T06:59:17.000Z</time>
      </trkpt>
      <trkpt lat="47.26566" lon="-2.33542">
        <ele>-4.4000000953674</ele>
        <time>2022-06-02T06:59:20.000Z</time>
      </trkpt>
      <trkpt lat="47.26567" lon="-2.3355">
        <ele>-4</ele>
        <time>2022-06-02T06:59:21.000Z</time>
      </trkpt>
      <trkpt lat="47.26568" lon="-2.33557">
        <ele>-3.4000000953674</ele>
        <time>2022-06-02T06:59:22.000Z</time>
      </trkpt>
      <trkpt lat="47.26569" lon="-2.33564">
        <ele>-3</ele>
        <time>2022-06-02T06:59:23.000Z</time>
      </trkpt>
      <trkpt lat="47.2657" lon="-2.33572">
        <ele>-2.5999999046326</ele>
        <time>2022-06-02T06:59:24.000Z</time>
      </trkpt>
      <trkpt lat="47.26572" lon="-2.33592">
        <ele>-2.5999999046326</ele>
        <time>2022-06-02T06:59:27.000Z</time>
      </trkpt>
      <trkpt lat="47.26571" lon="-2.33597">
        <ele>-2.5999999046326</ele>
        <time>2022-06-02T06:59:28.000Z</time>
      </trkpt>
      <trkpt lat="47.26572" lon="-2.33621">
        <ele>-2.5999999046326</ele>
        <time>2022-06-02T06:59:33.000Z</time>
      </trkpt>
      <trkpt lat="47.26579" lon="-2.33666">
        <ele>-2.5999999046326</ele>
        <time>2022-06-02T06:59:40.000Z</time>
      </trkpt>
      <trkpt lat="47.26582" lon="-2.33671">
        <ele>-2.2000000476837</ele>
        <time>2022-06-02T06:59:41.000Z</time>
      </trkpt>
      <trkpt lat="47.26585" lon="-2.33676">
        <ele>-1.7999999523163</ele>
        <time>2022-06-02T06:59:42.000Z</time>
      </trkpt>
      <trkpt lat="47.26588" lon="-2.33681">
        <ele>-1.3999999761581</ele>
        <time>2022-06-02T06:59:43.000Z</time>
      </trkpt>
      <trkpt lat="47.26592" lon="-2.33686">
        <ele>-1</ele>
        <time>2022-06-02T06:59:44.000Z</time>
      </trkpt>
      <trkpt lat="47.26595" lon="-2.33691">
        <ele>-0.60000002384186</ele>
        <time>2022-06-02T06:59:45.000Z</time>
      </trkpt>
      <trkpt lat="47.26599" lon="-2.33695">
        <ele>-0.60000002384186</ele>
        <time>2022-06-02T06:59:46.000Z</time>
      </trkpt>
      <trkpt lat="47.2661" lon="-2.33709">
        <ele>-0.60000002384186</ele>
        <time>2022-06-02T06:59:49.000Z</time>
      </trkpt>
      <trkpt lat="47.26613" lon="-2.33715">
        <ele>-0.60000002384186</ele>
        <time>2022-06-02T06:59:50.000Z</time>
      </trkpt>
      <trkpt lat="47.26631" lon="-2.33742">
        <ele>-0.60000002384186</ele>
        <time>2022-06-02T06:59:55.000Z</time>
      </trkpt>
      <trkpt lat="47.26636" lon="-2.33748">
        <ele>-0.60000002384186</ele>
        <time>2022-06-02T06:59:56.000Z</time>
      </trkpt>
      <trkpt lat="47.26643" lon="-2.33759">
        <ele>-0.20000000298023</ele>
        <time>2022-06-02T06:59:58.000Z</time>
      </trkpt>
      <trkpt lat="47.26646" lon="-2.33765">
        <ele>0.20000000298023</ele>
        <time>2022-06-02T06:59:59.000Z</time>
      </trkpt>
      <trkpt lat="47.2665" lon="-2.33771">
        <ele>0.60000002384186</ele>
        <time>2022-06-02T07:00:00.000Z</time>
      </trkpt>
      <trkpt lat="47.26654" lon="-2.33776">
        <ele>1</ele>
        <time>2022-06-02T07:00:01.000Z</time>
      </trkpt>
      <trkpt lat="47.26658" lon="-2.33781">
        <ele>1.3999999761581</ele>
        <time>2022-06-02T07:00:02.000Z</time>
      </trkpt>
      <trkpt lat="47.26672" lon="-2.33803">
        <ele>1.3999999761581</ele>
        <time>2022-06-02T07:00:06.000Z</time>
      </trkpt>
      <trkpt lat="47.26682" lon="-2.33821">
        <ele>1.3999999761581</ele>
        <time>2022-06-02T07:00:09.000Z</time>
      </trkpt>
      <trkpt lat="47.26688" lon="-2.33833">
        <ele>1.3999999761581</ele>
        <time>2022-06-02T07:00:11.000Z</time>
      </trkpt>
      <trkpt lat="47.26705" lon="-2.33859">
        <ele>1.3999999761581</ele>
        <time>2022-06-02T07:00:16.000Z</time>
      </trkpt>
      <trkpt lat="47.2672" lon="-2.33885">
        <ele>1.3999999761581</ele>
        <time>2022-06-02T07:00:21.000Z</time>
      </trkpt>
      <trkpt lat="47.26728" lon="-2.33896">
        <ele>1.3999999761581</ele>
        <time>2022-06-02T07:00:23.000Z</time>
      </trkpt>
      <trkpt lat="47.2675" lon="-2.33929">
        <ele>1.3999999761581</ele>
        <time>2022-06-02T07:00:29.000Z</time>
      </trkpt>
      <trkpt lat="47.26753" lon="-2.33935">
        <ele>1.3999999761581</ele>
        <time>2022-06-02T07:00:30.000Z</time>
      </trkpt>
      <trkpt lat="47.26763" lon="-2.33953">
        <ele>1.3999999761581</ele>
        <time>2022-06-02T07:00:33.000Z</time>
      </trkpt>
      <trkpt lat="47.26771" lon="-2.33962">
        <ele>1.3999999761581</ele>
        <time>2022-06-02T07:00:35.000Z</time>
      </trkpt>
      <trkpt lat="47.26774" lon="-2.33968">
        <ele>1.3999999761581</ele>
        <time>2022-06-02T07:00:36.000Z</time>
      </trkpt>
      <trkpt lat="47.26793" lon="-2.33997">
        <ele>1.3999999761581</ele>
        <time>2022-06-02T07:00:41.000Z</time>
      </trkpt>
      <trkpt lat="47.26822" lon="-2.34046">
        <ele>1.7999999523163</ele>
        <time>2022-06-02T07:00:49.000Z</time>
      </trkpt>
      <trkpt lat="47.26826" lon="-2.34051">
        <ele>2.2000000476837</ele>
        <time>2022-06-02T07:00:50.000Z</time>
      </trkpt>
      <trkpt lat="47.26829" lon="-2.34057">
        <ele>2.5999999046326</ele>
        <time>2022-06-02T07:00:51.000Z</time>
      </trkpt>
      <trkpt lat="47.26833" lon="-2.34062">
        <ele>3.2000000476837</ele>
        <time>2022-06-02T07:00:52.000Z</time>
      </trkpt>
      <trkpt lat="47.26836" lon="-2.34068">
        <ele>3.5999999046326</ele>
        <time>2022-06-02T07:00:53.000Z</time>
      </trkpt>
      <trkpt lat="47.26851" lon="-2.34092">
        <ele>3.5999999046326</ele>
        <time>2022-06-02T07:00:57.000Z</time>
      </trkpt>
      <trkpt lat="47.26872" lon="-2.3413">
        <ele>3.5999999046326</ele>
        <time>2022-06-02T07:01:03.000Z</time>
      </trkpt>
      <trkpt lat="47.26879" lon="-2.34142">
        <ele>3.5999999046326</ele>
        <time>2022-06-02T07:01:05.000Z</time>
      </trkpt>
      <trkpt lat="47.26904" lon="-2.34178">
        <ele>3.5999999046326</ele>
        <time>2022-06-02T07:01:11.000Z</time>
      </trkpt>
      <trkpt lat="47.2693" lon="-2.3422">
        <ele>3.5999999046326</ele>
        <time>2022-06-02T07:01:18.000Z</time>
      </trkpt>
      <trkpt lat="47.26963" lon="-2.34268">
        <ele>3.5999999046326</ele>
        <time>2022-06-02T07:01:26.000Z</time>
      </trkpt>
      <trkpt lat="47.26987" lon="-2.34311">
        <ele>3.5999999046326</ele>
        <time>2022-06-02T07:01:33.000Z</time>
      </trkpt>
      <trkpt lat="47.27" lon="-2.34318">
        <ele>3.5999999046326</ele>
        <time>2022-06-02T07:01:37.000Z</time>
      </trkpt>
      <trkpt lat="47.27004" lon="-2.34318">
        <ele>3.5999999046326</ele>
        <time>2022-06-02T07:01:38.000Z</time>
      </trkpt>
      <trkpt lat="47.27017" lon="-2.34322">
        <ele>3.5999999046326</ele>
        <time>2022-06-02T07:01:42.000Z</time>
      </trkpt>
      <trkpt lat="47.27034" lon="-2.34326">
        <ele>3.5999999046326</ele>
        <time>2022-06-02T07:01:46.000Z</time>
      </trkpt>
      <trkpt lat="47.27037" lon="-2.34331">
        <ele>3.5999999046326</ele>
        <time>2022-06-02T07:01:47.000Z</time>
      </trkpt>
      <trkpt lat="47.27039" lon="-2.34338">
        <ele>4</ele>
        <time>2022-06-02T07:01:48.000Z</time>
      </trkpt>
      <trkpt lat="47.27041" lon="-2.34345">
        <ele>4.4000000953674</ele>
        <time>2022-06-02T07:01:49.000Z</time>
      </trkpt>
      <trkpt lat="47.27043" lon="-2.34353">
        <ele>4.8000001907349</ele>
        <time>2022-06-02T07:01:50.000Z</time>
      </trkpt>
      <trkpt lat="47.27044" lon="-2.3436">
        <ele>5.1999998092651</ele>
        <time>2022-06-02T07:01:51.000Z</time>
      </trkpt>
      <trkpt lat="47.27046" lon="-2.34368">
        <ele>5.5999999046326</ele>
        <time>2022-06-02T07:01:52.000Z</time>
      </trkpt>
      <trkpt lat="47.27058" lon="-2.34415">
        <ele>5.5999999046326</ele>
        <time>2022-06-02T07:01:58.000Z</time>
      </trkpt>
      <trkpt lat="47.27073" lon="-2.3448">
        <ele>5.5999999046326</ele>
        <time>2022-06-02T07:02:06.000Z</time>
      </trkpt>
      <trkpt lat="47.27087" lon="-2.34545">
        <ele>5.5999999046326</ele>
        <time>2022-06-02T07:02:14.000Z</time>
      </trkpt>
      <trkpt lat="47.27103" lon="-2.3461">
        <ele>5.5999999046326</ele>
        <time>2022-06-02T07:02:22.000Z</time>
      </trkpt>
      <trkpt lat="47.27119" lon="-2.34679">
        <ele>5.5999999046326</ele>
        <time>2022-06-02T07:02:30.000Z</time>
      </trkpt>
      <trkpt lat="47.27134" lon="-2.34744">
        <ele>5.5999999046326</ele>
        <time>2022-06-02T07:02:38.000Z</time>
      </trkpt>
      <trkpt lat="47.27147" lon="-2.34811">
        <ele>5.5999999046326</ele>
        <time>2022-06-02T07:02:46.000Z</time>
      </trkpt>
      <trkpt lat="47.27161" lon="-2.34875">
        <ele>5.5999999046326</ele>
        <time>2022-06-02T07:02:54.000Z</time>
      </trkpt>
      <trkpt lat="47.27177" lon="-2.3493">
        <ele>5.5999999046326</ele>
        <time>2022-06-02T07:03:01.000Z</time>
      </trkpt>
      <trkpt lat="47.2718" lon="-2.34937">
        <ele>6</ele>
        <time>2022-06-02T07:03:02.000Z</time>
      </trkpt>
      <trkpt lat="47.27182" lon="-2.34945">
        <ele>6.4000000953674</ele>
        <time>2022-06-02T07:03:03.000Z</time>
      </trkpt>
      <trkpt lat="47.27185" lon="-2.34952">
        <ele>6.8000001907349</ele>
        <time>2022-06-02T07:03:04.000Z</time>
      </trkpt>
      <trkpt lat="47.27187" lon="-2.34959">
        <ele>7.4000000953674</ele>
        <time>2022-06-02T07:03:05.000Z</time>
      </trkpt>
      <trkpt lat="47.27189" lon="-2.34967">
        <ele>7.8000001907349</ele>
        <time>2022-06-02T07:03:06.000Z</time>
      </trkpt>
      <trkpt lat="47.27197" lon="-2.3499">
        <ele>7.8000001907349</ele>
        <time>2022-06-02T07:03:09.000Z</time>
      </trkpt>
      <trkpt lat="47.2722" lon="-2.35053">
        <ele>7.8000001907349</ele>
        <time>2022-06-02T07:03:18.000Z</time>
      </trkpt>
      <trkpt lat="47.27242" lon="-2.35103">
        <ele>7.8000001907349</ele>
        <time>2022-06-02T07:03:25.000Z</time>
      </trkpt>
      <trkpt lat="47.27245" lon="-2.35109">
        <ele>7.8000001907349</ele>
        <time>2022-06-02T07:03:26.000Z</time>
      </trkpt>
      <trkpt lat="47.27251" lon="-2.35121">
        <ele>7.8000001907349</ele>
        <time>2022-06-02T07:03:28.000Z</time>
      </trkpt>
      <trkpt lat="47.27262" lon="-2.35121">
        <ele>7.8000001907349</ele>
        <time>2022-06-02T07:03:31.000Z</time>
      </trkpt>
      <trkpt lat="47.27266" lon="-2.35119">
        <ele>7.8000001907349</ele>
        <time>2022-06-02T07:03:32.000Z</time>
      </trkpt>
      <trkpt lat="47.27285" lon="-2.3511">
        <ele>7.8000001907349</ele>
        <time>2022-06-02T07:03:37.000Z</time>
      </trkpt>
      <trkpt lat="47.27288" lon="-2.35109">
        <ele>8.1999998092651</ele>
        <time>2022-06-02T07:03:38.000Z</time>
      </trkpt>
      <trkpt lat="47.27291" lon="-2.35107">
        <ele>8.6000003814697</ele>
        <time>2022-06-02T07:03:39.000Z</time>
      </trkpt>
      <trkpt lat="47.27294" lon="-2.35106">
        <ele>9</ele>
        <time>2022-06-02T07:03:40.000Z</time>
      </trkpt>
      <trkpt lat="47.27296" lon="-2.35105">
        <ele>9.3999996185303</ele>
        <time>2022-06-02T07:03:41.000Z</time>
      </trkpt>
      <trkpt lat="47.27297" lon="-2.35105">
        <ele>9.8000001907349</ele>
        <time>2022-06-02T07:03:42.000Z</time>
      </trkpt>
      <trkpt lat="47.27304" lon="-2.35105">
        <ele>9.8000001907349</ele>
        <time>2022-06-02T07:03:45.000Z</time>
      </trkpt>
      <trkpt lat="47.27307" lon="-2.35102">
        <ele>9.8000001907349</ele>
        <time>2022-06-02T07:03:46.000Z</time>
      </trkpt>
      <trkpt lat="47.27323" lon="-2.35091">
        <ele>10.199999809265</ele>
        <time>2022-06-02T07:03:51.000Z</time>
      </trkpt>
      <trkpt lat="47.27327" lon="-2.35089">
        <ele>10.60000038147</ele>
        <time>2022-06-02T07:03:52.000Z</time>
      </trkpt>
      <trkpt lat="47.27331" lon="-2.35087">
        <ele>11.199999809265</ele>
        <time>2022-06-02T07:03:53.000Z</time>
      </trkpt>
      <trkpt lat="47.27335" lon="-2.35086">
        <ele>11.60000038147</ele>
        <time>2022-06-02T07:03:54.000Z</time>
      </trkpt>
      <trkpt lat="47.27339" lon="-2.35085">
        <ele>12</ele>
        <time>2022-06-02T07:03:55.000Z</time>
      </trkpt>
      <trkpt lat="47.27346" lon="-2.35082">
        <ele>12.39999961853</ele>
        <time>2022-06-02T07:03:57.000Z</time>
      </trkpt>
      <trkpt lat="47.2735" lon="-2.3508">
        <ele>12.800000190735</ele>
        <time>2022-06-02T07:03:58.000Z</time>
      </trkpt>
      <trkpt lat="47.27353" lon="-2.35079">
        <ele>13.199999809265</ele>
        <time>2022-06-02T07:03:59.000Z</time>
      </trkpt>
      <trkpt lat="47.27356" lon="-2.35078">
        <ele>13.60000038147</ele>
        <time>2022-06-02T07:04:00.000Z</time>
      </trkpt>
      <trkpt lat="47.2736" lon="-2.35075">
        <ele>14</ele>
        <time>2022-06-02T07:04:01.000Z</time>
      </trkpt>
      <trkpt lat="47.27371" lon="-2.35068">
        <ele>14</ele>
        <time>2022-06-02T07:04:04.000Z</time>
      </trkpt>
      <trkpt lat="47.27375" lon="-2.35067">
        <ele>14</ele>
        <time>2022-06-02T07:04:05.000Z</time>
      </trkpt>
      <trkpt lat="47.27382" lon="-2.35064">
        <ele>14.39999961853</ele>
        <time>2022-06-02T07:04:07.000Z</time>
      </trkpt>
      <trkpt lat="47.27385" lon="-2.35062">
        <ele>14.800000190735</ele>
        <time>2022-06-02T07:04:08.000Z</time>
      </trkpt>
      <trkpt lat="47.27388" lon="-2.3506">
        <ele>15.39999961853</ele>
        <time>2022-06-02T07:04:09.000Z</time>
      </trkpt>
      <trkpt lat="47.27391" lon="-2.3506">
        <ele>15.800000190735</ele>
        <time>2022-06-02T07:04:10.000Z</time>
      </trkpt>
      <trkpt lat="47.27394" lon="-2.35059">
        <ele>16.200000762939</ele>
        <time>2022-06-02T07:04:11.000Z</time>
      </trkpt>
      <trkpt lat="47.274" lon="-2.35063">
        <ele>16.200000762939</ele>
        <time>2022-06-02T07:04:13.000Z</time>
      </trkpt>
      <trkpt lat="47.27406" lon="-2.3508">
        <ele>16.200000762939</ele>
        <time>2022-06-02T07:04:17.000Z</time>
      </trkpt>
      <trkpt lat="47.27408" lon="-2.35085">
        <ele>16.200000762939</ele>
        <time>2022-06-02T07:04:18.000Z</time>
      </trkpt>
      <trkpt lat="47.27417" lon="-2.3512">
        <ele>16.200000762939</ele>
        <time>2022-06-02T07:04:24.000Z</time>
      </trkpt>
      <trkpt lat="47.27427" lon="-2.35167">
        <ele>16.200000762939</ele>
        <time>2022-06-02T07:04:32.000Z</time>
      </trkpt>
      <trkpt lat="47.27429" lon="-2.35171">
        <ele>16.200000762939</ele>
        <time>2022-06-02T07:04:33.000Z</time>
      </trkpt>
      <trkpt lat="47.27434" lon="-2.35172">
        <ele>16.200000762939</ele>
        <time>2022-06-02T07:04:35.000Z</time>
      </trkpt>
      <trkpt lat="47.27444" lon="-2.35167">
        <ele>16.200000762939</ele>
        <time>2022-06-02T07:04:38.000Z</time>
      </trkpt>
      <trkpt lat="47.2745" lon="-2.35164">
        <ele>16.60000038147</ele>
        <time>2022-06-02T07:04:40.000Z</time>
      </trkpt>
      <trkpt lat="47.27454" lon="-2.35162">
        <ele>17</ele>
        <time>2022-06-02T07:04:41.000Z</time>
      </trkpt>
      <trkpt lat="47.27457" lon="-2.35161">
        <ele>17.39999961853</ele>
        <time>2022-06-02T07:04:42.000Z</time>
      </trkpt>
      <trkpt lat="47.27461" lon="-2.35159">
        <ele>17.799999237061</ele>
        <time>2022-06-02T07:04:43.000Z</time>
      </trkpt>
      <trkpt lat="47.27464" lon="-2.35158">
        <ele>18.200000762939</ele>
        <time>2022-06-02T07:04:44.000Z</time>
      </trkpt>
      <trkpt lat="47.27472" lon="-2.35153">
        <ele>18.200000762939</ele>
        <time>2022-06-02T07:04:46.000Z</time>
      </trkpt>
      <trkpt lat="47.27483" lon="-2.35148">
        <ele>18.60000038147</ele>
        <time>2022-06-02T07:04:49.000Z</time>
      </trkpt>
      <trkpt lat="47.27486" lon="-2.35146">
        <ele>19</ele>
        <time>2022-06-02T07:04:50.000Z</time>
      </trkpt>
      <trkpt lat="47.27489" lon="-2.35145">
        <ele>19.39999961853</ele>
        <time>2022-06-02T07:04:51.000Z</time>
      </trkpt>
      <trkpt lat="47.27492" lon="-2.35143">
        <ele>19.799999237061</ele>
        <time>2022-06-02T07:04:52.000Z</time>
      </trkpt>
      <trkpt lat="47.27496" lon="-2.35141">
        <ele>20.39999961853</ele>
        <time>2022-06-02T07:04:53.000Z</time>
      </trkpt>
      <trkpt lat="47.27498" lon="-2.35138">
        <ele>20.39999961853</ele>
        <time>2022-06-02T07:04:54.000Z</time>
      </trkpt>
      <trkpt lat="47.27501" lon="-2.35134">
        <ele>20.39999961853</ele>
        <time>2022-06-02T07:04:55.000Z</time>
      </trkpt>
      <trkpt lat="47.27506" lon="-2.35129">
        <ele>20.39999961853</ele>
        <time>2022-06-02T07:04:57.000Z</time>
      </trkpt>
      <trkpt lat="47.2751" lon="-2.3513">
        <ele>20.39999961853</ele>
        <time>2022-06-02T07:04:58.000Z</time>
      </trkpt>
      <trkpt lat="47.27532" lon="-2.35139">
        <ele>20.39999961853</ele>
        <time>2022-06-02T07:05:04.000Z</time>
      </trkpt>
      <trkpt lat="47.27554" lon="-2.35137">
        <ele>20.39999961853</ele>
        <time>2022-06-02T07:05:09.000Z</time>
      </trkpt>
      <trkpt lat="47.27584" lon="-2.35133">
        <ele>20.39999961853</ele>
        <time>2022-06-02T07:05:16.000Z</time>
      </trkpt>
      <trkpt lat="47.27594" lon="-2.35133">
        <ele>20.39999961853</ele>
        <time>2022-06-02T07:05:18.000Z</time>
      </trkpt>
      <trkpt lat="47.27603" lon="-2.35139">
        <ele>20.39999961853</ele>
        <time>2022-06-02T07:05:20.000Z</time>
      </trkpt>
      <trkpt lat="47.27607" lon="-2.35159">
        <ele>20.39999961853</ele>
        <time>2022-06-02T07:05:23.000Z</time>
      </trkpt>
      <trkpt lat="47.27616" lon="-2.35175">
        <ele>20.39999961853</ele>
        <time>2022-06-02T07:05:26.000Z</time>
      </trkpt>
      <trkpt lat="47.27632" lon="-2.35176">
        <ele>20.39999961853</ele>
        <time>2022-06-02T07:05:29.000Z</time>
      </trkpt>
      <trkpt lat="47.27638" lon="-2.35174">
        <ele>20.39999961853</ele>
        <time>2022-06-02T07:05:30.000Z</time>
      </trkpt>
      <trkpt lat="47.27643" lon="-2.35172">
        <ele>20.39999961853</ele>
        <time>2022-06-02T07:05:31.000Z</time>
      </trkpt>
      <trkpt lat="47.2766" lon="-2.3517">
        <ele>20.39999961853</ele>
        <time>2022-06-02T07:05:34.000Z</time>
      </trkpt>
      <trkpt lat="47.27664" lon="-2.35172">
        <ele>20.39999961853</ele>
        <time>2022-06-02T07:05:35.000Z</time>
      </trkpt>
      <trkpt lat="47.27671" lon="-2.35189">
        <ele>20.39999961853</ele>
        <time>2022-06-02T07:05:38.000Z</time>
      </trkpt>
      <trkpt lat="47.27671" lon="-2.35197">
        <ele>20.39999961853</ele>
        <time>2022-06-02T07:05:39.000Z</time>
      </trkpt>
      <trkpt lat="47.27673" lon="-2.35211">
        <ele>19.799999237061</ele>
        <time>2022-06-02T07:05:41.000Z</time>
      </trkpt>
      <trkpt lat="47.27675" lon="-2.35217">
        <ele>19.39999961853</ele>
        <time>2022-06-02T07:05:42.000Z</time>
      </trkpt>
      <trkpt lat="47.27677" lon="-2.3522">
        <ele>19</ele>
        <time>2022-06-02T07:05:43.000Z</time>
      </trkpt>
      <trkpt lat="47.27682" lon="-2.35221">
        <ele>18.60000038147</ele>
        <time>2022-06-02T07:05:44.000Z</time>
      </trkpt>
      <trkpt lat="47.27686" lon="-2.3522">
        <ele>18.200000762939</ele>
        <time>2022-06-02T07:05:45.000Z</time>
      </trkpt>
      <trkpt lat="47.27691" lon="-2.35218">
        <ele>18.200000762939</ele>
        <time>2022-06-02T07:05:46.000Z</time>
      </trkpt>
      <trkpt lat="47.27722" lon="-2.35209">
        <ele>18.200000762939</ele>
        <time>2022-06-02T07:05:52.000Z</time>
      </trkpt>
      <trkpt lat="47.27745" lon="-2.35205">
        <ele>18.200000762939</ele>
        <time>2022-06-02T07:05:56.000Z</time>
      </trkpt>
      <trkpt lat="47.2775" lon="-2.35203">
        <ele>17.799999237061</ele>
        <time>2022-06-02T07:05:57.000Z</time>
      </trkpt>
      <trkpt lat="47.27756" lon="-2.35202">
        <ele>17.39999961853</ele>
        <time>2022-06-02T07:05:58.000Z</time>
      </trkpt>
      <trkpt lat="47.27761" lon="-2.35201">
        <ele>17</ele>
        <time>2022-06-02T07:05:59.000Z</time>
      </trkpt>
      <trkpt lat="47.27766" lon="-2.35201">
        <ele>16.200000762939</ele>
        <time>2022-06-02T07:06:00.000Z</time>
      </trkpt>
      <trkpt lat="47.27769" lon="-2.35203">
        <ele>16.200000762939</ele>
        <time>2022-06-02T07:06:01.000Z</time>
      </trkpt>
      <trkpt lat="47.27775" lon="-2.35217">
        <ele>16.200000762939</ele>
        <time>2022-06-02T07:06:04.000Z</time>
      </trkpt>
      <trkpt lat="47.27777" lon="-2.35223">
        <ele>16.200000762939</ele>
        <time>2022-06-02T07:06:05.000Z</time>
      </trkpt>
      <trkpt lat="47.27784" lon="-2.35268">
        <ele>16.200000762939</ele>
        <time>2022-06-02T07:06:11.000Z</time>
      </trkpt>
      <trkpt lat="47.27797" lon="-2.35329">
        <ele>16.200000762939</ele>
        <time>2022-06-02T07:06:19.000Z</time>
      </trkpt>
      <trkpt lat="47.27803" lon="-2.35351">
        <ele>16.200000762939</ele>
        <time>2022-06-02T07:06:22.000Z</time>
      </trkpt>
      <trkpt lat="47.2781" lon="-2.35361">
        <ele>16.200000762939</ele>
        <time>2022-06-02T07:06:24.000Z</time>
      </trkpt>
      <trkpt lat="47.27825" lon="-2.35363">
        <ele>16.200000762939</ele>
        <time>2022-06-02T07:06:27.000Z</time>
      </trkpt>
      <trkpt lat="47.27829" lon="-2.35362">
        <ele>16.200000762939</ele>
        <time>2022-06-02T07:06:28.000Z</time>
      </trkpt>
      <trkpt lat="47.27854" lon="-2.35361">
        <ele>16.200000762939</ele>
        <time>2022-06-02T07:06:33.000Z</time>
      </trkpt>
      <trkpt lat="47.27868" lon="-2.35362">
        <ele>16.200000762939</ele>
        <time>2022-06-02T07:06:36.000Z</time>
      </trkpt>
      <trkpt lat="47.2788" lon="-2.3537">
        <ele>16.200000762939</ele>
        <time>2022-06-02T07:06:39.000Z</time>
      </trkpt>
      <trkpt lat="47.27884" lon="-2.35374">
        <ele>16.200000762939</ele>
        <time>2022-06-02T07:06:40.000Z</time>
      </trkpt>
      <trkpt lat="47.27887" lon="-2.35378">
        <ele>16.200000762939</ele>
        <time>2022-06-02T07:06:41.000Z</time>
      </trkpt>
      <trkpt lat="47.27894" lon="-2.35386">
        <ele>16.200000762939</ele>
        <time>2022-06-02T07:06:43.000Z</time>
      </trkpt>
      <trkpt lat="47.27901" lon="-2.35396">
        <ele>16.200000762939</ele>
        <time>2022-06-02T07:06:45.000Z</time>
      </trkpt>
      <trkpt lat="47.27922" lon="-2.35427">
        <ele>16.200000762939</ele>
        <time>2022-06-02T07:06:51.000Z</time>
      </trkpt>
      <trkpt lat="47.27929" lon="-2.35438">
        <ele>16.200000762939</ele>
        <time>2022-06-02T07:06:53.000Z</time>
      </trkpt>
      <trkpt lat="47.27942" lon="-2.3545">
        <ele>16.200000762939</ele>
        <time>2022-06-02T07:06:56.000Z</time>
      </trkpt>
      <trkpt lat="47.27967" lon="-2.35465">
        <ele>16.200000762939</ele>
        <time>2022-06-02T07:07:01.000Z</time>
      </trkpt>
      <trkpt lat="47.27971" lon="-2.35469">
        <ele>16.200000762939</ele>
        <time>2022-06-02T07:07:02.000Z</time>
      </trkpt>
      <trkpt lat="47.27981" lon="-2.35487">
        <ele>16.200000762939</ele>
        <time>2022-06-02T07:07:05.000Z</time>
      </trkpt>
      <trkpt lat="47.27984" lon="-2.35494">
        <ele>16.200000762939</ele>
        <time>2022-06-02T07:07:06.000Z</time>
      </trkpt>
      <trkpt lat="47.27998" lon="-2.35529">
        <ele>16.200000762939</ele>
        <time>2022-06-02T07:07:12.000Z</time>
      </trkpt>
      <trkpt lat="47.28" lon="-2.35533">
        <ele>16.60000038147</ele>
        <time>2022-06-02T07:07:13.000Z</time>
      </trkpt>
      <trkpt lat="47.28001" lon="-2.35538">
        <ele>17.39999961853</ele>
        <time>2022-06-02T07:07:14.000Z</time>
      </trkpt>
      <trkpt lat="47.28002" lon="-2.35542">
        <ele>17.799999237061</ele>
        <time>2022-06-02T07:07:15.000Z</time>
      </trkpt>
      <trkpt lat="47.28003" lon="-2.35547">
        <ele>18.39999961853</ele>
        <time>2022-06-02T07:07:16.000Z</time>
      </trkpt>
      <trkpt lat="47.28003" lon="-2.35549">
        <ele>18.39999961853</ele>
        <time>2022-06-02T07:07:17.000Z</time>
      </trkpt>
      <trkpt lat="47.28004" lon="-2.35551">
        <ele>18.39999961853</ele>
        <time>2022-06-02T07:07:18.000Z</time>
      </trkpt>
      <trkpt lat="47.28011" lon="-2.35553">
        <ele>18.39999961853</ele>
        <time>2022-06-02T07:07:21.000Z</time>
      </trkpt>
      <trkpt lat="47.28023" lon="-2.3556">
        <ele>18.39999961853</ele>
        <time>2022-06-02T07:07:25.000Z</time>
      </trkpt>
      <trkpt lat="47.28025" lon="-2.35564">
        <ele>18.799999237061</ele>
        <time>2022-06-02T07:07:26.000Z</time>
      </trkpt>
      <trkpt lat="47.28028" lon="-2.35568">
        <ele>19.200000762939</ele>
        <time>2022-06-02T07:07:27.000Z</time>
      </trkpt>
      <trkpt lat="47.28031" lon="-2.35571">
        <ele>19.60000038147</ele>
        <time>2022-06-02T07:07:28.000Z</time>
      </trkpt>
      <trkpt lat="47.28034" lon="-2.35574">
        <ele>20</ele>
        <time>2022-06-02T07:07:29.000Z</time>
      </trkpt>
      <trkpt lat="47.28037" lon="-2.35576">
        <ele>20.39999961853</ele>
        <time>2022-06-02T07:07:30.000Z</time>
      </trkpt>
      <trkpt lat="47.28041" lon="-2.35577">
        <ele>20.39999961853</ele>
        <time>2022-06-02T07:07:31.000Z</time>
      </trkpt>
      <trkpt lat="47.28064" lon="-2.35587">
        <ele>20.39999961853</ele>
        <time>2022-06-02T07:07:38.000Z</time>
      </trkpt>
      <trkpt lat="47.28073" lon="-2.35605">
        <ele>20.799999237061</ele>
        <time>2022-06-02T07:07:43.000Z</time>
      </trkpt>
      <trkpt lat="47.28076" lon="-2.35608">
        <ele>21.200000762939</ele>
        <time>2022-06-02T07:07:44.000Z</time>
      </trkpt>
      <trkpt lat="47.28078" lon="-2.35611">
        <ele>21.60000038147</ele>
        <time>2022-06-02T07:07:45.000Z</time>
      </trkpt>
      <trkpt lat="47.28079" lon="-2.35614">
        <ele>22</ele>
        <time>2022-06-02T07:07:46.000Z</time>
      </trkpt>
      <trkpt lat="47.28081" lon="-2.35616">
        <ele>22.60000038147</ele>
        <time>2022-06-02T07:07:47.000Z</time>
      </trkpt>
      <trkpt lat="47.28082" lon="-2.35618">
        <ele>22.60000038147</ele>
        <time>2022-06-02T07:07:48.000Z</time>
      </trkpt>
      <trkpt lat="47.28086" lon="-2.3562">
        <ele>22.60000038147</ele>
        <time>2022-06-02T07:07:52.000Z</time>
      </trkpt>
      <trkpt lat="47.28087" lon="-2.35618">
        <ele>24.60000038147</ele>
        <time>2022-06-02T07:12:26.000Z</time>
      </trkpt>
      <trkpt lat="47.2808" lon="-2.35622">
        <ele>24.60000038147</ele>
        <time>2022-06-02T07:12:31.000Z</time>
      </trkpt>
      <trkpt lat="47.28078" lon="-2.35624">
        <ele>25</ele>
        <time>2022-06-02T07:12:32.000Z</time>
      </trkpt>
      <trkpt lat="47.28076" lon="-2.35626">
        <ele>25.39999961853</ele>
        <time>2022-06-02T07:12:33.000Z</time>
      </trkpt>
      <trkpt lat="47.28076" lon="-2.35629">
        <ele>25.799999237061</ele>
        <time>2022-06-02T07:12:34.000Z</time>
      </trkpt>
      <trkpt lat="47.28076" lon="-2.35631">
        <ele>26.799999237061</ele>
        <time>2022-06-02T07:12:35.000Z</time>
      </trkpt>
      <trkpt lat="47.28076" lon="-2.35634">
        <ele>26.799999237061</ele>
        <time>2022-06-02T07:12:36.000Z</time>
      </trkpt>
      <trkpt lat="47.28078" lon="-2.35641">
        <ele>27.200000762939</ele>
        <time>2022-06-02T07:12:38.000Z</time>
      </trkpt>
      <trkpt lat="47.28079" lon="-2.35645">
        <ele>27.60000038147</ele>
        <time>2022-06-02T07:12:39.000Z</time>
      </trkpt>
      <trkpt lat="47.28079" lon="-2.35648">
        <ele>28</ele>
        <time>2022-06-02T07:12:40.000Z</time>
      </trkpt>
      <trkpt lat="47.28081" lon="-2.35651">
        <ele>28.60000038147</ele>
        <time>2022-06-02T07:12:41.000Z</time>
      </trkpt>
      <trkpt lat="47.28082" lon="-2.35655">
        <ele>29</ele>
        <time>2022-06-02T07:12:42.000Z</time>
      </trkpt>
      <trkpt lat="47.28086" lon="-2.35675">
        <ele>29.39999961853</ele>
        <time>2022-06-02T07:12:47.000Z</time>
      </trkpt>
      <trkpt lat="47.28086" lon="-2.35679">
        <ele>29.799999237061</ele>
        <time>2022-06-02T07:12:48.000Z</time>
      </trkpt>
      <trkpt lat="47.28087" lon="-2.35683">
        <ele>30.200000762939</ele>
        <time>2022-06-02T07:12:49.000Z</time>
      </trkpt>
      <trkpt lat="47.28087" lon="-2.35687">
        <ele>30.60000038147</ele>
        <time>2022-06-02T07:12:50.000Z</time>
      </trkpt>
      <trkpt lat="47.28088" lon="-2.3569">
        <ele>31</ele>
        <time>2022-06-02T07:12:51.000Z</time>
      </trkpt>
      <trkpt lat="47.28089" lon="-2.35697">
        <ele>31</ele>
        <time>2022-06-02T07:12:53.000Z</time>
      </trkpt>
      <trkpt lat="47.28091" lon="-2.35711">
        <ele>31.39999961853</ele>
        <time>2022-06-02T07:12:57.000Z</time>
      </trkpt>
      <trkpt lat="47.2809" lon="-2.35716">
        <ele>31.799999237061</ele>
        <time>2022-06-02T07:12:58.000Z</time>
      </trkpt>
      <trkpt lat="47.28089" lon="-2.35721">
        <ele>32.599998474121</ele>
        <time>2022-06-02T07:12:59.000Z</time>
      </trkpt>
      <trkpt lat="47.28087" lon="-2.35727">
        <ele>33</ele>
        <time>2022-06-02T07:13:00.000Z</time>
      </trkpt>
      <trkpt lat="47.28085" lon="-2.35734">
        <ele>33</ele>
        <time>2022-06-02T07:13:01.000Z</time>
      </trkpt>
      <trkpt lat="47.28082" lon="-2.3575">
        <ele>33</ele>
        <time>2022-06-02T07:13:03.000Z</time>
      </trkpt>
      <trkpt lat="47.2808" lon="-2.35765">
        <ele>32.599998474121</ele>
        <time>2022-06-02T07:13:05.000Z</time>
      </trkpt>
      <trkpt lat="47.28078" lon="-2.35772">
        <ele>32.200000762939</ele>
        <time>2022-06-02T07:13:06.000Z</time>
      </trkpt>
      <trkpt lat="47.28076" lon="-2.35778">
        <ele>31.799999237061</ele>
        <time>2022-06-02T07:13:07.000Z</time>
      </trkpt>
      <trkpt lat="47.28075" lon="-2.35784">
        <ele>31.39999961853</ele>
        <time>2022-06-02T07:13:08.000Z</time>
      </trkpt>
      <trkpt lat="47.28074" lon="-2.3579">
        <ele>31</ele>
        <time>2022-06-02T07:13:09.000Z</time>
      </trkpt>
      <trkpt lat="47.28074" lon="-2.35798">
        <ele>30.60000038147</ele>
        <time>2022-06-02T07:13:11.000Z</time>
      </trkpt>
      <trkpt lat="47.28074" lon="-2.358">
        <ele>30</ele>
        <time>2022-06-02T07:13:12.000Z</time>
      </trkpt>
      <trkpt lat="47.28074" lon="-2.35801">
        <ele>29.60000038147</ele>
        <time>2022-06-02T07:13:13.000Z</time>
      </trkpt>
      <trkpt lat="47.28076" lon="-2.35801">
        <ele>28.60000038147</ele>
        <time>2022-06-02T07:13:24.000Z</time>
      </trkpt>
      <trkpt lat="47.28079" lon="-2.35799">
        <ele>28.60000038147</ele>
        <time>2022-06-02T07:13:25.000Z</time>
      </trkpt>
      <trkpt lat="47.28085" lon="-2.35785">
        <ele>28.60000038147</ele>
        <time>2022-06-02T07:13:29.000Z</time>
      </trkpt>
      <trkpt lat="47.28095" lon="-2.35754">
        <ele>28.60000038147</ele>
        <time>2022-06-02T07:13:37.000Z</time>
      </trkpt>
      <trkpt lat="47.28118" lon="-2.35748">
        <ele>28.60000038147</ele>
        <time>2022-06-02T07:13:43.000Z</time>
      </trkpt>
      <trkpt lat="47.28127" lon="-2.35762">
        <ele>28.60000038147</ele>
        <time>2022-06-02T07:13:48.000Z</time>
      </trkpt>
      <trkpt lat="47.28133" lon="-2.35787">
        <ele>28.60000038147</ele>
        <time>2022-06-02T07:13:53.000Z</time>
      </trkpt>
      <trkpt lat="47.28143" lon="-2.35806">
        <ele>28.60000038147</ele>
        <time>2022-06-02T07:13:58.000Z</time>
      </trkpt>
      <trkpt lat="47.28159" lon="-2.35816">
        <ele>28.60000038147</ele>
        <time>2022-06-02T07:14:03.000Z</time>
      </trkpt>
      <trkpt lat="47.28172" lon="-2.35817">
        <ele>28.60000038147</ele>
        <time>2022-06-02T07:14:08.000Z</time>
      </trkpt>
      <trkpt lat="47.28174" lon="-2.3582">
        <ele>28.60000038147</ele>
        <time>2022-06-02T07:14:09.000Z</time>
      </trkpt>
      <trkpt lat="47.28178" lon="-2.35831">
        <ele>28.60000038147</ele>
        <time>2022-06-02T07:14:12.000Z</time>
      </trkpt>
      <trkpt lat="47.28188" lon="-2.35856">
        <ele>28.60000038147</ele>
        <time>2022-06-02T07:14:17.000Z</time>
      </trkpt>
      <trkpt lat="47.282" lon="-2.35882">
        <ele>28.60000038147</ele>
        <time>2022-06-02T07:14:24.000Z</time>
      </trkpt>
      <trkpt lat="47.2821" lon="-2.35888">
        <ele>28.60000038147</ele>
        <time>2022-06-02T07:14:28.000Z</time>
      </trkpt>
      <trkpt lat="47.28228" lon="-2.35894">
        <ele>29</ele>
        <time>2022-06-02T07:14:33.000Z</time>
      </trkpt>
      <trkpt lat="47.28232" lon="-2.35895">
        <ele>29.60000038147</ele>
        <time>2022-06-02T07:14:34.000Z</time>
      </trkpt>
      <trkpt lat="47.28234" lon="-2.35895">
        <ele>30</ele>
        <time>2022-06-02T07:14:35.000Z</time>
      </trkpt>
      <trkpt lat="47.28237" lon="-2.35895">
        <ele>30.39999961853</ele>
        <time>2022-06-02T07:14:36.000Z</time>
      </trkpt>
      <trkpt lat="47.2824" lon="-2.35896">
        <ele>30.799999237061</ele>
        <time>2022-06-02T07:14:37.000Z</time>
      </trkpt>
      <trkpt lat="47.28243" lon="-2.35899">
        <ele>30.799999237061</ele>
        <time>2022-06-02T07:14:39.000Z</time>
      </trkpt>
      <trkpt lat="47.28245" lon="-2.35903">
        <ele>30.799999237061</ele>
        <time>2022-06-02T07:14:40.000Z</time>
      </trkpt>
      <trkpt lat="47.28258" lon="-2.35927">
        <ele>30.799999237061</ele>
        <time>2022-06-02T07:14:46.000Z</time>
      </trkpt>
      <trkpt lat="47.28272" lon="-2.35962">
        <ele>30.799999237061</ele>
        <time>2022-06-02T07:14:52.000Z</time>
      </trkpt>
      <trkpt lat="47.28266" lon="-2.35986">
        <ele>30.799999237061</ele>
        <time>2022-06-02T07:14:56.000Z</time>
      </trkpt>
      <trkpt lat="47.28258" lon="-2.35996">
        <ele>30.799999237061</ele>
        <time>2022-06-02T07:14:58.000Z</time>
      </trkpt>
      <trkpt lat="47.28255" lon="-2.36002">
        <ele>30.39999961853</ele>
        <time>2022-06-02T07:14:59.000Z</time>
      </trkpt>
      <trkpt lat="47.28253" lon="-2.36009">
        <ele>30</ele>
        <time>2022-06-02T07:15:00.000Z</time>
      </trkpt>
      <trkpt lat="47.28251" lon="-2.36015">
        <ele>29.60000038147</ele>
        <time>2022-06-02T07:15:01.000Z</time>
      </trkpt>
      <trkpt lat="47.28249" lon="-2.36021">
        <ele>29.200000762939</ele>
        <time>2022-06-02T07:15:02.000Z</time>
      </trkpt>
      <trkpt lat="47.28248" lon="-2.36027">
        <ele>28.799999237061</ele>
        <time>2022-06-02T07:15:03.000Z</time>
      </trkpt>
      <trkpt lat="47.28247" lon="-2.36032">
        <ele>28.799999237061</ele>
        <time>2022-06-02T07:15:04.000Z</time>
      </trkpt>
      <trkpt lat="47.28246" lon="-2.36036">
        <ele>28.799999237061</ele>
        <time>2022-06-02T07:15:05.000Z</time>
      </trkpt>
      <trkpt lat="47.28244" lon="-2.36052">
        <ele>29.200000762939</ele>
        <time>2022-06-02T07:15:08.000Z</time>
      </trkpt>
      <trkpt lat="47.28244" lon="-2.36058">
        <ele>29.60000038147</ele>
        <time>2022-06-02T07:15:09.000Z</time>
      </trkpt>
      <trkpt lat="47.28243" lon="-2.36065">
        <ele>30.200000762939</ele>
        <time>2022-06-02T07:15:10.000Z</time>
      </trkpt>
      <trkpt lat="47.28243" lon="-2.36069">
        <ele>30.60000038147</ele>
        <time>2022-06-02T07:15:11.000Z</time>
      </trkpt>
      <trkpt lat="47.28241" lon="-2.36074">
        <ele>31</ele>
        <time>2022-06-02T07:15:12.000Z</time>
      </trkpt>
      <trkpt lat="47.28238" lon="-2.36097">
        <ele>31</ele>
        <time>2022-06-02T07:15:17.000Z</time>
      </trkpt>
      <trkpt lat="47.28243" lon="-2.36113">
        <ele>31</ele>
        <time>2022-06-02T07:15:20.000Z</time>
      </trkpt>
      <trkpt lat="47.28249" lon="-2.36125">
        <ele>31</ele>
        <time>2022-06-02T07:15:22.000Z</time>
      </trkpt>
      <trkpt lat="47.28262" lon="-2.36155">
        <ele>31</ele>
        <time>2022-06-02T07:15:28.000Z</time>
      </trkpt>
      <trkpt lat="47.28265" lon="-2.36181">
        <ele>31</ele>
        <time>2022-06-02T07:15:33.000Z</time>
      </trkpt>
      <trkpt lat="47.28266" lon="-2.36192">
        <ele>30.60000038147</ele>
        <time>2022-06-02T07:15:35.000Z</time>
      </trkpt>
      <trkpt lat="47.28268" lon="-2.36198">
        <ele>30.200000762939</ele>
        <time>2022-06-02T07:15:36.000Z</time>
      </trkpt>
      <trkpt lat="47.2827" lon="-2.36204">
        <ele>29.799999237061</ele>
        <time>2022-06-02T07:15:37.000Z</time>
      </trkpt>
      <trkpt lat="47.28272" lon="-2.36208">
        <ele>29.39999961853</ele>
        <time>2022-06-02T07:15:38.000Z</time>
      </trkpt>
      <trkpt lat="47.28274" lon="-2.36211">
        <ele>29</ele>
        <time>2022-06-02T07:15:39.000Z</time>
      </trkpt>
      <trkpt lat="47.28278" lon="-2.36214">
        <ele>29</ele>
        <time>2022-06-02T07:15:41.000Z</time>
      </trkpt>
      <trkpt lat="47.28286" lon="-2.36212">
        <ele>29</ele>
        <time>2022-06-02T07:15:45.000Z</time>
      </trkpt>
      <trkpt lat="47.28302" lon="-2.36207">
        <ele>29</ele>
        <time>2022-06-02T07:15:51.000Z</time>
      </trkpt>
      <trkpt lat="47.28307" lon="-2.36204">
        <ele>29.799999237061</ele>
        <time>2022-06-02T07:15:53.000Z</time>
      </trkpt>
      <trkpt lat="47.2831" lon="-2.36203">
        <ele>30.200000762939</ele>
        <time>2022-06-02T07:15:54.000Z</time>
      </trkpt>
      <trkpt lat="47.28313" lon="-2.36201">
        <ele>30.60000038147</ele>
        <time>2022-06-02T07:15:55.000Z</time>
      </trkpt>
      <trkpt lat="47.28316" lon="-2.36198">
        <ele>31</ele>
        <time>2022-06-02T07:15:56.000Z</time>
      </trkpt>
      <trkpt lat="47.28322" lon="-2.36193">
        <ele>31</ele>
        <time>2022-06-02T07:15:58.000Z</time>
      </trkpt>
      <trkpt lat="47.28331" lon="-2.36185">
        <ele>31.39999961853</ele>
        <time>2022-06-02T07:16:02.000Z</time>
      </trkpt>
      <trkpt lat="47.28334" lon="-2.36183">
        <ele>31.799999237061</ele>
        <time>2022-06-02T07:16:03.000Z</time>
      </trkpt>
      <trkpt lat="47.28337" lon="-2.36181">
        <ele>32.200000762939</ele>
        <time>2022-06-02T07:16:04.000Z</time>
      </trkpt>
      <trkpt lat="47.28339" lon="-2.36179">
        <ele>32.599998474121</ele>
        <time>2022-06-02T07:16:05.000Z</time>
      </trkpt>
      <trkpt lat="47.28341" lon="-2.36177">
        <ele>33</ele>
        <time>2022-06-02T07:16:06.000Z</time>
      </trkpt>
      <trkpt lat="47.28345" lon="-2.36174">
        <ele>33.400001525879</ele>
        <time>2022-06-02T07:16:08.000Z</time>
      </trkpt>
      <trkpt lat="47.28346" lon="-2.36173">
        <ele>34</ele>
        <time>2022-06-02T07:16:09.000Z</time>
      </trkpt>
      <trkpt lat="47.28348" lon="-2.36171">
        <ele>34.400001525879</ele>
        <time>2022-06-02T07:16:10.000Z</time>
      </trkpt>
      <trkpt lat="47.28349" lon="-2.3617">
        <ele>34.799999237061</ele>
        <time>2022-06-02T07:16:11.000Z</time>
      </trkpt>
      <trkpt lat="47.2835" lon="-2.36169">
        <ele>35.200000762939</ele>
        <time>2022-06-02T07:16:12.000Z</time>
      </trkpt>
      <trkpt lat="47.28351" lon="-2.36168">
        <ele>35.599998474121</ele>
        <time>2022-06-02T07:16:13.000Z</time>
      </trkpt>
      <trkpt lat="47.28352" lon="-2.36166">
        <ele>36</ele>
        <time>2022-06-02T07:16:14.000Z</time>
      </trkpt>
      <trkpt lat="47.28353" lon="-2.36165">
        <ele>36.400001525879</ele>
        <time>2022-06-02T07:16:15.000Z</time>
      </trkpt>
      <trkpt lat="47.28354" lon="-2.36163">
        <ele>36.799999237061</ele>
        <time>2022-06-02T07:16:16.000Z</time>
      </trkpt>
      <trkpt lat="47.28356" lon="-2.36162">
        <ele>37.200000762939</ele>
        <time>2022-06-02T07:16:17.000Z</time>
      </trkpt>
      <trkpt lat="47.28357" lon="-2.3616">
        <ele>38.200000762939</ele>
        <time>2022-06-02T07:16:18.000Z</time>
      </trkpt>
      <trkpt lat="47.28358" lon="-2.36159">
        <ele>38.599998474121</ele>
        <time>2022-06-02T07:16:19.000Z</time>
      </trkpt>
      <trkpt lat="47.28359" lon="-2.36158">
        <ele>39</ele>
        <time>2022-06-02T07:16:20.000Z</time>
      </trkpt>
      <trkpt lat="47.2836" lon="-2.36156">
        <ele>39.400001525879</ele>
        <time>2022-06-02T07:16:21.000Z</time>
      </trkpt>
      <trkpt lat="47.28361" lon="-2.36154">
        <ele>39.799999237061</ele>
        <time>2022-06-02T07:16:22.000Z</time>
      </trkpt>
      <trkpt lat="47.28361" lon="-2.36153">
        <ele>40.200000762939</ele>
        <time>2022-06-02T07:16:23.000Z</time>
      </trkpt>
      <trkpt lat="47.28362" lon="-2.36151">
        <ele>40.599998474121</ele>
        <time>2022-06-02T07:16:24.000Z</time>
      </trkpt>
      <trkpt lat="47.28364" lon="-2.36148">
        <ele>41</ele>
        <time>2022-06-02T07:16:25.000Z</time>
      </trkpt>
      <trkpt lat="47.28365" lon="-2.36146">
        <ele>41.400001525879</ele>
        <time>2022-06-02T07:16:26.000Z</time>
      </trkpt>
      <trkpt lat="47.28371" lon="-2.36134">
        <ele>41.799999237061</ele>
        <time>2022-06-02T07:16:31.000Z</time>
      </trkpt>
      <trkpt lat="47.28372" lon="-2.36131">
        <ele>42.400001525879</ele>
        <time>2022-06-02T07:16:32.000Z</time>
      </trkpt>
      <trkpt lat="47.28373" lon="-2.36129">
        <ele>42.799999237061</ele>
        <time>2022-06-02T07:16:33.000Z</time>
      </trkpt>
      <trkpt lat="47.28374" lon="-2.36126">
        <ele>43.200000762939</ele>
        <time>2022-06-02T07:16:34.000Z</time>
      </trkpt>
      <trkpt lat="47.28376" lon="-2.36124">
        <ele>43.599998474121</ele>
        <time>2022-06-02T07:16:35.000Z</time>
      </trkpt>
      <trkpt lat="47.28379" lon="-2.36115">
        <ele>43.599998474121</ele>
        <time>2022-06-02T07:16:39.000Z</time>
      </trkpt>
      <trkpt lat="47.2838" lon="-2.36112">
        <ele>43.599998474121</ele>
        <time>2022-06-02T07:16:40.000Z</time>
      </trkpt>
      <trkpt lat="47.28381" lon="-2.36107">
        <ele>44.400001525879</ele>
        <time>2022-06-02T07:16:42.000Z</time>
      </trkpt>
      <trkpt lat="47.28381" lon="-2.36104">
        <ele>44.799999237061</ele>
        <time>2022-06-02T07:16:43.000Z</time>
      </trkpt>
      <trkpt lat="47.28381" lon="-2.36101">
        <ele>45.400001525879</ele>
        <time>2022-06-02T07:16:44.000Z</time>
      </trkpt>
      <trkpt lat="47.28382" lon="-2.36099">
        <ele>45.799999237061</ele>
        <time>2022-06-02T07:16:45.000Z</time>
      </trkpt>
      <trkpt lat="47.28383" lon="-2.36079">
        <ele>45.799999237061</ele>
        <time>2022-06-02T07:16:53.000Z</time>
      </trkpt>
      <trkpt lat="47.28381" lon="-2.36062">
        <ele>45.799999237061</ele>
        <time>2022-06-02T07:17:02.000Z</time>
      </trkpt>
      <trkpt lat="47.28381" lon="-2.36058">
        <ele>45.799999237061</ele>
        <time>2022-06-02T07:17:14.000Z</time>
      </trkpt>
      <trkpt lat="47.2838" lon="-2.3605">
        <ele>45.799999237061</ele>
        <time>2022-06-02T07:17:17.000Z</time>
      </trkpt>
      <trkpt lat="47.28382" lon="-2.36043">
        <ele>45.799999237061</ele>
        <time>2022-06-02T07:17:20.000Z</time>
      </trkpt>
      <trkpt lat="47.28385" lon="-2.36041">
        <ele>45.799999237061</ele>
        <time>2022-06-02T07:17:22.000Z</time>
      </trkpt>
      <trkpt lat="47.28386" lon="-2.36041">
        <ele>45.799999237061</ele>
        <time>2022-06-02T07:17:23.000Z</time>
      </trkpt>
      <trkpt lat="47.28397" lon="-2.36029">
        <ele>45.799999237061</ele>
        <time>2022-06-02T07:17:28.000Z</time>
      </trkpt>
      <trkpt lat="47.28412" lon="-2.36014">
        <ele>45.799999237061</ele>
        <time>2022-06-02T07:17:34.000Z</time>
      </trkpt>
      <trkpt lat="47.28431" lon="-2.35996">
        <ele>45.799999237061</ele>
        <time>2022-06-02T07:17:41.000Z</time>
      </trkpt>
      <trkpt lat="47.28443" lon="-2.35997">
        <ele>45.799999237061</ele>
        <time>2022-06-02T07:17:46.000Z</time>
      </trkpt>
      <trkpt lat="47.2845" lon="-2.36008">
        <ele>46.200000762939</ele>
        <time>2022-06-02T07:17:50.000Z</time>
      </trkpt>
      <trkpt lat="47.28452" lon="-2.36011">
        <ele>46.599998474121</ele>
        <time>2022-06-02T07:17:51.000Z</time>
      </trkpt>
      <trkpt lat="47.28454" lon="-2.36014">
        <ele>47</ele>
        <time>2022-06-02T07:17:52.000Z</time>
      </trkpt>
      <trkpt lat="47.28455" lon="-2.36017">
        <ele>47.400001525879</ele>
        <time>2022-06-02T07:17:53.000Z</time>
      </trkpt>
      <trkpt lat="47.28457" lon="-2.3602">
        <ele>47.799999237061</ele>
        <time>2022-06-02T07:17:54.000Z</time>
      </trkpt>
      <trkpt lat="47.28466" lon="-2.36026">
        <ele>47.799999237061</ele>
        <time>2022-06-02T07:17:57.000Z</time>
      </trkpt>
      <trkpt lat="47.28483" lon="-2.36034">
        <ele>47.799999237061</ele>
        <time>2022-06-02T07:18:02.000Z</time>
      </trkpt>
      <trkpt lat="47.28496" lon="-2.36046">
        <ele>47.799999237061</ele>
        <time>2022-06-02T07:18:07.000Z</time>
      </trkpt>
      <trkpt lat="47.28512" lon="-2.36066">
        <ele>47.799999237061</ele>
        <time>2022-06-02T07:18:13.000Z</time>
      </trkpt>
      <trkpt lat="47.28524" lon="-2.36086">
        <ele>47.799999237061</ele>
        <time>2022-06-02T07:18:18.000Z</time>
      </trkpt>
      <trkpt lat="47.28532" lon="-2.36118">
        <ele>47.799999237061</ele>
        <time>2022-06-02T07:18:23.000Z</time>
      </trkpt>
      <trkpt lat="47.28534" lon="-2.36131">
        <ele>47.799999237061</ele>
        <time>2022-06-02T07:18:25.000Z</time>
      </trkpt>
      <trkpt lat="47.28541" lon="-2.36145">
        <ele>47.799999237061</ele>
        <time>2022-06-02T07:18:28.000Z</time>
      </trkpt>
      <trkpt lat="47.28547" lon="-2.36161">
        <ele>47.799999237061</ele>
        <time>2022-06-02T07:18:33.000Z</time>
      </trkpt>
      <trkpt lat="47.28548" lon="-2.36174">
        <ele>47.799999237061</ele>
        <time>2022-06-02T07:18:38.000Z</time>
      </trkpt>
      <trkpt lat="47.28548" lon="-2.36173">
        <ele>47.799999237061</ele>
        <time>2022-06-02T07:18:41.000Z</time>
      </trkpt>
      <trkpt lat="47.28548" lon="-2.36171">
        <ele>47.799999237061</ele>
        <time>2022-06-02T07:18:42.000Z</time>
      </trkpt>
      <trkpt lat="47.28549" lon="-2.3617">
        <ele>47.799999237061</ele>
        <time>2022-06-02T07:18:43.000Z</time>
      </trkpt>
      <trkpt lat="47.28549" lon="-2.36168">
        <ele>47.799999237061</ele>
        <time>2022-06-02T07:18:44.000Z</time>
      </trkpt>
      <trkpt lat="47.28552" lon="-2.3616">
        <ele>47.799999237061</ele>
        <time>2022-06-02T07:18:48.000Z</time>
      </trkpt>
      <trkpt lat="47.28557" lon="-2.36154">
        <ele>48.200000762939</ele>
        <time>2022-06-02T07:18:52.000Z</time>
      </trkpt>
      <trkpt lat="47.28559" lon="-2.36154">
        <ele>48.599998474121</ele>
        <time>2022-06-02T07:18:53.000Z</time>
      </trkpt>
      <trkpt lat="47.28561" lon="-2.36153">
        <ele>49</ele>
        <time>2022-06-02T07:18:54.000Z</time>
      </trkpt>
      <trkpt lat="47.28563" lon="-2.36152">
        <ele>49.400001525879</ele>
        <time>2022-06-02T07:18:55.000Z</time>
      </trkpt>
      <trkpt lat="47.28565" lon="-2.36151">
        <ele>49.799999237061</ele>
        <time>2022-06-02T07:18:56.000Z</time>
      </trkpt>
      <trkpt lat="47.28569" lon="-2.36149">
        <ele>50.400001525879</ele>
        <time>2022-06-02T07:18:58.000Z</time>
      </trkpt>
      <trkpt lat="47.2857" lon="-2.36149">
        <ele>50.799999237061</ele>
        <time>2022-06-02T07:18:59.000Z</time>
      </trkpt>
      <trkpt lat="47.28572" lon="-2.36149">
        <ele>51.200000762939</ele>
        <time>2022-06-02T07:19:00.000Z</time>
      </trkpt>
      <trkpt lat="47.28574" lon="-2.3615">
        <ele>51.599998474121</ele>
        <time>2022-06-02T07:19:01.000Z</time>
      </trkpt>
      <trkpt lat="47.28576" lon="-2.3615">
        <ele>52</ele>
        <time>2022-06-02T07:19:02.000Z</time>
      </trkpt>
      <trkpt lat="47.28584" lon="-2.36153">
        <ele>52</ele>
        <time>2022-06-02T07:19:05.000Z</time>
      </trkpt>
      <trkpt lat="47.28596" lon="-2.36156">
        <ele>52</ele>
        <time>2022-06-02T07:19:10.000Z</time>
      </trkpt>
      <trkpt lat="47.28605" lon="-2.3615">
        <ele>52</ele>
        <time>2022-06-02T07:19:16.000Z</time>
      </trkpt>
      <trkpt lat="47.28614" lon="-2.36137">
        <ele>52</ele>
        <time>2022-06-02T07:19:22.000Z</time>
      </trkpt>
      <trkpt lat="47.28616" lon="-2.36139">
        <ele>52</ele>
        <time>2022-06-02T07:19:25.000Z</time>
      </trkpt>
      <trkpt lat="47.2862" lon="-2.36146">
        <ele>52</ele>
        <time>2022-06-02T07:19:27.000Z</time>
      </trkpt>
      <trkpt lat="47.28631" lon="-2.36161">
        <ele>52</ele>
        <time>2022-06-02T07:19:30.000Z</time>
      </trkpt>
      <trkpt lat="47.28635" lon="-2.36165">
        <ele>52</ele>
        <time>2022-06-02T07:19:31.000Z</time>
      </trkpt>
      <trkpt lat="47.28649" lon="-2.36185">
        <ele>51.200000762939</ele>
        <time>2022-06-02T07:19:35.000Z</time>
      </trkpt>
      <trkpt lat="47.28651" lon="-2.3619">
        <ele>50.799999237061</ele>
        <time>2022-06-02T07:19:36.000Z</time>
      </trkpt>
      <trkpt lat="47.28652" lon="-2.36195">
        <ele>50.400001525879</ele>
        <time>2022-06-02T07:19:37.000Z</time>
      </trkpt>
      <trkpt lat="47.28653" lon="-2.36197">
        <ele>50</ele>
        <time>2022-06-02T07:19:38.000Z</time>
      </trkpt>
      <trkpt lat="47.28654" lon="-2.362">
        <ele>50</ele>
        <time>2022-06-02T07:19:40.000Z</time>
      </trkpt>
      <trkpt lat="47.28654" lon="-2.36204">
        <ele>50</ele>
        <time>2022-06-02T07:19:49.000Z</time>
      </trkpt>
      <trkpt lat="47.28653" lon="-2.36215">
        <ele>50</ele>
        <time>2022-06-02T07:19:52.000Z</time>
      </trkpt>
      <trkpt lat="47.28652" lon="-2.3622">
        <ele>50</ele>
        <time>2022-06-02T07:19:53.000Z</time>
      </trkpt>
      <trkpt lat="47.28651" lon="-2.3624">
        <ele>49.599998474121</ele>
        <time>2022-06-02T07:19:57.000Z</time>
      </trkpt>
      <trkpt lat="47.2865" lon="-2.36244">
        <ele>49.200000762939</ele>
        <time>2022-06-02T07:19:58.000Z</time>
      </trkpt>
      <trkpt lat="47.28651" lon="-2.36248">
        <ele>48.799999237061</ele>
        <time>2022-06-02T07:19:59.000Z</time>
      </trkpt>
      <trkpt lat="47.28651" lon="-2.36251">
        <ele>48</ele>
        <time>2022-06-02T07:20:00.000Z</time>
      </trkpt>
      <trkpt lat="47.28653" lon="-2.36258">
        <ele>48</ele>
        <time>2022-06-02T07:20:02.000Z</time>
      </trkpt>
      <trkpt lat="47.2866" lon="-2.36263">
        <ele>48</ele>
        <time>2022-06-02T07:20:05.000Z</time>
      </trkpt>
      <trkpt lat="47.28668" lon="-2.36265">
        <ele>48</ele>
        <time>2022-06-02T07:20:07.000Z</time>
      </trkpt>
      <trkpt lat="47.28685" lon="-2.36271">
        <ele>48</ele>
        <time>2022-06-02T07:20:10.000Z</time>
      </trkpt>
      <trkpt lat="47.2869" lon="-2.36271">
        <ele>47.599998474121</ele>
        <time>2022-06-02T07:20:11.000Z</time>
      </trkpt>
      <trkpt lat="47.28694" lon="-2.3627">
        <ele>47.200000762939</ele>
        <time>2022-06-02T07:20:12.000Z</time>
      </trkpt>
      <trkpt lat="47.28698" lon="-2.36267">
        <ele>46.799999237061</ele>
        <time>2022-06-02T07:20:13.000Z</time>
      </trkpt>
      <trkpt lat="47.28702" lon="-2.36263">
        <ele>46.400001525879</ele>
        <time>2022-06-02T07:20:14.000Z</time>
      </trkpt>
      <trkpt lat="47.28705" lon="-2.36261">
        <ele>45.799999237061</ele>
        <time>2022-06-02T07:20:15.000Z</time>
      </trkpt>
      <trkpt lat="47.28711" lon="-2.36254">
        <ele>45.400001525879</ele>
        <time>2022-06-02T07:20:19.000Z</time>
      </trkpt>
      <trkpt lat="47.28714" lon="-2.36252">
        <ele>45</ele>
        <time>2022-06-02T07:20:20.000Z</time>
      </trkpt>
      <trkpt lat="47.28715" lon="-2.3625">
        <ele>44.599998474121</ele>
        <time>2022-06-02T07:20:21.000Z</time>
      </trkpt>
      <trkpt lat="47.28716" lon="-2.36247">
        <ele>44.200000762939</ele>
        <time>2022-06-02T07:20:22.000Z</time>
      </trkpt>
      <trkpt lat="47.28718" lon="-2.36245">
        <ele>43.799999237061</ele>
        <time>2022-06-02T07:20:23.000Z</time>
      </trkpt>
      <trkpt lat="47.2872" lon="-2.36242">
        <ele>43.799999237061</ele>
        <time>2022-06-02T07:20:24.000Z</time>
      </trkpt>
      <trkpt lat="47.28743" lon="-2.36225">
        <ele>43.799999237061</ele>
        <time>2022-06-02T07:20:31.000Z</time>
      </trkpt>
      <trkpt lat="47.28768" lon="-2.36203">
        <ele>43.799999237061</ele>
        <time>2022-06-02T07:20:37.000Z</time>
      </trkpt>
      <trkpt lat="47.28774" lon="-2.362">
        <ele>43.799999237061</ele>
        <time>2022-06-02T07:20:38.000Z</time>
      </trkpt>
      <trkpt lat="47.28779" lon="-2.36198">
        <ele>43.400001525879</ele>
        <time>2022-06-02T07:20:39.000Z</time>
      </trkpt>
      <trkpt lat="47.28784" lon="-2.36195">
        <ele>43</ele>
        <time>2022-06-02T07:20:40.000Z</time>
      </trkpt>
      <trkpt lat="47.28789" lon="-2.36192">
        <ele>42.599998474121</ele>
        <time>2022-06-02T07:20:41.000Z</time>
      </trkpt>
      <trkpt lat="47.28794" lon="-2.3619">
        <ele>42.200000762939</ele>
        <time>2022-06-02T07:20:42.000Z</time>
      </trkpt>
      <trkpt lat="47.28799" lon="-2.36187">
        <ele>41.799999237061</ele>
        <time>2022-06-02T07:20:43.000Z</time>
      </trkpt>
      <trkpt lat="47.28818" lon="-2.36171">
        <ele>41.799999237061</ele>
        <time>2022-06-02T07:20:47.000Z</time>
      </trkpt>
      <trkpt lat="47.28834" lon="-2.36146">
        <ele>41.799999237061</ele>
        <time>2022-06-02T07:20:52.000Z</time>
      </trkpt>
      <trkpt lat="47.28858" lon="-2.3612">
        <ele>41.799999237061</ele>
        <time>2022-06-02T07:20:58.000Z</time>
      </trkpt>
      <trkpt lat="47.28885" lon="-2.36093">
        <ele>41.799999237061</ele>
        <time>2022-06-02T07:21:05.000Z</time>
      </trkpt>
      <trkpt lat="47.28907" lon="-2.36073">
        <ele>41.799999237061</ele>
        <time>2022-06-02T07:21:11.000Z</time>
      </trkpt>
      <trkpt lat="47.28932" lon="-2.36055">
        <ele>41.799999237061</ele>
        <time>2022-06-02T07:21:17.000Z</time>
      </trkpt>
      <trkpt lat="47.28959" lon="-2.36037">
        <ele>41.799999237061</ele>
        <time>2022-06-02T07:21:23.000Z</time>
      </trkpt>
      <trkpt lat="47.28993" lon="-2.36004">
        <ele>41.799999237061</ele>
        <time>2022-06-02T07:21:31.000Z</time>
      </trkpt>
      <trkpt lat="47.29027" lon="-2.35969">
        <ele>41.799999237061</ele>
        <time>2022-06-02T07:21:39.000Z</time>
      </trkpt>
      <trkpt lat="47.29061" lon="-2.3593">
        <ele>41.799999237061</ele>
        <time>2022-06-02T07:21:47.000Z</time>
      </trkpt>
      <trkpt lat="47.29106" lon="-2.35881">
        <ele>41.799999237061</ele>
        <time>2022-06-02T07:21:57.000Z</time>
      </trkpt>
      <trkpt lat="47.2911" lon="-2.35877">
        <ele>41.799999237061</ele>
        <time>2022-06-02T07:21:58.000Z</time>
      </trkpt>
      <trkpt lat="47.29121" lon="-2.35863">
        <ele>41.799999237061</ele>
        <time>2022-06-02T07:22:01.000Z</time>
      </trkpt>
      <trkpt lat="47.29137" lon="-2.35846">
        <ele>41.799999237061</ele>
        <time>2022-06-02T07:22:05.000Z</time>
      </trkpt>
      <trkpt lat="47.29165" lon="-2.35819">
        <ele>41.799999237061</ele>
        <time>2022-06-02T07:22:12.000Z</time>
      </trkpt>
      <trkpt lat="47.2918" lon="-2.35811">
        <ele>41.799999237061</ele>
        <time>2022-06-02T07:22:15.000Z</time>
      </trkpt>
      <trkpt lat="47.29193" lon="-2.35804">
        <ele>41.799999237061</ele>
        <time>2022-06-02T07:22:18.000Z</time>
      </trkpt>
      <trkpt lat="47.29225" lon="-2.35778">
        <ele>41.799999237061</ele>
        <time>2022-06-02T07:22:26.000Z</time>
      </trkpt>
      <trkpt lat="47.29249" lon="-2.35744">
        <ele>41.799999237061</ele>
        <time>2022-06-02T07:22:33.000Z</time>
      </trkpt>
      <trkpt lat="47.29258" lon="-2.3573">
        <ele>41.799999237061</ele>
        <time>2022-06-02T07:22:37.000Z</time>
      </trkpt>
      <trkpt lat="47.29268" lon="-2.35734">
        <ele>41.799999237061</ele>
        <time>2022-06-02T07:22:40.000Z</time>
      </trkpt>
      <trkpt lat="47.29276" lon="-2.35741">
        <ele>41.799999237061</ele>
        <time>2022-06-02T07:22:42.000Z</time>
      </trkpt>
      <trkpt lat="47.29289" lon="-2.35753">
        <ele>41.799999237061</ele>
        <time>2022-06-02T07:22:45.000Z</time>
      </trkpt>
      <trkpt lat="47.29323" lon="-2.35784">
        <ele>41.799999237061</ele>
        <time>2022-06-02T07:22:52.000Z</time>
      </trkpt>
      <trkpt lat="47.29356" lon="-2.35817">
        <ele>41.799999237061</ele>
        <time>2022-06-02T07:22:59.000Z</time>
      </trkpt>
      <trkpt lat="47.29375" lon="-2.35835">
        <ele>41.799999237061</ele>
        <time>2022-06-02T07:23:03.000Z</time>
      </trkpt>
      <trkpt lat="47.29384" lon="-2.35844">
        <ele>41.799999237061</ele>
        <time>2022-06-02T07:23:05.000Z</time>
      </trkpt>
      <trkpt lat="47.29411" lon="-2.35873">
        <ele>41.799999237061</ele>
        <time>2022-06-02T07:23:12.000Z</time>
      </trkpt>
      <trkpt lat="47.29436" lon="-2.35903">
        <ele>41.799999237061</ele>
        <time>2022-06-02T07:23:18.000Z</time>
      </trkpt>
      <trkpt lat="47.29453" lon="-2.35907">
        <ele>41.799999237061</ele>
        <time>2022-06-02T07:23:22.000Z</time>
      </trkpt>
      <trkpt lat="47.29456" lon="-2.35906">
        <ele>41.799999237061</ele>
        <time>2022-06-02T07:23:23.000Z</time>
      </trkpt>
      <trkpt lat="47.2948" lon="-2.35904">
        <ele>41.799999237061</ele>
        <time>2022-06-02T07:23:29.000Z</time>
      </trkpt>
      <trkpt lat="47.29493" lon="-2.35902">
        <ele>42.200000762939</ele>
        <time>2022-06-02T07:23:32.000Z</time>
      </trkpt>
      <trkpt lat="47.29497" lon="-2.35902">
        <ele>42.599998474121</ele>
        <time>2022-06-02T07:23:33.000Z</time>
      </trkpt>
      <trkpt lat="47.295" lon="-2.35906">
        <ele>43</ele>
        <time>2022-06-02T07:23:34.000Z</time>
      </trkpt>
      <trkpt lat="47.29503" lon="-2.3591">
        <ele>43.400001525879</ele>
        <time>2022-06-02T07:23:35.000Z</time>
      </trkpt>
      <trkpt lat="47.29505" lon="-2.35916">
        <ele>43.799999237061</ele>
        <time>2022-06-02T07:23:36.000Z</time>
      </trkpt>
      <trkpt lat="47.29507" lon="-2.35922">
        <ele>43.799999237061</ele>
        <time>2022-06-02T07:23:37.000Z</time>
      </trkpt>
      <trkpt lat="47.29509" lon="-2.35934">
        <ele>43.799999237061</ele>
        <time>2022-06-02T07:23:39.000Z</time>
      </trkpt>
      <trkpt lat="47.29516" lon="-2.35943">
        <ele>43.799999237061</ele>
        <time>2022-06-02T07:23:42.000Z</time>
      </trkpt>
      <trkpt lat="47.29525" lon="-2.35937">
        <ele>43.799999237061</ele>
        <time>2022-06-02T07:23:45.000Z</time>
      </trkpt>
      <trkpt lat="47.29529" lon="-2.35935">
        <ele>43.799999237061</ele>
        <time>2022-06-02T07:23:46.000Z</time>
      </trkpt>
      <trkpt lat="47.29547" lon="-2.35926">
        <ele>43.799999237061</ele>
        <time>2022-06-02T07:23:50.000Z</time>
      </trkpt>
      <trkpt lat="47.29575" lon="-2.35909">
        <ele>43.799999237061</ele>
        <time>2022-06-02T07:23:56.000Z</time>
      </trkpt>
      <trkpt lat="47.29602" lon="-2.35893">
        <ele>43.799999237061</ele>
        <time>2022-06-02T07:24:02.000Z</time>
      </trkpt>
      <trkpt lat="47.2963" lon="-2.35877">
        <ele>43.799999237061</ele>
        <time>2022-06-02T07:24:08.000Z</time>
      </trkpt>
      <trkpt lat="47.29648" lon="-2.35863">
        <ele>43.799999237061</ele>
        <time>2022-06-02T07:24:12.000Z</time>
      </trkpt>
      <trkpt lat="47.29652" lon="-2.35856">
        <ele>43.799999237061</ele>
        <time>2022-06-02T07:24:13.000Z</time>
      </trkpt>
      <trkpt lat="47.2966" lon="-2.3584">
        <ele>43.799999237061</ele>
        <time>2022-06-02T07:24:16.000Z</time>
      </trkpt>
      <trkpt lat="47.29664" lon="-2.35838">
        <ele>43.799999237061</ele>
        <time>2022-06-02T07:24:17.000Z</time>
      </trkpt>
      <trkpt lat="47.29679" lon="-2.35839">
        <ele>43.799999237061</ele>
        <time>2022-06-02T07:24:20.000Z</time>
      </trkpt>
      <trkpt lat="47.29684" lon="-2.3584">
        <ele>43.799999237061</ele>
        <time>2022-06-02T07:24:21.000Z</time>
      </trkpt>
      <trkpt lat="47.29696" lon="-2.35839">
        <ele>43.799999237061</ele>
        <time>2022-06-02T07:24:23.000Z</time>
      </trkpt>
      <trkpt lat="47.29707" lon="-2.35834">
        <ele>43.799999237061</ele>
        <time>2022-06-02T07:24:25.000Z</time>
      </trkpt>
      <trkpt lat="47.29738" lon="-2.35815">
        <ele>44.400001525879</ele>
        <time>2022-06-02T07:24:31.000Z</time>
      </trkpt>
      <trkpt lat="47.29743" lon="-2.35812">
        <ele>44.799999237061</ele>
        <time>2022-06-02T07:24:32.000Z</time>
      </trkpt>
      <trkpt lat="47.29747" lon="-2.3581">
        <ele>45.200000762939</ele>
        <time>2022-06-02T07:24:33.000Z</time>
      </trkpt>
      <trkpt lat="47.29752" lon="-2.35808">
        <ele>45.599998474121</ele>
        <time>2022-06-02T07:24:34.000Z</time>
      </trkpt>
      <trkpt lat="47.29757" lon="-2.35806">
        <ele>46</ele>
        <time>2022-06-02T07:24:35.000Z</time>
      </trkpt>
      <trkpt lat="47.29771" lon="-2.358">
        <ele>46</ele>
        <time>2022-06-02T07:24:38.000Z</time>
      </trkpt>
      <trkpt lat="47.29814" lon="-2.35784">
        <ele>46</ele>
        <time>2022-06-02T07:24:47.000Z</time>
      </trkpt>
      <trkpt lat="47.29856" lon="-2.3577">
        <ele>46</ele>
        <time>2022-06-02T07:24:54.000Z</time>
      </trkpt>
      <trkpt lat="47.29897" lon="-2.35751">
        <ele>46</ele>
        <time>2022-06-02T07:25:01.000Z</time>
      </trkpt>
      <trkpt lat="47.29925" lon="-2.3573">
        <ele>46</ele>
        <time>2022-06-02T07:25:07.000Z</time>
      </trkpt>
      <trkpt lat="47.2996" lon="-2.35703">
        <ele>46</ele>
        <time>2022-06-02T07:25:14.000Z</time>
      </trkpt>
      <trkpt lat="47.29997" lon="-2.3568">
        <ele>46</ele>
        <time>2022-06-02T07:25:21.000Z</time>
      </trkpt>
      <trkpt lat="47.30032" lon="-2.35661">
        <ele>46.400001525879</ele>
        <time>2022-06-02T07:25:28.000Z</time>
      </trkpt>
      <trkpt lat="47.30037" lon="-2.35658">
        <ele>47</ele>
        <time>2022-06-02T07:25:29.000Z</time>
      </trkpt>
      <trkpt lat="47.30042" lon="-2.35654">
        <ele>47.400001525879</ele>
        <time>2022-06-02T07:25:30.000Z</time>
      </trkpt>
      <trkpt lat="47.30047" lon="-2.35651">
        <ele>47.799999237061</ele>
        <time>2022-06-02T07:25:31.000Z</time>
      </trkpt>
      <trkpt lat="47.30052" lon="-2.35648">
        <ele>48.200000762939</ele>
        <time>2022-06-02T07:25:32.000Z</time>
      </trkpt>
      <trkpt lat="47.30067" lon="-2.35639">
        <ele>48.200000762939</ele>
        <time>2022-06-02T07:25:35.000Z</time>
      </trkpt>
      <trkpt lat="47.30105" lon="-2.35616">
        <ele>48.200000762939</ele>
        <time>2022-06-02T07:25:43.000Z</time>
      </trkpt>
      <trkpt lat="47.30118" lon="-2.35606">
        <ele>48.200000762939</ele>
        <time>2022-06-02T07:25:46.000Z</time>
      </trkpt>
      <trkpt lat="47.30131" lon="-2.35597">
        <ele>48.200000762939</ele>
        <time>2022-06-02T07:25:49.000Z</time>
      </trkpt>
      <trkpt lat="47.30137" lon="-2.35605">
        <ele>48.200000762939</ele>
        <time>2022-06-02T07:25:51.000Z</time>
      </trkpt>
      <trkpt lat="47.30134" lon="-2.35625">
        <ele>48.200000762939</ele>
        <time>2022-06-02T07:25:54.000Z</time>
      </trkpt>
      <trkpt lat="47.30132" lon="-2.35648">
        <ele>48.200000762939</ele>
        <time>2022-06-02T07:25:57.000Z</time>
      </trkpt>
      <trkpt lat="47.30133" lon="-2.35656">
        <ele>48.200000762939</ele>
        <time>2022-06-02T07:25:58.000Z</time>
      </trkpt>
      <trkpt lat="47.30134" lon="-2.35664">
        <ele>48.599998474121</ele>
        <time>2022-06-02T07:25:59.000Z</time>
      </trkpt>
      <trkpt lat="47.30134" lon="-2.35672">
        <ele>49</ele>
        <time>2022-06-02T07:26:00.000Z</time>
      </trkpt>
      <trkpt lat="47.30135" lon="-2.35679">
        <ele>49.400001525879</ele>
        <time>2022-06-02T07:26:01.000Z</time>
      </trkpt>
      <trkpt lat="47.30135" lon="-2.35687">
        <ele>49.799999237061</ele>
        <time>2022-06-02T07:26:02.000Z</time>
      </trkpt>
      <trkpt lat="47.30135" lon="-2.35696">
        <ele>50.200000762939</ele>
        <time>2022-06-02T07:26:03.000Z</time>
      </trkpt>
      <trkpt lat="47.30136" lon="-2.35713">
        <ele>50.200000762939</ele>
        <time>2022-06-02T07:26:05.000Z</time>
      </trkpt>
      <trkpt lat="47.3014" lon="-2.35775">
        <ele>50.200000762939</ele>
        <time>2022-06-02T07:26:11.000Z</time>
      </trkpt>
      <trkpt lat="47.3014" lon="-2.35822">
        <ele>49.799999237061</ele>
        <time>2022-06-02T07:26:15.000Z</time>
      </trkpt>
      <trkpt lat="47.30139" lon="-2.35835">
        <ele>49.200000762939</ele>
        <time>2022-06-02T07:26:16.000Z</time>
      </trkpt>
      <trkpt lat="47.30138" lon="-2.35847">
        <ele>48.799999237061</ele>
        <time>2022-06-02T07:26:17.000Z</time>
      </trkpt>
      <trkpt lat="47.30136" lon="-2.35859">
        <ele>48.400001525879</ele>
        <time>2022-06-02T07:26:18.000Z</time>
      </trkpt>
      <trkpt lat="47.30133" lon="-2.35872">
        <ele>48</ele>
        <time>2022-06-02T07:26:19.000Z</time>
      </trkpt>
      <trkpt lat="47.30128" lon="-2.35897">
        <ele>47.400001525879</ele>
        <time>2022-06-02T07:26:21.000Z</time>
      </trkpt>
      <trkpt lat="47.30126" lon="-2.35909">
        <ele>47</ele>
        <time>2022-06-02T07:26:22.000Z</time>
      </trkpt>
      <trkpt lat="47.30123" lon="-2.35921">
        <ele>46.599998474121</ele>
        <time>2022-06-02T07:26:23.000Z</time>
      </trkpt>
      <trkpt lat="47.30121" lon="-2.35934">
        <ele>46</ele>
        <time>2022-06-02T07:26:24.000Z</time>
      </trkpt>
      <trkpt lat="47.30118" lon="-2.35945">
        <ele>45.599998474121</ele>
        <time>2022-06-02T07:26:25.000Z</time>
      </trkpt>
      <trkpt lat="47.30107" lon="-2.36006">
        <ele>45.200000762939</ele>
        <time>2022-06-02T07:26:30.000Z</time>
      </trkpt>
      <trkpt lat="47.30106" lon="-2.36017">
        <ele>44.799999237061</ele>
        <time>2022-06-02T07:26:31.000Z</time>
      </trkpt>
      <trkpt lat="47.30104" lon="-2.36029">
        <ele>44.400001525879</ele>
        <time>2022-06-02T07:26:32.000Z</time>
      </trkpt>
      <trkpt lat="47.30103" lon="-2.36041">
        <ele>44</ele>
        <time>2022-06-02T07:26:33.000Z</time>
      </trkpt>
      <trkpt lat="47.30102" lon="-2.36052">
        <ele>43.400001525879</ele>
        <time>2022-06-02T07:26:34.000Z</time>
      </trkpt>
      <trkpt lat="47.30098" lon="-2.36086">
        <ele>43.400001525879</ele>
        <time>2022-06-02T07:26:37.000Z</time>
      </trkpt>
      <trkpt lat="47.30091" lon="-2.36147">
        <ele>43.400001525879</ele>
        <time>2022-06-02T07:26:43.000Z</time>
      </trkpt>
      <trkpt lat="47.30087" lon="-2.36209">
        <ele>43.400001525879</ele>
        <time>2022-06-02T07:26:50.000Z</time>
      </trkpt>
      <trkpt lat="47.30089" lon="-2.36257">
        <ele>43.400001525879</ele>
        <time>2022-06-02T07:26:56.000Z</time>
      </trkpt>
      <trkpt lat="47.30091" lon="-2.36273">
        <ele>43.400001525879</ele>
        <time>2022-06-02T07:26:58.000Z</time>
      </trkpt>
      <trkpt lat="47.30092" lon="-2.36281">
        <ele>44</ele>
        <time>2022-06-02T07:26:59.000Z</time>
      </trkpt>
      <trkpt lat="47.30093" lon="-2.36289">
        <ele>44.400001525879</ele>
        <time>2022-06-02T07:27:00.000Z</time>
      </trkpt>
      <trkpt lat="47.30093" lon="-2.36296">
        <ele>44.799999237061</ele>
        <time>2022-06-02T07:27:01.000Z</time>
      </trkpt>
      <trkpt lat="47.30093" lon="-2.36304">
        <ele>45.200000762939</ele>
        <time>2022-06-02T07:27:02.000Z</time>
      </trkpt>
      <trkpt lat="47.30094" lon="-2.36311">
        <ele>45.599998474121</ele>
        <time>2022-06-02T07:27:03.000Z</time>
      </trkpt>
      <trkpt lat="47.30098" lon="-2.36357">
        <ele>45.599998474121</ele>
        <time>2022-06-02T07:27:09.000Z</time>
      </trkpt>
      <trkpt lat="47.30105" lon="-2.36428">
        <ele>46</ele>
        <time>2022-06-02T07:27:18.000Z</time>
      </trkpt>
      <trkpt lat="47.30106" lon="-2.36436">
        <ele>46.400001525879</ele>
        <time>2022-06-02T07:27:19.000Z</time>
      </trkpt>
      <trkpt lat="47.30107" lon="-2.36444">
        <ele>47</ele>
        <time>2022-06-02T07:27:20.000Z</time>
      </trkpt>
      <trkpt lat="47.30108" lon="-2.36452">
        <ele>47.400001525879</ele>
        <time>2022-06-02T07:27:21.000Z</time>
      </trkpt>
      <trkpt lat="47.30109" lon="-2.3646">
        <ele>47.799999237061</ele>
        <time>2022-06-02T07:27:22.000Z</time>
      </trkpt>
      <trkpt lat="47.30114" lon="-2.36491">
        <ele>47.799999237061</ele>
        <time>2022-06-02T07:27:26.000Z</time>
      </trkpt>
      <trkpt lat="47.30121" lon="-2.36545">
        <ele>47.799999237061</ele>
        <time>2022-06-02T07:27:33.000Z</time>
      </trkpt>
      <trkpt lat="47.30124" lon="-2.36569">
        <ele>48.200000762939</ele>
        <time>2022-06-02T07:27:36.000Z</time>
      </trkpt>
      <trkpt lat="47.30126" lon="-2.36576">
        <ele>48.599998474121</ele>
        <time>2022-06-02T07:27:37.000Z</time>
      </trkpt>
      <trkpt lat="47.30127" lon="-2.36584">
        <ele>49</ele>
        <time>2022-06-02T07:27:38.000Z</time>
      </trkpt>
      <trkpt lat="47.30128" lon="-2.36592">
        <ele>49.400001525879</ele>
        <time>2022-06-02T07:27:39.000Z</time>
      </trkpt>
      <trkpt lat="47.30129" lon="-2.36599">
        <ele>49.799999237061</ele>
        <time>2022-06-02T07:27:40.000Z</time>
      </trkpt>
      <trkpt lat="47.30131" lon="-2.36607">
        <ele>49.799999237061</ele>
        <time>2022-06-02T07:27:41.000Z</time>
      </trkpt>
      <trkpt lat="47.30146" lon="-2.36647">
        <ele>49.799999237061</ele>
        <time>2022-06-02T07:27:47.000Z</time>
      </trkpt>
      <trkpt lat="47.30156" lon="-2.36668">
        <ele>50.200000762939</ele>
        <time>2022-06-02T07:27:51.000Z</time>
      </trkpt>
      <trkpt lat="47.30158" lon="-2.36672">
        <ele>50.599998474121</ele>
        <time>2022-06-02T07:27:52.000Z</time>
      </trkpt>
      <trkpt lat="47.30161" lon="-2.36677">
        <ele>51</ele>
        <time>2022-06-02T07:27:53.000Z</time>
      </trkpt>
      <trkpt lat="47.30163" lon="-2.3668">
        <ele>51.400001525879</ele>
        <time>2022-06-02T07:27:54.000Z</time>
      </trkpt>
      <trkpt lat="47.30166" lon="-2.36683">
        <ele>51.799999237061</ele>
        <time>2022-06-02T07:27:55.000Z</time>
      </trkpt>
      <trkpt lat="47.30171" lon="-2.36685">
        <ele>51.799999237061</ele>
        <time>2022-06-02T07:27:57.000Z</time>
      </trkpt>
      <trkpt lat="47.30176" lon="-2.36684">
        <ele>51.799999237061</ele>
        <time>2022-06-02T07:28:01.000Z</time>
      </trkpt>
      <trkpt lat="47.30176" lon="-2.36684">
        <ele>51.799999237061</ele>
        <time>2022-06-02T07:28:02.000Z</time>
      </trkpt>
      <trkpt lat="47.30181" lon="-2.36681">
        <ele>54</ele>
        <time>2022-06-02T07:29:11.000Z</time>
      </trkpt>
      <trkpt lat="47.30183" lon="-2.3668">
        <ele>54</ele>
        <time>2022-06-02T07:29:12.000Z</time>
      </trkpt>
      <trkpt lat="47.30185" lon="-2.36679">
        <ele>54</ele>
        <time>2022-06-02T07:29:13.000Z</time>
      </trkpt>
      <trkpt lat="47.30196" lon="-2.36676">
        <ele>54</ele>
        <time>2022-06-02T07:29:16.000Z</time>
      </trkpt>
      <trkpt lat="47.30203" lon="-2.36675">
        <ele>54</ele>
        <time>2022-06-02T07:29:18.000Z</time>
      </trkpt>
      <trkpt lat="47.30231" lon="-2.36671">
        <ele>54</ele>
        <time>2022-06-02T07:29:24.000Z</time>
      </trkpt>
      <trkpt lat="47.3026" lon="-2.36664">
        <ele>54</ele>
        <time>2022-06-02T07:29:30.000Z</time>
      </trkpt>
      <trkpt lat="47.30288" lon="-2.36652">
        <ele>54</ele>
        <time>2022-06-02T07:29:36.000Z</time>
      </trkpt>
      <trkpt lat="47.30298" lon="-2.36648">
        <ele>54</ele>
        <time>2022-06-02T07:29:38.000Z</time>
      </trkpt>
      <trkpt lat="47.30312" lon="-2.36647">
        <ele>54</ele>
        <time>2022-06-02T07:29:41.000Z</time>
      </trkpt>
      <trkpt lat="47.30321" lon="-2.36649">
        <ele>54</ele>
        <time>2022-06-02T07:29:43.000Z</time>
      </trkpt>
      <trkpt lat="47.30338" lon="-2.36653">
        <ele>54</ele>
        <time>2022-06-02T07:29:47.000Z</time>
      </trkpt>
      <trkpt lat="47.30348" lon="-2.36654">
        <ele>54</ele>
        <time>2022-06-02T07:29:49.000Z</time>
      </trkpt>
      <trkpt lat="47.30358" lon="-2.36655">
        <ele>54</ele>
        <time>2022-06-02T07:29:51.000Z</time>
      </trkpt>
      <trkpt lat="47.30368" lon="-2.36656">
        <ele>54.400001525879</ele>
        <time>2022-06-02T07:29:53.000Z</time>
      </trkpt>
      <trkpt lat="47.30373" lon="-2.36657">
        <ele>54.799999237061</ele>
        <time>2022-06-02T07:29:54.000Z</time>
      </trkpt>
      <trkpt lat="47.30377" lon="-2.36657">
        <ele>55.200000762939</ele>
        <time>2022-06-02T07:29:55.000Z</time>
      </trkpt>
      <trkpt lat="47.30382" lon="-2.36657">
        <ele>55.799999237061</ele>
        <time>2022-06-02T07:29:56.000Z</time>
      </trkpt>
      <trkpt lat="47.30386" lon="-2.36657">
        <ele>56.200000762939</ele>
        <time>2022-06-02T07:29:57.000Z</time>
      </trkpt>
      <trkpt lat="47.30391" lon="-2.36656">
        <ele>56.200000762939</ele>
        <time>2022-06-02T07:29:58.000Z</time>
      </trkpt>
      <trkpt lat="47.30418" lon="-2.3665">
        <ele>56.200000762939</ele>
        <time>2022-06-02T07:30:04.000Z</time>
      </trkpt>
      <trkpt lat="47.30439" lon="-2.36631">
        <ele>56.200000762939</ele>
        <time>2022-06-02T07:30:09.000Z</time>
      </trkpt>
      <trkpt lat="47.30473" lon="-2.36605">
        <ele>56.200000762939</ele>
        <time>2022-06-02T07:30:17.000Z</time>
      </trkpt>
      <trkpt lat="47.30477" lon="-2.36603">
        <ele>56.200000762939</ele>
        <time>2022-06-02T07:30:18.000Z</time>
      </trkpt>
      <trkpt lat="47.30487" lon="-2.36599">
        <ele>56.200000762939</ele>
        <time>2022-06-02T07:30:21.000Z</time>
      </trkpt>
      <trkpt lat="47.30517" lon="-2.36591">
        <ele>56.200000762939</ele>
        <time>2022-06-02T07:30:28.000Z</time>
      </trkpt>
      <trkpt lat="47.30529" lon="-2.36584">
        <ele>56.200000762939</ele>
        <time>2022-06-02T07:30:31.000Z</time>
      </trkpt>
      <trkpt lat="47.30542" lon="-2.36573">
        <ele>56.200000762939</ele>
        <time>2022-06-02T07:30:34.000Z</time>
      </trkpt>
      <trkpt lat="47.30563" lon="-2.36555">
        <ele>56.200000762939</ele>
        <time>2022-06-02T07:30:39.000Z</time>
      </trkpt>
      <trkpt lat="47.30573" lon="-2.36551">
        <ele>56.200000762939</ele>
        <time>2022-06-02T07:30:41.000Z</time>
      </trkpt>
      <trkpt lat="47.30592" lon="-2.36546">
        <ele>56.200000762939</ele>
        <time>2022-06-02T07:30:45.000Z</time>
      </trkpt>
      <trkpt lat="47.30598" lon="-2.36545">
        <ele>56.200000762939</ele>
        <time>2022-06-02T07:30:46.000Z</time>
      </trkpt>
      <trkpt lat="47.30636" lon="-2.36535">
        <ele>56.200000762939</ele>
        <time>2022-06-02T07:30:54.000Z</time>
      </trkpt>
      <trkpt lat="47.3066" lon="-2.36521">
        <ele>56.599998474121</ele>
        <time>2022-06-02T07:30:59.000Z</time>
      </trkpt>
      <trkpt lat="47.30665" lon="-2.36518">
        <ele>57</ele>
        <time>2022-06-02T07:31:00.000Z</time>
      </trkpt>
      <trkpt lat="47.30669" lon="-2.36517">
        <ele>57.400001525879</ele>
        <time>2022-06-02T07:31:01.000Z</time>
      </trkpt>
      <trkpt lat="47.30674" lon="-2.36515">
        <ele>57.799999237061</ele>
        <time>2022-06-02T07:31:02.000Z</time>
      </trkpt>
      <trkpt lat="47.30679" lon="-2.36512">
        <ele>58.200000762939</ele>
        <time>2022-06-02T07:31:03.000Z</time>
      </trkpt>
      <trkpt lat="47.30689" lon="-2.36511">
        <ele>58.200000762939</ele>
        <time>2022-06-02T07:31:05.000Z</time>
      </trkpt>
      <trkpt lat="47.30692" lon="-2.36515">
        <ele>58.200000762939</ele>
        <time>2022-06-02T07:31:06.000Z</time>
      </trkpt>
      <trkpt lat="47.30701" lon="-2.36519">
        <ele>58.200000762939</ele>
        <time>2022-06-02T07:31:09.000Z</time>
      </trkpt>
      <trkpt lat="47.30713" lon="-2.36507">
        <ele>58.200000762939</ele>
        <time>2022-06-02T07:31:12.000Z</time>
      </trkpt>
      <trkpt lat="47.30718" lon="-2.36502">
        <ele>58.200000762939</ele>
        <time>2022-06-02T07:31:13.000Z</time>
      </trkpt>
      <trkpt lat="47.30723" lon="-2.36499">
        <ele>57.799999237061</ele>
        <time>2022-06-02T07:31:14.000Z</time>
      </trkpt>
      <trkpt lat="47.30728" lon="-2.36496">
        <ele>57.400001525879</ele>
        <time>2022-06-02T07:31:15.000Z</time>
      </trkpt>
      <trkpt lat="47.30734" lon="-2.36494">
        <ele>57</ele>
        <time>2022-06-02T07:31:16.000Z</time>
      </trkpt>
      <trkpt lat="47.3074" lon="-2.36492">
        <ele>56.599998474121</ele>
        <time>2022-06-02T07:31:17.000Z</time>
      </trkpt>
      <trkpt lat="47.30746" lon="-2.36489">
        <ele>56.200000762939</ele>
        <time>2022-06-02T07:31:18.000Z</time>
      </trkpt>
      <trkpt lat="47.3079" lon="-2.36476">
        <ele>56.200000762939</ele>
        <time>2022-06-02T07:31:25.000Z</time>
      </trkpt>
      <trkpt lat="47.30815" lon="-2.36474">
        <ele>55.799999237061</ele>
        <time>2022-06-02T07:31:29.000Z</time>
      </trkpt>
      <trkpt lat="47.3082" lon="-2.36478">
        <ele>54.799999237061</ele>
        <time>2022-06-02T07:31:30.000Z</time>
      </trkpt>
      <trkpt lat="47.30825" lon="-2.36482">
        <ele>54.400001525879</ele>
        <time>2022-06-02T07:31:31.000Z</time>
      </trkpt>
      <trkpt lat="47.3083" lon="-2.36486">
        <ele>54</ele>
        <time>2022-06-02T07:31:32.000Z</time>
      </trkpt>
      <trkpt lat="47.30848" lon="-2.36485">
        <ele>54</ele>
        <time>2022-06-02T07:31:35.000Z</time>
      </trkpt>
      <trkpt lat="47.30872" lon="-2.36479">
        <ele>54</ele>
        <time>2022-06-02T07:31:39.000Z</time>
      </trkpt>
      <trkpt lat="47.30878" lon="-2.36477">
        <ele>54</ele>
        <time>2022-06-02T07:31:40.000Z</time>
      </trkpt>
      <trkpt lat="47.30908" lon="-2.36468">
        <ele>54</ele>
        <time>2022-06-02T07:31:45.000Z</time>
      </trkpt>
      <trkpt lat="47.30936" lon="-2.3646">
        <ele>54</ele>
        <time>2022-06-02T07:31:50.000Z</time>
      </trkpt>
      <trkpt lat="47.30968" lon="-2.36447">
        <ele>54</ele>
        <time>2022-06-02T07:31:56.000Z</time>
      </trkpt>
      <trkpt lat="47.30995" lon="-2.36431">
        <ele>54</ele>
        <time>2022-06-02T07:32:01.000Z</time>
      </trkpt>
      <trkpt lat="47.31028" lon="-2.36422">
        <ele>54</ele>
        <time>2022-06-02T07:32:06.000Z</time>
      </trkpt>
      <trkpt lat="47.31068" lon="-2.36417">
        <ele>53.599998474121</ele>
        <time>2022-06-02T07:32:12.000Z</time>
      </trkpt>
      <trkpt lat="47.31073" lon="-2.36417">
        <ele>53.200000762939</ele>
        <time>2022-06-02T07:32:13.000Z</time>
      </trkpt>
      <trkpt lat="47.31078" lon="-2.36416">
        <ele>52.799999237061</ele>
        <time>2022-06-02T07:32:14.000Z</time>
      </trkpt>
      <trkpt lat="47.31083" lon="-2.36417">
        <ele>52.400001525879</ele>
        <time>2022-06-02T07:32:15.000Z</time>
      </trkpt>
      <trkpt lat="47.31086" lon="-2.36417">
        <ele>52</ele>
        <time>2022-06-02T07:32:16.000Z</time>
      </trkpt>
      <trkpt lat="47.31094" lon="-2.36415">
        <ele>52</ele>
        <time>2022-06-02T07:32:18.000Z</time>
      </trkpt>
      <trkpt lat="47.31105" lon="-2.36411">
        <ele>52</ele>
        <time>2022-06-02T07:32:20.000Z</time>
      </trkpt>
      <trkpt lat="47.31139" lon="-2.36391">
        <ele>52</ele>
        <time>2022-06-02T07:32:26.000Z</time>
      </trkpt>
      <trkpt lat="47.31182" lon="-2.3636">
        <ele>52</ele>
        <time>2022-06-02T07:32:34.000Z</time>
      </trkpt>
      <trkpt lat="47.31216" lon="-2.36342">
        <ele>52</ele>
        <time>2022-06-02T07:32:40.000Z</time>
      </trkpt>
      <trkpt lat="47.31221" lon="-2.36339">
        <ele>52</ele>
        <time>2022-06-02T07:32:41.000Z</time>
      </trkpt>
      <trkpt lat="47.31244" lon="-2.36326">
        <ele>52</ele>
        <time>2022-06-02T07:32:45.000Z</time>
      </trkpt>
      <trkpt lat="47.31249" lon="-2.36323">
        <ele>52</ele>
        <time>2022-06-02T07:32:46.000Z</time>
      </trkpt>
      <trkpt lat="47.31279" lon="-2.36304">
        <ele>52.400001525879</ele>
        <time>2022-06-02T07:32:52.000Z</time>
      </trkpt>
      <trkpt lat="47.31284" lon="-2.36302">
        <ele>52.799999237061</ele>
        <time>2022-06-02T07:32:53.000Z</time>
      </trkpt>
      <trkpt lat="47.31289" lon="-2.363">
        <ele>53.200000762939</ele>
        <time>2022-06-02T07:32:54.000Z</time>
      </trkpt>
      <trkpt lat="47.31294" lon="-2.36298">
        <ele>53.799999237061</ele>
        <time>2022-06-02T07:32:55.000Z</time>
      </trkpt>
      <trkpt lat="47.31299" lon="-2.36295">
        <ele>54.200000762939</ele>
        <time>2022-06-02T07:32:56.000Z</time>
      </trkpt>
      <trkpt lat="47.31318" lon="-2.36283">
        <ele>54.200000762939</ele>
        <time>2022-06-02T07:33:00.000Z</time>
      </trkpt>
      <trkpt lat="47.31322" lon="-2.36278">
        <ele>54.200000762939</ele>
        <time>2022-06-02T07:33:01.000Z</time>
      </trkpt>
      <trkpt lat="47.31341" lon="-2.36258">
        <ele>54.200000762939</ele>
        <time>2022-06-02T07:33:05.000Z</time>
      </trkpt>
      <trkpt lat="47.3137" lon="-2.36234">
        <ele>54.200000762939</ele>
        <time>2022-06-02T07:33:11.000Z</time>
      </trkpt>
      <trkpt lat="47.3139" lon="-2.36223">
        <ele>54.200000762939</ele>
        <time>2022-06-02T07:33:15.000Z</time>
      </trkpt>
      <trkpt lat="47.31402" lon="-2.36218">
        <ele>54.200000762939</ele>
        <time>2022-06-02T07:33:17.000Z</time>
      </trkpt>
      <trkpt lat="47.31439" lon="-2.36197">
        <ele>54.200000762939</ele>
        <time>2022-06-02T07:33:24.000Z</time>
      </trkpt>
      <trkpt lat="47.31461" lon="-2.36178">
        <ele>54.200000762939</ele>
        <time>2022-06-02T07:33:29.000Z</time>
      </trkpt>
      <trkpt lat="47.31486" lon="-2.36152">
        <ele>54.200000762939</ele>
        <time>2022-06-02T07:33:35.000Z</time>
      </trkpt>
      <trkpt lat="47.31516" lon="-2.36117">
        <ele>54.200000762939</ele>
        <time>2022-06-02T07:33:42.000Z</time>
      </trkpt>
      <trkpt lat="47.31537" lon="-2.36094">
        <ele>54.200000762939</ele>
        <time>2022-06-02T07:33:47.000Z</time>
      </trkpt>
      <trkpt lat="47.31548" lon="-2.36081">
        <ele>54.200000762939</ele>
        <time>2022-06-02T07:33:50.000Z</time>
      </trkpt>
      <trkpt lat="47.31561" lon="-2.36069">
        <ele>54.200000762939</ele>
        <time>2022-06-02T07:33:53.000Z</time>
      </trkpt>
      <trkpt lat="47.31569" lon="-2.36061">
        <ele>54.200000762939</ele>
        <time>2022-06-02T07:33:55.000Z</time>
      </trkpt>
      <trkpt lat="47.3158" lon="-2.36047">
        <ele>54.200000762939</ele>
        <time>2022-06-02T07:33:58.000Z</time>
      </trkpt>
      <trkpt lat="47.31585" lon="-2.36043">
        <ele>54.200000762939</ele>
        <time>2022-06-02T07:33:59.000Z</time>
      </trkpt>
      <trkpt lat="47.31605" lon="-2.36024">
        <ele>54.200000762939</ele>
        <time>2022-06-02T07:34:03.000Z</time>
      </trkpt>
      <trkpt lat="47.31629" lon="-2.36">
        <ele>54.200000762939</ele>
        <time>2022-06-02T07:34:08.000Z</time>
      </trkpt>
      <trkpt lat="47.31643" lon="-2.35986">
        <ele>53.799999237061</ele>
        <time>2022-06-02T07:34:11.000Z</time>
      </trkpt>
      <trkpt lat="47.31649" lon="-2.35981">
        <ele>53.200000762939</ele>
        <time>2022-06-02T07:34:12.000Z</time>
      </trkpt>
      <trkpt lat="47.31655" lon="-2.35977">
        <ele>52.799999237061</ele>
        <time>2022-06-02T07:34:13.000Z</time>
      </trkpt>
      <trkpt lat="47.31661" lon="-2.35973">
        <ele>52.400001525879</ele>
        <time>2022-06-02T07:34:14.000Z</time>
      </trkpt>
      <trkpt lat="47.31667" lon="-2.35969">
        <ele>52</ele>
        <time>2022-06-02T07:34:15.000Z</time>
      </trkpt>
      <trkpt lat="47.31697" lon="-2.3595">
        <ele>52</ele>
        <time>2022-06-02T07:34:20.000Z</time>
      </trkpt>
      <trkpt lat="47.31703" lon="-2.35947">
        <ele>52</ele>
        <time>2022-06-02T07:34:21.000Z</time>
      </trkpt>
      <trkpt lat="47.31746" lon="-2.35919">
        <ele>51.599998474121</ele>
        <time>2022-06-02T07:34:28.000Z</time>
      </trkpt>
      <trkpt lat="47.31751" lon="-2.35916">
        <ele>51.200000762939</ele>
        <time>2022-06-02T07:34:29.000Z</time>
      </trkpt>
      <trkpt lat="47.31757" lon="-2.35913">
        <ele>50.799999237061</ele>
        <time>2022-06-02T07:34:30.000Z</time>
      </trkpt>
      <trkpt lat="47.31764" lon="-2.35909">
        <ele>50.400001525879</ele>
        <time>2022-06-02T07:34:31.000Z</time>
      </trkpt>
      <trkpt lat="47.3177" lon="-2.35906">
        <ele>50</ele>
        <time>2022-06-02T07:34:32.000Z</time>
      </trkpt>
      <trkpt lat="47.3178" lon="-2.35898">
        <ele>50</ele>
        <time>2022-06-02T07:34:34.000Z</time>
      </trkpt>
      <trkpt lat="47.31811" lon="-2.35882">
        <ele>50</ele>
        <time>2022-06-02T07:34:40.000Z</time>
      </trkpt>
      <trkpt lat="47.31819" lon="-2.35875">
        <ele>50</ele>
        <time>2022-06-02T07:34:42.000Z</time>
      </trkpt>
      <trkpt lat="47.31823" lon="-2.35862">
        <ele>50</ele>
        <time>2022-06-02T07:34:44.000Z</time>
      </trkpt>
      <trkpt lat="47.31819" lon="-2.35847">
        <ele>50</ele>
        <time>2022-06-02T07:34:47.000Z</time>
      </trkpt>
      <trkpt lat="47.31815" lon="-2.35838">
        <ele>50</ele>
        <time>2022-06-02T07:34:49.000Z</time>
      </trkpt>
      <trkpt lat="47.31807" lon="-2.35824">
        <ele>50</ele>
        <time>2022-06-02T07:34:52.000Z</time>
      </trkpt>
      <trkpt lat="47.31805" lon="-2.35821">
        <ele>50</ele>
        <time>2022-06-02T07:34:53.000Z</time>
      </trkpt>
      <trkpt lat="47.31791" lon="-2.35796">
        <ele>50</ele>
        <time>2022-06-02T07:34:58.000Z</time>
      </trkpt>
      <trkpt lat="47.31785" lon="-2.35764">
        <ele>50</ele>
        <time>2022-06-02T07:35:02.000Z</time>
      </trkpt>
      <trkpt lat="47.31785" lon="-2.35755">
        <ele>50</ele>
        <time>2022-06-02T07:35:03.000Z</time>
      </trkpt>
      <trkpt lat="47.31786" lon="-2.35736">
        <ele>49.400001525879</ele>
        <time>2022-06-02T07:35:05.000Z</time>
      </trkpt>
      <trkpt lat="47.31787" lon="-2.35728">
        <ele>49</ele>
        <time>2022-06-02T07:35:06.000Z</time>
      </trkpt>
      <trkpt lat="47.31787" lon="-2.3572">
        <ele>48.599998474121</ele>
        <time>2022-06-02T07:35:07.000Z</time>
      </trkpt>
      <trkpt lat="47.31788" lon="-2.35709">
        <ele>48.200000762939</ele>
        <time>2022-06-02T07:35:08.000Z</time>
      </trkpt>
      <trkpt lat="47.31788" lon="-2.35699">
        <ele>47.599998474121</ele>
        <time>2022-06-02T07:35:09.000Z</time>
      </trkpt>
      <trkpt lat="47.31792" lon="-2.3567">
        <ele>47.200000762939</ele>
        <time>2022-06-02T07:35:12.000Z</time>
      </trkpt>
      <trkpt lat="47.31792" lon="-2.3566">
        <ele>46.799999237061</ele>
        <time>2022-06-02T07:35:13.000Z</time>
      </trkpt>
      <trkpt lat="47.31794" lon="-2.35651">
        <ele>46.400001525879</ele>
        <time>2022-06-02T07:35:14.000Z</time>
      </trkpt>
      <trkpt lat="47.31796" lon="-2.35643">
        <ele>46</ele>
        <time>2022-06-02T07:35:15.000Z</time>
      </trkpt>
      <trkpt lat="47.31798" lon="-2.35634">
        <ele>45.599998474121</ele>
        <time>2022-06-02T07:35:16.000Z</time>
      </trkpt>
      <trkpt lat="47.31803" lon="-2.35617">
        <ele>45.599998474121</ele>
        <time>2022-06-02T07:35:18.000Z</time>
      </trkpt>
      <trkpt lat="47.31808" lon="-2.356">
        <ele>45.599998474121</ele>
        <time>2022-06-02T07:35:20.000Z</time>
      </trkpt>
      <trkpt lat="47.31816" lon="-2.3558">
        <ele>45</ele>
        <time>2022-06-02T07:35:23.000Z</time>
      </trkpt>
      <trkpt lat="47.3182" lon="-2.35575">
        <ele>44.599998474121</ele>
        <time>2022-06-02T07:35:24.000Z</time>
      </trkpt>
      <trkpt lat="47.31823" lon="-2.35571">
        <ele>44.200000762939</ele>
        <time>2022-06-02T07:35:25.000Z</time>
      </trkpt>
      <trkpt lat="47.31828" lon="-2.35566">
        <ele>43.799999237061</ele>
        <time>2022-06-02T07:35:26.000Z</time>
      </trkpt>
      <trkpt lat="47.31832" lon="-2.35562">
        <ele>43.400001525879</ele>
        <time>2022-06-02T07:35:27.000Z</time>
      </trkpt>
      <trkpt lat="47.31836" lon="-2.35558">
        <ele>43.400001525879</ele>
        <time>2022-06-02T07:35:28.000Z</time>
      </trkpt>
      <trkpt lat="47.31839" lon="-2.35553">
        <ele>43.400001525879</ele>
        <time>2022-06-02T07:35:29.000Z</time>
      </trkpt>
      <trkpt lat="47.31843" lon="-2.35541">
        <ele>43.400001525879</ele>
        <time>2022-06-02T07:35:33.000Z</time>
      </trkpt>
      <trkpt lat="47.31838" lon="-2.35519">
        <ele>43.400001525879</ele>
        <time>2022-06-02T07:35:38.000Z</time>
      </trkpt>
      <trkpt lat="47.31823" lon="-2.35491">
        <ele>43.400001525879</ele>
        <time>2022-06-02T07:35:44.000Z</time>
      </trkpt>
      <trkpt lat="47.31813" lon="-2.3547">
        <ele>43.400001525879</ele>
        <time>2022-06-02T07:35:48.000Z</time>
      </trkpt>
      <trkpt lat="47.31809" lon="-2.35463">
        <ele>43.400001525879</ele>
        <time>2022-06-02T07:35:49.000Z</time>
      </trkpt>
      <trkpt lat="47.31802" lon="-2.35451">
        <ele>43.400001525879</ele>
        <time>2022-06-02T07:35:52.000Z</time>
      </trkpt>
      <trkpt lat="47.31798" lon="-2.35444">
        <ele>43.799999237061</ele>
        <time>2022-06-02T07:35:54.000Z</time>
      </trkpt>
      <trkpt lat="47.31796" lon="-2.35441">
        <ele>44.200000762939</ele>
        <time>2022-06-02T07:35:55.000Z</time>
      </trkpt>
      <trkpt lat="47.31794" lon="-2.35438">
        <ele>44.599998474121</ele>
        <time>2022-06-02T07:35:56.000Z</time>
      </trkpt>
      <trkpt lat="47.31791" lon="-2.35433">
        <ele>45</ele>
        <time>2022-06-02T07:35:57.000Z</time>
      </trkpt>
      <trkpt lat="47.31788" lon="-2.35427">
        <ele>45.400001525879</ele>
        <time>2022-06-02T07:35:58.000Z</time>
      </trkpt>
      <trkpt lat="47.3178" lon="-2.35413">
        <ele>45.400001525879</ele>
        <time>2022-06-02T07:36:00.000Z</time>
      </trkpt>
      <trkpt lat="47.31768" lon="-2.35392">
        <ele>45.799999237061</ele>
        <time>2022-06-02T07:36:04.000Z</time>
      </trkpt>
      <trkpt lat="47.31767" lon="-2.35389">
        <ele>46.200000762939</ele>
        <time>2022-06-02T07:36:05.000Z</time>
      </trkpt>
      <trkpt lat="47.31767" lon="-2.35386">
        <ele>46.599998474121</ele>
        <time>2022-06-02T07:36:06.000Z</time>
      </trkpt>
      <trkpt lat="47.31767" lon="-2.35383">
        <ele>47</ele>
        <time>2022-06-02T07:36:07.000Z</time>
      </trkpt>
      <trkpt lat="47.31767" lon="-2.35383">
        <ele>47.400001525879</ele>
        <time>2022-06-02T07:36:08.000Z</time>
      </trkpt>
      <trkpt lat="47.31766" lon="-2.35381">
        <ele>47.400001525879</ele>
        <time>2022-06-02T07:36:09.000Z</time>
      </trkpt>
      <trkpt lat="47.31766" lon="-2.35378">
        <ele>47.400001525879</ele>
        <time>2022-06-02T07:36:20.000Z</time>
      </trkpt>
      <trkpt lat="47.31772" lon="-2.35364">
        <ele>47.400001525879</ele>
        <time>2022-06-02T07:36:25.000Z</time>
      </trkpt>
      <trkpt lat="47.31784" lon="-2.3535">
        <ele>47.400001525879</ele>
        <time>2022-06-02T07:36:29.000Z</time>
      </trkpt>
      <trkpt lat="47.31788" lon="-2.35347">
        <ele>47.400001525879</ele>
        <time>2022-06-02T07:36:30.000Z</time>
      </trkpt>
      <trkpt lat="47.31808" lon="-2.35335">
        <ele>47.400001525879</ele>
        <time>2022-06-02T07:36:34.000Z</time>
      </trkpt>
      <trkpt lat="47.31823" lon="-2.35322">
        <ele>47</ele>
        <time>2022-06-02T07:36:37.000Z</time>
      </trkpt>
      <trkpt lat="47.31828" lon="-2.35319">
        <ele>46.599998474121</ele>
        <time>2022-06-02T07:36:38.000Z</time>
      </trkpt>
      <trkpt lat="47.31834" lon="-2.35315">
        <ele>46.200000762939</ele>
        <time>2022-06-02T07:36:39.000Z</time>
      </trkpt>
      <trkpt lat="47.3184" lon="-2.35311">
        <ele>45.799999237061</ele>
        <time>2022-06-02T07:36:40.000Z</time>
      </trkpt>
      <trkpt lat="47.31845" lon="-2.35308">
        <ele>45.200000762939</ele>
        <time>2022-06-02T07:36:41.000Z</time>
      </trkpt>
      <trkpt lat="47.31851" lon="-2.35302">
        <ele>45.200000762939</ele>
        <time>2022-06-02T07:36:42.000Z</time>
      </trkpt>
      <trkpt lat="47.31855" lon="-2.35298">
        <ele>45.200000762939</ele>
        <time>2022-06-02T07:36:43.000Z</time>
      </trkpt>
      <trkpt lat="47.31874" lon="-2.35281">
        <ele>45.200000762939</ele>
        <time>2022-06-02T07:36:47.000Z</time>
      </trkpt>
      <trkpt lat="47.31894" lon="-2.35263">
        <ele>45.200000762939</ele>
        <time>2022-06-02T07:36:51.000Z</time>
      </trkpt>
      <trkpt lat="47.31898" lon="-2.35258">
        <ele>45.200000762939</ele>
        <time>2022-06-02T07:36:52.000Z</time>
      </trkpt>
      <trkpt lat="47.31901" lon="-2.35254">
        <ele>44.799999237061</ele>
        <time>2022-06-02T07:36:53.000Z</time>
      </trkpt>
      <trkpt lat="47.31905" lon="-2.35251">
        <ele>44.400001525879</ele>
        <time>2022-06-02T07:36:54.000Z</time>
      </trkpt>
      <trkpt lat="47.31909" lon="-2.35246">
        <ele>44</ele>
        <time>2022-06-02T07:36:55.000Z</time>
      </trkpt>
      <trkpt lat="47.31913" lon="-2.35241">
        <ele>43.599998474121</ele>
        <time>2022-06-02T07:36:56.000Z</time>
      </trkpt>
      <trkpt lat="47.31918" lon="-2.35237">
        <ele>43.200000762939</ele>
        <time>2022-06-02T07:36:57.000Z</time>
      </trkpt>
      <trkpt lat="47.31927" lon="-2.35228">
        <ele>43.200000762939</ele>
        <time>2022-06-02T07:36:59.000Z</time>
      </trkpt>
      <trkpt lat="47.31964" lon="-2.35193">
        <ele>43.200000762939</ele>
        <time>2022-06-02T07:37:07.000Z</time>
      </trkpt>
      <trkpt lat="47.31972" lon="-2.35185">
        <ele>43.200000762939</ele>
        <time>2022-06-02T07:37:09.000Z</time>
      </trkpt>
      <trkpt lat="47.31985" lon="-2.35172">
        <ele>43.200000762939</ele>
        <time>2022-06-02T07:37:12.000Z</time>
      </trkpt>
      <trkpt lat="47.3199" lon="-2.35167">
        <ele>43.200000762939</ele>
        <time>2022-06-02T07:37:13.000Z</time>
      </trkpt>
      <trkpt lat="47.32016" lon="-2.35139">
        <ele>43.200000762939</ele>
        <time>2022-06-02T07:37:19.000Z</time>
      </trkpt>
      <trkpt lat="47.3202" lon="-2.35134">
        <ele>43.200000762939</ele>
        <time>2022-06-02T07:37:20.000Z</time>
      </trkpt>
      <trkpt lat="47.32029" lon="-2.35114">
        <ele>43.200000762939</ele>
        <time>2022-06-02T07:37:23.000Z</time>
      </trkpt>
      <trkpt lat="47.32031" lon="-2.35086">
        <ele>43.200000762939</ele>
        <time>2022-06-02T07:37:27.000Z</time>
      </trkpt>
      <trkpt lat="47.32029" lon="-2.3508">
        <ele>43.200000762939</ele>
        <time>2022-06-02T07:37:28.000Z</time>
      </trkpt>
      <trkpt lat="47.32031" lon="-2.35067">
        <ele>43.200000762939</ele>
        <time>2022-06-02T07:37:30.000Z</time>
      </trkpt>
      <trkpt lat="47.32034" lon="-2.35062">
        <ele>43.200000762939</ele>
        <time>2022-06-02T07:37:31.000Z</time>
      </trkpt>
      <trkpt lat="47.32043" lon="-2.35057">
        <ele>43.200000762939</ele>
        <time>2022-06-02T07:37:34.000Z</time>
      </trkpt>
      <trkpt lat="47.32053" lon="-2.3506">
        <ele>43.200000762939</ele>
        <time>2022-06-02T07:37:36.000Z</time>
      </trkpt>
      <trkpt lat="47.32064" lon="-2.35062">
        <ele>43.200000762939</ele>
        <time>2022-06-02T07:37:38.000Z</time>
      </trkpt>
      <trkpt lat="47.32099" lon="-2.35063">
        <ele>43.200000762939</ele>
        <time>2022-06-02T07:37:44.000Z</time>
      </trkpt>
      <trkpt lat="47.32129" lon="-2.35062">
        <ele>43.200000762939</ele>
        <time>2022-06-02T07:37:49.000Z</time>
      </trkpt>
      <trkpt lat="47.32155" lon="-2.3506">
        <ele>43.200000762939</ele>
        <time>2022-06-02T07:37:54.000Z</time>
      </trkpt>
      <trkpt lat="47.32189" lon="-2.35058">
        <ele>43.200000762939</ele>
        <time>2022-06-02T07:38:00.000Z</time>
      </trkpt>
      <trkpt lat="47.32202" lon="-2.35056">
        <ele>43.200000762939</ele>
        <time>2022-06-02T07:38:02.000Z</time>
      </trkpt>
      <trkpt lat="47.32219" lon="-2.35052">
        <ele>43.200000762939</ele>
        <time>2022-06-02T07:38:05.000Z</time>
      </trkpt>
      <trkpt lat="47.3223" lon="-2.3505">
        <ele>43.200000762939</ele>
        <time>2022-06-02T07:38:07.000Z</time>
      </trkpt>
      <trkpt lat="47.32245" lon="-2.35049">
        <ele>43.200000762939</ele>
        <time>2022-06-02T07:38:10.000Z</time>
      </trkpt>
      <trkpt lat="47.32266" lon="-2.35047">
        <ele>43.200000762939</ele>
        <time>2022-06-02T07:38:14.000Z</time>
      </trkpt>
      <trkpt lat="47.32272" lon="-2.35047">
        <ele>43.200000762939</ele>
        <time>2022-06-02T07:38:15.000Z</time>
      </trkpt>
      <trkpt lat="47.32288" lon="-2.35047">
        <ele>43.599998474121</ele>
        <time>2022-06-02T07:38:18.000Z</time>
      </trkpt>
      <trkpt lat="47.32293" lon="-2.35047">
        <ele>44</ele>
        <time>2022-06-02T07:38:19.000Z</time>
      </trkpt>
      <trkpt lat="47.32298" lon="-2.35048">
        <ele>44.400001525879</ele>
        <time>2022-06-02T07:38:20.000Z</time>
      </trkpt>
      <trkpt lat="47.32303" lon="-2.35048">
        <ele>44.799999237061</ele>
        <time>2022-06-02T07:38:21.000Z</time>
      </trkpt>
      <trkpt lat="47.32308" lon="-2.35048">
        <ele>45.200000762939</ele>
        <time>2022-06-02T07:38:22.000Z</time>
      </trkpt>
      <trkpt lat="47.32324" lon="-2.35047">
        <ele>45.200000762939</ele>
        <time>2022-06-02T07:38:25.000Z</time>
      </trkpt>
      <trkpt lat="47.3236" lon="-2.35048">
        <ele>45.599998474121</ele>
        <time>2022-06-02T07:38:32.000Z</time>
      </trkpt>
      <trkpt lat="47.32365" lon="-2.35047">
        <ele>46</ele>
        <time>2022-06-02T07:38:33.000Z</time>
      </trkpt>
      <trkpt lat="47.3237" lon="-2.35046">
        <ele>46.400001525879</ele>
        <time>2022-06-02T07:38:34.000Z</time>
      </trkpt>
      <trkpt lat="47.32374" lon="-2.35045">
        <ele>46.799999237061</ele>
        <time>2022-06-02T07:38:35.000Z</time>
      </trkpt>
      <trkpt lat="47.3238" lon="-2.35045">
        <ele>47.200000762939</ele>
        <time>2022-06-02T07:38:36.000Z</time>
      </trkpt>
      <trkpt lat="47.32385" lon="-2.35045">
        <ele>47.200000762939</ele>
        <time>2022-06-02T07:38:37.000Z</time>
      </trkpt>
      <trkpt lat="47.32418" lon="-2.35041">
        <ele>47.200000762939</ele>
        <time>2022-06-02T07:38:43.000Z</time>
      </trkpt>
      <trkpt lat="47.3245" lon="-2.35036">
        <ele>47.200000762939</ele>
        <time>2022-06-02T07:38:48.000Z</time>
      </trkpt>
      <trkpt lat="47.32494" lon="-2.35025">
        <ele>47.200000762939</ele>
        <time>2022-06-02T07:38:55.000Z</time>
      </trkpt>
      <trkpt lat="47.3253" lon="-2.35017">
        <ele>47.200000762939</ele>
        <time>2022-06-02T07:39:01.000Z</time>
      </trkpt>
      <trkpt lat="47.32553" lon="-2.35008">
        <ele>47.200000762939</ele>
        <time>2022-06-02T07:39:05.000Z</time>
      </trkpt>
      <trkpt lat="47.32558" lon="-2.35005">
        <ele>47.200000762939</ele>
        <time>2022-06-02T07:39:06.000Z</time>
      </trkpt>
      <trkpt lat="47.32586" lon="-2.34994">
        <ele>47.200000762939</ele>
        <time>2022-06-02T07:39:11.000Z</time>
      </trkpt>
      <trkpt lat="47.32619" lon="-2.34978">
        <ele>47.200000762939</ele>
        <time>2022-06-02T07:39:17.000Z</time>
      </trkpt>
      <trkpt lat="47.32623" lon="-2.34976">
        <ele>46.799999237061</ele>
        <time>2022-06-02T07:39:18.000Z</time>
      </trkpt>
      <trkpt lat="47.32627" lon="-2.34974">
        <ele>46</ele>
        <time>2022-06-02T07:39:19.000Z</time>
      </trkpt>
      <trkpt lat="47.32631" lon="-2.34972">
        <ele>45.599998474121</ele>
        <time>2022-06-02T07:39:20.000Z</time>
      </trkpt>
      <trkpt lat="47.32634" lon="-2.34971">
        <ele>45.200000762939</ele>
        <time>2022-06-02T07:39:21.000Z</time>
      </trkpt>
      <trkpt lat="47.32637" lon="-2.34969">
        <ele>45.200000762939</ele>
        <time>2022-06-02T07:39:22.000Z</time>
      </trkpt>
      <trkpt lat="47.32657" lon="-2.34957">
        <ele>45.200000762939</ele>
        <time>2022-06-02T07:39:28.000Z</time>
      </trkpt>
      <trkpt lat="47.32685" lon="-2.34937">
        <ele>45.200000762939</ele>
        <time>2022-06-02T07:39:34.000Z</time>
      </trkpt>
      <trkpt lat="47.32715" lon="-2.34912">
        <ele>45.200000762939</ele>
        <time>2022-06-02T07:39:40.000Z</time>
      </trkpt>
      <trkpt lat="47.32749" lon="-2.34888">
        <ele>45.200000762939</ele>
        <time>2022-06-02T07:39:46.000Z</time>
      </trkpt>
      <trkpt lat="47.32781" lon="-2.34862">
        <ele>45.200000762939</ele>
        <time>2022-06-02T07:39:52.000Z</time>
      </trkpt>
      <trkpt lat="47.32797" lon="-2.3485">
        <ele>44.799999237061</ele>
        <time>2022-06-02T07:39:55.000Z</time>
      </trkpt>
      <trkpt lat="47.32803" lon="-2.34846">
        <ele>44.400001525879</ele>
        <time>2022-06-02T07:39:56.000Z</time>
      </trkpt>
      <trkpt lat="47.32809" lon="-2.34841">
        <ele>44</ele>
        <time>2022-06-02T07:39:57.000Z</time>
      </trkpt>
      <trkpt lat="47.32814" lon="-2.34837">
        <ele>43.599998474121</ele>
        <time>2022-06-02T07:39:58.000Z</time>
      </trkpt>
      <trkpt lat="47.3282" lon="-2.34832">
        <ele>43.200000762939</ele>
        <time>2022-06-02T07:39:59.000Z</time>
      </trkpt>
      <trkpt lat="47.32851" lon="-2.34813">
        <ele>43.200000762939</ele>
        <time>2022-06-02T07:40:04.000Z</time>
      </trkpt>
      <trkpt lat="47.32893" lon="-2.34783">
        <ele>43.200000762939</ele>
        <time>2022-06-02T07:40:12.000Z</time>
      </trkpt>
      <trkpt lat="47.32898" lon="-2.34783">
        <ele>42.799999237061</ele>
        <time>2022-06-02T07:40:13.000Z</time>
      </trkpt>
      <trkpt lat="47.32902" lon="-2.34785">
        <ele>42.400001525879</ele>
        <time>2022-06-02T07:40:14.000Z</time>
      </trkpt>
      <trkpt lat="47.32905" lon="-2.34789">
        <ele>42</ele>
        <time>2022-06-02T07:40:15.000Z</time>
      </trkpt>
      <trkpt lat="47.32908" lon="-2.34792">
        <ele>41.599998474121</ele>
        <time>2022-06-02T07:40:16.000Z</time>
      </trkpt>
      <trkpt lat="47.3291" lon="-2.34796">
        <ele>41</ele>
        <time>2022-06-02T07:40:17.000Z</time>
      </trkpt>
      <trkpt lat="47.32912" lon="-2.348">
        <ele>41</ele>
        <time>2022-06-02T07:40:18.000Z</time>
      </trkpt>
      <trkpt lat="47.32915" lon="-2.34809">
        <ele>41</ele>
        <time>2022-06-02T07:40:20.000Z</time>
      </trkpt>
      <trkpt lat="47.32925" lon="-2.34836">
        <ele>41</ele>
        <time>2022-06-02T07:40:25.000Z</time>
      </trkpt>
      <trkpt lat="47.32936" lon="-2.34864">
        <ele>41</ele>
        <time>2022-06-02T07:40:29.000Z</time>
      </trkpt>
      <trkpt lat="47.32942" lon="-2.34877">
        <ele>41</ele>
        <time>2022-06-02T07:40:31.000Z</time>
      </trkpt>
      <trkpt lat="47.32958" lon="-2.34921">
        <ele>41</ele>
        <time>2022-06-02T07:40:37.000Z</time>
      </trkpt>
      <trkpt lat="47.32961" lon="-2.34928">
        <ele>41</ele>
        <time>2022-06-02T07:40:38.000Z</time>
      </trkpt>
      <trkpt lat="47.32968" lon="-2.34951">
        <ele>41</ele>
        <time>2022-06-02T07:40:41.000Z</time>
      </trkpt>
      <trkpt lat="47.3297" lon="-2.34958">
        <ele>41</ele>
        <time>2022-06-02T07:40:42.000Z</time>
      </trkpt>
      <trkpt lat="47.32972" lon="-2.34965">
        <ele>41</ele>
        <time>2022-06-02T07:40:43.000Z</time>
      </trkpt>
      <trkpt lat="47.32974" lon="-2.34971">
        <ele>41.599998474121</ele>
        <time>2022-06-02T07:40:44.000Z</time>
      </trkpt>
      <trkpt lat="47.32976" lon="-2.34977">
        <ele>42</ele>
        <time>2022-06-02T07:40:45.000Z</time>
      </trkpt>
      <trkpt lat="47.32978" lon="-2.34982">
        <ele>42.400001525879</ele>
        <time>2022-06-02T07:40:46.000Z</time>
      </trkpt>
      <trkpt lat="47.32981" lon="-2.34987">
        <ele>42.799999237061</ele>
        <time>2022-06-02T07:40:47.000Z</time>
      </trkpt>
      <trkpt lat="47.32983" lon="-2.34992">
        <ele>43.200000762939</ele>
        <time>2022-06-02T07:40:48.000Z</time>
      </trkpt>
      <trkpt lat="47.32988" lon="-2.35007">
        <ele>43.200000762939</ele>
        <time>2022-06-02T07:40:51.000Z</time>
      </trkpt>
      <trkpt lat="47.32996" lon="-2.35026">
        <ele>43.200000762939</ele>
        <time>2022-06-02T07:40:56.000Z</time>
      </trkpt>
      <trkpt lat="47.32996" lon="-2.35044">
        <ele>43.200000762939</ele>
        <time>2022-06-02T07:41:00.000Z</time>
      </trkpt>
      <trkpt lat="47.32998" lon="-2.35048">
        <ele>43.599998474121</ele>
        <time>2022-06-02T07:41:01.000Z</time>
      </trkpt>
      <trkpt lat="47.33" lon="-2.35053">
        <ele>44</ele>
        <time>2022-06-02T07:41:02.000Z</time>
      </trkpt>
      <trkpt lat="47.33002" lon="-2.35059">
        <ele>44.400001525879</ele>
        <time>2022-06-02T07:41:03.000Z</time>
      </trkpt>
      <trkpt lat="47.33003" lon="-2.35065">
        <ele>44.799999237061</ele>
        <time>2022-06-02T07:41:04.000Z</time>
      </trkpt>
      <trkpt lat="47.33003" lon="-2.3507">
        <ele>45.200000762939</ele>
        <time>2022-06-02T07:41:05.000Z</time>
      </trkpt>
      <trkpt lat="47.33005" lon="-2.35096">
        <ele>45.200000762939</ele>
        <time>2022-06-02T07:41:10.000Z</time>
      </trkpt>
      <trkpt lat="47.33009" lon="-2.35126">
        <ele>45.200000762939</ele>
        <time>2022-06-02T07:41:15.000Z</time>
      </trkpt>
      <trkpt lat="47.33013" lon="-2.35159">
        <ele>45.200000762939</ele>
        <time>2022-06-02T07:41:20.000Z</time>
      </trkpt>
      <trkpt lat="47.33016" lon="-2.35181">
        <ele>45.200000762939</ele>
        <time>2022-06-02T07:41:24.000Z</time>
      </trkpt>
      <trkpt lat="47.33017" lon="-2.35184">
        <ele>45.200000762939</ele>
        <time>2022-06-02T07:41:25.000Z</time>
      </trkpt>
      <trkpt lat="47.33022" lon="-2.3518">
        <ele>45.200000762939</ele>
        <time>2022-06-02T07:41:28.000Z</time>
      </trkpt>
      <trkpt lat="47.33025" lon="-2.35178">
        <ele>45.200000762939</ele>
        <time>2022-06-02T07:41:29.000Z</time>
      </trkpt>
      <trkpt lat="47.33033" lon="-2.35169">
        <ele>45.200000762939</ele>
        <time>2022-06-02T07:41:32.000Z</time>
      </trkpt>
      <trkpt lat="47.33036" lon="-2.35165">
        <ele>45.200000762939</ele>
        <time>2022-06-02T07:41:33.000Z</time>
      </trkpt>
      <trkpt lat="47.33043" lon="-2.35148">
        <ele>45.200000762939</ele>
        <time>2022-06-02T07:41:36.000Z</time>
      </trkpt>
      <trkpt lat="47.33047" lon="-2.35136">
        <ele>45.200000762939</ele>
        <time>2022-06-02T07:41:38.000Z</time>
      </trkpt>
      <trkpt lat="47.33061" lon="-2.35118">
        <ele>45.200000762939</ele>
        <time>2022-06-02T07:41:42.000Z</time>
      </trkpt>
      <trkpt lat="47.33076" lon="-2.35096">
        <ele>45.200000762939</ele>
        <time>2022-06-02T07:41:46.000Z</time>
      </trkpt>
      <trkpt lat="47.33089" lon="-2.35082">
        <ele>45.200000762939</ele>
        <time>2022-06-02T07:41:49.000Z</time>
      </trkpt>
      <trkpt lat="47.33093" lon="-2.35078">
        <ele>45.200000762939</ele>
        <time>2022-06-02T07:41:50.000Z</time>
      </trkpt>
      <trkpt lat="47.33099" lon="-2.35068">
        <ele>45.200000762939</ele>
        <time>2022-06-02T07:41:52.000Z</time>
      </trkpt>
      <trkpt lat="47.33105" lon="-2.35057">
        <ele>45.200000762939</ele>
        <time>2022-06-02T07:41:54.000Z</time>
      </trkpt>
      <trkpt lat="47.33109" lon="-2.35052">
        <ele>45.200000762939</ele>
        <time>2022-06-02T07:41:55.000Z</time>
      </trkpt>
      <trkpt lat="47.33121" lon="-2.35037">
        <ele>45.200000762939</ele>
        <time>2022-06-02T07:41:58.000Z</time>
      </trkpt>
      <trkpt lat="47.33125" lon="-2.35032">
        <ele>45.200000762939</ele>
        <time>2022-06-02T07:41:59.000Z</time>
      </trkpt>
      <trkpt lat="47.3314" lon="-2.35009">
        <ele>45.200000762939</ele>
        <time>2022-06-02T07:42:03.000Z</time>
      </trkpt>
      <trkpt lat="47.33144" lon="-2.35004">
        <ele>45.200000762939</ele>
        <time>2022-06-02T07:42:04.000Z</time>
      </trkpt>
      <trkpt lat="47.33162" lon="-2.34978">
        <ele>45.200000762939</ele>
        <time>2022-06-02T07:42:09.000Z</time>
      </trkpt>
      <trkpt lat="47.33172" lon="-2.34953">
        <ele>45.200000762939</ele>
        <time>2022-06-02T07:42:13.000Z</time>
      </trkpt>
      <trkpt lat="47.33173" lon="-2.34946">
        <ele>45.200000762939</ele>
        <time>2022-06-02T07:42:14.000Z</time>
      </trkpt>
      <trkpt lat="47.33177" lon="-2.34932">
        <ele>44.799999237061</ele>
        <time>2022-06-02T07:42:16.000Z</time>
      </trkpt>
      <trkpt lat="47.3318" lon="-2.34925">
        <ele>44.400001525879</ele>
        <time>2022-06-02T07:42:17.000Z</time>
      </trkpt>
      <trkpt lat="47.33182" lon="-2.34919">
        <ele>44</ele>
        <time>2022-06-02T07:42:18.000Z</time>
      </trkpt>
      <trkpt lat="47.33185" lon="-2.34911">
        <ele>43.599998474121</ele>
        <time>2022-06-02T07:42:19.000Z</time>
      </trkpt>
      <trkpt lat="47.33189" lon="-2.34904">
        <ele>43.200000762939</ele>
        <time>2022-06-02T07:42:20.000Z</time>
      </trkpt>
      <trkpt lat="47.33207" lon="-2.3486">
        <ele>43.200000762939</ele>
        <time>2022-06-02T07:42:26.000Z</time>
      </trkpt>
      <trkpt lat="47.33219" lon="-2.34837">
        <ele>43.200000762939</ele>
        <time>2022-06-02T07:42:29.000Z</time>
      </trkpt>
      <trkpt lat="47.33225" lon="-2.34822">
        <ele>43.200000762939</ele>
        <time>2022-06-02T07:42:31.000Z</time>
      </trkpt>
      <trkpt lat="47.33235" lon="-2.34797">
        <ele>42.799999237061</ele>
        <time>2022-06-02T07:42:34.000Z</time>
      </trkpt>
      <trkpt lat="47.33239" lon="-2.34788">
        <ele>42</ele>
        <time>2022-06-02T07:42:35.000Z</time>
      </trkpt>
      <trkpt lat="47.33243" lon="-2.3478">
        <ele>41.599998474121</ele>
        <time>2022-06-02T07:42:36.000Z</time>
      </trkpt>
      <trkpt lat="47.33247" lon="-2.34773">
        <ele>41.200000762939</ele>
        <time>2022-06-02T07:42:37.000Z</time>
      </trkpt>
      <trkpt lat="47.33259" lon="-2.3474">
        <ele>41.200000762939</ele>
        <time>2022-06-02T07:42:41.000Z</time>
      </trkpt>
      <trkpt lat="47.33262" lon="-2.34731">
        <ele>41.200000762939</ele>
        <time>2022-06-02T07:42:42.000Z</time>
      </trkpt>
      <trkpt lat="47.33276" lon="-2.34692">
        <ele>41.200000762939</ele>
        <time>2022-06-02T07:42:47.000Z</time>
      </trkpt>
      <trkpt lat="47.33279" lon="-2.34686">
        <ele>41.200000762939</ele>
        <time>2022-06-02T07:42:48.000Z</time>
      </trkpt>
      <trkpt lat="47.33288" lon="-2.34665">
        <ele>41.200000762939</ele>
        <time>2022-06-02T07:42:53.000Z</time>
      </trkpt>
      <trkpt lat="47.33297" lon="-2.34645">
        <ele>41.200000762939</ele>
        <time>2022-06-02T07:42:57.000Z</time>
      </trkpt>
      <trkpt lat="47.333" lon="-2.34638">
        <ele>41.200000762939</ele>
        <time>2022-06-02T07:42:58.000Z</time>
      </trkpt>
      <trkpt lat="47.33307" lon="-2.34618">
        <ele>41.200000762939</ele>
        <time>2022-06-02T07:43:01.000Z</time>
      </trkpt>
      <trkpt lat="47.33316" lon="-2.34593">
        <ele>41.200000762939</ele>
        <time>2022-06-02T07:43:04.000Z</time>
      </trkpt>
      <trkpt lat="47.33326" lon="-2.34566">
        <ele>41.200000762939</ele>
        <time>2022-06-02T07:43:09.000Z</time>
      </trkpt>
      <trkpt lat="47.3333" lon="-2.34549">
        <ele>41.200000762939</ele>
        <time>2022-06-02T07:43:13.000Z</time>
      </trkpt>
      <trkpt lat="47.3333" lon="-2.34543">
        <ele>41.200000762939</ele>
        <time>2022-06-02T07:43:14.000Z</time>
      </trkpt>
      <trkpt lat="47.33339" lon="-2.3451">
        <ele>41.200000762939</ele>
        <time>2022-06-02T07:43:20.000Z</time>
      </trkpt>
      <trkpt lat="47.33353" lon="-2.34496">
        <ele>41.200000762939</ele>
        <time>2022-06-02T07:43:24.000Z</time>
      </trkpt>
      <trkpt lat="47.33357" lon="-2.34497">
        <ele>41.200000762939</ele>
        <time>2022-06-02T07:43:25.000Z</time>
      </trkpt>
      <trkpt lat="47.33367" lon="-2.34508">
        <ele>41.200000762939</ele>
        <time>2022-06-02T07:43:28.000Z</time>
      </trkpt>
      <trkpt lat="47.33371" lon="-2.34513">
        <ele>41.200000762939</ele>
        <time>2022-06-02T07:43:29.000Z</time>
      </trkpt>
      <trkpt lat="47.33394" lon="-2.34553">
        <ele>41.200000762939</ele>
        <time>2022-06-02T07:43:36.000Z</time>
      </trkpt>
      <trkpt lat="47.33419" lon="-2.34597">
        <ele>41.200000762939</ele>
        <time>2022-06-02T07:43:44.000Z</time>
      </trkpt>
      <trkpt lat="47.33422" lon="-2.34603">
        <ele>41.599998474121</ele>
        <time>2022-06-02T07:43:45.000Z</time>
      </trkpt>
      <trkpt lat="47.33425" lon="-2.34608">
        <ele>42</ele>
        <time>2022-06-02T07:43:46.000Z</time>
      </trkpt>
      <trkpt lat="47.33428" lon="-2.34613">
        <ele>42.400001525879</ele>
        <time>2022-06-02T07:43:47.000Z</time>
      </trkpt>
      <trkpt lat="47.33431" lon="-2.34619">
        <ele>42.799999237061</ele>
        <time>2022-06-02T07:43:48.000Z</time>
      </trkpt>
      <trkpt lat="47.33435" lon="-2.34625">
        <ele>43.200000762939</ele>
        <time>2022-06-02T07:43:49.000Z</time>
      </trkpt>
      <trkpt lat="47.33441" lon="-2.34636">
        <ele>43.200000762939</ele>
        <time>2022-06-02T07:43:51.000Z</time>
      </trkpt>
      <trkpt lat="47.33452" lon="-2.34656">
        <ele>43.599998474121</ele>
        <time>2022-06-02T07:43:55.000Z</time>
      </trkpt>
      <trkpt lat="47.33455" lon="-2.34662">
        <ele>44</ele>
        <time>2022-06-02T07:43:56.000Z</time>
      </trkpt>
      <trkpt lat="47.33458" lon="-2.34667">
        <ele>44.400001525879</ele>
        <time>2022-06-02T07:43:57.000Z</time>
      </trkpt>
      <trkpt lat="47.33462" lon="-2.34672">
        <ele>44.799999237061</ele>
        <time>2022-06-02T07:43:58.000Z</time>
      </trkpt>
      <trkpt lat="47.33465" lon="-2.34676">
        <ele>45.200000762939</ele>
        <time>2022-06-02T07:43:59.000Z</time>
      </trkpt>
      <trkpt lat="47.33475" lon="-2.34693">
        <ele>45.200000762939</ele>
        <time>2022-06-02T07:44:02.000Z</time>
      </trkpt>
      <trkpt lat="47.33493" lon="-2.34718">
        <ele>45.599998474121</ele>
        <time>2022-06-02T07:44:07.000Z</time>
      </trkpt>
      <trkpt lat="47.33497" lon="-2.34722">
        <ele>46</ele>
        <time>2022-06-02T07:44:08.000Z</time>
      </trkpt>
      <trkpt lat="47.335" lon="-2.34727">
        <ele>46.400001525879</ele>
        <time>2022-06-02T07:44:09.000Z</time>
      </trkpt>
      <trkpt lat="47.33504" lon="-2.34732">
        <ele>46.799999237061</ele>
        <time>2022-06-02T07:44:10.000Z</time>
      </trkpt>
      <trkpt lat="47.33508" lon="-2.34737">
        <ele>47.200000762939</ele>
        <time>2022-06-02T07:44:11.000Z</time>
      </trkpt>
      <trkpt lat="47.3352" lon="-2.34755">
        <ele>47.200000762939</ele>
        <time>2022-06-02T07:44:15.000Z</time>
      </trkpt>
      <trkpt lat="47.33526" lon="-2.34764">
        <ele>47.200000762939</ele>
        <time>2022-06-02T07:44:17.000Z</time>
      </trkpt>
      <trkpt lat="47.3354" lon="-2.3478">
        <ele>47.200000762939</ele>
        <time>2022-06-02T07:44:21.000Z</time>
      </trkpt>
      <trkpt lat="47.33557" lon="-2.34802">
        <ele>47.200000762939</ele>
        <time>2022-06-02T07:44:26.000Z</time>
      </trkpt>
      <trkpt lat="47.33578" lon="-2.34833">
        <ele>47.200000762939</ele>
        <time>2022-06-02T07:44:32.000Z</time>
      </trkpt>
      <trkpt lat="47.33608" lon="-2.34871">
        <ele>47.200000762939</ele>
        <time>2022-06-02T07:44:39.000Z</time>
      </trkpt>
      <trkpt lat="47.33643" lon="-2.34908">
        <ele>47.200000762939</ele>
        <time>2022-06-02T07:44:46.000Z</time>
      </trkpt>
      <trkpt lat="47.33663" lon="-2.34932">
        <ele>47.200000762939</ele>
        <time>2022-06-02T07:44:51.000Z</time>
      </trkpt>
      <trkpt lat="47.33675" lon="-2.34948">
        <ele>46.799999237061</ele>
        <time>2022-06-02T07:44:56.000Z</time>
      </trkpt>
      <trkpt lat="47.33676" lon="-2.34951">
        <ele>46.400001525879</ele>
        <time>2022-06-02T07:44:57.000Z</time>
      </trkpt>
      <trkpt lat="47.33676" lon="-2.34954">
        <ele>46</ele>
        <time>2022-06-02T07:44:58.000Z</time>
      </trkpt>
      <trkpt lat="47.33675" lon="-2.34957">
        <ele>45.599998474121</ele>
        <time>2022-06-02T07:44:59.000Z</time>
      </trkpt>
      <trkpt lat="47.33672" lon="-2.34959">
        <ele>45.200000762939</ele>
        <time>2022-06-02T07:45:00.000Z</time>
      </trkpt>
      <trkpt lat="47.3366" lon="-2.34965">
        <ele>45.200000762939</ele>
        <time>2022-06-02T07:45:04.000Z</time>
      </trkpt>
      <trkpt lat="47.33654" lon="-2.34966">
        <ele>45.200000762939</ele>
        <time>2022-06-02T07:45:06.000Z</time>
      </trkpt>
      <trkpt lat="47.33647" lon="-2.34964">
        <ele>45.200000762939</ele>
        <time>2022-06-02T07:45:09.000Z</time>
      </trkpt>
      <trkpt lat="47.33635" lon="-2.34956">
        <ele>45.200000762939</ele>
        <time>2022-06-02T07:45:13.000Z</time>
      </trkpt>
      <trkpt lat="47.33621" lon="-2.34948">
        <ele>45.599998474121</ele>
        <time>2022-06-02T07:45:17.000Z</time>
      </trkpt>
      <trkpt lat="47.33616" lon="-2.34946">
        <ele>46</ele>
        <time>2022-06-02T07:45:18.000Z</time>
      </trkpt>
      <trkpt lat="47.33611" lon="-2.34944">
        <ele>46.400001525879</ele>
        <time>2022-06-02T07:45:19.000Z</time>
      </trkpt>
      <trkpt lat="47.33606" lon="-2.3494">
        <ele>46.799999237061</ele>
        <time>2022-06-02T07:45:20.000Z</time>
      </trkpt>
      <trkpt lat="47.33601" lon="-2.34938">
        <ele>47.200000762939</ele>
        <time>2022-06-02T07:45:21.000Z</time>
      </trkpt>
      <trkpt lat="47.33586" lon="-2.34931">
        <ele>47.200000762939</ele>
        <time>2022-06-02T07:45:24.000Z</time>
      </trkpt>
      <trkpt lat="47.33576" lon="-2.34926">
        <ele>47.200000762939</ele>
        <time>2022-06-02T07:45:26.000Z</time>
      </trkpt>
      <trkpt lat="47.33566" lon="-2.34921">
        <ele>47.200000762939</ele>
        <time>2022-06-02T07:45:28.000Z</time>
      </trkpt>
      <trkpt lat="47.33556" lon="-2.34916">
        <ele>47.200000762939</ele>
        <time>2022-06-02T07:45:30.000Z</time>
      </trkpt>
      <trkpt lat="47.33544" lon="-2.34909">
        <ele>47.599998474121</ele>
        <time>2022-06-02T07:45:33.000Z</time>
      </trkpt>
      <trkpt lat="47.3354" lon="-2.34906">
        <ele>48</ele>
        <time>2022-06-02T07:45:34.000Z</time>
      </trkpt>
      <trkpt lat="47.33537" lon="-2.34903">
        <ele>48.400001525879</ele>
        <time>2022-06-02T07:45:35.000Z</time>
      </trkpt>
      <trkpt lat="47.33533" lon="-2.349">
        <ele>48.799999237061</ele>
        <time>2022-06-02T07:45:36.000Z</time>
      </trkpt>
      <trkpt lat="47.33528" lon="-2.34898">
        <ele>49.200000762939</ele>
        <time>2022-06-02T07:45:37.000Z</time>
      </trkpt>
      <trkpt lat="47.33519" lon="-2.34895">
        <ele>49.200000762939</ele>
        <time>2022-06-02T07:45:39.000Z</time>
      </trkpt>
      <trkpt lat="47.33513" lon="-2.34893">
        <ele>49.200000762939</ele>
        <time>2022-06-02T07:45:40.000Z</time>
      </trkpt>
      <trkpt lat="47.33508" lon="-2.34893">
        <ele>49.200000762939</ele>
        <time>2022-06-02T07:45:41.000Z</time>
      </trkpt>
      <trkpt lat="47.3349" lon="-2.34896">
        <ele>49.200000762939</ele>
        <time>2022-06-02T07:45:44.000Z</time>
      </trkpt>
      <trkpt lat="47.33451" lon="-2.34909">
        <ele>49.200000762939</ele>
        <time>2022-06-02T07:45:51.000Z</time>
      </trkpt>
      <trkpt lat="47.33418" lon="-2.34923">
        <ele>49.200000762939</ele>
        <time>2022-06-02T07:45:57.000Z</time>
      </trkpt>
      <trkpt lat="47.33394" lon="-2.34928">
        <ele>49.200000762939</ele>
        <time>2022-06-02T07:46:02.000Z</time>
      </trkpt>
      <trkpt lat="47.33391" lon="-2.34929">
        <ele>49.200000762939</ele>
        <time>2022-06-02T07:46:03.000Z</time>
      </trkpt>
      <trkpt lat="47.33386" lon="-2.3493">
        <ele>49.200000762939</ele>
        <time>2022-06-02T07:46:05.000Z</time>
      </trkpt>
      <trkpt lat="47.33379" lon="-2.34931">
        <ele>49.200000762939</ele>
        <time>2022-06-02T07:46:07.000Z</time>
      </trkpt>
      <trkpt lat="47.33367" lon="-2.34934">
        <ele>49.200000762939</ele>
        <time>2022-06-02T07:46:10.000Z</time>
      </trkpt>
      <trkpt lat="47.33355" lon="-2.34935">
        <ele>49.200000762939</ele>
        <time>2022-06-02T07:46:14.000Z</time>
      </trkpt>
      <trkpt lat="47.33348" lon="-2.34929">
        <ele>49.200000762939</ele>
        <time>2022-06-02T07:46:18.000Z</time>
      </trkpt>
      <trkpt lat="47.33346" lon="-2.34928">
        <ele>49.200000762939</ele>
        <time>2022-06-02T07:46:19.000Z</time>
      </trkpt>
      <trkpt lat="47.33345" lon="-2.34927">
        <ele>48.799999237061</ele>
        <time>2022-06-02T07:46:20.000Z</time>
      </trkpt>
      <trkpt lat="47.33344" lon="-2.34927">
        <ele>48.400001525879</ele>
        <time>2022-06-02T07:46:21.000Z</time>
      </trkpt>
      <trkpt lat="47.33344" lon="-2.34927">
        <ele>48</ele>
        <time>2022-06-02T07:46:22.000Z</time>
      </trkpt>
      <trkpt lat="47.33343" lon="-2.34927">
        <ele>47.599998474121</ele>
        <time>2022-06-02T07:46:23.000Z</time>
      </trkpt>
      <trkpt lat="47.33342" lon="-2.34927">
        <ele>47.200000762939</ele>
        <time>2022-06-02T07:46:24.000Z</time>
      </trkpt>
      <trkpt lat="47.33341" lon="-2.34927">
        <ele>47.200000762939</ele>
        <time>2022-06-02T07:46:25.000Z</time>
      </trkpt>
      <trkpt lat="47.33339" lon="-2.34926">
        <ele>47.200000762939</ele>
        <time>2022-06-02T07:46:28.000Z</time>
      </trkpt>
      <trkpt lat="47.33335" lon="-2.34927">
        <ele>47.200000762939</ele>
        <time>2022-06-02T07:46:49.000Z</time>
      </trkpt>
      <trkpt lat="47.33331" lon="-2.34928">
        <ele>47.200000762939</ele>
        <time>2022-06-02T07:46:50.000Z</time>
      </trkpt>
      <trkpt lat="47.33313" lon="-2.3493">
        <ele>47.200000762939</ele>
        <time>2022-06-02T07:46:55.000Z</time>
      </trkpt>
      <trkpt lat="47.33292" lon="-2.34934">
        <ele>47.200000762939</ele>
        <time>2022-06-02T07:47:00.000Z</time>
      </trkpt>
      <trkpt lat="47.33274" lon="-2.3494">
        <ele>47.200000762939</ele>
        <time>2022-06-02T07:47:06.000Z</time>
      </trkpt>
      <trkpt lat="47.33255" lon="-2.34953">
        <ele>47.200000762939</ele>
        <time>2022-06-02T07:47:13.000Z</time>
      </trkpt>
      <trkpt lat="47.33241" lon="-2.3496">
        <ele>47.200000762939</ele>
        <time>2022-06-02T07:47:17.000Z</time>
      </trkpt>
      <trkpt lat="47.33223" lon="-2.34971">
        <ele>47.200000762939</ele>
        <time>2022-06-02T07:47:22.000Z</time>
      </trkpt>
      <trkpt lat="47.33199" lon="-2.34995">
        <ele>47.200000762939</ele>
        <time>2022-06-02T07:47:29.000Z</time>
      </trkpt>
      <trkpt lat="47.33182" lon="-2.35015">
        <ele>47.200000762939</ele>
        <time>2022-06-02T07:47:35.000Z</time>
      </trkpt>
      <trkpt lat="47.33177" lon="-2.35018">
        <ele>47.200000762939</ele>
        <time>2022-06-02T07:47:37.000Z</time>
      </trkpt>
      <trkpt lat="47.33174" lon="-2.35018">
        <ele>47.200000762939</ele>
        <time>2022-06-02T07:47:39.000Z</time>
      </trkpt>
      <trkpt lat="47.33173" lon="-2.35017">
        <ele>47.200000762939</ele>
        <time>2022-06-02T07:47:40.000Z</time>
      </trkpt>
      <trkpt lat="47.33163" lon="-2.35012">
        <ele>47.200000762939</ele>
        <time>2022-06-02T07:47:43.000Z</time>
      </trkpt>
      <trkpt lat="47.33154" lon="-2.35017">
        <ele>47.200000762939</ele>
        <time>2022-06-02T07:47:46.000Z</time>
      </trkpt>
      <trkpt lat="47.33152" lon="-2.3502">
        <ele>47.200000762939</ele>
        <time>2022-06-02T07:47:47.000Z</time>
      </trkpt>
      <trkpt lat="47.33138" lon="-2.3504">
        <ele>47.200000762939</ele>
        <time>2022-06-02T07:47:52.000Z</time>
      </trkpt>
      <trkpt lat="47.33121" lon="-2.35061">
        <ele>47.200000762939</ele>
        <time>2022-06-02T07:47:57.000Z</time>
      </trkpt>
      <trkpt lat="47.33103" lon="-2.35085">
        <ele>47.200000762939</ele>
        <time>2022-06-02T07:48:02.000Z</time>
      </trkpt>
      <trkpt lat="47.33096" lon="-2.35093">
        <ele>47.599998474121</ele>
        <time>2022-06-02T07:48:04.000Z</time>
      </trkpt>
      <trkpt lat="47.33091" lon="-2.35097">
        <ele>48</ele>
        <time>2022-06-02T07:48:05.000Z</time>
      </trkpt>
      <trkpt lat="47.33086" lon="-2.35101">
        <ele>48.400001525879</ele>
        <time>2022-06-02T07:48:06.000Z</time>
      </trkpt>
      <trkpt lat="47.33082" lon="-2.35106">
        <ele>48.799999237061</ele>
        <time>2022-06-02T07:48:07.000Z</time>
      </trkpt>
      <trkpt lat="47.33079" lon="-2.35111">
        <ele>49.200000762939</ele>
        <time>2022-06-02T07:48:08.000Z</time>
      </trkpt>
      <trkpt lat="47.33069" lon="-2.35127">
        <ele>49.200000762939</ele>
        <time>2022-06-02T07:48:12.000Z</time>
      </trkpt>
      <trkpt lat="47.33062" lon="-2.35138">
        <ele>49.200000762939</ele>
        <time>2022-06-02T07:48:17.000Z</time>
      </trkpt>
      <trkpt lat="47.33061" lon="-2.3514">
        <ele>49.200000762939</ele>
        <time>2022-06-02T07:48:19.000Z</time>
      </trkpt>
      <trkpt lat="47.33059" lon="-2.35144">
        <ele>49.200000762939</ele>
        <time>2022-06-02T07:48:59.000Z</time>
      </trkpt>
      <trkpt lat="47.33057" lon="-2.3515">
        <ele>49.200000762939</ele>
        <time>2022-06-02T07:49:00.000Z</time>
      </trkpt>
      <trkpt lat="47.33051" lon="-2.3517">
        <ele>49.200000762939</ele>
        <time>2022-06-02T07:49:06.000Z</time>
      </trkpt>
      <trkpt lat="47.3304" lon="-2.35187">
        <ele>49.200000762939</ele>
        <time>2022-06-02T07:49:10.000Z</time>
      </trkpt>
      <trkpt lat="47.33038" lon="-2.35192">
        <ele>49.200000762939</ele>
        <time>2022-06-02T07:49:11.000Z</time>
      </trkpt>
      <trkpt lat="47.33028" lon="-2.35217">
        <ele>49.599998474121</ele>
        <time>2022-06-02T07:49:16.000Z</time>
      </trkpt>
      <trkpt lat="47.33027" lon="-2.35221">
        <ele>50</ele>
        <time>2022-06-02T07:49:17.000Z</time>
      </trkpt>
      <trkpt lat="47.33026" lon="-2.35225">
        <ele>50.400001525879</ele>
        <time>2022-06-02T07:49:18.000Z</time>
      </trkpt>
      <trkpt lat="47.33027" lon="-2.35229">
        <ele>50.799999237061</ele>
        <time>2022-06-02T07:49:19.000Z</time>
      </trkpt>
      <trkpt lat="47.33027" lon="-2.35234">
        <ele>51.200000762939</ele>
        <time>2022-06-02T07:49:20.000Z</time>
      </trkpt>
      <trkpt lat="47.33026" lon="-2.35243">
        <ele>51.200000762939</ele>
        <time>2022-06-02T07:49:22.000Z</time>
      </trkpt>
      <trkpt lat="47.33023" lon="-2.35278">
        <ele>51.200000762939</ele>
        <time>2022-06-02T07:49:28.000Z</time>
      </trkpt>
      <trkpt lat="47.3302" lon="-2.35307">
        <ele>51.200000762939</ele>
        <time>2022-06-02T07:49:33.000Z</time>
      </trkpt>
      <trkpt lat="47.33017" lon="-2.35344">
        <ele>51.200000762939</ele>
        <time>2022-06-02T07:49:39.000Z</time>
      </trkpt>
      <trkpt lat="47.3302" lon="-2.35386">
        <ele>51.200000762939</ele>
        <time>2022-06-02T07:49:44.000Z</time>
      </trkpt>
      <trkpt lat="47.3302" lon="-2.35413">
        <ele>51.200000762939</ele>
        <time>2022-06-02T07:49:47.000Z</time>
      </trkpt>
      <trkpt lat="47.33022" lon="-2.3543">
        <ele>50.799999237061</ele>
        <time>2022-06-02T07:49:49.000Z</time>
      </trkpt>
      <trkpt lat="47.33022" lon="-2.35439">
        <ele>50.400001525879</ele>
        <time>2022-06-02T07:49:50.000Z</time>
      </trkpt>
      <trkpt lat="47.33022" lon="-2.3545">
        <ele>50</ele>
        <time>2022-06-02T07:49:51.000Z</time>
      </trkpt>
      <trkpt lat="47.33022" lon="-2.35459">
        <ele>49.599998474121</ele>
        <time>2022-06-02T07:49:52.000Z</time>
      </trkpt>
      <trkpt lat="47.33021" lon="-2.35467">
        <ele>49.200000762939</ele>
        <time>2022-06-02T07:49:53.000Z</time>
      </trkpt>
      <trkpt lat="47.33018" lon="-2.3552">
        <ele>49.200000762939</ele>
        <time>2022-06-02T07:49:59.000Z</time>
      </trkpt>
      <trkpt lat="47.33017" lon="-2.35535">
        <ele>49.200000762939</ele>
        <time>2022-06-02T07:50:01.000Z</time>
      </trkpt>
      <trkpt lat="47.33019" lon="-2.35551">
        <ele>48.799999237061</ele>
        <time>2022-06-02T07:50:03.000Z</time>
      </trkpt>
      <trkpt lat="47.33019" lon="-2.35559">
        <ele>48.400001525879</ele>
        <time>2022-06-02T07:50:04.000Z</time>
      </trkpt>
      <trkpt lat="47.33018" lon="-2.35567">
        <ele>48</ele>
        <time>2022-06-02T07:50:05.000Z</time>
      </trkpt>
      <trkpt lat="47.33018" lon="-2.35575">
        <ele>47.599998474121</ele>
        <time>2022-06-02T07:50:06.000Z</time>
      </trkpt>
      <trkpt lat="47.33017" lon="-2.35585">
        <ele>47.200000762939</ele>
        <time>2022-06-02T07:50:07.000Z</time>
      </trkpt>
      <trkpt lat="47.33014" lon="-2.35624">
        <ele>47.200000762939</ele>
        <time>2022-06-02T07:50:11.000Z</time>
      </trkpt>
      <trkpt lat="47.33011" lon="-2.35646">
        <ele>46.599998474121</ele>
        <time>2022-06-02T07:50:13.000Z</time>
      </trkpt>
      <trkpt lat="47.33011" lon="-2.35656">
        <ele>46.200000762939</ele>
        <time>2022-06-02T07:50:14.000Z</time>
      </trkpt>
      <trkpt lat="47.3301" lon="-2.35665">
        <ele>45.799999237061</ele>
        <time>2022-06-02T07:50:15.000Z</time>
      </trkpt>
      <trkpt lat="47.33009" lon="-2.35675">
        <ele>45.400001525879</ele>
        <time>2022-06-02T07:50:16.000Z</time>
      </trkpt>
      <trkpt lat="47.33008" lon="-2.35684">
        <ele>45</ele>
        <time>2022-06-02T07:50:17.000Z</time>
      </trkpt>
      <trkpt lat="47.33007" lon="-2.35731">
        <ele>45</ele>
        <time>2022-06-02T07:50:22.000Z</time>
      </trkpt>
      <trkpt lat="47.33007" lon="-2.35755">
        <ele>45</ele>
        <time>2022-06-02T07:50:25.000Z</time>
      </trkpt>
      <trkpt lat="47.33008" lon="-2.3577">
        <ele>45</ele>
        <time>2022-06-02T07:50:27.000Z</time>
      </trkpt>
      <trkpt lat="47.3301" lon="-2.35778">
        <ele>45</ele>
        <time>2022-06-02T07:50:28.000Z</time>
      </trkpt>
      <trkpt lat="47.33019" lon="-2.35791">
        <ele>45</ele>
        <time>2022-06-02T07:50:30.000Z</time>
      </trkpt>
      <trkpt lat="47.33043" lon="-2.35804">
        <ele>45</ele>
        <time>2022-06-02T07:50:34.000Z</time>
      </trkpt>
      <trkpt lat="47.33049" lon="-2.35805">
        <ele>45</ele>
        <time>2022-06-02T07:50:35.000Z</time>
      </trkpt>
      <trkpt lat="47.33083" lon="-2.35805">
        <ele>45.400001525879</ele>
        <time>2022-06-02T07:50:40.000Z</time>
      </trkpt>
      <trkpt lat="47.33089" lon="-2.35804">
        <ele>45.799999237061</ele>
        <time>2022-06-02T07:50:41.000Z</time>
      </trkpt>
      <trkpt lat="47.33095" lon="-2.35804">
        <ele>46.200000762939</ele>
        <time>2022-06-02T07:50:42.000Z</time>
      </trkpt>
      <trkpt lat="47.33101" lon="-2.35805">
        <ele>46.599998474121</ele>
        <time>2022-06-02T07:50:43.000Z</time>
      </trkpt>
      <trkpt lat="47.33107" lon="-2.35805">
        <ele>47</ele>
        <time>2022-06-02T07:50:44.000Z</time>
      </trkpt>
      <trkpt lat="47.33125" lon="-2.35805">
        <ele>47</ele>
        <time>2022-06-02T07:50:47.000Z</time>
      </trkpt>
      <trkpt lat="47.33159" lon="-2.35808">
        <ele>47</ele>
        <time>2022-06-02T07:50:53.000Z</time>
      </trkpt>
      <trkpt lat="47.3317" lon="-2.35811">
        <ele>47.400001525879</ele>
        <time>2022-06-02T07:50:55.000Z</time>
      </trkpt>
      <trkpt lat="47.33176" lon="-2.35812">
        <ele>47.799999237061</ele>
        <time>2022-06-02T07:50:56.000Z</time>
      </trkpt>
      <trkpt lat="47.33182" lon="-2.35813">
        <ele>48.200000762939</ele>
        <time>2022-06-02T07:50:57.000Z</time>
      </trkpt>
      <trkpt lat="47.33188" lon="-2.35814">
        <ele>48.599998474121</ele>
        <time>2022-06-02T07:50:58.000Z</time>
      </trkpt>
      <trkpt lat="47.33194" lon="-2.35816">
        <ele>49</ele>
        <time>2022-06-02T07:50:59.000Z</time>
      </trkpt>
      <trkpt lat="47.332" lon="-2.35817">
        <ele>49</ele>
        <time>2022-06-02T07:51:00.000Z</time>
      </trkpt>
      <trkpt lat="47.33232" lon="-2.35829">
        <ele>49</ele>
        <time>2022-06-02T07:51:06.000Z</time>
      </trkpt>
      <trkpt lat="47.33247" lon="-2.35838">
        <ele>49.400001525879</ele>
        <time>2022-06-02T07:51:09.000Z</time>
      </trkpt>
      <trkpt lat="47.33251" lon="-2.35841">
        <ele>49.799999237061</ele>
        <time>2022-06-02T07:51:10.000Z</time>
      </trkpt>
      <trkpt lat="47.33255" lon="-2.35845">
        <ele>50.200000762939</ele>
        <time>2022-06-02T07:51:11.000Z</time>
      </trkpt>
      <trkpt lat="47.33259" lon="-2.3585">
        <ele>51</ele>
        <time>2022-06-02T07:51:12.000Z</time>
      </trkpt>
      <trkpt lat="47.33267" lon="-2.35859">
        <ele>51.400001525879</ele>
        <time>2022-06-02T07:51:14.000Z</time>
      </trkpt>
      <trkpt lat="47.3327" lon="-2.35864">
        <ele>51.799999237061</ele>
        <time>2022-06-02T07:51:15.000Z</time>
      </trkpt>
      <trkpt lat="47.33274" lon="-2.35868">
        <ele>52.400001525879</ele>
        <time>2022-06-02T07:51:16.000Z</time>
      </trkpt>
      <trkpt lat="47.33278" lon="-2.35872">
        <ele>52.799999237061</ele>
        <time>2022-06-02T07:51:17.000Z</time>
      </trkpt>
      <trkpt lat="47.33283" lon="-2.35875">
        <ele>53.200000762939</ele>
        <time>2022-06-02T07:51:18.000Z</time>
      </trkpt>
      <trkpt lat="47.33305" lon="-2.3589">
        <ele>53.200000762939</ele>
        <time>2022-06-02T07:51:23.000Z</time>
      </trkpt>
      <trkpt lat="47.33309" lon="-2.35895">
        <ele>53.599998474121</ele>
        <time>2022-06-02T07:51:24.000Z</time>
      </trkpt>
      <trkpt lat="47.33313" lon="-2.359">
        <ele>54</ele>
        <time>2022-06-02T07:51:25.000Z</time>
      </trkpt>
      <trkpt lat="47.33315" lon="-2.35907">
        <ele>54.400001525879</ele>
        <time>2022-06-02T07:51:26.000Z</time>
      </trkpt>
      <trkpt lat="47.33317" lon="-2.35914">
        <ele>54.799999237061</ele>
        <time>2022-06-02T07:51:27.000Z</time>
      </trkpt>
      <trkpt lat="47.33319" lon="-2.35921">
        <ele>55.400001525879</ele>
        <time>2022-06-02T07:51:28.000Z</time>
      </trkpt>
      <trkpt lat="47.33325" lon="-2.35951">
        <ele>55.400001525879</ele>
        <time>2022-06-02T07:51:32.000Z</time>
      </trkpt>
      <trkpt lat="47.33322" lon="-2.35981">
        <ele>55.400001525879</ele>
        <time>2022-06-02T07:51:36.000Z</time>
      </trkpt>
      <trkpt lat="47.3332" lon="-2.3599">
        <ele>55.400001525879</ele>
        <time>2022-06-02T07:51:37.000Z</time>
      </trkpt>
      <trkpt lat="47.33312" lon="-2.36045">
        <ele>55.400001525879</ele>
        <time>2022-06-02T07:51:44.000Z</time>
      </trkpt>
      <trkpt lat="47.3331" lon="-2.36102">
        <ele>55.400001525879</ele>
        <time>2022-06-02T07:51:51.000Z</time>
      </trkpt>
      <trkpt lat="47.3331" lon="-2.36162">
        <ele>55.400001525879</ele>
        <time>2022-06-02T07:51:58.000Z</time>
      </trkpt>
      <trkpt lat="47.3331" lon="-2.3621">
        <ele>55.400001525879</ele>
        <time>2022-06-02T07:52:04.000Z</time>
      </trkpt>
      <trkpt lat="47.33312" lon="-2.36215">
        <ele>55.400001525879</ele>
        <time>2022-06-02T07:52:05.000Z</time>
      </trkpt>
      <trkpt lat="47.33324" lon="-2.36212">
        <ele>55.400001525879</ele>
        <time>2022-06-02T07:52:08.000Z</time>
      </trkpt>
      <trkpt lat="47.33328" lon="-2.36209">
        <ele>55.400001525879</ele>
        <time>2022-06-02T07:52:09.000Z</time>
      </trkpt>
      <trkpt lat="47.33355" lon="-2.3619">
        <ele>55.400001525879</ele>
        <time>2022-06-02T07:52:15.000Z</time>
      </trkpt>
      <trkpt lat="47.33363" lon="-2.36184">
        <ele>55.400001525879</ele>
        <time>2022-06-02T07:52:17.000Z</time>
      </trkpt>
      <trkpt lat="47.33382" lon="-2.36173">
        <ele>55.400001525879</ele>
        <time>2022-06-02T07:52:21.000Z</time>
      </trkpt>
      <trkpt lat="47.33404" lon="-2.3616">
        <ele>55.400001525879</ele>
        <time>2022-06-02T07:52:26.000Z</time>
      </trkpt>
      <trkpt lat="47.33408" lon="-2.36161">
        <ele>55.400001525879</ele>
        <time>2022-06-02T07:52:27.000Z</time>
      </trkpt>
      <trkpt lat="47.33412" lon="-2.36172">
        <ele>55.400001525879</ele>
        <time>2022-06-02T07:52:29.000Z</time>
      </trkpt>
      <trkpt lat="47.33414" lon="-2.36194">
        <ele>55.400001525879</ele>
        <time>2022-06-02T07:52:32.000Z</time>
      </trkpt>
      <trkpt lat="47.33415" lon="-2.3621">
        <ele>55.400001525879</ele>
        <time>2022-06-02T07:52:34.000Z</time>
      </trkpt>
      <trkpt lat="47.33411" lon="-2.36236">
        <ele>55.400001525879</ele>
        <time>2022-06-02T07:52:37.000Z</time>
      </trkpt>
      <trkpt lat="47.3341" lon="-2.36244">
        <ele>55.400001525879</ele>
        <time>2022-06-02T07:52:38.000Z</time>
      </trkpt>
      <trkpt lat="47.33411" lon="-2.36278">
        <ele>55.400001525879</ele>
        <time>2022-06-02T07:52:42.000Z</time>
      </trkpt>
      <trkpt lat="47.33414" lon="-2.36295">
        <ele>55.400001525879</ele>
        <time>2022-06-02T07:52:44.000Z</time>
      </trkpt>
      <trkpt lat="47.33422" lon="-2.36328">
        <ele>55.400001525879</ele>
        <time>2022-06-02T07:52:49.000Z</time>
      </trkpt>
      <trkpt lat="47.33425" lon="-2.36336">
        <ele>54.400001525879</ele>
        <time>2022-06-02T07:52:51.000Z</time>
      </trkpt>
      <trkpt lat="47.33427" lon="-2.3634">
        <ele>54</ele>
        <time>2022-06-02T07:52:52.000Z</time>
      </trkpt>
      <trkpt lat="47.33428" lon="-2.36345">
        <ele>53.599998474121</ele>
        <time>2022-06-02T07:52:53.000Z</time>
      </trkpt>
      <trkpt lat="47.3343" lon="-2.3635">
        <ele>53.200000762939</ele>
        <time>2022-06-02T07:52:54.000Z</time>
      </trkpt>
      <trkpt lat="47.33437" lon="-2.36364">
        <ele>53.200000762939</ele>
        <time>2022-06-02T07:52:58.000Z</time>
      </trkpt>
      <trkpt lat="47.33445" lon="-2.36388">
        <ele>53.200000762939</ele>
        <time>2022-06-02T07:53:04.000Z</time>
      </trkpt>
      <trkpt lat="47.33449" lon="-2.36398">
        <ele>53.200000762939</ele>
        <time>2022-06-02T07:53:09.000Z</time>
      </trkpt>
      <trkpt lat="47.33454" lon="-2.36404">
        <ele>52.799999237061</ele>
        <time>2022-06-02T07:53:11.000Z</time>
      </trkpt>
      <trkpt lat="47.33458" lon="-2.36406">
        <ele>52.400001525879</ele>
        <time>2022-06-02T07:53:12.000Z</time>
      </trkpt>
      <trkpt lat="47.33461" lon="-2.36407">
        <ele>52</ele>
        <time>2022-06-02T07:53:13.000Z</time>
      </trkpt>
      <trkpt lat="47.33465" lon="-2.36409">
        <ele>51.599998474121</ele>
        <time>2022-06-02T07:53:14.000Z</time>
      </trkpt>
      <trkpt lat="47.33467" lon="-2.3641">
        <ele>51.200000762939</ele>
        <time>2022-06-02T07:53:15.000Z</time>
      </trkpt>
      <trkpt lat="47.3347" lon="-2.36412">
        <ele>51.200000762939</ele>
        <time>2022-06-02T07:53:17.000Z</time>
      </trkpt>
      <trkpt lat="47.33472" lon="-2.3642">
        <ele>51.200000762939</ele>
        <time>2022-06-02T07:53:21.000Z</time>
      </trkpt>
      <trkpt lat="47.33473" lon="-2.36423">
        <ele>51.200000762939</ele>
        <time>2022-06-02T07:53:22.000Z</time>
      </trkpt>
      <trkpt lat="47.33473" lon="-2.36426">
        <ele>51.200000762939</ele>
        <time>2022-06-02T07:53:23.000Z</time>
      </trkpt>
      <trkpt lat="47.33472" lon="-2.36438">
        <ele>51.200000762939</ele>
        <time>2022-06-02T07:53:26.000Z</time>
      </trkpt>
      <trkpt lat="47.33471" lon="-2.36476">
        <ele>51.200000762939</ele>
        <time>2022-06-02T07:53:32.000Z</time>
      </trkpt>
      <trkpt lat="47.3347" lon="-2.3653">
        <ele>50.799999237061</ele>
        <time>2022-06-02T07:53:40.000Z</time>
      </trkpt>
      <trkpt lat="47.3347" lon="-2.36536">
        <ele>50.400001525879</ele>
        <time>2022-06-02T07:53:41.000Z</time>
      </trkpt>
      <trkpt lat="47.3347" lon="-2.36542">
        <ele>49.799999237061</ele>
        <time>2022-06-02T07:53:42.000Z</time>
      </trkpt>
      <trkpt lat="47.3347" lon="-2.36549">
        <ele>49.400001525879</ele>
        <time>2022-06-02T07:53:43.000Z</time>
      </trkpt>
      <trkpt lat="47.33471" lon="-2.36555">
        <ele>49</ele>
        <time>2022-06-02T07:53:44.000Z</time>
      </trkpt>
      <trkpt lat="47.33471" lon="-2.36575">
        <ele>49</ele>
        <time>2022-06-02T07:53:47.000Z</time>
      </trkpt>
      <trkpt lat="47.33475" lon="-2.36582">
        <ele>49</ele>
        <time>2022-06-02T07:53:49.000Z</time>
      </trkpt>
      <trkpt lat="47.33478" lon="-2.36585">
        <ele>49</ele>
        <time>2022-06-02T07:53:50.000Z</time>
      </trkpt>
      <trkpt lat="47.33498" lon="-2.36594">
        <ele>49</ele>
        <time>2022-06-02T07:53:56.000Z</time>
      </trkpt>
      <trkpt lat="47.33516" lon="-2.36607">
        <ele>49</ele>
        <time>2022-06-02T07:54:01.000Z</time>
      </trkpt>
      <trkpt lat="47.33525" lon="-2.36613">
        <ele>49</ele>
        <time>2022-06-02T07:54:03.000Z</time>
      </trkpt>
      <trkpt lat="47.33528" lon="-2.36616">
        <ele>48.599998474121</ele>
        <time>2022-06-02T07:54:04.000Z</time>
      </trkpt>
      <trkpt lat="47.33531" lon="-2.36618">
        <ele>48</ele>
        <time>2022-06-02T07:54:05.000Z</time>
      </trkpt>
      <trkpt lat="47.33534" lon="-2.36621">
        <ele>47.599998474121</ele>
        <time>2022-06-02T07:54:06.000Z</time>
      </trkpt>
      <trkpt lat="47.33536" lon="-2.36624">
        <ele>47.200000762939</ele>
        <time>2022-06-02T07:54:07.000Z</time>
      </trkpt>
      <trkpt lat="47.33539" lon="-2.36627">
        <ele>46.599998474121</ele>
        <time>2022-06-02T07:54:08.000Z</time>
      </trkpt>
      <trkpt lat="47.3354" lon="-2.36631">
        <ele>46</ele>
        <time>2022-06-02T07:54:09.000Z</time>
      </trkpt>
      <trkpt lat="47.33542" lon="-2.36634">
        <ele>45.400001525879</ele>
        <time>2022-06-02T07:54:10.000Z</time>
      </trkpt>
      <trkpt lat="47.33542" lon="-2.36637">
        <ele>44.799999237061</ele>
        <time>2022-06-02T07:54:11.000Z</time>
      </trkpt>
      <trkpt lat="47.33542" lon="-2.36641">
        <ele>44</ele>
        <time>2022-06-02T07:54:12.000Z</time>
      </trkpt>
      <trkpt lat="47.33541" lon="-2.36644">
        <ele>43.400001525879</ele>
        <time>2022-06-02T07:54:13.000Z</time>
      </trkpt>
      <trkpt lat="47.3354" lon="-2.36648">
        <ele>42.799999237061</ele>
        <time>2022-06-02T07:54:14.000Z</time>
      </trkpt>
      <trkpt lat="47.33538" lon="-2.36652">
        <ele>42.200000762939</ele>
        <time>2022-06-02T07:54:15.000Z</time>
      </trkpt>
      <trkpt lat="47.33529" lon="-2.36663">
        <ele>42.200000762939</ele>
        <time>2022-06-02T07:54:18.000Z</time>
      </trkpt>
      <trkpt lat="47.33511" lon="-2.36693">
        <ele>42.200000762939</ele>
        <time>2022-06-02T07:54:25.000Z</time>
      </trkpt>
      <trkpt lat="47.33498" lon="-2.36719">
        <ele>42.200000762939</ele>
        <time>2022-06-02T07:54:31.000Z</time>
      </trkpt>
      <trkpt lat="47.33488" lon="-2.36748">
        <ele>42.200000762939</ele>
        <time>2022-06-02T07:54:37.000Z</time>
      </trkpt>
      <trkpt lat="47.33481" lon="-2.36765">
        <ele>42.200000762939</ele>
        <time>2022-06-02T07:54:40.000Z</time>
      </trkpt>
      <trkpt lat="47.33477" lon="-2.36779">
        <ele>42.200000762939</ele>
        <time>2022-06-02T07:54:42.000Z</time>
      </trkpt>
      <trkpt lat="47.33475" lon="-2.36795">
        <ele>42.200000762939</ele>
        <time>2022-06-02T07:54:44.000Z</time>
      </trkpt>
      <trkpt lat="47.33471" lon="-2.36822">
        <ele>42.200000762939</ele>
        <time>2022-06-02T07:54:48.000Z</time>
      </trkpt>
      <trkpt lat="47.33463" lon="-2.36847">
        <ele>42.200000762939</ele>
        <time>2022-06-02T07:54:53.000Z</time>
      </trkpt>
      <trkpt lat="47.33455" lon="-2.36864">
        <ele>42.599998474121</ele>
        <time>2022-06-02T07:54:58.000Z</time>
      </trkpt>
      <trkpt lat="47.33454" lon="-2.36867">
        <ele>43</ele>
        <time>2022-06-02T07:54:59.000Z</time>
      </trkpt>
      <trkpt lat="47.33453" lon="-2.36869">
        <ele>43.599998474121</ele>
        <time>2022-06-02T07:55:00.000Z</time>
      </trkpt>
      <trkpt lat="47.33453" lon="-2.36871">
        <ele>44</ele>
        <time>2022-06-02T07:55:01.000Z</time>
      </trkpt>
      <trkpt lat="47.33452" lon="-2.36874">
        <ele>44.400001525879</ele>
        <time>2022-06-02T07:55:02.000Z</time>
      </trkpt>
      <trkpt lat="47.33452" lon="-2.36878">
        <ele>44.400001525879</ele>
        <time>2022-06-02T07:55:03.000Z</time>
      </trkpt>
      <trkpt lat="47.33454" lon="-2.36901">
        <ele>44.400001525879</ele>
        <time>2022-06-02T07:55:08.000Z</time>
      </trkpt>
      <trkpt lat="47.33452" lon="-2.36934">
        <ele>44.400001525879</ele>
        <time>2022-06-02T07:55:14.000Z</time>
      </trkpt>
      <trkpt lat="47.33452" lon="-2.36952">
        <ele>44.400001525879</ele>
        <time>2022-06-02T07:55:17.000Z</time>
      </trkpt>
      <trkpt lat="47.33454" lon="-2.36958">
        <ele>44.400001525879</ele>
        <time>2022-06-02T07:55:18.000Z</time>
      </trkpt>
      <trkpt lat="47.33463" lon="-2.36979">
        <ele>44.400001525879</ele>
        <time>2022-06-02T07:55:22.000Z</time>
      </trkpt>
      <trkpt lat="47.33472" lon="-2.36994">
        <ele>44.400001525879</ele>
        <time>2022-06-02T07:55:27.000Z</time>
      </trkpt>
      <trkpt lat="47.33472" lon="-2.36997">
        <ele>44.400001525879</ele>
        <time>2022-06-02T07:55:28.000Z</time>
      </trkpt>
      <trkpt lat="47.33474" lon="-2.37006">
        <ele>44.400001525879</ele>
        <time>2022-06-02T07:55:32.000Z</time>
      </trkpt>
      <trkpt lat="47.33474" lon="-2.37007">
        <ele>44.400001525879</ele>
        <time>2022-06-02T07:55:34.000Z</time>
      </trkpt>
      <trkpt lat="47.33472" lon="-2.37013">
        <ele>44.400001525879</ele>
        <time>2022-06-02T07:56:08.000Z</time>
      </trkpt>
      <trkpt lat="47.33471" lon="-2.37017">
        <ele>44.400001525879</ele>
        <time>2022-06-02T07:56:09.000Z</time>
      </trkpt>
      <trkpt lat="47.33468" lon="-2.37042">
        <ele>44.400001525879</ele>
        <time>2022-06-02T07:56:14.000Z</time>
      </trkpt>
      <trkpt lat="47.33468" lon="-2.37056">
        <ele>44.400001525879</ele>
        <time>2022-06-02T07:56:16.000Z</time>
      </trkpt>
      <trkpt lat="47.33471" lon="-2.37089">
        <ele>44.400001525879</ele>
        <time>2022-06-02T07:56:21.000Z</time>
      </trkpt>
      <trkpt lat="47.33471" lon="-2.37095">
        <ele>44.799999237061</ele>
        <time>2022-06-02T07:56:22.000Z</time>
      </trkpt>
      <trkpt lat="47.33471" lon="-2.37102">
        <ele>45.200000762939</ele>
        <time>2022-06-02T07:56:23.000Z</time>
      </trkpt>
      <trkpt lat="47.33472" lon="-2.37108">
        <ele>45.599998474121</ele>
        <time>2022-06-02T07:56:24.000Z</time>
      </trkpt>
      <trkpt lat="47.33473" lon="-2.37115">
        <ele>46.200000762939</ele>
        <time>2022-06-02T07:56:25.000Z</time>
      </trkpt>
      <trkpt lat="47.33473" lon="-2.3712">
        <ele>46.599998474121</ele>
        <time>2022-06-02T07:56:26.000Z</time>
      </trkpt>
      <trkpt lat="47.33475" lon="-2.37133">
        <ele>46.599998474121</ele>
        <time>2022-06-02T07:56:28.000Z</time>
      </trkpt>
      <trkpt lat="47.33479" lon="-2.37164">
        <ele>47</ele>
        <time>2022-06-02T07:56:33.000Z</time>
      </trkpt>
      <trkpt lat="47.3348" lon="-2.3717">
        <ele>47.400001525879</ele>
        <time>2022-06-02T07:56:34.000Z</time>
      </trkpt>
      <trkpt lat="47.33481" lon="-2.37175">
        <ele>47.799999237061</ele>
        <time>2022-06-02T07:56:35.000Z</time>
      </trkpt>
      <trkpt lat="47.33482" lon="-2.37181">
        <ele>48.200000762939</ele>
        <time>2022-06-02T07:56:36.000Z</time>
      </trkpt>
      <trkpt lat="47.33484" lon="-2.37188">
        <ele>48.599998474121</ele>
        <time>2022-06-02T07:56:37.000Z</time>
      </trkpt>
      <trkpt lat="47.33492" lon="-2.37216">
        <ele>48.599998474121</ele>
        <time>2022-06-02T07:56:41.000Z</time>
      </trkpt>
      <trkpt lat="47.33502" lon="-2.37226">
        <ele>48.599998474121</ele>
        <time>2022-06-02T07:56:44.000Z</time>
      </trkpt>
      <trkpt lat="47.33507" lon="-2.37227">
        <ele>48.599998474121</ele>
        <time>2022-06-02T07:56:45.000Z</time>
      </trkpt>
      <trkpt lat="47.33511" lon="-2.37227">
        <ele>49</ele>
        <time>2022-06-02T07:56:46.000Z</time>
      </trkpt>
      <trkpt lat="47.33515" lon="-2.37228">
        <ele>49.400001525879</ele>
        <time>2022-06-02T07:56:47.000Z</time>
      </trkpt>
      <trkpt lat="47.33519" lon="-2.37229">
        <ele>49.799999237061</ele>
        <time>2022-06-02T07:56:48.000Z</time>
      </trkpt>
      <trkpt lat="47.33522" lon="-2.3723">
        <ele>50.200000762939</ele>
        <time>2022-06-02T07:56:49.000Z</time>
      </trkpt>
      <trkpt lat="47.33526" lon="-2.3723">
        <ele>50.599998474121</ele>
        <time>2022-06-02T07:56:50.000Z</time>
      </trkpt>
      <trkpt lat="47.33546" lon="-2.3723">
        <ele>50.599998474121</ele>
        <time>2022-06-02T07:56:55.000Z</time>
      </trkpt>
      <trkpt lat="47.33554" lon="-2.37231">
        <ele>51</ele>
        <time>2022-06-02T07:56:57.000Z</time>
      </trkpt>
      <trkpt lat="47.33558" lon="-2.37232">
        <ele>51.400001525879</ele>
        <time>2022-06-02T07:56:58.000Z</time>
      </trkpt>
      <trkpt lat="47.33562" lon="-2.37233">
        <ele>51.799999237061</ele>
        <time>2022-06-02T07:56:59.000Z</time>
      </trkpt>
      <trkpt lat="47.33566" lon="-2.37234">
        <ele>52.200000762939</ele>
        <time>2022-06-02T07:57:00.000Z</time>
      </trkpt>
      <trkpt lat="47.33569" lon="-2.37234">
        <ele>52.599998474121</ele>
        <time>2022-06-02T07:57:01.000Z</time>
      </trkpt>
      <trkpt lat="47.33595" lon="-2.3723">
        <ele>52.599998474121</ele>
        <time>2022-06-02T07:57:08.000Z</time>
      </trkpt>
      <trkpt lat="47.33597" lon="-2.37212">
        <ele>52.599998474121</ele>
        <time>2022-06-02T07:57:11.000Z</time>
      </trkpt>
      <trkpt lat="47.33597" lon="-2.37205">
        <ele>52.599998474121</ele>
        <time>2022-06-02T07:57:12.000Z</time>
      </trkpt>
      <trkpt lat="47.33598" lon="-2.37184">
        <ele>52.599998474121</ele>
        <time>2022-06-02T07:57:15.000Z</time>
      </trkpt>
      <trkpt lat="47.336" lon="-2.37162">
        <ele>52.599998474121</ele>
        <time>2022-06-02T07:57:18.000Z</time>
      </trkpt>
      <trkpt lat="47.33601" lon="-2.37107">
        <ele>52.599998474121</ele>
        <time>2022-06-02T07:57:25.000Z</time>
      </trkpt>
      <trkpt lat="47.336" lon="-2.37051">
        <ele>52.599998474121</ele>
        <time>2022-06-02T07:57:32.000Z</time>
      </trkpt>
      <trkpt lat="47.33599" lon="-2.36993">
        <ele>52.599998474121</ele>
        <time>2022-06-02T07:57:39.000Z</time>
      </trkpt>
      <trkpt lat="47.33599" lon="-2.36984">
        <ele>52.599998474121</ele>
        <time>2022-06-02T07:57:40.000Z</time>
      </trkpt>
      <trkpt lat="47.33601" lon="-2.36951">
        <ele>52.599998474121</ele>
        <time>2022-06-02T07:57:44.000Z</time>
      </trkpt>
      <trkpt lat="47.33607" lon="-2.36935">
        <ele>52.599998474121</ele>
        <time>2022-06-02T07:57:46.000Z</time>
      </trkpt>
      <trkpt lat="47.3363" lon="-2.36904">
        <ele>52.599998474121</ele>
        <time>2022-06-02T07:57:51.000Z</time>
      </trkpt>
      <trkpt lat="47.3367" lon="-2.3686">
        <ele>52.599998474121</ele>
        <time>2022-06-02T07:57:59.000Z</time>
      </trkpt>
      <trkpt lat="47.33692" lon="-2.36835">
        <ele>53</ele>
        <time>2022-06-02T07:58:04.000Z</time>
      </trkpt>
      <trkpt lat="47.33697" lon="-2.36832">
        <ele>53.400001525879</ele>
        <time>2022-06-02T07:58:05.000Z</time>
      </trkpt>
      <trkpt lat="47.33701" lon="-2.36828">
        <ele>54</ele>
        <time>2022-06-02T07:58:06.000Z</time>
      </trkpt>
      <trkpt lat="47.33706" lon="-2.36824">
        <ele>54.400001525879</ele>
        <time>2022-06-02T07:58:07.000Z</time>
      </trkpt>
      <trkpt lat="47.33711" lon="-2.36821">
        <ele>54.799999237061</ele>
        <time>2022-06-02T07:58:08.000Z</time>
      </trkpt>
      <trkpt lat="47.33725" lon="-2.36813">
        <ele>54.799999237061</ele>
        <time>2022-06-02T07:58:11.000Z</time>
      </trkpt>
      <trkpt lat="47.3373" lon="-2.36811">
        <ele>54.799999237061</ele>
        <time>2022-06-02T07:58:12.000Z</time>
      </trkpt>
      <trkpt lat="47.33765" lon="-2.36798">
        <ele>54.799999237061</ele>
        <time>2022-06-02T07:58:19.000Z</time>
      </trkpt>
      <trkpt lat="47.33802" lon="-2.36785">
        <ele>54.799999237061</ele>
        <time>2022-06-02T07:58:25.000Z</time>
      </trkpt>
      <trkpt lat="47.33826" lon="-2.36778">
        <ele>54.400001525879</ele>
        <time>2022-06-02T07:58:29.000Z</time>
      </trkpt>
      <trkpt lat="47.33832" lon="-2.36776">
        <ele>54</ele>
        <time>2022-06-02T07:58:30.000Z</time>
      </trkpt>
      <trkpt lat="47.33837" lon="-2.36775">
        <ele>53.599998474121</ele>
        <time>2022-06-02T07:58:31.000Z</time>
      </trkpt>
      <trkpt lat="47.33843" lon="-2.36773">
        <ele>53.200000762939</ele>
        <time>2022-06-02T07:58:32.000Z</time>
      </trkpt>
      <trkpt lat="47.33848" lon="-2.36772">
        <ele>52.799999237061</ele>
        <time>2022-06-02T07:58:33.000Z</time>
      </trkpt>
      <trkpt lat="47.33891" lon="-2.36761">
        <ele>52.799999237061</ele>
        <time>2022-06-02T07:58:42.000Z</time>
      </trkpt>
      <trkpt lat="47.33911" lon="-2.36757">
        <ele>52.799999237061</ele>
        <time>2022-06-02T07:58:48.000Z</time>
      </trkpt>
      <trkpt lat="47.33928" lon="-2.36759">
        <ele>52.799999237061</ele>
        <time>2022-06-02T07:58:53.000Z</time>
      </trkpt>
      <trkpt lat="47.33941" lon="-2.36758">
        <ele>52.799999237061</ele>
        <time>2022-06-02T07:58:56.000Z</time>
      </trkpt>
      <trkpt lat="47.33954" lon="-2.36756">
        <ele>52.799999237061</ele>
        <time>2022-06-02T07:58:59.000Z</time>
      </trkpt>
      <trkpt lat="47.33963" lon="-2.36753">
        <ele>52.799999237061</ele>
        <time>2022-06-02T07:59:01.000Z</time>
      </trkpt>
      <trkpt lat="47.33981" lon="-2.36746">
        <ele>52.799999237061</ele>
        <time>2022-06-02T07:59:05.000Z</time>
      </trkpt>
      <trkpt lat="47.33992" lon="-2.36743">
        <ele>52.400001525879</ele>
        <time>2022-06-02T07:59:07.000Z</time>
      </trkpt>
      <trkpt lat="47.33998" lon="-2.36741">
        <ele>51.799999237061</ele>
        <time>2022-06-02T07:59:08.000Z</time>
      </trkpt>
      <trkpt lat="47.34004" lon="-2.36739">
        <ele>51.400001525879</ele>
        <time>2022-06-02T07:59:09.000Z</time>
      </trkpt>
      <trkpt lat="47.3401" lon="-2.36737">
        <ele>51</ele>
        <time>2022-06-02T07:59:10.000Z</time>
      </trkpt>
      <trkpt lat="47.34016" lon="-2.36735">
        <ele>50.599998474121</ele>
        <time>2022-06-02T07:59:11.000Z</time>
      </trkpt>
      <trkpt lat="47.34054" lon="-2.36712">
        <ele>50.200000762939</ele>
        <time>2022-06-02T07:59:18.000Z</time>
      </trkpt>
      <trkpt lat="47.34059" lon="-2.36709">
        <ele>49.799999237061</ele>
        <time>2022-06-02T07:59:19.000Z</time>
      </trkpt>
      <trkpt lat="47.34065" lon="-2.36707">
        <ele>49.400001525879</ele>
        <time>2022-06-02T07:59:20.000Z</time>
      </trkpt>
      <trkpt lat="47.34069" lon="-2.36704">
        <ele>49</ele>
        <time>2022-06-02T07:59:21.000Z</time>
      </trkpt>
      <trkpt lat="47.34074" lon="-2.36702">
        <ele>48.599998474121</ele>
        <time>2022-06-02T07:59:22.000Z</time>
      </trkpt>
      <trkpt lat="47.34079" lon="-2.36703">
        <ele>48.599998474121</ele>
        <time>2022-06-02T07:59:23.000Z</time>
      </trkpt>
      <trkpt lat="47.34089" lon="-2.3672">
        <ele>48.599998474121</ele>
        <time>2022-06-02T07:59:26.000Z</time>
      </trkpt>
      <trkpt lat="47.34096" lon="-2.3675">
        <ele>48.599998474121</ele>
        <time>2022-06-02T07:59:30.000Z</time>
      </trkpt>
      <trkpt lat="47.34097" lon="-2.36758">
        <ele>48.599998474121</ele>
        <time>2022-06-02T07:59:31.000Z</time>
      </trkpt>
      <trkpt lat="47.34107" lon="-2.36814">
        <ele>48</ele>
        <time>2022-06-02T07:59:38.000Z</time>
      </trkpt>
      <trkpt lat="47.34109" lon="-2.36822">
        <ele>47.599998474121</ele>
        <time>2022-06-02T07:59:39.000Z</time>
      </trkpt>
      <trkpt lat="47.34111" lon="-2.36831">
        <ele>47.200000762939</ele>
        <time>2022-06-02T07:59:40.000Z</time>
      </trkpt>
      <trkpt lat="47.34112" lon="-2.36839">
        <ele>46.799999237061</ele>
        <time>2022-06-02T07:59:41.000Z</time>
      </trkpt>
      <trkpt lat="47.34114" lon="-2.36848">
        <ele>46.400001525879</ele>
        <time>2022-06-02T07:59:42.000Z</time>
      </trkpt>
      <trkpt lat="47.34119" lon="-2.36864">
        <ele>46.400001525879</ele>
        <time>2022-06-02T07:59:44.000Z</time>
      </trkpt>
      <trkpt lat="47.34132" lon="-2.36894">
        <ele>46.400001525879</ele>
        <time>2022-06-02T07:59:48.000Z</time>
      </trkpt>
      <trkpt lat="47.34158" lon="-2.36945">
        <ele>46.400001525879</ele>
        <time>2022-06-02T07:59:55.000Z</time>
      </trkpt>
      <trkpt lat="47.34166" lon="-2.36957">
        <ele>46.400001525879</ele>
        <time>2022-06-02T07:59:57.000Z</time>
      </trkpt>
      <trkpt lat="47.34178" lon="-2.36972">
        <ele>46.400001525879</ele>
        <time>2022-06-02T08:00:00.000Z</time>
      </trkpt>
      <trkpt lat="47.3419" lon="-2.36988">
        <ele>46.799999237061</ele>
        <time>2022-06-02T08:00:03.000Z</time>
      </trkpt>
      <trkpt lat="47.34194" lon="-2.36994">
        <ele>47.400001525879</ele>
        <time>2022-06-02T08:00:04.000Z</time>
      </trkpt>
      <trkpt lat="47.34198" lon="-2.36999">
        <ele>47.799999237061</ele>
        <time>2022-06-02T08:00:05.000Z</time>
      </trkpt>
      <trkpt lat="47.34202" lon="-2.37005">
        <ele>48.200000762939</ele>
        <time>2022-06-02T08:00:06.000Z</time>
      </trkpt>
      <trkpt lat="47.34206" lon="-2.37011">
        <ele>48.599998474121</ele>
        <time>2022-06-02T08:00:07.000Z</time>
      </trkpt>
      <trkpt lat="47.34219" lon="-2.37034">
        <ele>49</ele>
        <time>2022-06-02T08:00:11.000Z</time>
      </trkpt>
      <trkpt lat="47.34221" lon="-2.3704">
        <ele>49.400001525879</ele>
        <time>2022-06-02T08:00:12.000Z</time>
      </trkpt>
      <trkpt lat="47.34224" lon="-2.37046">
        <ele>49.799999237061</ele>
        <time>2022-06-02T08:00:13.000Z</time>
      </trkpt>
      <trkpt lat="47.34227" lon="-2.37052">
        <ele>50.799999237061</ele>
        <time>2022-06-02T08:00:14.000Z</time>
      </trkpt>
      <trkpt lat="47.34234" lon="-2.37062">
        <ele>50.799999237061</ele>
        <time>2022-06-02T08:00:16.000Z</time>
      </trkpt>
      <trkpt lat="47.34241" lon="-2.37064">
        <ele>50.799999237061</ele>
        <time>2022-06-02T08:00:18.000Z</time>
      </trkpt>
      <trkpt lat="47.34253" lon="-2.37052">
        <ele>50.799999237061</ele>
        <time>2022-06-02T08:00:21.000Z</time>
      </trkpt>
      <trkpt lat="47.34262" lon="-2.37043">
        <ele>50.799999237061</ele>
        <time>2022-06-02T08:00:23.000Z</time>
      </trkpt>
      <trkpt lat="47.34275" lon="-2.37029">
        <ele>50.799999237061</ele>
        <time>2022-06-02T08:00:26.000Z</time>
      </trkpt>
      <trkpt lat="47.34304" lon="-2.36992">
        <ele>50.799999237061</ele>
        <time>2022-06-02T08:00:32.000Z</time>
      </trkpt>
      <trkpt lat="47.34332" lon="-2.36955">
        <ele>50.799999237061</ele>
        <time>2022-06-02T08:00:38.000Z</time>
      </trkpt>
      <trkpt lat="47.34361" lon="-2.36909">
        <ele>50.799999237061</ele>
        <time>2022-06-02T08:00:45.000Z</time>
      </trkpt>
      <trkpt lat="47.34397" lon="-2.36849">
        <ele>50.799999237061</ele>
        <time>2022-06-02T08:00:54.000Z</time>
      </trkpt>
      <trkpt lat="47.34402" lon="-2.36842">
        <ele>50.799999237061</ele>
        <time>2022-06-02T08:00:55.000Z</time>
      </trkpt>
      <trkpt lat="47.34432" lon="-2.36793">
        <ele>50.799999237061</ele>
        <time>2022-06-02T08:01:02.000Z</time>
      </trkpt>
      <trkpt lat="47.34469" lon="-2.36733">
        <ele>50.799999237061</ele>
        <time>2022-06-02T08:01:10.000Z</time>
      </trkpt>
      <trkpt lat="47.34482" lon="-2.36709">
        <ele>50.400001525879</ele>
        <time>2022-06-02T08:01:13.000Z</time>
      </trkpt>
      <trkpt lat="47.34486" lon="-2.36701">
        <ele>49.799999237061</ele>
        <time>2022-06-02T08:01:14.000Z</time>
      </trkpt>
      <trkpt lat="47.3449" lon="-2.36693">
        <ele>49.400001525879</ele>
        <time>2022-06-02T08:01:15.000Z</time>
      </trkpt>
      <trkpt lat="47.34494" lon="-2.36684">
        <ele>49</ele>
        <time>2022-06-02T08:01:16.000Z</time>
      </trkpt>
      <trkpt lat="47.34499" lon="-2.36676">
        <ele>48.599998474121</ele>
        <time>2022-06-02T08:01:17.000Z</time>
      </trkpt>
      <trkpt lat="47.34526" lon="-2.36612">
        <ele>48.200000762939</ele>
        <time>2022-06-02T08:01:24.000Z</time>
      </trkpt>
      <trkpt lat="47.3453" lon="-2.36602">
        <ele>47.799999237061</ele>
        <time>2022-06-02T08:01:25.000Z</time>
      </trkpt>
      <trkpt lat="47.34533" lon="-2.36592">
        <ele>47.400001525879</ele>
        <time>2022-06-02T08:01:26.000Z</time>
      </trkpt>
      <trkpt lat="47.34536" lon="-2.36583">
        <ele>47</ele>
        <time>2022-06-02T08:01:27.000Z</time>
      </trkpt>
      <trkpt lat="47.3454" lon="-2.36574">
        <ele>46.400001525879</ele>
        <time>2022-06-02T08:01:28.000Z</time>
      </trkpt>
      <trkpt lat="47.34554" lon="-2.36536">
        <ele>46.400001525879</ele>
        <time>2022-06-02T08:01:32.000Z</time>
      </trkpt>
      <trkpt lat="47.34582" lon="-2.36459">
        <ele>46.400001525879</ele>
        <time>2022-06-02T08:01:40.000Z</time>
      </trkpt>
      <trkpt lat="47.3459" lon="-2.36444">
        <ele>46.400001525879</ele>
        <time>2022-06-02T08:01:42.000Z</time>
      </trkpt>
      <trkpt lat="47.34602" lon="-2.36436">
        <ele>46.400001525879</ele>
        <time>2022-06-02T08:01:44.000Z</time>
      </trkpt>
      <trkpt lat="47.34616" lon="-2.3643">
        <ele>46.400001525879</ele>
        <time>2022-06-02T08:01:46.000Z</time>
      </trkpt>
      <trkpt lat="47.34636" lon="-2.36421">
        <ele>46.400001525879</ele>
        <time>2022-06-02T08:01:49.000Z</time>
      </trkpt>
      <trkpt lat="47.3467" lon="-2.36404">
        <ele>46.400001525879</ele>
        <time>2022-06-02T08:01:55.000Z</time>
      </trkpt>
      <trkpt lat="47.34686" lon="-2.36398">
        <ele>46.400001525879</ele>
        <time>2022-06-02T08:01:58.000Z</time>
      </trkpt>
      <trkpt lat="47.34696" lon="-2.36393">
        <ele>46.400001525879</ele>
        <time>2022-06-02T08:02:00.000Z</time>
      </trkpt>
      <trkpt lat="47.34732" lon="-2.36377">
        <ele>46.400001525879</ele>
        <time>2022-06-02T08:02:06.000Z</time>
      </trkpt>
      <trkpt lat="47.34738" lon="-2.36373">
        <ele>46.400001525879</ele>
        <time>2022-06-02T08:02:07.000Z</time>
      </trkpt>
      <trkpt lat="47.34744" lon="-2.36369">
        <ele>47</ele>
        <time>2022-06-02T08:02:08.000Z</time>
      </trkpt>
      <trkpt lat="47.3475" lon="-2.36365">
        <ele>47.400001525879</ele>
        <time>2022-06-02T08:02:09.000Z</time>
      </trkpt>
      <trkpt lat="47.34756" lon="-2.36362">
        <ele>47.799999237061</ele>
        <time>2022-06-02T08:02:10.000Z</time>
      </trkpt>
      <trkpt lat="47.34763" lon="-2.36358">
        <ele>48.200000762939</ele>
        <time>2022-06-02T08:02:11.000Z</time>
      </trkpt>
      <trkpt lat="47.34769" lon="-2.36354">
        <ele>48.599998474121</ele>
        <time>2022-06-02T08:02:12.000Z</time>
      </trkpt>
      <trkpt lat="47.34806" lon="-2.36327">
        <ele>48.599998474121</ele>
        <time>2022-06-02T08:02:18.000Z</time>
      </trkpt>
      <trkpt lat="47.34825" lon="-2.36317">
        <ele>48.599998474121</ele>
        <time>2022-06-02T08:02:21.000Z</time>
      </trkpt>
      <trkpt lat="47.34836" lon="-2.36321">
        <ele>48.599998474121</ele>
        <time>2022-06-02T08:02:23.000Z</time>
      </trkpt>
      <trkpt lat="47.34847" lon="-2.36329">
        <ele>48.599998474121</ele>
        <time>2022-06-02T08:02:25.000Z</time>
      </trkpt>
      <trkpt lat="47.34853" lon="-2.36332">
        <ele>48.599998474121</ele>
        <time>2022-06-02T08:02:26.000Z</time>
      </trkpt>
      <trkpt lat="47.34892" lon="-2.36357">
        <ele>48.599998474121</ele>
        <time>2022-06-02T08:02:33.000Z</time>
      </trkpt>
      <trkpt lat="47.34927" lon="-2.36378">
        <ele>48.599998474121</ele>
        <time>2022-06-02T08:02:39.000Z</time>
      </trkpt>
      <trkpt lat="47.3494" lon="-2.36385">
        <ele>48.200000762939</ele>
        <time>2022-06-02T08:02:41.000Z</time>
      </trkpt>
      <trkpt lat="47.34947" lon="-2.3639">
        <ele>47.200000762939</ele>
        <time>2022-06-02T08:02:42.000Z</time>
      </trkpt>
      <trkpt lat="47.34954" lon="-2.36394">
        <ele>46.799999237061</ele>
        <time>2022-06-02T08:02:43.000Z</time>
      </trkpt>
      <trkpt lat="47.34961" lon="-2.36398">
        <ele>46.400001525879</ele>
        <time>2022-06-02T08:02:44.000Z</time>
      </trkpt>
      <trkpt lat="47.34968" lon="-2.36403">
        <ele>46</ele>
        <time>2022-06-02T08:02:45.000Z</time>
      </trkpt>
      <trkpt lat="47.34975" lon="-2.36408">
        <ele>45.599998474121</ele>
        <time>2022-06-02T08:02:46.000Z</time>
      </trkpt>
      <trkpt lat="47.34982" lon="-2.36412">
        <ele>45.200000762939</ele>
        <time>2022-06-02T08:02:47.000Z</time>
      </trkpt>
      <trkpt lat="47.34988" lon="-2.36415">
        <ele>44.799999237061</ele>
        <time>2022-06-02T08:02:48.000Z</time>
      </trkpt>
      <trkpt lat="47.34995" lon="-2.3642">
        <ele>44.400001525879</ele>
        <time>2022-06-02T08:02:49.000Z</time>
      </trkpt>
      <trkpt lat="47.35" lon="-2.36426">
        <ele>43.799999237061</ele>
        <time>2022-06-02T08:02:50.000Z</time>
      </trkpt>
      <trkpt lat="47.35004" lon="-2.36435">
        <ele>43.400001525879</ele>
        <time>2022-06-02T08:02:51.000Z</time>
      </trkpt>
      <trkpt lat="47.35007" lon="-2.36445">
        <ele>43</ele>
        <time>2022-06-02T08:02:52.000Z</time>
      </trkpt>
      <trkpt lat="47.3501" lon="-2.36455">
        <ele>42.599998474121</ele>
        <time>2022-06-02T08:02:53.000Z</time>
      </trkpt>
      <trkpt lat="47.35012" lon="-2.36465">
        <ele>42.200000762939</ele>
        <time>2022-06-02T08:02:54.000Z</time>
      </trkpt>
      <trkpt lat="47.35021" lon="-2.36491">
        <ele>42.200000762939</ele>
        <time>2022-06-02T08:02:57.000Z</time>
      </trkpt>
      <trkpt lat="47.35025" lon="-2.36499">
        <ele>42.200000762939</ele>
        <time>2022-06-02T08:02:58.000Z</time>
      </trkpt>
      <trkpt lat="47.35041" lon="-2.36528">
        <ele>42.200000762939</ele>
        <time>2022-06-02T08:03:02.000Z</time>
      </trkpt>
      <trkpt lat="47.35057" lon="-2.3656">
        <ele>42.200000762939</ele>
        <time>2022-06-02T08:03:06.000Z</time>
      </trkpt>
      <trkpt lat="47.3506" lon="-2.36568">
        <ele>42.599998474121</ele>
        <time>2022-06-02T08:03:07.000Z</time>
      </trkpt>
      <trkpt lat="47.35063" lon="-2.36577">
        <ele>43</ele>
        <time>2022-06-02T08:03:08.000Z</time>
      </trkpt>
      <trkpt lat="47.35066" lon="-2.36586">
        <ele>43.400001525879</ele>
        <time>2022-06-02T08:03:09.000Z</time>
      </trkpt>
      <trkpt lat="47.35069" lon="-2.36595">
        <ele>43.799999237061</ele>
        <time>2022-06-02T08:03:10.000Z</time>
      </trkpt>
      <trkpt lat="47.35072" lon="-2.36603">
        <ele>44.200000762939</ele>
        <time>2022-06-02T08:03:11.000Z</time>
      </trkpt>
      <trkpt lat="47.35089" lon="-2.36653">
        <ele>44.200000762939</ele>
        <time>2022-06-02T08:03:17.000Z</time>
      </trkpt>
      <trkpt lat="47.35104" lon="-2.36701">
        <ele>44.599998474121</ele>
        <time>2022-06-02T08:03:23.000Z</time>
      </trkpt>
      <trkpt lat="47.35107" lon="-2.36709">
        <ele>45</ele>
        <time>2022-06-02T08:03:24.000Z</time>
      </trkpt>
      <trkpt lat="47.3511" lon="-2.36718">
        <ele>45.400001525879</ele>
        <time>2022-06-02T08:03:25.000Z</time>
      </trkpt>
      <trkpt lat="47.35112" lon="-2.36727">
        <ele>45.799999237061</ele>
        <time>2022-06-02T08:03:26.000Z</time>
      </trkpt>
      <trkpt lat="47.35114" lon="-2.36735">
        <ele>46.400001525879</ele>
        <time>2022-06-02T08:03:27.000Z</time>
      </trkpt>
      <trkpt lat="47.35125" lon="-2.36774">
        <ele>46.400001525879</ele>
        <time>2022-06-02T08:03:32.000Z</time>
      </trkpt>
      <trkpt lat="47.35139" lon="-2.3683">
        <ele>46.400001525879</ele>
        <time>2022-06-02T08:03:39.000Z</time>
      </trkpt>
      <trkpt lat="47.35152" lon="-2.36888">
        <ele>46.400001525879</ele>
        <time>2022-06-02T08:03:46.000Z</time>
      </trkpt>
      <trkpt lat="47.35167" lon="-2.36926">
        <ele>46.400001525879</ele>
        <time>2022-06-02T08:03:51.000Z</time>
      </trkpt>
      <trkpt lat="47.35183" lon="-2.3696">
        <ele>46.400001525879</ele>
        <time>2022-06-02T08:03:56.000Z</time>
      </trkpt>
      <trkpt lat="47.35206" lon="-2.3701">
        <ele>46.400001525879</ele>
        <time>2022-06-02T08:04:03.000Z</time>
      </trkpt>
      <trkpt lat="47.35212" lon="-2.37027">
        <ele>46.400001525879</ele>
        <time>2022-06-02T08:04:05.000Z</time>
      </trkpt>
      <trkpt lat="47.3522" lon="-2.37061">
        <ele>46.400001525879</ele>
        <time>2022-06-02T08:04:09.000Z</time>
      </trkpt>
      <trkpt lat="47.35223" lon="-2.37085">
        <ele>46.400001525879</ele>
        <time>2022-06-02T08:04:12.000Z</time>
      </trkpt>
      <trkpt lat="47.35225" lon="-2.37101">
        <ele>46.400001525879</ele>
        <time>2022-06-02T08:04:14.000Z</time>
      </trkpt>
      <trkpt lat="47.35229" lon="-2.37116">
        <ele>46.400001525879</ele>
        <time>2022-06-02T08:04:16.000Z</time>
      </trkpt>
      <trkpt lat="47.35238" lon="-2.37153">
        <ele>46.400001525879</ele>
        <time>2022-06-02T08:04:21.000Z</time>
      </trkpt>
      <trkpt lat="47.35243" lon="-2.37166">
        <ele>46.400001525879</ele>
        <time>2022-06-02T08:04:23.000Z</time>
      </trkpt>
      <trkpt lat="47.35255" lon="-2.37189">
        <ele>46.400001525879</ele>
        <time>2022-06-02T08:04:27.000Z</time>
      </trkpt>
      <trkpt lat="47.3527" lon="-2.37209">
        <ele>46.400001525879</ele>
        <time>2022-06-02T08:04:32.000Z</time>
      </trkpt>
      <trkpt lat="47.35276" lon="-2.37214">
        <ele>46.400001525879</ele>
        <time>2022-06-02T08:04:37.000Z</time>
      </trkpt>
      <trkpt lat="47.35276" lon="-2.37214">
        <ele>46.400001525879</ele>
        <time>2022-06-02T08:04:38.000Z</time>
      </trkpt>
      <trkpt lat="47.35279" lon="-2.37216">
        <ele>46.400001525879</ele>
        <time>2022-06-02T08:04:43.000Z</time>
      </trkpt>
      <trkpt lat="47.3528" lon="-2.37219">
        <ele>46.400001525879</ele>
        <time>2022-06-02T08:04:44.000Z</time>
      </trkpt>
      <trkpt lat="47.3528" lon="-2.37223">
        <ele>46.400001525879</ele>
        <time>2022-06-02T08:04:45.000Z</time>
      </trkpt>
      <trkpt lat="47.3528" lon="-2.37232">
        <ele>46.400001525879</ele>
        <time>2022-06-02T08:04:47.000Z</time>
      </trkpt>
      <trkpt lat="47.3528" lon="-2.37249">
        <ele>46.400001525879</ele>
        <time>2022-06-02T08:04:50.000Z</time>
      </trkpt>
      <trkpt lat="47.3528" lon="-2.37256">
        <ele>46.400001525879</ele>
        <time>2022-06-02T08:04:51.000Z</time>
      </trkpt>
      <trkpt lat="47.35282" lon="-2.37305">
        <ele>46.400001525879</ele>
        <time>2022-06-02T08:04:58.000Z</time>
      </trkpt>
      <trkpt lat="47.35283" lon="-2.37356">
        <ele>46.400001525879</ele>
        <time>2022-06-02T08:05:05.000Z</time>
      </trkpt>
      <trkpt lat="47.35285" lon="-2.37421">
        <ele>46.400001525879</ele>
        <time>2022-06-02T08:05:13.000Z</time>
      </trkpt>
      <trkpt lat="47.3529" lon="-2.37476">
        <ele>46.400001525879</ele>
        <time>2022-06-02T08:05:19.000Z</time>
      </trkpt>
      <trkpt lat="47.35302" lon="-2.37539">
        <ele>45.799999237061</ele>
        <time>2022-06-02T08:05:25.000Z</time>
      </trkpt>
      <trkpt lat="47.35305" lon="-2.3755">
        <ele>45.400001525879</ele>
        <time>2022-06-02T08:05:26.000Z</time>
      </trkpt>
      <trkpt lat="47.35307" lon="-2.3756">
        <ele>45</ele>
        <time>2022-06-02T08:05:27.000Z</time>
      </trkpt>
      <trkpt lat="47.3531" lon="-2.37571">
        <ele>44.599998474121</ele>
        <time>2022-06-02T08:05:28.000Z</time>
      </trkpt>
      <trkpt lat="47.35312" lon="-2.37581">
        <ele>44.200000762939</ele>
        <time>2022-06-02T08:05:29.000Z</time>
      </trkpt>
      <trkpt lat="47.35325" lon="-2.3763">
        <ele>44.200000762939</ele>
        <time>2022-06-02T08:05:34.000Z</time>
      </trkpt>
      <trkpt lat="47.3533" lon="-2.37646">
        <ele>44.200000762939</ele>
        <time>2022-06-02T08:05:37.000Z</time>
      </trkpt>
      <trkpt lat="47.35337" lon="-2.37677">
        <ele>44.200000762939</ele>
        <time>2022-06-02T08:05:41.000Z</time>
      </trkpt>
      <trkpt lat="47.35339" lon="-2.37686">
        <ele>44.200000762939</ele>
        <time>2022-06-02T08:05:42.000Z</time>
      </trkpt>
      <trkpt lat="47.35357" lon="-2.37757">
        <ele>44.200000762939</ele>
        <time>2022-06-02T08:05:49.000Z</time>
      </trkpt>
      <trkpt lat="47.35373" lon="-2.37816">
        <ele>44.200000762939</ele>
        <time>2022-06-02T08:05:55.000Z</time>
      </trkpt>
      <trkpt lat="47.35377" lon="-2.37835">
        <ele>44.200000762939</ele>
        <time>2022-06-02T08:05:57.000Z</time>
      </trkpt>
      <trkpt lat="47.35382" lon="-2.37853">
        <ele>44.200000762939</ele>
        <time>2022-06-02T08:05:59.000Z</time>
      </trkpt>
      <trkpt lat="47.35399" lon="-2.37904">
        <ele>44.200000762939</ele>
        <time>2022-06-02T08:06:04.000Z</time>
      </trkpt>
      <trkpt lat="47.35418" lon="-2.37967">
        <ele>44.200000762939</ele>
        <time>2022-06-02T08:06:11.000Z</time>
      </trkpt>
      <trkpt lat="47.35437" lon="-2.38035">
        <ele>44.200000762939</ele>
        <time>2022-06-02T08:06:19.000Z</time>
      </trkpt>
      <trkpt lat="47.35447" lon="-2.38067">
        <ele>44.200000762939</ele>
        <time>2022-06-02T08:06:23.000Z</time>
      </trkpt>
      <trkpt lat="47.35446" lon="-2.38075">
        <ele>44.200000762939</ele>
        <time>2022-06-02T08:06:24.000Z</time>
      </trkpt>
      <trkpt lat="47.35436" lon="-2.38094">
        <ele>44.200000762939</ele>
        <time>2022-06-02T08:06:27.000Z</time>
      </trkpt>
      <trkpt lat="47.35432" lon="-2.381">
        <ele>44.200000762939</ele>
        <time>2022-06-02T08:06:28.000Z</time>
      </trkpt>
      <trkpt lat="47.35408" lon="-2.38134">
        <ele>44.200000762939</ele>
        <time>2022-06-02T08:06:33.000Z</time>
      </trkpt>
      <trkpt lat="47.35398" lon="-2.3815">
        <ele>44.200000762939</ele>
        <time>2022-06-02T08:06:35.000Z</time>
      </trkpt>
      <trkpt lat="47.35379" lon="-2.38179">
        <ele>44.200000762939</ele>
        <time>2022-06-02T08:06:39.000Z</time>
      </trkpt>
      <trkpt lat="47.35374" lon="-2.38186">
        <ele>43.799999237061</ele>
        <time>2022-06-02T08:06:40.000Z</time>
      </trkpt>
      <trkpt lat="47.35369" lon="-2.38192">
        <ele>43.400001525879</ele>
        <time>2022-06-02T08:06:41.000Z</time>
      </trkpt>
      <trkpt lat="47.35364" lon="-2.38198">
        <ele>42.799999237061</ele>
        <time>2022-06-02T08:06:42.000Z</time>
      </trkpt>
      <trkpt lat="47.35359" lon="-2.38205">
        <ele>42.400001525879</ele>
        <time>2022-06-02T08:06:43.000Z</time>
      </trkpt>
      <trkpt lat="47.35354" lon="-2.38212">
        <ele>42</ele>
        <time>2022-06-02T08:06:44.000Z</time>
      </trkpt>
      <trkpt lat="47.35349" lon="-2.3822">
        <ele>42</ele>
        <time>2022-06-02T08:06:45.000Z</time>
      </trkpt>
      <trkpt lat="47.35319" lon="-2.38263">
        <ele>42</ele>
        <time>2022-06-02T08:06:51.000Z</time>
      </trkpt>
      <trkpt lat="47.35292" lon="-2.38299">
        <ele>41.599998474121</ele>
        <time>2022-06-02T08:06:56.000Z</time>
      </trkpt>
      <trkpt lat="47.35286" lon="-2.38306">
        <ele>41.200000762939</ele>
        <time>2022-06-02T08:06:57.000Z</time>
      </trkpt>
      <trkpt lat="47.35281" lon="-2.38313">
        <ele>40.799999237061</ele>
        <time>2022-06-02T08:06:58.000Z</time>
      </trkpt>
      <trkpt lat="47.35275" lon="-2.3832">
        <ele>40.400001525879</ele>
        <time>2022-06-02T08:06:59.000Z</time>
      </trkpt>
      <trkpt lat="47.3527" lon="-2.38327">
        <ele>40</ele>
        <time>2022-06-02T08:07:00.000Z</time>
      </trkpt>
      <trkpt lat="47.35235" lon="-2.38377">
        <ele>40</ele>
        <time>2022-06-02T08:07:07.000Z</time>
      </trkpt>
      <trkpt lat="47.35194" lon="-2.38434">
        <ele>40</ele>
        <time>2022-06-02T08:07:16.000Z</time>
      </trkpt>
      <trkpt lat="47.35158" lon="-2.38484">
        <ele>40</ele>
        <time>2022-06-02T08:07:24.000Z</time>
      </trkpt>
      <trkpt lat="47.35144" lon="-2.38504">
        <ele>40</ele>
        <time>2022-06-02T08:07:27.000Z</time>
      </trkpt>
      <trkpt lat="47.35133" lon="-2.38527">
        <ele>40</ele>
        <time>2022-06-02T08:07:30.000Z</time>
      </trkpt>
      <trkpt lat="47.35109" lon="-2.38579">
        <ele>40</ele>
        <time>2022-06-02T08:07:36.000Z</time>
      </trkpt>
      <trkpt lat="47.35076" lon="-2.38648">
        <ele>40</ele>
        <time>2022-06-02T08:07:44.000Z</time>
      </trkpt>
      <trkpt lat="47.35046" lon="-2.38709">
        <ele>40</ele>
        <time>2022-06-02T08:07:51.000Z</time>
      </trkpt>
      <trkpt lat="47.35024" lon="-2.38752">
        <ele>40</ele>
        <time>2022-06-02T08:07:56.000Z</time>
      </trkpt>
      <trkpt lat="47.35013" lon="-2.38764">
        <ele>40</ele>
        <time>2022-06-02T08:07:58.000Z</time>
      </trkpt>
      <trkpt lat="47.35007" lon="-2.38769">
        <ele>40</ele>
        <time>2022-06-02T08:07:59.000Z</time>
      </trkpt>
      <trkpt lat="47.34983" lon="-2.38792">
        <ele>40</ele>
        <time>2022-06-02T08:08:03.000Z</time>
      </trkpt>
      <trkpt lat="47.3495" lon="-2.38846">
        <ele>40</ele>
        <time>2022-06-02T08:08:10.000Z</time>
      </trkpt>
      <trkpt lat="47.34926" lon="-2.38893">
        <ele>40</ele>
        <time>2022-06-02T08:08:16.000Z</time>
      </trkpt>
      <trkpt lat="47.34924" lon="-2.38901">
        <ele>40</ele>
        <time>2022-06-02T08:08:17.000Z</time>
      </trkpt>
      <trkpt lat="47.34927" lon="-2.38918">
        <ele>40</ele>
        <time>2022-06-02T08:08:19.000Z</time>
      </trkpt>
      <trkpt lat="47.34929" lon="-2.38926">
        <ele>40</ele>
        <time>2022-06-02T08:08:20.000Z</time>
      </trkpt>
      <trkpt lat="47.34932" lon="-2.38932">
        <ele>40</ele>
        <time>2022-06-02T08:08:21.000Z</time>
      </trkpt>
      <trkpt lat="47.34947" lon="-2.3896">
        <ele>40</ele>
        <time>2022-06-02T08:08:25.000Z</time>
      </trkpt>
      <trkpt lat="47.34977" lon="-2.3902">
        <ele>40</ele>
        <time>2022-06-02T08:08:33.000Z</time>
      </trkpt>
      <trkpt lat="47.35005" lon="-2.39075">
        <ele>40</ele>
        <time>2022-06-02T08:08:40.000Z</time>
      </trkpt>
      <trkpt lat="47.35017" lon="-2.39099">
        <ele>40</ele>
        <time>2022-06-02T08:08:43.000Z</time>
      </trkpt>
      <trkpt lat="47.35026" lon="-2.39114">
        <ele>40</ele>
        <time>2022-06-02T08:08:45.000Z</time>
      </trkpt>
      <trkpt lat="47.35032" lon="-2.39131">
        <ele>40</ele>
        <time>2022-06-02T08:08:47.000Z</time>
      </trkpt>
      <trkpt lat="47.35038" lon="-2.3915">
        <ele>40</ele>
        <time>2022-06-02T08:08:49.000Z</time>
      </trkpt>
      <trkpt lat="47.35039" lon="-2.39159">
        <ele>40</ele>
        <time>2022-06-02T08:08:50.000Z</time>
      </trkpt>
      <trkpt lat="47.35043" lon="-2.39219">
        <ele>40</ele>
        <time>2022-06-02T08:08:56.000Z</time>
      </trkpt>
      <trkpt lat="47.35048" lon="-2.39284">
        <ele>40</ele>
        <time>2022-06-02T08:09:03.000Z</time>
      </trkpt>
      <trkpt lat="47.35047" lon="-2.39346">
        <ele>40</ele>
        <time>2022-06-02T08:09:10.000Z</time>
      </trkpt>
      <trkpt lat="47.35045" lon="-2.39354">
        <ele>40</ele>
        <time>2022-06-02T08:09:11.000Z</time>
      </trkpt>
      <trkpt lat="47.35038" lon="-2.3939">
        <ele>40</ele>
        <time>2022-06-02T08:09:15.000Z</time>
      </trkpt>
      <trkpt lat="47.35033" lon="-2.3942">
        <ele>40</ele>
        <time>2022-06-02T08:09:19.000Z</time>
      </trkpt>
      <trkpt lat="47.35033" lon="-2.39426">
        <ele>40</ele>
        <time>2022-06-02T08:09:20.000Z</time>
      </trkpt>
      <trkpt lat="47.35033" lon="-2.39436">
        <ele>40.400001525879</ele>
        <time>2022-06-02T08:09:22.000Z</time>
      </trkpt>
      <trkpt lat="47.35032" lon="-2.39441">
        <ele>40.799999237061</ele>
        <time>2022-06-02T08:09:23.000Z</time>
      </trkpt>
      <trkpt lat="47.35032" lon="-2.39446">
        <ele>41.200000762939</ele>
        <time>2022-06-02T08:09:24.000Z</time>
      </trkpt>
      <trkpt lat="47.35032" lon="-2.39452">
        <ele>41.599998474121</ele>
        <time>2022-06-02T08:09:25.000Z</time>
      </trkpt>
      <trkpt lat="47.35032" lon="-2.39458">
        <ele>42</ele>
        <time>2022-06-02T08:09:26.000Z</time>
      </trkpt>
      <trkpt lat="47.3503" lon="-2.39492">
        <ele>42</ele>
        <time>2022-06-02T08:09:32.000Z</time>
      </trkpt>
      <trkpt lat="47.35029" lon="-2.39536">
        <ele>42</ele>
        <time>2022-06-02T08:09:39.000Z</time>
      </trkpt>
      <trkpt lat="47.35026" lon="-2.39603">
        <ele>42</ele>
        <time>2022-06-02T08:09:48.000Z</time>
      </trkpt>
      <trkpt lat="47.35022" lon="-2.39674">
        <ele>42</ele>
        <time>2022-06-02T08:09:56.000Z</time>
      </trkpt>
      <trkpt lat="47.35016" lon="-2.39749">
        <ele>42</ele>
        <time>2022-06-02T08:10:04.000Z</time>
      </trkpt>
      <trkpt lat="47.35011" lon="-2.39827">
        <ele>42</ele>
        <time>2022-06-02T08:10:12.000Z</time>
      </trkpt>
      <trkpt lat="47.35011" lon="-2.39836">
        <ele>42</ele>
        <time>2022-06-02T08:10:13.000Z</time>
      </trkpt>
      <trkpt lat="47.35016" lon="-2.39864">
        <ele>42</ele>
        <time>2022-06-02T08:10:16.000Z</time>
      </trkpt>
      <trkpt lat="47.35018" lon="-2.39881">
        <ele>42</ele>
        <time>2022-06-02T08:10:18.000Z</time>
      </trkpt>
      <trkpt lat="47.35017" lon="-2.39898">
        <ele>42</ele>
        <time>2022-06-02T08:10:20.000Z</time>
      </trkpt>
      <trkpt lat="47.35009" lon="-2.39922">
        <ele>42</ele>
        <time>2022-06-02T08:10:23.000Z</time>
      </trkpt>
      <trkpt lat="47.35006" lon="-2.3993">
        <ele>42</ele>
        <time>2022-06-02T08:10:24.000Z</time>
      </trkpt>
      <trkpt lat="47.34977" lon="-2.39984">
        <ele>42</ele>
        <time>2022-06-02T08:10:31.000Z</time>
      </trkpt>
      <trkpt lat="47.34968" lon="-2.39997">
        <ele>42</ele>
        <time>2022-06-02T08:10:33.000Z</time>
      </trkpt>
      <trkpt lat="47.34951" lon="-2.40014">
        <ele>42</ele>
        <time>2022-06-02T08:10:36.000Z</time>
      </trkpt>
      <trkpt lat="47.34912" lon="-2.40046">
        <ele>42</ele>
        <time>2022-06-02T08:10:43.000Z</time>
      </trkpt>
      <trkpt lat="47.34896" lon="-2.40061">
        <ele>42.400001525879</ele>
        <time>2022-06-02T08:10:46.000Z</time>
      </trkpt>
      <trkpt lat="47.34891" lon="-2.40066">
        <ele>42.799999237061</ele>
        <time>2022-06-02T08:10:47.000Z</time>
      </trkpt>
      <trkpt lat="47.34886" lon="-2.40072">
        <ele>43.200000762939</ele>
        <time>2022-06-02T08:10:48.000Z</time>
      </trkpt>
      <trkpt lat="47.34882" lon="-2.40077">
        <ele>43.599998474121</ele>
        <time>2022-06-02T08:10:49.000Z</time>
      </trkpt>
      <trkpt lat="47.34877" lon="-2.40082">
        <ele>44</ele>
        <time>2022-06-02T08:10:50.000Z</time>
      </trkpt>
      <trkpt lat="47.34868" lon="-2.40093">
        <ele>44</ele>
        <time>2022-06-02T08:10:52.000Z</time>
      </trkpt>
      <trkpt lat="47.34864" lon="-2.40099">
        <ele>44</ele>
        <time>2022-06-02T08:10:53.000Z</time>
      </trkpt>
      <trkpt lat="47.34856" lon="-2.40122">
        <ele>44</ele>
        <time>2022-06-02T08:10:56.000Z</time>
      </trkpt>
      <trkpt lat="47.34854" lon="-2.40138">
        <ele>44</ele>
        <time>2022-06-02T08:10:58.000Z</time>
      </trkpt>
      <trkpt lat="47.34852" lon="-2.40152">
        <ele>44</ele>
        <time>2022-06-02T08:11:00.000Z</time>
      </trkpt>
      <trkpt lat="47.34851" lon="-2.40159">
        <ele>44</ele>
        <time>2022-06-02T08:11:01.000Z</time>
      </trkpt>
      <trkpt lat="47.3485" lon="-2.40184">
        <ele>44</ele>
        <time>2022-06-02T08:11:06.000Z</time>
      </trkpt>
      <trkpt lat="47.34847" lon="-2.40189">
        <ele>44</ele>
        <time>2022-06-02T08:11:10.000Z</time>
      </trkpt>
      <trkpt lat="47.34836" lon="-2.40195">
        <ele>44</ele>
        <time>2022-06-02T08:11:14.000Z</time>
      </trkpt>
      <trkpt lat="47.3482" lon="-2.40203">
        <ele>44</ele>
        <time>2022-06-02T08:11:20.000Z</time>
      </trkpt>
      <trkpt lat="47.34815" lon="-2.40205">
        <ele>44.599998474121</ele>
        <time>2022-06-02T08:11:22.000Z</time>
      </trkpt>
      <trkpt lat="47.34812" lon="-2.40206">
        <ele>45</ele>
        <time>2022-06-02T08:11:23.000Z</time>
      </trkpt>
      <trkpt lat="47.34809" lon="-2.40208">
        <ele>45.400001525879</ele>
        <time>2022-06-02T08:11:24.000Z</time>
      </trkpt>
      <trkpt lat="47.34806" lon="-2.4021">
        <ele>45.799999237061</ele>
        <time>2022-06-02T08:11:25.000Z</time>
      </trkpt>
      <trkpt lat="47.34804" lon="-2.40212">
        <ele>46.200000762939</ele>
        <time>2022-06-02T08:11:26.000Z</time>
      </trkpt>
      <trkpt lat="47.3479" lon="-2.40216">
        <ele>46.200000762939</ele>
        <time>2022-06-02T08:11:31.000Z</time>
      </trkpt>
      <trkpt lat="47.34776" lon="-2.40211">
        <ele>46.200000762939</ele>
        <time>2022-06-02T08:11:37.000Z</time>
      </trkpt>
      <trkpt lat="47.34771" lon="-2.4021">
        <ele>46.200000762939</ele>
        <time>2022-06-02T08:11:41.000Z</time>
      </trkpt>
      <trkpt lat="47.34767" lon="-2.40213">
        <ele>48.200000762939</ele>
        <time>2022-06-02T08:12:48.000Z</time>
      </trkpt>
      <trkpt lat="47.34757" lon="-2.40225">
        <ele>48.200000762939</ele>
        <time>2022-06-02T08:12:54.000Z</time>
      </trkpt>
      <trkpt lat="47.34739" lon="-2.40246">
        <ele>48.200000762939</ele>
        <time>2022-06-02T08:13:01.000Z</time>
      </trkpt>
      <trkpt lat="47.34719" lon="-2.4027">
        <ele>48.200000762939</ele>
        <time>2022-06-02T08:13:07.000Z</time>
      </trkpt>
      <trkpt lat="47.34704" lon="-2.40292">
        <ele>48.200000762939</ele>
        <time>2022-06-02T08:13:11.000Z</time>
      </trkpt>
      <trkpt lat="47.34699" lon="-2.40305">
        <ele>48.200000762939</ele>
        <time>2022-06-02T08:13:13.000Z</time>
      </trkpt>
      <trkpt lat="47.34689" lon="-2.40332">
        <ele>48.200000762939</ele>
        <time>2022-06-02T08:13:17.000Z</time>
      </trkpt>
      <trkpt lat="47.34687" lon="-2.40336">
        <ele>48.200000762939</ele>
        <time>2022-06-02T08:13:18.000Z</time>
      </trkpt>
      <trkpt lat="47.34683" lon="-2.40339">
        <ele>48.200000762939</ele>
        <time>2022-06-02T08:13:21.000Z</time>
      </trkpt>
      <trkpt lat="47.34683" lon="-2.40338">
        <ele>48.200000762939</ele>
        <time>2022-06-02T08:13:22.000Z</time>
      </trkpt>
      <trkpt lat="47.34686" lon="-2.40334">
        <ele>48.200000762939</ele>
        <time>2022-06-02T08:13:25.000Z</time>
      </trkpt>
      <trkpt lat="47.34687" lon="-2.40332">
        <ele>48.200000762939</ele>
        <time>2022-06-02T08:13:26.000Z</time>
      </trkpt>
      <trkpt lat="47.34695" lon="-2.40317">
        <ele>48.200000762939</ele>
        <time>2022-06-02T08:13:30.000Z</time>
      </trkpt>
      <trkpt lat="47.34697" lon="-2.40311">
        <ele>48.200000762939</ele>
        <time>2022-06-02T08:13:31.000Z</time>
      </trkpt>
      <trkpt lat="47.34703" lon="-2.40289">
        <ele>48.200000762939</ele>
        <time>2022-06-02T08:13:35.000Z</time>
      </trkpt>
      <trkpt lat="47.34717" lon="-2.4027">
        <ele>48.200000762939</ele>
        <time>2022-06-02T08:13:40.000Z</time>
      </trkpt>
      <trkpt lat="47.34735" lon="-2.40245">
        <ele>48.200000762939</ele>
        <time>2022-06-02T08:13:47.000Z</time>
      </trkpt>
      <trkpt lat="47.34756" lon="-2.40221">
        <ele>48.200000762939</ele>
        <time>2022-06-02T08:13:54.000Z</time>
      </trkpt>
      <trkpt lat="47.34764" lon="-2.40211">
        <ele>48.200000762939</ele>
        <time>2022-06-02T08:13:58.000Z</time>
      </trkpt>
      <trkpt lat="47.34778" lon="-2.40208">
        <ele>48.200000762939</ele>
        <time>2022-06-02T08:14:03.000Z</time>
      </trkpt>
      <trkpt lat="47.34786" lon="-2.40213">
        <ele>48.200000762939</ele>
        <time>2022-06-02T08:14:07.000Z</time>
      </trkpt>
      <trkpt lat="47.34784" lon="-2.4022">
        <ele>48.200000762939</ele>
        <time>2022-06-02T08:14:11.000Z</time>
      </trkpt>
      <trkpt lat="47.34781" lon="-2.40218">
        <ele>48.200000762939</ele>
        <time>2022-06-02T08:14:13.000Z</time>
      </trkpt>
      <trkpt lat="47.34778" lon="-2.40213">
        <ele>48.200000762939</ele>
        <time>2022-06-02T08:14:16.000Z</time>
      </trkpt>
      <trkpt lat="47.34772" lon="-2.40208">
        <ele>48.200000762939</ele>
        <time>2022-06-02T08:14:22.000Z</time>
      </trkpt>
      <trkpt lat="47.3477" lon="-2.40209">
        <ele>48.200000762939</ele>
        <time>2022-06-02T08:14:24.000Z</time>
      </trkpt>
      <trkpt lat="47.34767" lon="-2.40207">
        <ele>48.200000762939</ele>
        <time>2022-06-02T08:14:27.000Z</time>
      </trkpt>
      <trkpt lat="47.34768" lon="-2.40203">
        <ele>48.200000762939</ele>
        <time>2022-06-02T08:14:32.000Z</time>
      </trkpt>
      <trkpt lat="47.34769" lon="-2.40203">
        <ele>48.200000762939</ele>
        <time>2022-06-02T08:14:33.000Z</time>
      </trkpt>
      <trkpt lat="47.34771" lon="-2.40204">
        <ele>48.200000762939</ele>
        <time>2022-06-02T08:15:14.000Z</time>
      </trkpt>
      <trkpt lat="47.34774" lon="-2.40206">
        <ele>48.200000762939</ele>
        <time>2022-06-02T08:15:16.000Z</time>
      </trkpt>
      <trkpt lat="47.34778" lon="-2.40209">
        <ele>48.200000762939</ele>
        <time>2022-06-02T08:15:18.000Z</time>
      </trkpt>
      <trkpt lat="47.3479" lon="-2.40218">
        <ele>48.200000762939</ele>
        <time>2022-06-02T08:15:22.000Z</time>
      </trkpt>
      <trkpt lat="47.34793" lon="-2.40221">
        <ele>48.200000762939</ele>
        <time>2022-06-02T08:15:23.000Z</time>
      </trkpt>
      <trkpt lat="47.34804" lon="-2.40236">
        <ele>48.200000762939</ele>
        <time>2022-06-02T08:15:26.000Z</time>
      </trkpt>
      <trkpt lat="47.34807" lon="-2.40243">
        <ele>48.200000762939</ele>
        <time>2022-06-02T08:15:27.000Z</time>
      </trkpt>
      <trkpt lat="47.3481" lon="-2.4025">
        <ele>48.200000762939</ele>
        <time>2022-06-02T08:15:28.000Z</time>
      </trkpt>
      <trkpt lat="47.34819" lon="-2.4027">
        <ele>48.200000762939</ele>
        <time>2022-06-02T08:15:31.000Z</time>
      </trkpt>
      <trkpt lat="47.34834" lon="-2.40299">
        <ele>48.200000762939</ele>
        <time>2022-06-02T08:15:36.000Z</time>
      </trkpt>
      <trkpt lat="47.3484" lon="-2.4031">
        <ele>48.200000762939</ele>
        <time>2022-06-02T08:15:38.000Z</time>
      </trkpt>
      <trkpt lat="47.34845" lon="-2.40321">
        <ele>47.799999237061</ele>
        <time>2022-06-02T08:15:40.000Z</time>
      </trkpt>
      <trkpt lat="47.34848" lon="-2.40328">
        <ele>47.400001525879</ele>
        <time>2022-06-02T08:15:41.000Z</time>
      </trkpt>
      <trkpt lat="47.3485" lon="-2.40335">
        <ele>47</ele>
        <time>2022-06-02T08:15:42.000Z</time>
      </trkpt>
      <trkpt lat="47.34852" lon="-2.40342">
        <ele>46.599998474121</ele>
        <time>2022-06-02T08:15:43.000Z</time>
      </trkpt>
      <trkpt lat="47.34854" lon="-2.4035">
        <ele>46.200000762939</ele>
        <time>2022-06-02T08:15:44.000Z</time>
      </trkpt>
      <trkpt lat="47.34867" lon="-2.40413">
        <ele>46.200000762939</ele>
        <time>2022-06-02T08:15:52.000Z</time>
      </trkpt>
      <trkpt lat="47.34875" lon="-2.40466">
        <ele>45.799999237061</ele>
        <time>2022-06-02T08:15:58.000Z</time>
      </trkpt>
      <trkpt lat="47.34877" lon="-2.40475">
        <ele>45.400001525879</ele>
        <time>2022-06-02T08:15:59.000Z</time>
      </trkpt>
      <trkpt lat="47.34878" lon="-2.40485">
        <ele>45</ele>
        <time>2022-06-02T08:16:00.000Z</time>
      </trkpt>
      <trkpt lat="47.3488" lon="-2.40495">
        <ele>44.599998474121</ele>
        <time>2022-06-02T08:16:01.000Z</time>
      </trkpt>
      <trkpt lat="47.34881" lon="-2.40504">
        <ele>44</ele>
        <time>2022-06-02T08:16:02.000Z</time>
      </trkpt>
      <trkpt lat="47.34886" lon="-2.40535">
        <ele>44</ele>
        <time>2022-06-02T08:16:05.000Z</time>
      </trkpt>
      <trkpt lat="47.34886" lon="-2.40555">
        <ele>44</ele>
        <time>2022-06-02T08:16:07.000Z</time>
      </trkpt>
      <trkpt lat="47.34879" lon="-2.40588">
        <ele>44</ele>
        <time>2022-06-02T08:16:11.000Z</time>
      </trkpt>
      <trkpt lat="47.34868" lon="-2.406">
        <ele>44</ele>
        <time>2022-06-02T08:16:13.000Z</time>
      </trkpt>
      <trkpt lat="47.34855" lon="-2.40613">
        <ele>44</ele>
        <time>2022-06-02T08:16:15.000Z</time>
      </trkpt>
      <trkpt lat="47.3485" lon="-2.4062">
        <ele>44</ele>
        <time>2022-06-02T08:16:16.000Z</time>
      </trkpt>
      <trkpt lat="47.34841" lon="-2.40638">
        <ele>44</ele>
        <time>2022-06-02T08:16:18.000Z</time>
      </trkpt>
      <trkpt lat="47.34835" lon="-2.40657">
        <ele>44</ele>
        <time>2022-06-02T08:16:20.000Z</time>
      </trkpt>
      <trkpt lat="47.34828" lon="-2.40685">
        <ele>44</ele>
        <time>2022-06-02T08:16:23.000Z</time>
      </trkpt>
      <trkpt lat="47.34824" lon="-2.4073">
        <ele>44</ele>
        <time>2022-06-02T08:16:28.000Z</time>
      </trkpt>
      <trkpt lat="47.34825" lon="-2.40747">
        <ele>44</ele>
        <time>2022-06-02T08:16:30.000Z</time>
      </trkpt>
      <trkpt lat="47.3483" lon="-2.4077">
        <ele>44</ele>
        <time>2022-06-02T08:16:33.000Z</time>
      </trkpt>
      <trkpt lat="47.34847" lon="-2.40833">
        <ele>44.599998474121</ele>
        <time>2022-06-02T08:16:41.000Z</time>
      </trkpt>
      <trkpt lat="47.3485" lon="-2.40841">
        <ele>45</ele>
        <time>2022-06-02T08:16:42.000Z</time>
      </trkpt>
      <trkpt lat="47.34852" lon="-2.40849">
        <ele>45.400001525879</ele>
        <time>2022-06-02T08:16:43.000Z</time>
      </trkpt>
      <trkpt lat="47.34853" lon="-2.40857">
        <ele>45.799999237061</ele>
        <time>2022-06-02T08:16:44.000Z</time>
      </trkpt>
      <trkpt lat="47.34855" lon="-2.40864">
        <ele>46.200000762939</ele>
        <time>2022-06-02T08:16:45.000Z</time>
      </trkpt>
      <trkpt lat="47.3486" lon="-2.40881">
        <ele>46.200000762939</ele>
        <time>2022-06-02T08:16:47.000Z</time>
      </trkpt>
      <trkpt lat="47.34873" lon="-2.40929">
        <ele>46.200000762939</ele>
        <time>2022-06-02T08:16:53.000Z</time>
      </trkpt>
      <trkpt lat="47.34882" lon="-2.40982">
        <ele>46.200000762939</ele>
        <time>2022-06-02T08:16:59.000Z</time>
      </trkpt>
      <trkpt lat="47.34883" lon="-2.4101">
        <ele>46.200000762939</ele>
        <time>2022-06-02T08:17:02.000Z</time>
      </trkpt>
      <trkpt lat="47.34882" lon="-2.41026">
        <ele>46.200000762939</ele>
        <time>2022-06-02T08:17:04.000Z</time>
      </trkpt>
      <trkpt lat="47.34871" lon="-2.4106">
        <ele>46.200000762939</ele>
        <time>2022-06-02T08:17:09.000Z</time>
      </trkpt>
      <trkpt lat="47.34865" lon="-2.4107">
        <ele>46.200000762939</ele>
        <time>2022-06-02T08:17:11.000Z</time>
      </trkpt>
      <trkpt lat="47.34846" lon="-2.41094">
        <ele>46.200000762939</ele>
        <time>2022-06-02T08:17:16.000Z</time>
      </trkpt>
      <trkpt lat="47.34838" lon="-2.41098">
        <ele>46.200000762939</ele>
        <time>2022-06-02T08:17:17.000Z</time>
      </trkpt>
      <trkpt lat="47.34804" lon="-2.41111">
        <ele>46.200000762939</ele>
        <time>2022-06-02T08:17:21.000Z</time>
      </trkpt>
      <trkpt lat="47.34752" lon="-2.41138">
        <ele>46.200000762939</ele>
        <time>2022-06-02T08:17:28.000Z</time>
      </trkpt>
      <trkpt lat="47.34725" lon="-2.41159">
        <ele>46.200000762939</ele>
        <time>2022-06-02T08:17:34.000Z</time>
      </trkpt>
      <trkpt lat="47.34721" lon="-2.41162">
        <ele>46.200000762939</ele>
        <time>2022-06-02T08:17:35.000Z</time>
      </trkpt>
      <trkpt lat="47.34689" lon="-2.41183">
        <ele>46.200000762939</ele>
        <time>2022-06-02T08:17:43.000Z</time>
      </trkpt>
      <trkpt lat="47.34684" lon="-2.41186">
        <ele>46.599998474121</ele>
        <time>2022-06-02T08:17:44.000Z</time>
      </trkpt>
      <trkpt lat="47.3468" lon="-2.41189">
        <ele>47</ele>
        <time>2022-06-02T08:17:45.000Z</time>
      </trkpt>
      <trkpt lat="47.34676" lon="-2.41193">
        <ele>47.400001525879</ele>
        <time>2022-06-02T08:17:46.000Z</time>
      </trkpt>
      <trkpt lat="47.34672" lon="-2.41196">
        <ele>47.799999237061</ele>
        <time>2022-06-02T08:17:47.000Z</time>
      </trkpt>
      <trkpt lat="47.34669" lon="-2.41199">
        <ele>48.200000762939</ele>
        <time>2022-06-02T08:17:48.000Z</time>
      </trkpt>
      <trkpt lat="47.34662" lon="-2.41205">
        <ele>48.200000762939</ele>
        <time>2022-06-02T08:17:50.000Z</time>
      </trkpt>
      <trkpt lat="47.34639" lon="-2.41221">
        <ele>48.200000762939</ele>
        <time>2022-06-02T08:17:56.000Z</time>
      </trkpt>
      <trkpt lat="47.34612" lon="-2.41239">
        <ele>48.599998474121</ele>
        <time>2022-06-02T08:18:02.000Z</time>
      </trkpt>
      <trkpt lat="47.34608" lon="-2.41243">
        <ele>49</ele>
        <time>2022-06-02T08:18:03.000Z</time>
      </trkpt>
      <trkpt lat="47.34604" lon="-2.41246">
        <ele>49.599998474121</ele>
        <time>2022-06-02T08:18:04.000Z</time>
      </trkpt>
      <trkpt lat="47.34599" lon="-2.4125">
        <ele>50</ele>
        <time>2022-06-02T08:18:05.000Z</time>
      </trkpt>
      <trkpt lat="47.34594" lon="-2.41254">
        <ele>50.400001525879</ele>
        <time>2022-06-02T08:18:06.000Z</time>
      </trkpt>
      <trkpt lat="47.3458" lon="-2.41265">
        <ele>50.400001525879</ele>
        <time>2022-06-02T08:18:09.000Z</time>
      </trkpt>
      <trkpt lat="47.34542" lon="-2.41291">
        <ele>50.400001525879</ele>
        <time>2022-06-02T08:18:16.000Z</time>
      </trkpt>
      <trkpt lat="47.34509" lon="-2.41318">
        <ele>50.799999237061</ele>
        <time>2022-06-02T08:18:22.000Z</time>
      </trkpt>
      <trkpt lat="47.34504" lon="-2.41322">
        <ele>51.200000762939</ele>
        <time>2022-06-02T08:18:23.000Z</time>
      </trkpt>
      <trkpt lat="47.34499" lon="-2.41326">
        <ele>51.599998474121</ele>
        <time>2022-06-02T08:18:24.000Z</time>
      </trkpt>
      <trkpt lat="47.34493" lon="-2.41331">
        <ele>52</ele>
        <time>2022-06-02T08:18:25.000Z</time>
      </trkpt>
      <trkpt lat="47.34488" lon="-2.41335">
        <ele>52.400001525879</ele>
        <time>2022-06-02T08:18:26.000Z</time>
      </trkpt>
      <trkpt lat="47.34454" lon="-2.4136">
        <ele>52.400001525879</ele>
        <time>2022-06-02T08:18:32.000Z</time>
      </trkpt>
      <trkpt lat="47.34414" lon="-2.41392">
        <ele>52.400001525879</ele>
        <time>2022-06-02T08:18:39.000Z</time>
      </trkpt>
      <trkpt lat="47.34367" lon="-2.4143">
        <ele>52.400001525879</ele>
        <time>2022-06-02T08:18:47.000Z</time>
      </trkpt>
      <trkpt lat="47.34331" lon="-2.41469">
        <ele>52.400001525879</ele>
        <time>2022-06-02T08:18:54.000Z</time>
      </trkpt>
      <trkpt lat="47.34294" lon="-2.41521">
        <ele>52.400001525879</ele>
        <time>2022-06-02T08:19:02.000Z</time>
      </trkpt>
      <trkpt lat="47.34273" lon="-2.41554">
        <ele>52.799999237061</ele>
        <time>2022-06-02T08:19:07.000Z</time>
      </trkpt>
      <trkpt lat="47.34269" lon="-2.41561">
        <ele>53.200000762939</ele>
        <time>2022-06-02T08:19:08.000Z</time>
      </trkpt>
      <trkpt lat="47.34265" lon="-2.41567">
        <ele>53.599998474121</ele>
        <time>2022-06-02T08:19:09.000Z</time>
      </trkpt>
      <trkpt lat="47.34261" lon="-2.41574">
        <ele>54.400001525879</ele>
        <time>2022-06-02T08:19:10.000Z</time>
      </trkpt>
      <trkpt lat="47.34232" lon="-2.41618">
        <ele>54.400001525879</ele>
        <time>2022-06-02T08:19:17.000Z</time>
      </trkpt>
      <trkpt lat="47.34196" lon="-2.41675">
        <ele>54.799999237061</ele>
        <time>2022-06-02T08:19:26.000Z</time>
      </trkpt>
      <trkpt lat="47.34193" lon="-2.41682">
        <ele>55.400001525879</ele>
        <time>2022-06-02T08:19:27.000Z</time>
      </trkpt>
      <trkpt lat="47.34189" lon="-2.41689">
        <ele>55.799999237061</ele>
        <time>2022-06-02T08:19:28.000Z</time>
      </trkpt>
      <trkpt lat="47.34185" lon="-2.41695">
        <ele>56.200000762939</ele>
        <time>2022-06-02T08:19:29.000Z</time>
      </trkpt>
      <trkpt lat="47.34181" lon="-2.41701">
        <ele>56.599998474121</ele>
        <time>2022-06-02T08:19:30.000Z</time>
      </trkpt>
      <trkpt lat="47.34172" lon="-2.41713">
        <ele>56.599998474121</ele>
        <time>2022-06-02T08:19:32.000Z</time>
      </trkpt>
      <trkpt lat="47.34158" lon="-2.41732">
        <ele>56.599998474121</ele>
        <time>2022-06-02T08:19:35.000Z</time>
      </trkpt>
      <trkpt lat="47.34148" lon="-2.41742">
        <ele>56.599998474121</ele>
        <time>2022-06-02T08:19:37.000Z</time>
      </trkpt>
      <trkpt lat="47.34117" lon="-2.41769">
        <ele>57</ele>
        <time>2022-06-02T08:19:43.000Z</time>
      </trkpt>
      <trkpt lat="47.34111" lon="-2.41774">
        <ele>57.400001525879</ele>
        <time>2022-06-02T08:19:44.000Z</time>
      </trkpt>
      <trkpt lat="47.34106" lon="-2.41777">
        <ele>57.799999237061</ele>
        <time>2022-06-02T08:19:45.000Z</time>
      </trkpt>
      <trkpt lat="47.34101" lon="-2.41781">
        <ele>58.200000762939</ele>
        <time>2022-06-02T08:19:46.000Z</time>
      </trkpt>
      <trkpt lat="47.34095" lon="-2.41785">
        <ele>58.799999237061</ele>
        <time>2022-06-02T08:19:47.000Z</time>
      </trkpt>
      <trkpt lat="47.34076" lon="-2.41805">
        <ele>58.799999237061</ele>
        <time>2022-06-02T08:19:51.000Z</time>
      </trkpt>
      <trkpt lat="47.34066" lon="-2.41816">
        <ele>59.200000762939</ele>
        <time>2022-06-02T08:19:53.000Z</time>
      </trkpt>
      <trkpt lat="47.34062" lon="-2.41821">
        <ele>59.599998474121</ele>
        <time>2022-06-02T08:19:54.000Z</time>
      </trkpt>
      <trkpt lat="47.34058" lon="-2.41827">
        <ele>60</ele>
        <time>2022-06-02T08:19:55.000Z</time>
      </trkpt>
      <trkpt lat="47.34054" lon="-2.41833">
        <ele>60.400001525879</ele>
        <time>2022-06-02T08:19:56.000Z</time>
      </trkpt>
      <trkpt lat="47.34049" lon="-2.4184">
        <ele>61</ele>
        <time>2022-06-02T08:19:57.000Z</time>
      </trkpt>
      <trkpt lat="47.34045" lon="-2.41846">
        <ele>61</ele>
        <time>2022-06-02T08:19:58.000Z</time>
      </trkpt>
      <trkpt lat="47.34012" lon="-2.41898">
        <ele>61</ele>
        <time>2022-06-02T08:20:06.000Z</time>
      </trkpt>
      <trkpt lat="47.34004" lon="-2.41911">
        <ele>61.400001525879</ele>
        <time>2022-06-02T08:20:08.000Z</time>
      </trkpt>
      <trkpt lat="47.34" lon="-2.41917">
        <ele>61.799999237061</ele>
        <time>2022-06-02T08:20:09.000Z</time>
      </trkpt>
      <trkpt lat="47.33996" lon="-2.41924">
        <ele>62.200000762939</ele>
        <time>2022-06-02T08:20:10.000Z</time>
      </trkpt>
      <trkpt lat="47.33992" lon="-2.4193">
        <ele>62.599998474121</ele>
        <time>2022-06-02T08:20:11.000Z</time>
      </trkpt>
      <trkpt lat="47.33988" lon="-2.41936">
        <ele>63</ele>
        <time>2022-06-02T08:20:12.000Z</time>
      </trkpt>
      <trkpt lat="47.33946" lon="-2.41987">
        <ele>63</ele>
        <time>2022-06-02T08:20:21.000Z</time>
      </trkpt>
      <trkpt lat="47.33911" lon="-2.42024">
        <ele>63.400001525879</ele>
        <time>2022-06-02T08:20:28.000Z</time>
      </trkpt>
      <trkpt lat="47.33906" lon="-2.42029">
        <ele>63.799999237061</ele>
        <time>2022-06-02T08:20:29.000Z</time>
      </trkpt>
      <trkpt lat="47.339" lon="-2.42034">
        <ele>64.199996948242</ele>
        <time>2022-06-02T08:20:30.000Z</time>
      </trkpt>
      <trkpt lat="47.33895" lon="-2.42038">
        <ele>64.599998474121</ele>
        <time>2022-06-02T08:20:31.000Z</time>
      </trkpt>
      <trkpt lat="47.3389" lon="-2.42043">
        <ele>65</ele>
        <time>2022-06-02T08:20:32.000Z</time>
      </trkpt>
      <trkpt lat="47.33869" lon="-2.42059">
        <ele>65</ele>
        <time>2022-06-02T08:20:36.000Z</time>
      </trkpt>
      <trkpt lat="47.33823" lon="-2.4209">
        <ele>65</ele>
        <time>2022-06-02T08:20:45.000Z</time>
      </trkpt>
      <trkpt lat="47.33817" lon="-2.42113">
        <ele>65</ele>
        <time>2022-06-02T08:20:48.000Z</time>
      </trkpt>
      <trkpt lat="47.33821" lon="-2.42141">
        <ele>65</ele>
        <time>2022-06-02T08:20:51.000Z</time>
      </trkpt>
      <trkpt lat="47.33822" lon="-2.4215">
        <ele>65</ele>
        <time>2022-06-02T08:20:52.000Z</time>
      </trkpt>
      <trkpt lat="47.33826" lon="-2.42176">
        <ele>65.400001525879</ele>
        <time>2022-06-02T08:20:55.000Z</time>
      </trkpt>
      <trkpt lat="47.33827" lon="-2.42184">
        <ele>65.800003051758</ele>
        <time>2022-06-02T08:20:56.000Z</time>
      </trkpt>
      <trkpt lat="47.33828" lon="-2.42193">
        <ele>66.199996948242</ele>
        <time>2022-06-02T08:20:57.000Z</time>
      </trkpt>
      <trkpt lat="47.33829" lon="-2.42201">
        <ele>66.800003051758</ele>
        <time>2022-06-02T08:20:58.000Z</time>
      </trkpt>
      <trkpt lat="47.3383" lon="-2.4221">
        <ele>67.199996948242</ele>
        <time>2022-06-02T08:20:59.000Z</time>
      </trkpt>
      <trkpt lat="47.33831" lon="-2.42218">
        <ele>67.199996948242</ele>
        <time>2022-06-02T08:21:00.000Z</time>
      </trkpt>
      <trkpt lat="47.33836" lon="-2.42249">
        <ele>67.599998474121</ele>
        <time>2022-06-02T08:21:04.000Z</time>
      </trkpt>
      <trkpt lat="47.33837" lon="-2.42256">
        <ele>68</ele>
        <time>2022-06-02T08:21:05.000Z</time>
      </trkpt>
      <trkpt lat="47.33838" lon="-2.42264">
        <ele>68.400001525879</ele>
        <time>2022-06-02T08:21:06.000Z</time>
      </trkpt>
      <trkpt lat="47.33839" lon="-2.42272">
        <ele>68.800003051758</ele>
        <time>2022-06-02T08:21:07.000Z</time>
      </trkpt>
      <trkpt lat="47.3384" lon="-2.42279">
        <ele>69.199996948242</ele>
        <time>2022-06-02T08:21:08.000Z</time>
      </trkpt>
      <trkpt lat="47.33845" lon="-2.42326">
        <ele>70</ele>
        <time>2022-06-02T08:21:14.000Z</time>
      </trkpt>
      <trkpt lat="47.33846" lon="-2.42333">
        <ele>70.400001525879</ele>
        <time>2022-06-02T08:21:15.000Z</time>
      </trkpt>
      <trkpt lat="47.33847" lon="-2.42341">
        <ele>70.800003051758</ele>
        <time>2022-06-02T08:21:16.000Z</time>
      </trkpt>
      <trkpt lat="47.33847" lon="-2.42348">
        <ele>71.199996948242</ele>
        <time>2022-06-02T08:21:17.000Z</time>
      </trkpt>
      <trkpt lat="47.33851" lon="-2.42386">
        <ele>71.199996948242</ele>
        <time>2022-06-02T08:21:22.000Z</time>
      </trkpt>
      <trkpt lat="47.33851" lon="-2.42394">
        <ele>71.199996948242</ele>
        <time>2022-06-02T08:21:23.000Z</time>
      </trkpt>
      <trkpt lat="47.33849" lon="-2.42425">
        <ele>71.199996948242</ele>
        <time>2022-06-02T08:21:28.000Z</time>
      </trkpt>
      <trkpt lat="47.33847" lon="-2.42442">
        <ele>70.800003051758</ele>
        <time>2022-06-02T08:21:32.000Z</time>
      </trkpt>
      <trkpt lat="47.33846" lon="-2.42445">
        <ele>70.400001525879</ele>
        <time>2022-06-02T08:21:33.000Z</time>
      </trkpt>
      <trkpt lat="47.33846" lon="-2.42447">
        <ele>70</ele>
        <time>2022-06-02T08:21:34.000Z</time>
      </trkpt>
      <trkpt lat="47.33846" lon="-2.42449">
        <ele>69.599998474121</ele>
        <time>2022-06-02T08:21:35.000Z</time>
      </trkpt>
      <trkpt lat="47.33846" lon="-2.42451">
        <ele>69.199996948242</ele>
        <time>2022-06-02T08:21:36.000Z</time>
      </trkpt>
      <trkpt lat="47.33844" lon="-2.42465">
        <ele>68.800003051758</ele>
        <time>2022-06-02T08:21:39.000Z</time>
      </trkpt>
      <trkpt lat="47.33842" lon="-2.4247">
        <ele>68.199996948242</ele>
        <time>2022-06-02T08:21:40.000Z</time>
      </trkpt>
      <trkpt lat="47.33841" lon="-2.42475">
        <ele>67.599998474121</ele>
        <time>2022-06-02T08:21:41.000Z</time>
      </trkpt>
      <trkpt lat="47.33839" lon="-2.4248">
        <ele>67.199996948242</ele>
        <time>2022-06-02T08:21:42.000Z</time>
      </trkpt>
      <trkpt lat="47.33837" lon="-2.42485">
        <ele>66.599998474121</ele>
        <time>2022-06-02T08:21:43.000Z</time>
      </trkpt>
      <trkpt lat="47.33832" lon="-2.425">
        <ele>66.599998474121</ele>
        <time>2022-06-02T08:21:46.000Z</time>
      </trkpt>
      <trkpt lat="47.33824" lon="-2.42535">
        <ele>66.599998474121</ele>
        <time>2022-06-02T08:21:53.000Z</time>
      </trkpt>
      <trkpt lat="47.33818" lon="-2.42557">
        <ele>67</ele>
        <time>2022-06-02T08:21:58.000Z</time>
      </trkpt>
      <trkpt lat="47.33816" lon="-2.42562">
        <ele>67.400001525879</ele>
        <time>2022-06-02T08:21:59.000Z</time>
      </trkpt>
      <trkpt lat="47.33815" lon="-2.42566">
        <ele>67.800003051758</ele>
        <time>2022-06-02T08:22:00.000Z</time>
      </trkpt>
      <trkpt lat="47.33815" lon="-2.4257">
        <ele>68.400001525879</ele>
        <time>2022-06-02T08:22:01.000Z</time>
      </trkpt>
      <trkpt lat="47.33814" lon="-2.42574">
        <ele>68.800003051758</ele>
        <time>2022-06-02T08:22:02.000Z</time>
      </trkpt>
      <trkpt lat="47.3381" lon="-2.4259">
        <ele>69.199996948242</ele>
        <time>2022-06-02T08:22:06.000Z</time>
      </trkpt>
      <trkpt lat="47.33809" lon="-2.42594">
        <ele>69.599998474121</ele>
        <time>2022-06-02T08:22:07.000Z</time>
      </trkpt>
      <trkpt lat="47.33809" lon="-2.42597">
        <ele>70</ele>
        <time>2022-06-02T08:22:08.000Z</time>
      </trkpt>
      <trkpt lat="47.33808" lon="-2.42601">
        <ele>70.599998474121</ele>
        <time>2022-06-02T08:22:09.000Z</time>
      </trkpt>
      <trkpt lat="47.33807" lon="-2.42606">
        <ele>71</ele>
        <time>2022-06-02T08:22:10.000Z</time>
      </trkpt>
      <trkpt lat="47.33801" lon="-2.42633">
        <ele>71</ele>
        <time>2022-06-02T08:22:15.000Z</time>
      </trkpt>
      <trkpt lat="47.33789" lon="-2.42686">
        <ele>71</ele>
        <time>2022-06-02T08:22:23.000Z</time>
      </trkpt>
      <trkpt lat="47.33784" lon="-2.42714">
        <ele>71</ele>
        <time>2022-06-02T08:22:27.000Z</time>
      </trkpt>
      <trkpt lat="47.33778" lon="-2.42735">
        <ele>71</ele>
        <time>2022-06-02T08:22:30.000Z</time>
      </trkpt>
      <trkpt lat="47.33776" lon="-2.42751">
        <ele>71</ele>
        <time>2022-06-02T08:22:32.000Z</time>
      </trkpt>
      <trkpt lat="47.33774" lon="-2.42777">
        <ele>71</ele>
        <time>2022-06-02T08:22:35.000Z</time>
      </trkpt>
      <trkpt lat="47.33774" lon="-2.42786">
        <ele>71</ele>
        <time>2022-06-02T08:22:36.000Z</time>
      </trkpt>
      <trkpt lat="47.33775" lon="-2.42811">
        <ele>70.599998474121</ele>
        <time>2022-06-02T08:22:39.000Z</time>
      </trkpt>
      <trkpt lat="47.33776" lon="-2.42815">
        <ele>70.199996948242</ele>
        <time>2022-06-02T08:22:40.000Z</time>
      </trkpt>
      <trkpt lat="47.33776" lon="-2.42817">
        <ele>69.800003051758</ele>
        <time>2022-06-02T08:22:41.000Z</time>
      </trkpt>
      <trkpt lat="47.33776" lon="-2.42817">
        <ele>69.400001525879</ele>
        <time>2022-06-02T08:22:42.000Z</time>
      </trkpt>
      <trkpt lat="47.33776" lon="-2.4282">
        <ele>69</ele>
        <time>2022-06-02T08:22:49.000Z</time>
      </trkpt>
      <trkpt lat="47.33773" lon="-2.42832">
        <ele>69</ele>
        <time>2022-06-02T08:22:53.000Z</time>
      </trkpt>
      <trkpt lat="47.33771" lon="-2.42852">
        <ele>69</ele>
        <time>2022-06-02T08:22:58.000Z</time>
      </trkpt>
      <trkpt lat="47.33771" lon="-2.42875">
        <ele>69</ele>
        <time>2022-06-02T08:23:04.000Z</time>
      </trkpt>
      <trkpt lat="47.33771" lon="-2.42878">
        <ele>69.400001525879</ele>
        <time>2022-06-02T08:23:05.000Z</time>
      </trkpt>
      <trkpt lat="47.33771" lon="-2.42881">
        <ele>69.800003051758</ele>
        <time>2022-06-02T08:23:06.000Z</time>
      </trkpt>
      <trkpt lat="47.33771" lon="-2.42884">
        <ele>70.199996948242</ele>
        <time>2022-06-02T08:23:07.000Z</time>
      </trkpt>
      <trkpt lat="47.33771" lon="-2.42886">
        <ele>70.599998474121</ele>
        <time>2022-06-02T08:23:08.000Z</time>
      </trkpt>
      <trkpt lat="47.33771" lon="-2.42886">
        <ele>71</ele>
        <time>2022-06-02T08:23:09.000Z</time>
      </trkpt>
      <trkpt lat="47.33771" lon="-2.42887">
        <ele>71</ele>
        <time>2022-06-02T08:23:10.000Z</time>
      </trkpt>
      <trkpt lat="47.33771" lon="-2.42892">
        <ele>71</ele>
        <time>2022-06-02T08:24:32.000Z</time>
      </trkpt>
      <trkpt lat="47.3377" lon="-2.42898">
        <ele>71</ele>
        <time>2022-06-02T08:24:34.000Z</time>
      </trkpt>
      <trkpt lat="47.3377" lon="-2.42919">
        <ele>71</ele>
        <time>2022-06-02T08:24:39.000Z</time>
      </trkpt>
      <trkpt lat="47.33767" lon="-2.42955">
        <ele>71</ele>
        <time>2022-06-02T08:24:46.000Z</time>
      </trkpt>
      <trkpt lat="47.33767" lon="-2.4296">
        <ele>71.400001525879</ele>
        <time>2022-06-02T08:24:47.000Z</time>
      </trkpt>
      <trkpt lat="47.33767" lon="-2.42965">
        <ele>72</ele>
        <time>2022-06-02T08:24:48.000Z</time>
      </trkpt>
      <trkpt lat="47.33766" lon="-2.4297">
        <ele>72.400001525879</ele>
        <time>2022-06-02T08:24:49.000Z</time>
      </trkpt>
      <trkpt lat="47.33765" lon="-2.42975">
        <ele>72.800003051758</ele>
        <time>2022-06-02T08:24:50.000Z</time>
      </trkpt>
      <trkpt lat="47.33763" lon="-2.42978">
        <ele>73.199996948242</ele>
        <time>2022-06-02T08:24:51.000Z</time>
      </trkpt>
      <trkpt lat="47.33749" lon="-2.42986">
        <ele>73.199996948242</ele>
        <time>2022-06-02T08:24:55.000Z</time>
      </trkpt>
      <trkpt lat="47.33718" lon="-2.42983">
        <ele>73.199996948242</ele>
        <time>2022-06-02T08:25:01.000Z</time>
      </trkpt>
      <trkpt lat="47.33688" lon="-2.4299">
        <ele>73.199996948242</ele>
        <time>2022-06-02T08:25:07.000Z</time>
      </trkpt>
      <trkpt lat="47.33664" lon="-2.43005">
        <ele>73.199996948242</ele>
        <time>2022-06-02T08:25:12.000Z</time>
      </trkpt>
      <trkpt lat="47.3366" lon="-2.4301">
        <ele>73.199996948242</ele>
        <time>2022-06-02T08:25:13.000Z</time>
      </trkpt>
      <trkpt lat="47.33648" lon="-2.43025">
        <ele>73.199996948242</ele>
        <time>2022-06-02T08:25:16.000Z</time>
      </trkpt>
      <trkpt lat="47.33641" lon="-2.43036">
        <ele>73.199996948242</ele>
        <time>2022-06-02T08:25:18.000Z</time>
      </trkpt>
      <trkpt lat="47.33626" lon="-2.43069">
        <ele>73.199996948242</ele>
        <time>2022-06-02T08:25:23.000Z</time>
      </trkpt>
      <trkpt lat="47.33621" lon="-2.43082">
        <ele>73.199996948242</ele>
        <time>2022-06-02T08:25:25.000Z</time>
      </trkpt>
      <trkpt lat="47.33601" lon="-2.43137">
        <ele>73.199996948242</ele>
        <time>2022-06-02T08:25:33.000Z</time>
      </trkpt>
      <trkpt lat="47.33585" lon="-2.4318">
        <ele>73.599998474121</ele>
        <time>2022-06-02T08:25:39.000Z</time>
      </trkpt>
      <trkpt lat="47.33582" lon="-2.43187">
        <ele>74</ele>
        <time>2022-06-02T08:25:40.000Z</time>
      </trkpt>
      <trkpt lat="47.33579" lon="-2.43193">
        <ele>74.400001525879</ele>
        <time>2022-06-02T08:25:41.000Z</time>
      </trkpt>
      <trkpt lat="47.33576" lon="-2.432">
        <ele>74.800003051758</ele>
        <time>2022-06-02T08:25:42.000Z</time>
      </trkpt>
      <trkpt lat="47.33572" lon="-2.43206">
        <ele>75.199996948242</ele>
        <time>2022-06-02T08:25:43.000Z</time>
      </trkpt>
      <trkpt lat="47.33558" lon="-2.43219">
        <ele>75.199996948242</ele>
        <time>2022-06-02T08:25:46.000Z</time>
      </trkpt>
      <trkpt lat="47.3353" lon="-2.43229">
        <ele>75.199996948242</ele>
        <time>2022-06-02T08:25:51.000Z</time>
      </trkpt>
      <trkpt lat="47.33501" lon="-2.43224">
        <ele>75.199996948242</ele>
        <time>2022-06-02T08:25:56.000Z</time>
      </trkpt>
      <trkpt lat="47.33495" lon="-2.43221">
        <ele>75.199996948242</ele>
        <time>2022-06-02T08:25:57.000Z</time>
      </trkpt>
      <trkpt lat="47.33479" lon="-2.4321">
        <ele>75.199996948242</ele>
        <time>2022-06-02T08:26:00.000Z</time>
      </trkpt>
      <trkpt lat="47.33474" lon="-2.43207">
        <ele>75.199996948242</ele>
        <time>2022-06-02T08:26:01.000Z</time>
      </trkpt>
      <trkpt lat="47.33459" lon="-2.43199">
        <ele>75.199996948242</ele>
        <time>2022-06-02T08:26:04.000Z</time>
      </trkpt>
      <trkpt lat="47.33455" lon="-2.43201">
        <ele>75.199996948242</ele>
        <time>2022-06-02T08:26:05.000Z</time>
      </trkpt>
      <trkpt lat="47.33449" lon="-2.43217">
        <ele>75.199996948242</ele>
        <time>2022-06-02T08:26:08.000Z</time>
      </trkpt>
      <trkpt lat="47.33448" lon="-2.43223">
        <ele>75.199996948242</ele>
        <time>2022-06-02T08:26:09.000Z</time>
      </trkpt>
      <trkpt lat="47.33444" lon="-2.4325">
        <ele>75.199996948242</ele>
        <time>2022-06-02T08:26:13.000Z</time>
      </trkpt>
      <trkpt lat="47.33441" lon="-2.43262">
        <ele>75.199996948242</ele>
        <time>2022-06-02T08:26:15.000Z</time>
      </trkpt>
      <trkpt lat="47.33432" lon="-2.43263">
        <ele>75.199996948242</ele>
        <time>2022-06-02T08:26:17.000Z</time>
      </trkpt>
      <trkpt lat="47.33417" lon="-2.43256">
        <ele>75.199996948242</ele>
        <time>2022-06-02T08:26:20.000Z</time>
      </trkpt>
      <trkpt lat="47.33412" lon="-2.43255">
        <ele>75.199996948242</ele>
        <time>2022-06-02T08:26:21.000Z</time>
      </trkpt>
      <trkpt lat="47.33386" lon="-2.43245">
        <ele>75.199996948242</ele>
        <time>2022-06-02T08:26:26.000Z</time>
      </trkpt>
      <trkpt lat="47.33351" lon="-2.43225">
        <ele>75.199996948242</ele>
        <time>2022-06-02T08:26:33.000Z</time>
      </trkpt>
      <trkpt lat="47.33312" lon="-2.432">
        <ele>75.199996948242</ele>
        <time>2022-06-02T08:26:41.000Z</time>
      </trkpt>
      <trkpt lat="47.33278" lon="-2.43177">
        <ele>75.199996948242</ele>
        <time>2022-06-02T08:26:48.000Z</time>
      </trkpt>
      <trkpt lat="47.33243" lon="-2.43153">
        <ele>75.199996948242</ele>
        <time>2022-06-02T08:26:55.000Z</time>
      </trkpt>
      <trkpt lat="47.3323" lon="-2.43157">
        <ele>75.199996948242</ele>
        <time>2022-06-02T08:26:58.000Z</time>
      </trkpt>
      <trkpt lat="47.33226" lon="-2.43158">
        <ele>75.199996948242</ele>
        <time>2022-06-02T08:26:59.000Z</time>
      </trkpt>
      <trkpt lat="47.33211" lon="-2.43163">
        <ele>75.599998474121</ele>
        <time>2022-06-02T08:27:02.000Z</time>
      </trkpt>
      <trkpt lat="47.33206" lon="-2.43163">
        <ele>76</ele>
        <time>2022-06-02T08:27:03.000Z</time>
      </trkpt>
      <trkpt lat="47.332" lon="-2.43163">
        <ele>76.400001525879</ele>
        <time>2022-06-02T08:27:04.000Z</time>
      </trkpt>
      <trkpt lat="47.33195" lon="-2.43163">
        <ele>76.800003051758</ele>
        <time>2022-06-02T08:27:05.000Z</time>
      </trkpt>
      <trkpt lat="47.33191" lon="-2.43163">
        <ele>77.199996948242</ele>
        <time>2022-06-02T08:27:06.000Z</time>
      </trkpt>
      <trkpt lat="47.33182" lon="-2.43163">
        <ele>77.199996948242</ele>
        <time>2022-06-02T08:27:09.000Z</time>
      </trkpt>
      <trkpt lat="47.33181" lon="-2.43165">
        <ele>77.199996948242</ele>
        <time>2022-06-02T08:27:10.000Z</time>
      </trkpt>
      <trkpt lat="47.33179" lon="-2.43168">
        <ele>77.199996948242</ele>
        <time>2022-06-02T08:27:13.000Z</time>
      </trkpt>
      <trkpt lat="47.3317" lon="-2.43175">
        <ele>77.199996948242</ele>
        <time>2022-06-02T08:27:19.000Z</time>
      </trkpt>
      <trkpt lat="47.33166" lon="-2.4319">
        <ele>77.199996948242</ele>
        <time>2022-06-02T08:27:22.000Z</time>
      </trkpt>
      <trkpt lat="47.33164" lon="-2.43196">
        <ele>77.199996948242</ele>
        <time>2022-06-02T08:27:23.000Z</time>
      </trkpt>
      <trkpt lat="47.33155" lon="-2.43223">
        <ele>77.199996948242</ele>
        <time>2022-06-02T08:27:27.000Z</time>
      </trkpt>
      <trkpt lat="47.33149" lon="-2.43237">
        <ele>77.199996948242</ele>
        <time>2022-06-02T08:27:29.000Z</time>
      </trkpt>
      <trkpt lat="47.33144" lon="-2.43253">
        <ele>77.199996948242</ele>
        <time>2022-06-02T08:27:31.000Z</time>
      </trkpt>
      <trkpt lat="47.33141" lon="-2.4326">
        <ele>77.199996948242</ele>
        <time>2022-06-02T08:27:32.000Z</time>
      </trkpt>
      <trkpt lat="47.33135" lon="-2.43275">
        <ele>77.199996948242</ele>
        <time>2022-06-02T08:27:34.000Z</time>
      </trkpt>
      <trkpt lat="47.33121" lon="-2.43304">
        <ele>77.199996948242</ele>
        <time>2022-06-02T08:27:38.000Z</time>
      </trkpt>
      <trkpt lat="47.33114" lon="-2.43319">
        <ele>77.199996948242</ele>
        <time>2022-06-02T08:27:40.000Z</time>
      </trkpt>
      <trkpt lat="47.33091" lon="-2.43368">
        <ele>77.199996948242</ele>
        <time>2022-06-02T08:27:47.000Z</time>
      </trkpt>
      <trkpt lat="47.33075" lon="-2.43407">
        <ele>77.199996948242</ele>
        <time>2022-06-02T08:27:53.000Z</time>
      </trkpt>
      <trkpt lat="47.33075" lon="-2.43414">
        <ele>77.199996948242</ele>
        <time>2022-06-02T08:27:54.000Z</time>
      </trkpt>
      <trkpt lat="47.3308" lon="-2.43438">
        <ele>77.199996948242</ele>
        <time>2022-06-02T08:27:57.000Z</time>
      </trkpt>
      <trkpt lat="47.3309" lon="-2.43472">
        <ele>77.199996948242</ele>
        <time>2022-06-02T08:28:01.000Z</time>
      </trkpt>
      <trkpt lat="47.33096" lon="-2.4349">
        <ele>77.199996948242</ele>
        <time>2022-06-02T08:28:03.000Z</time>
      </trkpt>
      <trkpt lat="47.33112" lon="-2.43554">
        <ele>77.199996948242</ele>
        <time>2022-06-02T08:28:10.000Z</time>
      </trkpt>
      <trkpt lat="47.33121" lon="-2.43609">
        <ele>78</ele>
        <time>2022-06-02T08:28:16.000Z</time>
      </trkpt>
      <trkpt lat="47.33122" lon="-2.43619">
        <ele>78.400001525879</ele>
        <time>2022-06-02T08:28:17.000Z</time>
      </trkpt>
      <trkpt lat="47.33124" lon="-2.43628">
        <ele>78.800003051758</ele>
        <time>2022-06-02T08:28:18.000Z</time>
      </trkpt>
      <trkpt lat="47.33126" lon="-2.43637">
        <ele>79.199996948242</ele>
        <time>2022-06-02T08:28:19.000Z</time>
      </trkpt>
      <trkpt lat="47.33136" lon="-2.43671">
        <ele>79.199996948242</ele>
        <time>2022-06-02T08:28:23.000Z</time>
      </trkpt>
      <trkpt lat="47.33163" lon="-2.4374">
        <ele>79.199996948242</ele>
        <time>2022-06-02T08:28:31.000Z</time>
      </trkpt>
      <trkpt lat="47.33186" lon="-2.43801">
        <ele>79.199996948242</ele>
        <time>2022-06-02T08:28:38.000Z</time>
      </trkpt>
      <trkpt lat="47.33211" lon="-2.43866">
        <ele>79.199996948242</ele>
        <time>2022-06-02T08:28:46.000Z</time>
      </trkpt>
      <trkpt lat="47.33224" lon="-2.43886">
        <ele>79.199996948242</ele>
        <time>2022-06-02T08:28:49.000Z</time>
      </trkpt>
      <trkpt lat="47.33229" lon="-2.4389">
        <ele>79.199996948242</ele>
        <time>2022-06-02T08:28:50.000Z</time>
      </trkpt>
      <trkpt lat="47.33253" lon="-2.43903">
        <ele>79.199996948242</ele>
        <time>2022-06-02T08:28:54.000Z</time>
      </trkpt>
      <trkpt lat="47.3326" lon="-2.43906">
        <ele>79.199996948242</ele>
        <time>2022-06-02T08:28:55.000Z</time>
      </trkpt>
      <trkpt lat="47.33305" lon="-2.43928">
        <ele>79.199996948242</ele>
        <time>2022-06-02T08:29:02.000Z</time>
      </trkpt>
      <trkpt lat="47.33347" lon="-2.4395">
        <ele>79.199996948242</ele>
        <time>2022-06-02T08:29:09.000Z</time>
      </trkpt>
      <trkpt lat="47.33366" lon="-2.43973">
        <ele>79.199996948242</ele>
        <time>2022-06-02T08:29:13.000Z</time>
      </trkpt>
      <trkpt lat="47.33397" lon="-2.44007">
        <ele>79.199996948242</ele>
        <time>2022-06-02T08:29:19.000Z</time>
      </trkpt>
      <trkpt lat="47.33402" lon="-2.44013">
        <ele>79.199996948242</ele>
        <time>2022-06-02T08:29:20.000Z</time>
      </trkpt>
      <trkpt lat="47.33425" lon="-2.44034">
        <ele>79.199996948242</ele>
        <time>2022-06-02T08:29:24.000Z</time>
      </trkpt>
      <trkpt lat="47.3346" lon="-2.44066">
        <ele>79.199996948242</ele>
        <time>2022-06-02T08:29:30.000Z</time>
      </trkpt>
      <trkpt lat="47.33505" lon="-2.44104">
        <ele>79.199996948242</ele>
        <time>2022-06-02T08:29:38.000Z</time>
      </trkpt>
      <trkpt lat="47.3354" lon="-2.44135">
        <ele>79.199996948242</ele>
        <time>2022-06-02T08:29:45.000Z</time>
      </trkpt>
      <trkpt lat="47.33588" lon="-2.44171">
        <ele>79.199996948242</ele>
        <time>2022-06-02T08:29:54.000Z</time>
      </trkpt>
      <trkpt lat="47.33638" lon="-2.4421">
        <ele>79.199996948242</ele>
        <time>2022-06-02T08:30:03.000Z</time>
      </trkpt>
      <trkpt lat="47.33678" lon="-2.44247">
        <ele>79.199996948242</ele>
        <time>2022-06-02T08:30:10.000Z</time>
      </trkpt>
      <trkpt lat="47.33721" lon="-2.44291">
        <ele>79.199996948242</ele>
        <time>2022-06-02T08:30:18.000Z</time>
      </trkpt>
      <trkpt lat="47.33766" lon="-2.44329">
        <ele>79.199996948242</ele>
        <time>2022-06-02T08:30:26.000Z</time>
      </trkpt>
      <trkpt lat="47.33799" lon="-2.4434">
        <ele>79.199996948242</ele>
        <time>2022-06-02T08:30:31.000Z</time>
      </trkpt>
      <trkpt lat="47.33839" lon="-2.44346">
        <ele>79.199996948242</ele>
        <time>2022-06-02T08:30:37.000Z</time>
      </trkpt>
      <trkpt lat="47.33885" lon="-2.44352">
        <ele>79.199996948242</ele>
        <time>2022-06-02T08:30:44.000Z</time>
      </trkpt>
      <trkpt lat="47.33892" lon="-2.44352">
        <ele>78.800003051758</ele>
        <time>2022-06-02T08:30:45.000Z</time>
      </trkpt>
      <trkpt lat="47.33899" lon="-2.44352">
        <ele>78.400001525879</ele>
        <time>2022-06-02T08:30:46.000Z</time>
      </trkpt>
      <trkpt lat="47.33906" lon="-2.44352">
        <ele>78</ele>
        <time>2022-06-02T08:30:47.000Z</time>
      </trkpt>
      <trkpt lat="47.33913" lon="-2.44353">
        <ele>77.599998474121</ele>
        <time>2022-06-02T08:30:48.000Z</time>
      </trkpt>
      <trkpt lat="47.33921" lon="-2.44355">
        <ele>77.199996948242</ele>
        <time>2022-06-02T08:30:49.000Z</time>
      </trkpt>
      <trkpt lat="47.33935" lon="-2.44362">
        <ele>77.199996948242</ele>
        <time>2022-06-02T08:30:51.000Z</time>
      </trkpt>
      <trkpt lat="47.33968" lon="-2.44382">
        <ele>76.599998474121</ele>
        <time>2022-06-02T08:30:56.000Z</time>
      </trkpt>
      <trkpt lat="47.33975" lon="-2.44387">
        <ele>76.199996948242</ele>
        <time>2022-06-02T08:30:57.000Z</time>
      </trkpt>
      <trkpt lat="47.33981" lon="-2.4439">
        <ele>75.800003051758</ele>
        <time>2022-06-02T08:30:58.000Z</time>
      </trkpt>
      <trkpt lat="47.33988" lon="-2.44394">
        <ele>75.400001525879</ele>
        <time>2022-06-02T08:30:59.000Z</time>
      </trkpt>
      <trkpt lat="47.33995" lon="-2.44399">
        <ele>75</ele>
        <time>2022-06-02T08:31:00.000Z</time>
      </trkpt>
      <trkpt lat="47.34014" lon="-2.44412">
        <ele>74.599998474121</ele>
        <time>2022-06-02T08:31:03.000Z</time>
      </trkpt>
      <trkpt lat="47.34021" lon="-2.44418">
        <ele>74.199996948242</ele>
        <time>2022-06-02T08:31:04.000Z</time>
      </trkpt>
      <trkpt lat="47.34028" lon="-2.44423">
        <ele>73.800003051758</ele>
        <time>2022-06-02T08:31:05.000Z</time>
      </trkpt>
      <trkpt lat="47.34035" lon="-2.44429">
        <ele>73.400001525879</ele>
        <time>2022-06-02T08:31:06.000Z</time>
      </trkpt>
      <trkpt lat="47.34041" lon="-2.44435">
        <ele>73</ele>
        <time>2022-06-02T08:31:07.000Z</time>
      </trkpt>
      <trkpt lat="47.34055" lon="-2.44458">
        <ele>73</ele>
        <time>2022-06-02T08:31:10.000Z</time>
      </trkpt>
      <trkpt lat="47.34056" lon="-2.44483">
        <ele>72.599998474121</ele>
        <time>2022-06-02T08:31:13.000Z</time>
      </trkpt>
      <trkpt lat="47.34055" lon="-2.4449">
        <ele>72.199996948242</ele>
        <time>2022-06-02T08:31:14.000Z</time>
      </trkpt>
      <trkpt lat="47.34055" lon="-2.44498">
        <ele>71.800003051758</ele>
        <time>2022-06-02T08:31:15.000Z</time>
      </trkpt>
      <trkpt lat="47.34056" lon="-2.44507">
        <ele>71.400001525879</ele>
        <time>2022-06-02T08:31:16.000Z</time>
      </trkpt>
      <trkpt lat="47.34057" lon="-2.44515">
        <ele>71</ele>
        <time>2022-06-02T08:31:17.000Z</time>
      </trkpt>
      <trkpt lat="47.34061" lon="-2.44566">
        <ele>71</ele>
        <time>2022-06-02T08:31:23.000Z</time>
      </trkpt>
      <trkpt lat="47.3406" lon="-2.44621">
        <ele>71.400001525879</ele>
        <time>2022-06-02T08:31:29.000Z</time>
      </trkpt>
      <trkpt lat="47.34059" lon="-2.4463">
        <ele>71.800003051758</ele>
        <time>2022-06-02T08:31:30.000Z</time>
      </trkpt>
      <trkpt lat="47.34058" lon="-2.44639">
        <ele>72.199996948242</ele>
        <time>2022-06-02T08:31:31.000Z</time>
      </trkpt>
      <trkpt lat="47.34057" lon="-2.44648">
        <ele>73</ele>
        <time>2022-06-02T08:31:32.000Z</time>
      </trkpt>
      <trkpt lat="47.34048" lon="-2.44702">
        <ele>73</ele>
        <time>2022-06-02T08:31:38.000Z</time>
      </trkpt>
      <trkpt lat="47.3404" lon="-2.44744">
        <ele>73.400001525879</ele>
        <time>2022-06-02T08:31:43.000Z</time>
      </trkpt>
      <trkpt lat="47.34038" lon="-2.44753">
        <ele>73.800003051758</ele>
        <time>2022-06-02T08:31:44.000Z</time>
      </trkpt>
      <trkpt lat="47.34037" lon="-2.44761">
        <ele>74.199996948242</ele>
        <time>2022-06-02T08:31:45.000Z</time>
      </trkpt>
      <trkpt lat="47.34035" lon="-2.44768">
        <ele>74.599998474121</ele>
        <time>2022-06-02T08:31:46.000Z</time>
      </trkpt>
      <trkpt lat="47.34033" lon="-2.44776">
        <ele>75</ele>
        <time>2022-06-02T08:31:47.000Z</time>
      </trkpt>
      <trkpt lat="47.34019" lon="-2.44824">
        <ele>75</ele>
        <time>2022-06-02T08:31:53.000Z</time>
      </trkpt>
      <trkpt lat="47.33999" lon="-2.44881">
        <ele>75</ele>
        <time>2022-06-02T08:32:00.000Z</time>
      </trkpt>
      <trkpt lat="47.33987" lon="-2.44943">
        <ele>75</ele>
        <time>2022-06-02T08:32:07.000Z</time>
      </trkpt>
      <trkpt lat="47.33985" lon="-2.44961">
        <ele>75</ele>
        <time>2022-06-02T08:32:09.000Z</time>
      </trkpt>
      <trkpt lat="47.33988" lon="-2.44989">
        <ele>75</ele>
        <time>2022-06-02T08:32:12.000Z</time>
      </trkpt>
      <trkpt lat="47.33992" lon="-2.45006">
        <ele>75</ele>
        <time>2022-06-02T08:32:14.000Z</time>
      </trkpt>
      <trkpt lat="47.33994" lon="-2.45015">
        <ele>75.400001525879</ele>
        <time>2022-06-02T08:32:15.000Z</time>
      </trkpt>
      <trkpt lat="47.33996" lon="-2.45023">
        <ele>75.800003051758</ele>
        <time>2022-06-02T08:32:16.000Z</time>
      </trkpt>
      <trkpt lat="47.33998" lon="-2.45032">
        <ele>76.199996948242</ele>
        <time>2022-06-02T08:32:17.000Z</time>
      </trkpt>
      <trkpt lat="47.34" lon="-2.45041">
        <ele>76.599998474121</ele>
        <time>2022-06-02T08:32:18.000Z</time>
      </trkpt>
      <trkpt lat="47.34002" lon="-2.45049">
        <ele>77</ele>
        <time>2022-06-02T08:32:19.000Z</time>
      </trkpt>
      <trkpt lat="47.34021" lon="-2.45115">
        <ele>77</ele>
        <time>2022-06-02T08:32:27.000Z</time>
      </trkpt>
      <trkpt lat="47.3404" lon="-2.45178">
        <ele>77</ele>
        <time>2022-06-02T08:32:35.000Z</time>
      </trkpt>
      <trkpt lat="47.34057" lon="-2.45241">
        <ele>77</ele>
        <time>2022-06-02T08:32:43.000Z</time>
      </trkpt>
      <trkpt lat="47.34059" lon="-2.45248">
        <ele>77.400001525879</ele>
        <time>2022-06-02T08:32:44.000Z</time>
      </trkpt>
      <trkpt lat="47.34062" lon="-2.45254">
        <ele>77.800003051758</ele>
        <time>2022-06-02T08:32:45.000Z</time>
      </trkpt>
      <trkpt lat="47.34064" lon="-2.45258">
        <ele>78.599998474121</ele>
        <time>2022-06-02T08:32:46.000Z</time>
      </trkpt>
      <trkpt lat="47.34067" lon="-2.45258">
        <ele>79</ele>
        <time>2022-06-02T08:32:47.000Z</time>
      </trkpt>
      <trkpt lat="47.34076" lon="-2.45252">
        <ele>79</ele>
        <time>2022-06-02T08:32:50.000Z</time>
      </trkpt>
      <trkpt lat="47.34097" lon="-2.45236">
        <ele>79</ele>
        <time>2022-06-02T08:32:55.000Z</time>
      </trkpt>
      <trkpt lat="47.34136" lon="-2.45209">
        <ele>79</ele>
        <time>2022-06-02T08:33:03.000Z</time>
      </trkpt>
      <trkpt lat="47.34166" lon="-2.45186">
        <ele>79</ele>
        <time>2022-06-02T08:33:09.000Z</time>
      </trkpt>
      <trkpt lat="47.34217" lon="-2.45147">
        <ele>79</ele>
        <time>2022-06-02T08:33:18.000Z</time>
      </trkpt>
      <trkpt lat="47.34272" lon="-2.45107">
        <ele>79</ele>
        <time>2022-06-02T08:33:27.000Z</time>
      </trkpt>
      <trkpt lat="47.34283" lon="-2.45098">
        <ele>79</ele>
        <time>2022-06-02T08:33:29.000Z</time>
      </trkpt>
      <trkpt lat="47.34322" lon="-2.45062">
        <ele>79</ele>
        <time>2022-06-02T08:33:36.000Z</time>
      </trkpt>
      <trkpt lat="47.34362" lon="-2.45017">
        <ele>79</ele>
        <time>2022-06-02T08:33:44.000Z</time>
      </trkpt>
      <trkpt lat="47.34376" lon="-2.45002">
        <ele>78.599998474121</ele>
        <time>2022-06-02T08:33:47.000Z</time>
      </trkpt>
      <trkpt lat="47.34381" lon="-2.44997">
        <ele>78.199996948242</ele>
        <time>2022-06-02T08:33:48.000Z</time>
      </trkpt>
      <trkpt lat="47.34386" lon="-2.44993">
        <ele>77.800003051758</ele>
        <time>2022-06-02T08:33:49.000Z</time>
      </trkpt>
      <trkpt lat="47.3439" lon="-2.44989">
        <ele>77.400001525879</ele>
        <time>2022-06-02T08:33:50.000Z</time>
      </trkpt>
      <trkpt lat="47.34395" lon="-2.44989">
        <ele>77</ele>
        <time>2022-06-02T08:33:51.000Z</time>
      </trkpt>
      <trkpt lat="47.34405" lon="-2.44996">
        <ele>77</ele>
        <time>2022-06-02T08:33:53.000Z</time>
      </trkpt>
      <trkpt lat="47.34415" lon="-2.45015">
        <ele>77</ele>
        <time>2022-06-02T08:33:56.000Z</time>
      </trkpt>
      <trkpt lat="47.34436" lon="-2.45066">
        <ele>77</ele>
        <time>2022-06-02T08:34:03.000Z</time>
      </trkpt>
      <trkpt lat="47.3445" lon="-2.45094">
        <ele>76.599998474121</ele>
        <time>2022-06-02T08:34:07.000Z</time>
      </trkpt>
      <trkpt lat="47.34453" lon="-2.45101">
        <ele>76.199996948242</ele>
        <time>2022-06-02T08:34:08.000Z</time>
      </trkpt>
      <trkpt lat="47.34457" lon="-2.45109">
        <ele>75.800003051758</ele>
        <time>2022-06-02T08:34:09.000Z</time>
      </trkpt>
      <trkpt lat="47.3446" lon="-2.45116">
        <ele>75.400001525879</ele>
        <time>2022-06-02T08:34:10.000Z</time>
      </trkpt>
      <trkpt lat="47.34464" lon="-2.45124">
        <ele>75</ele>
        <time>2022-06-02T08:34:11.000Z</time>
      </trkpt>
      <trkpt lat="47.34478" lon="-2.45144">
        <ele>75</ele>
        <time>2022-06-02T08:34:14.000Z</time>
      </trkpt>
      <trkpt lat="47.34509" lon="-2.45179">
        <ele>74.599998474121</ele>
        <time>2022-06-02T08:34:20.000Z</time>
      </trkpt>
      <trkpt lat="47.34514" lon="-2.45186">
        <ele>74</ele>
        <time>2022-06-02T08:34:21.000Z</time>
      </trkpt>
      <trkpt lat="47.34519" lon="-2.45192">
        <ele>73.599998474121</ele>
        <time>2022-06-02T08:34:22.000Z</time>
      </trkpt>
      <trkpt lat="47.34524" lon="-2.452">
        <ele>73.199996948242</ele>
        <time>2022-06-02T08:34:23.000Z</time>
      </trkpt>
      <trkpt lat="47.34529" lon="-2.45207">
        <ele>72.800003051758</ele>
        <time>2022-06-02T08:34:24.000Z</time>
      </trkpt>
      <trkpt lat="47.34553" lon="-2.45242">
        <ele>72.800003051758</ele>
        <time>2022-06-02T08:34:29.000Z</time>
      </trkpt>
      <trkpt lat="47.34579" lon="-2.45277">
        <ele>72.800003051758</ele>
        <time>2022-06-02T08:34:35.000Z</time>
      </trkpt>
      <trkpt lat="47.34582" lon="-2.45283">
        <ele>72.800003051758</ele>
        <time>2022-06-02T08:34:36.000Z</time>
      </trkpt>
      <trkpt lat="47.34591" lon="-2.45303">
        <ele>72.800003051758</ele>
        <time>2022-06-02T08:34:39.000Z</time>
      </trkpt>
      <trkpt lat="47.34594" lon="-2.4531">
        <ele>72.800003051758</ele>
        <time>2022-06-02T08:34:40.000Z</time>
      </trkpt>
      <trkpt lat="47.34603" lon="-2.45333">
        <ele>72.400001525879</ele>
        <time>2022-06-02T08:34:43.000Z</time>
      </trkpt>
      <trkpt lat="47.34606" lon="-2.45341">
        <ele>72</ele>
        <time>2022-06-02T08:34:44.000Z</time>
      </trkpt>
      <trkpt lat="47.34609" lon="-2.45349">
        <ele>71.599998474121</ele>
        <time>2022-06-02T08:34:45.000Z</time>
      </trkpt>
      <trkpt lat="47.34612" lon="-2.45358">
        <ele>71.199996948242</ele>
        <time>2022-06-02T08:34:46.000Z</time>
      </trkpt>
      <trkpt lat="47.34616" lon="-2.45367">
        <ele>70.800003051758</ele>
        <time>2022-06-02T08:34:47.000Z</time>
      </trkpt>
      <trkpt lat="47.34637" lon="-2.45422">
        <ele>70.800003051758</ele>
        <time>2022-06-02T08:34:53.000Z</time>
      </trkpt>
      <trkpt lat="47.34655" lon="-2.45473">
        <ele>71.199996948242</ele>
        <time>2022-06-02T08:34:59.000Z</time>
      </trkpt>
      <trkpt lat="47.34658" lon="-2.45481">
        <ele>71.599998474121</ele>
        <time>2022-06-02T08:35:00.000Z</time>
      </trkpt>
      <trkpt lat="47.3466" lon="-2.45489">
        <ele>72</ele>
        <time>2022-06-02T08:35:01.000Z</time>
      </trkpt>
      <trkpt lat="47.34663" lon="-2.45497">
        <ele>72.599998474121</ele>
        <time>2022-06-02T08:35:02.000Z</time>
      </trkpt>
      <trkpt lat="47.34667" lon="-2.45505">
        <ele>73</ele>
        <time>2022-06-02T08:35:03.000Z</time>
      </trkpt>
      <trkpt lat="47.34679" lon="-2.45538">
        <ele>73</ele>
        <time>2022-06-02T08:35:07.000Z</time>
      </trkpt>
      <trkpt lat="47.34705" lon="-2.45601">
        <ele>73</ele>
        <time>2022-06-02T08:35:15.000Z</time>
      </trkpt>
      <trkpt lat="47.34719" lon="-2.45629">
        <ele>73.400001525879</ele>
        <time>2022-06-02T08:35:19.000Z</time>
      </trkpt>
      <trkpt lat="47.34723" lon="-2.45637">
        <ele>73.800003051758</ele>
        <time>2022-06-02T08:35:20.000Z</time>
      </trkpt>
      <trkpt lat="47.34726" lon="-2.45644">
        <ele>74.199996948242</ele>
        <time>2022-06-02T08:35:21.000Z</time>
      </trkpt>
      <trkpt lat="47.3473" lon="-2.45651">
        <ele>74.599998474121</ele>
        <time>2022-06-02T08:35:22.000Z</time>
      </trkpt>
      <trkpt lat="47.34734" lon="-2.45658">
        <ele>75</ele>
        <time>2022-06-02T08:35:23.000Z</time>
      </trkpt>
      <trkpt lat="47.34758" lon="-2.45716">
        <ele>75</ele>
        <time>2022-06-02T08:35:30.000Z</time>
      </trkpt>
      <trkpt lat="47.34776" lon="-2.45778">
        <ele>75</ele>
        <time>2022-06-02T08:35:37.000Z</time>
      </trkpt>
      <trkpt lat="47.34785" lon="-2.45832">
        <ele>74.599998474121</ele>
        <time>2022-06-02T08:35:43.000Z</time>
      </trkpt>
      <trkpt lat="47.34786" lon="-2.45841">
        <ele>74.199996948242</ele>
        <time>2022-06-02T08:35:44.000Z</time>
      </trkpt>
      <trkpt lat="47.34786" lon="-2.4585">
        <ele>73.800003051758</ele>
        <time>2022-06-02T08:35:45.000Z</time>
      </trkpt>
      <trkpt lat="47.34787" lon="-2.45859">
        <ele>73.400001525879</ele>
        <time>2022-06-02T08:35:46.000Z</time>
      </trkpt>
      <trkpt lat="47.34788" lon="-2.45868">
        <ele>73</ele>
        <time>2022-06-02T08:35:47.000Z</time>
      </trkpt>
      <trkpt lat="47.34793" lon="-2.45896">
        <ele>73</ele>
        <time>2022-06-02T08:35:50.000Z</time>
      </trkpt>
      <trkpt lat="47.348" lon="-2.45961">
        <ele>73</ele>
        <time>2022-06-02T08:35:56.000Z</time>
      </trkpt>
      <trkpt lat="47.34803" lon="-2.45984">
        <ele>72.599998474121</ele>
        <time>2022-06-02T08:35:58.000Z</time>
      </trkpt>
      <trkpt lat="47.34804" lon="-2.45995">
        <ele>72</ele>
        <time>2022-06-02T08:35:59.000Z</time>
      </trkpt>
      <trkpt lat="47.34805" lon="-2.46006">
        <ele>71.599998474121</ele>
        <time>2022-06-02T08:36:00.000Z</time>
      </trkpt>
      <trkpt lat="47.34806" lon="-2.46017">
        <ele>71.199996948242</ele>
        <time>2022-06-02T08:36:01.000Z</time>
      </trkpt>
      <trkpt lat="47.34808" lon="-2.46028">
        <ele>70.599998474121</ele>
        <time>2022-06-02T08:36:02.000Z</time>
      </trkpt>
      <trkpt lat="47.34809" lon="-2.46039">
        <ele>70.599998474121</ele>
        <time>2022-06-02T08:36:03.000Z</time>
      </trkpt>
      <trkpt lat="47.34818" lon="-2.46119">
        <ele>70.599998474121</ele>
        <time>2022-06-02T08:36:10.000Z</time>
      </trkpt>
      <trkpt lat="47.34821" lon="-2.46186">
        <ele>70.599998474121</ele>
        <time>2022-06-02T08:36:16.000Z</time>
      </trkpt>
      <trkpt lat="47.34824" lon="-2.46258">
        <ele>70.599998474121</ele>
        <time>2022-06-02T08:36:23.000Z</time>
      </trkpt>
      <trkpt lat="47.34829" lon="-2.46319">
        <ele>70.599998474121</ele>
        <time>2022-06-02T08:36:29.000Z</time>
      </trkpt>
      <trkpt lat="47.3484" lon="-2.46389">
        <ele>70.599998474121</ele>
        <time>2022-06-02T08:36:36.000Z</time>
      </trkpt>
      <trkpt lat="47.34843" lon="-2.46418">
        <ele>70.599998474121</ele>
        <time>2022-06-02T08:36:39.000Z</time>
      </trkpt>
      <trkpt lat="47.34845" lon="-2.46437">
        <ele>70.599998474121</ele>
        <time>2022-06-02T08:36:41.000Z</time>
      </trkpt>
      <trkpt lat="47.34853" lon="-2.46486">
        <ele>70.599998474121</ele>
        <time>2022-06-02T08:36:47.000Z</time>
      </trkpt>
      <trkpt lat="47.34851" lon="-2.46496">
        <ele>70.599998474121</ele>
        <time>2022-06-02T08:36:50.000Z</time>
      </trkpt>
      <trkpt lat="47.34851" lon="-2.46506">
        <ele>70.599998474121</ele>
        <time>2022-06-02T08:36:56.000Z</time>
      </trkpt>
      <trkpt lat="47.34851" lon="-2.46506">
        <ele>70.599998474121</ele>
        <time>2022-06-02T08:36:57.000Z</time>
      </trkpt>
      <trkpt lat="47.34849" lon="-2.46514">
        <ele>70.599998474121</ele>
        <time>2022-06-02T08:54:03.000Z</time>
      </trkpt>
      <trkpt lat="47.34847" lon="-2.46517">
        <ele>70.599998474121</ele>
        <time>2022-06-02T08:54:05.000Z</time>
      </trkpt>
      <trkpt lat="47.34841" lon="-2.46533">
        <ele>70.599998474121</ele>
        <time>2022-06-02T08:54:12.000Z</time>
      </trkpt>
      <trkpt lat="47.34834" lon="-2.46553">
        <ele>70.599998474121</ele>
        <time>2022-06-02T08:54:17.000Z</time>
      </trkpt>
      <trkpt lat="47.34818" lon="-2.46582">
        <ele>70.599998474121</ele>
        <time>2022-06-02T08:54:23.000Z</time>
      </trkpt>
      <trkpt lat="47.34802" lon="-2.46613">
        <ele>70.599998474121</ele>
        <time>2022-06-02T08:54:29.000Z</time>
      </trkpt>
      <trkpt lat="47.34796" lon="-2.46621">
        <ele>70.599998474121</ele>
        <time>2022-06-02T08:54:31.000Z</time>
      </trkpt>
      <trkpt lat="47.34785" lon="-2.46639">
        <ele>70.599998474121</ele>
        <time>2022-06-02T08:54:35.000Z</time>
      </trkpt>
      <trkpt lat="47.34776" lon="-2.46653">
        <ele>70.599998474121</ele>
        <time>2022-06-02T08:54:38.000Z</time>
      </trkpt>
      <trkpt lat="47.34766" lon="-2.46666">
        <ele>70.599998474121</ele>
        <time>2022-06-02T08:54:41.000Z</time>
      </trkpt>
      <trkpt lat="47.34757" lon="-2.46681">
        <ele>70.599998474121</ele>
        <time>2022-06-02T08:54:44.000Z</time>
      </trkpt>
      <trkpt lat="47.34751" lon="-2.46691">
        <ele>70.599998474121</ele>
        <time>2022-06-02T08:54:46.000Z</time>
      </trkpt>
      <trkpt lat="47.34732" lon="-2.46721">
        <ele>70.599998474121</ele>
        <time>2022-06-02T08:54:52.000Z</time>
      </trkpt>
      <trkpt lat="47.34725" lon="-2.4673">
        <ele>71</ele>
        <time>2022-06-02T08:54:54.000Z</time>
      </trkpt>
      <trkpt lat="47.34722" lon="-2.46735">
        <ele>71.599998474121</ele>
        <time>2022-06-02T08:54:55.000Z</time>
      </trkpt>
      <trkpt lat="47.34719" lon="-2.4674">
        <ele>72</ele>
        <time>2022-06-02T08:54:56.000Z</time>
      </trkpt>
      <trkpt lat="47.34716" lon="-2.46745">
        <ele>72.400001525879</ele>
        <time>2022-06-02T08:54:57.000Z</time>
      </trkpt>
      <trkpt lat="47.34713" lon="-2.46749">
        <ele>72.800003051758</ele>
        <time>2022-06-02T08:54:58.000Z</time>
      </trkpt>
      <trkpt lat="47.34706" lon="-2.46759">
        <ele>72.800003051758</ele>
        <time>2022-06-02T08:55:00.000Z</time>
      </trkpt>
      <trkpt lat="47.34688" lon="-2.46791">
        <ele>72.800003051758</ele>
        <time>2022-06-02T08:55:06.000Z</time>
      </trkpt>
      <trkpt lat="47.34685" lon="-2.46796">
        <ele>72.800003051758</ele>
        <time>2022-06-02T08:55:07.000Z</time>
      </trkpt>
      <trkpt lat="47.34665" lon="-2.46832">
        <ele>72.800003051758</ele>
        <time>2022-06-02T08:55:13.000Z</time>
      </trkpt>
      <trkpt lat="47.34647" lon="-2.4686">
        <ele>72.800003051758</ele>
        <time>2022-06-02T08:55:18.000Z</time>
      </trkpt>
      <trkpt lat="47.34639" lon="-2.46872">
        <ele>72.800003051758</ele>
        <time>2022-06-02T08:55:20.000Z</time>
      </trkpt>
      <trkpt lat="47.34623" lon="-2.46896">
        <ele>72.800003051758</ele>
        <time>2022-06-02T08:55:24.000Z</time>
      </trkpt>
      <trkpt lat="47.34616" lon="-2.46909">
        <ele>72.800003051758</ele>
        <time>2022-06-02T08:55:26.000Z</time>
      </trkpt>
      <trkpt lat="47.34598" lon="-2.46927">
        <ele>72.800003051758</ele>
        <time>2022-06-02T08:55:30.000Z</time>
      </trkpt>
      <trkpt lat="47.34574" lon="-2.46947">
        <ele>72.800003051758</ele>
        <time>2022-06-02T08:55:35.000Z</time>
      </trkpt>
      <trkpt lat="47.34566" lon="-2.46957">
        <ele>72.800003051758</ele>
        <time>2022-06-02T08:55:37.000Z</time>
      </trkpt>
      <trkpt lat="47.3455" lon="-2.46967">
        <ele>72.800003051758</ele>
        <time>2022-06-02T08:55:40.000Z</time>
      </trkpt>
      <trkpt lat="47.34544" lon="-2.46969">
        <ele>72.800003051758</ele>
        <time>2022-06-02T08:55:41.000Z</time>
      </trkpt>
      <trkpt lat="47.34506" lon="-2.4699">
        <ele>72.800003051758</ele>
        <time>2022-06-02T08:55:48.000Z</time>
      </trkpt>
      <trkpt lat="47.34467" lon="-2.47013">
        <ele>72.800003051758</ele>
        <time>2022-06-02T08:55:55.000Z</time>
      </trkpt>
      <trkpt lat="47.3445" lon="-2.47024">
        <ele>72.800003051758</ele>
        <time>2022-06-02T08:55:58.000Z</time>
      </trkpt>
      <trkpt lat="47.34428" lon="-2.47038">
        <ele>72.800003051758</ele>
        <time>2022-06-02T08:56:02.000Z</time>
      </trkpt>
      <trkpt lat="47.34389" lon="-2.4706">
        <ele>72.800003051758</ele>
        <time>2022-06-02T08:56:09.000Z</time>
      </trkpt>
      <trkpt lat="47.34352" lon="-2.47083">
        <ele>72.800003051758</ele>
        <time>2022-06-02T08:56:16.000Z</time>
      </trkpt>
      <trkpt lat="47.34314" lon="-2.47111">
        <ele>72.800003051758</ele>
        <time>2022-06-02T08:56:23.000Z</time>
      </trkpt>
      <trkpt lat="47.34291" lon="-2.47126">
        <ele>72.800003051758</ele>
        <time>2022-06-02T08:56:27.000Z</time>
      </trkpt>
      <trkpt lat="47.34279" lon="-2.47134">
        <ele>72.800003051758</ele>
        <time>2022-06-02T08:56:29.000Z</time>
      </trkpt>
      <trkpt lat="47.34248" lon="-2.47165">
        <ele>72.800003051758</ele>
        <time>2022-06-02T08:56:35.000Z</time>
      </trkpt>
      <trkpt lat="47.34218" lon="-2.47202">
        <ele>72.800003051758</ele>
        <time>2022-06-02T08:56:41.000Z</time>
      </trkpt>
      <trkpt lat="47.34175" lon="-2.47249">
        <ele>72.800003051758</ele>
        <time>2022-06-02T08:56:49.000Z</time>
      </trkpt>
      <trkpt lat="47.34152" lon="-2.47273">
        <ele>72.400001525879</ele>
        <time>2022-06-02T08:56:53.000Z</time>
      </trkpt>
      <trkpt lat="47.34146" lon="-2.4728">
        <ele>72</ele>
        <time>2022-06-02T08:56:54.000Z</time>
      </trkpt>
      <trkpt lat="47.34141" lon="-2.47288">
        <ele>71.599998474121</ele>
        <time>2022-06-02T08:56:55.000Z</time>
      </trkpt>
      <trkpt lat="47.34136" lon="-2.47296">
        <ele>71.199996948242</ele>
        <time>2022-06-02T08:56:56.000Z</time>
      </trkpt>
      <trkpt lat="47.34132" lon="-2.47305">
        <ele>70.800003051758</ele>
        <time>2022-06-02T08:56:57.000Z</time>
      </trkpt>
      <trkpt lat="47.34114" lon="-2.47343">
        <ele>70.199996948242</ele>
        <time>2022-06-02T08:57:01.000Z</time>
      </trkpt>
      <trkpt lat="47.3411" lon="-2.47351">
        <ele>69.800003051758</ele>
        <time>2022-06-02T08:57:02.000Z</time>
      </trkpt>
      <trkpt lat="47.34107" lon="-2.4736">
        <ele>69.199996948242</ele>
        <time>2022-06-02T08:57:03.000Z</time>
      </trkpt>
      <trkpt lat="47.34103" lon="-2.47368">
        <ele>68.800003051758</ele>
        <time>2022-06-02T08:57:04.000Z</time>
      </trkpt>
      <trkpt lat="47.34098" lon="-2.47377">
        <ele>68.199996948242</ele>
        <time>2022-06-02T08:57:05.000Z</time>
      </trkpt>
      <trkpt lat="47.34095" lon="-2.47384">
        <ele>68.199996948242</ele>
        <time>2022-06-02T08:57:06.000Z</time>
      </trkpt>
      <trkpt lat="47.34092" lon="-2.47391">
        <ele>67.800003051758</ele>
        <time>2022-06-02T08:57:07.000Z</time>
      </trkpt>
      <trkpt lat="47.34089" lon="-2.47396">
        <ele>67.400001525879</ele>
        <time>2022-06-02T08:57:08.000Z</time>
      </trkpt>
      <trkpt lat="47.34086" lon="-2.47401">
        <ele>67</ele>
        <time>2022-06-02T08:57:09.000Z</time>
      </trkpt>
      <trkpt lat="47.34085" lon="-2.47403">
        <ele>66.599998474121</ele>
        <time>2022-06-02T08:57:10.000Z</time>
      </trkpt>
      <trkpt lat="47.34084" lon="-2.47405">
        <ele>66.199996948242</ele>
        <time>2022-06-02T08:57:11.000Z</time>
      </trkpt>
      <trkpt lat="47.34082" lon="-2.47406">
        <ele>66.199996948242</ele>
        <time>2022-06-02T08:57:14.000Z</time>
      </trkpt>
      <trkpt lat="47.34081" lon="-2.47407">
        <ele>66.199996948242</ele>
        <time>2022-06-02T08:57:15.000Z</time>
      </trkpt>
      <trkpt lat="47.3408" lon="-2.47411">
        <ele>66.199996948242</ele>
        <time>2022-06-02T08:57:36.000Z</time>
      </trkpt>
      <trkpt lat="47.34079" lon="-2.47417">
        <ele>66.199996948242</ele>
        <time>2022-06-02T08:57:38.000Z</time>
      </trkpt>
      <trkpt lat="47.34081" lon="-2.47418">
        <ele>66.199996948242</ele>
        <time>2022-06-02T08:57:41.000Z</time>
      </trkpt>
      <trkpt lat="47.34077" lon="-2.47423">
        <ele>66.199996948242</ele>
        <time>2022-06-02T08:57:57.000Z</time>
      </trkpt>
      <trkpt lat="47.34072" lon="-2.47429">
        <ele>66.199996948242</ele>
        <time>2022-06-02T08:57:59.000Z</time>
      </trkpt>
      <trkpt lat="47.34062" lon="-2.47438">
        <ele>66.199996948242</ele>
        <time>2022-06-02T08:58:02.000Z</time>
      </trkpt>
      <trkpt lat="47.34059" lon="-2.47442">
        <ele>66.199996948242</ele>
        <time>2022-06-02T08:58:03.000Z</time>
      </trkpt>
      <trkpt lat="47.34055" lon="-2.47446">
        <ele>65.800003051758</ele>
        <time>2022-06-02T08:58:04.000Z</time>
      </trkpt>
      <trkpt lat="47.34051" lon="-2.47451">
        <ele>65.400001525879</ele>
        <time>2022-06-02T08:58:05.000Z</time>
      </trkpt>
      <trkpt lat="47.34047" lon="-2.47457">
        <ele>65</ele>
        <time>2022-06-02T08:58:06.000Z</time>
      </trkpt>
      <trkpt lat="47.34042" lon="-2.47462">
        <ele>64.599998474121</ele>
        <time>2022-06-02T08:58:07.000Z</time>
      </trkpt>
      <trkpt lat="47.34038" lon="-2.47466">
        <ele>64.199996948242</ele>
        <time>2022-06-02T08:58:08.000Z</time>
      </trkpt>
      <trkpt lat="47.34033" lon="-2.47469">
        <ele>64.199996948242</ele>
        <time>2022-06-02T08:58:09.000Z</time>
      </trkpt>
      <trkpt lat="47.34014" lon="-2.47486">
        <ele>64.199996948242</ele>
        <time>2022-06-02T08:58:13.000Z</time>
      </trkpt>
      <trkpt lat="47.3401" lon="-2.47492">
        <ele>63.599998474121</ele>
        <time>2022-06-02T08:58:14.000Z</time>
      </trkpt>
      <trkpt lat="47.34005" lon="-2.47496">
        <ele>63.200000762939</ele>
        <time>2022-06-02T08:58:15.000Z</time>
      </trkpt>
      <trkpt lat="47.34" lon="-2.475">
        <ele>62.799999237061</ele>
        <time>2022-06-02T08:58:16.000Z</time>
      </trkpt>
      <trkpt lat="47.33995" lon="-2.47505">
        <ele>62.400001525879</ele>
        <time>2022-06-02T08:58:17.000Z</time>
      </trkpt>
      <trkpt lat="47.3399" lon="-2.47509">
        <ele>62</ele>
        <time>2022-06-02T08:58:18.000Z</time>
      </trkpt>
      <trkpt lat="47.33968" lon="-2.47532">
        <ele>62</ele>
        <time>2022-06-02T08:58:22.000Z</time>
      </trkpt>
      <trkpt lat="47.33963" lon="-2.4754">
        <ele>61.599998474121</ele>
        <time>2022-06-02T08:58:23.000Z</time>
      </trkpt>
      <trkpt lat="47.33959" lon="-2.47548">
        <ele>61</ele>
        <time>2022-06-02T08:58:24.000Z</time>
      </trkpt>
      <trkpt lat="47.33955" lon="-2.47555">
        <ele>60.599998474121</ele>
        <time>2022-06-02T08:58:25.000Z</time>
      </trkpt>
      <trkpt lat="47.33951" lon="-2.47564">
        <ele>60.200000762939</ele>
        <time>2022-06-02T08:58:26.000Z</time>
      </trkpt>
      <trkpt lat="47.33947" lon="-2.47573">
        <ele>59.599998474121</ele>
        <time>2022-06-02T08:58:27.000Z</time>
      </trkpt>
      <trkpt lat="47.33944" lon="-2.47583">
        <ele>59.200000762939</ele>
        <time>2022-06-02T08:58:28.000Z</time>
      </trkpt>
      <trkpt lat="47.33941" lon="-2.47594">
        <ele>58.799999237061</ele>
        <time>2022-06-02T08:58:29.000Z</time>
      </trkpt>
      <trkpt lat="47.33938" lon="-2.47605">
        <ele>58.400001525879</ele>
        <time>2022-06-02T08:58:30.000Z</time>
      </trkpt>
      <trkpt lat="47.33935" lon="-2.47615">
        <ele>58</ele>
        <time>2022-06-02T08:58:31.000Z</time>
      </trkpt>
      <trkpt lat="47.33932" lon="-2.47627">
        <ele>57.599998474121</ele>
        <time>2022-06-02T08:58:32.000Z</time>
      </trkpt>
      <trkpt lat="47.33925" lon="-2.47646">
        <ele>57.599998474121</ele>
        <time>2022-06-02T08:58:34.000Z</time>
      </trkpt>
      <trkpt lat="47.33918" lon="-2.47664">
        <ele>57.599998474121</ele>
        <time>2022-06-02T08:58:36.000Z</time>
      </trkpt>
      <trkpt lat="47.33914" lon="-2.47673">
        <ele>57</ele>
        <time>2022-06-02T08:58:37.000Z</time>
      </trkpt>
      <trkpt lat="47.33909" lon="-2.47681">
        <ele>56.599998474121</ele>
        <time>2022-06-02T08:58:38.000Z</time>
      </trkpt>
      <trkpt lat="47.33904" lon="-2.4769">
        <ele>56</ele>
        <time>2022-06-02T08:58:39.000Z</time>
      </trkpt>
      <trkpt lat="47.33899" lon="-2.47699">
        <ele>55.599998474121</ele>
        <time>2022-06-02T08:58:40.000Z</time>
      </trkpt>
      <trkpt lat="47.33894" lon="-2.47709">
        <ele>55.200000762939</ele>
        <time>2022-06-02T08:58:41.000Z</time>
      </trkpt>
      <trkpt lat="47.33889" lon="-2.47718">
        <ele>54.599998474121</ele>
        <time>2022-06-02T08:58:42.000Z</time>
      </trkpt>
      <trkpt lat="47.33884" lon="-2.47728">
        <ele>54.200000762939</ele>
        <time>2022-06-02T08:58:43.000Z</time>
      </trkpt>
      <trkpt lat="47.33879" lon="-2.47738">
        <ele>53.799999237061</ele>
        <time>2022-06-02T08:58:44.000Z</time>
      </trkpt>
      <trkpt lat="47.33873" lon="-2.47747">
        <ele>53.200000762939</ele>
        <time>2022-06-02T08:58:45.000Z</time>
      </trkpt>
      <trkpt lat="47.33868" lon="-2.47754">
        <ele>52.799999237061</ele>
        <time>2022-06-02T08:58:46.000Z</time>
      </trkpt>
      <trkpt lat="47.33863" lon="-2.4776">
        <ele>52.799999237061</ele>
        <time>2022-06-02T08:58:47.000Z</time>
      </trkpt>
      <trkpt lat="47.33859" lon="-2.47767">
        <ele>52.799999237061</ele>
        <time>2022-06-02T08:58:48.000Z</time>
      </trkpt>
      <trkpt lat="47.33851" lon="-2.47772">
        <ele>52.799999237061</ele>
        <time>2022-06-02T08:58:50.000Z</time>
      </trkpt>
      <trkpt lat="47.33841" lon="-2.47763">
        <ele>52.799999237061</ele>
        <time>2022-06-02T08:58:53.000Z</time>
      </trkpt>
      <trkpt lat="47.33833" lon="-2.47752">
        <ele>52.799999237061</ele>
        <time>2022-06-02T08:58:55.000Z</time>
      </trkpt>
      <trkpt lat="47.33821" lon="-2.47738">
        <ele>52.799999237061</ele>
        <time>2022-06-02T08:58:58.000Z</time>
      </trkpt>
      <trkpt lat="47.33805" lon="-2.47718">
        <ele>52.799999237061</ele>
        <time>2022-06-02T08:59:02.000Z</time>
      </trkpt>
      <trkpt lat="47.33793" lon="-2.47701">
        <ele>52.799999237061</ele>
        <time>2022-06-02T08:59:05.000Z</time>
      </trkpt>
      <trkpt lat="47.33766" lon="-2.47665">
        <ele>52.799999237061</ele>
        <time>2022-06-02T08:59:12.000Z</time>
      </trkpt>
      <trkpt lat="47.33763" lon="-2.4766">
        <ele>53.200000762939</ele>
        <time>2022-06-02T08:59:13.000Z</time>
      </trkpt>
      <trkpt lat="47.3376" lon="-2.47654">
        <ele>53.599998474121</ele>
        <time>2022-06-02T08:59:14.000Z</time>
      </trkpt>
      <trkpt lat="47.33757" lon="-2.47649">
        <ele>54</ele>
        <time>2022-06-02T08:59:15.000Z</time>
      </trkpt>
      <trkpt lat="47.33755" lon="-2.47644">
        <ele>54.599998474121</ele>
        <time>2022-06-02T08:59:16.000Z</time>
      </trkpt>
      <trkpt lat="47.33752" lon="-2.47638">
        <ele>55</ele>
        <time>2022-06-02T08:59:17.000Z</time>
      </trkpt>
      <trkpt lat="47.3375" lon="-2.47633">
        <ele>55</ele>
        <time>2022-06-02T08:59:18.000Z</time>
      </trkpt>
      <trkpt lat="47.33746" lon="-2.47629">
        <ele>55</ele>
        <time>2022-06-02T08:59:19.000Z</time>
      </trkpt>
      <trkpt lat="47.3373" lon="-2.47619">
        <ele>55</ele>
        <time>2022-06-02T08:59:23.000Z</time>
      </trkpt>
      <trkpt lat="47.33727" lon="-2.47618">
        <ele>55</ele>
        <time>2022-06-02T08:59:24.000Z</time>
      </trkpt>
      <trkpt lat="47.33711" lon="-2.47619">
        <ele>55</ele>
        <time>2022-06-02T08:59:28.000Z</time>
      </trkpt>
      <trkpt lat="47.33683" lon="-2.47624">
        <ele>55</ele>
        <time>2022-06-02T08:59:34.000Z</time>
      </trkpt>
      <trkpt lat="47.33665" lon="-2.47634">
        <ele>55</ele>
        <time>2022-06-02T08:59:38.000Z</time>
      </trkpt>
      <trkpt lat="47.33655" lon="-2.4764">
        <ele>55</ele>
        <time>2022-06-02T08:59:40.000Z</time>
      </trkpt>
      <trkpt lat="47.33616" lon="-2.4767">
        <ele>55</ele>
        <time>2022-06-02T08:59:48.000Z</time>
      </trkpt>
      <trkpt lat="47.33586" lon="-2.47698">
        <ele>55</ele>
        <time>2022-06-02T08:59:54.000Z</time>
      </trkpt>
      <trkpt lat="47.3357" lon="-2.47698">
        <ele>55</ele>
        <time>2022-06-02T08:59:57.000Z</time>
      </trkpt>
      <trkpt lat="47.33552" lon="-2.47685">
        <ele>55</ele>
        <time>2022-06-02T09:00:01.000Z</time>
      </trkpt>
      <trkpt lat="47.33533" lon="-2.47671">
        <ele>55</ele>
        <time>2022-06-02T09:00:05.000Z</time>
      </trkpt>
      <trkpt lat="47.33528" lon="-2.47667">
        <ele>55</ele>
        <time>2022-06-02T09:00:06.000Z</time>
      </trkpt>
      <trkpt lat="47.33516" lon="-2.47646">
        <ele>55</ele>
        <time>2022-06-02T09:00:09.000Z</time>
      </trkpt>
      <trkpt lat="47.33507" lon="-2.47624">
        <ele>54.400001525879</ele>
        <time>2022-06-02T09:00:12.000Z</time>
      </trkpt>
      <trkpt lat="47.33504" lon="-2.47617">
        <ele>54</ele>
        <time>2022-06-02T09:00:13.000Z</time>
      </trkpt>
      <trkpt lat="47.335" lon="-2.47611">
        <ele>53.599998474121</ele>
        <time>2022-06-02T09:00:14.000Z</time>
      </trkpt>
      <trkpt lat="47.33496" lon="-2.47605">
        <ele>53.200000762939</ele>
        <time>2022-06-02T09:00:15.000Z</time>
      </trkpt>
      <trkpt lat="47.33491" lon="-2.47601">
        <ele>52.799999237061</ele>
        <time>2022-06-02T09:00:16.000Z</time>
      </trkpt>
      <trkpt lat="47.33485" lon="-2.47597">
        <ele>52.799999237061</ele>
        <time>2022-06-02T09:00:17.000Z</time>
      </trkpt>
      <trkpt lat="47.33478" lon="-2.47588">
        <ele>52.799999237061</ele>
        <time>2022-06-02T09:00:19.000Z</time>
      </trkpt>
      <trkpt lat="47.33475" lon="-2.47583">
        <ele>52.799999237061</ele>
        <time>2022-06-02T09:00:20.000Z</time>
      </trkpt>
      <trkpt lat="47.33472" lon="-2.47579">
        <ele>52.799999237061</ele>
        <time>2022-06-02T09:00:21.000Z</time>
      </trkpt>
      <trkpt lat="47.33466" lon="-2.47568">
        <ele>52.799999237061</ele>
        <time>2022-06-02T09:00:24.000Z</time>
      </trkpt>
      <trkpt lat="47.33458" lon="-2.47553">
        <ele>52.799999237061</ele>
        <time>2022-06-02T09:00:29.000Z</time>
      </trkpt>
      <trkpt lat="47.33449" lon="-2.47533">
        <ele>52.799999237061</ele>
        <time>2022-06-02T09:00:36.000Z</time>
      </trkpt>
      <trkpt lat="47.33439" lon="-2.47512">
        <ele>52.799999237061</ele>
        <time>2022-06-02T09:00:43.000Z</time>
      </trkpt>
      <trkpt lat="47.33429" lon="-2.47484">
        <ele>52.799999237061</ele>
        <time>2022-06-02T09:00:50.000Z</time>
      </trkpt>
      <trkpt lat="47.3342" lon="-2.47446">
        <ele>52.799999237061</ele>
        <time>2022-06-02T09:00:59.000Z</time>
      </trkpt>
      <trkpt lat="47.33413" lon="-2.47416">
        <ele>52.799999237061</ele>
        <time>2022-06-02T09:01:05.000Z</time>
      </trkpt>
      <trkpt lat="47.33405" lon="-2.47391">
        <ele>52.799999237061</ele>
        <time>2022-06-02T09:01:09.000Z</time>
      </trkpt>
      <trkpt lat="47.33401" lon="-2.47377">
        <ele>52.799999237061</ele>
        <time>2022-06-02T09:01:11.000Z</time>
      </trkpt>
      <trkpt lat="47.33399" lon="-2.4737">
        <ele>52.799999237061</ele>
        <time>2022-06-02T09:01:12.000Z</time>
      </trkpt>
      <trkpt lat="47.33391" lon="-2.47331">
        <ele>52.799999237061</ele>
        <time>2022-06-02T09:01:17.000Z</time>
      </trkpt>
      <trkpt lat="47.33388" lon="-2.47316">
        <ele>53.200000762939</ele>
        <time>2022-06-02T09:01:19.000Z</time>
      </trkpt>
      <trkpt lat="47.33387" lon="-2.47307">
        <ele>53.599998474121</ele>
        <time>2022-06-02T09:01:20.000Z</time>
      </trkpt>
      <trkpt lat="47.33386" lon="-2.47298">
        <ele>54</ele>
        <time>2022-06-02T09:01:21.000Z</time>
      </trkpt>
      <trkpt lat="47.33385" lon="-2.47289">
        <ele>54.400001525879</ele>
        <time>2022-06-02T09:01:22.000Z</time>
      </trkpt>
      <trkpt lat="47.33384" lon="-2.4728">
        <ele>54.799999237061</ele>
        <time>2022-06-02T09:01:23.000Z</time>
      </trkpt>
      <trkpt lat="47.33378" lon="-2.47212">
        <ele>54.799999237061</ele>
        <time>2022-06-02T09:01:31.000Z</time>
      </trkpt>
      <trkpt lat="47.33377" lon="-2.47198">
        <ele>54.799999237061</ele>
        <time>2022-06-02T09:01:33.000Z</time>
      </trkpt>
      <trkpt lat="47.33372" lon="-2.47172">
        <ele>54.799999237061</ele>
        <time>2022-06-02T09:01:37.000Z</time>
      </trkpt>
      <trkpt lat="47.33369" lon="-2.47154">
        <ele>54.200000762939</ele>
        <time>2022-06-02T09:01:41.000Z</time>
      </trkpt>
      <trkpt lat="47.33369" lon="-2.4715">
        <ele>53.799999237061</ele>
        <time>2022-06-02T09:01:42.000Z</time>
      </trkpt>
      <trkpt lat="47.3337" lon="-2.47149">
        <ele>53.400001525879</ele>
        <time>2022-06-02T09:01:43.000Z</time>
      </trkpt>
      <trkpt lat="47.33372" lon="-2.47147">
        <ele>53</ele>
        <time>2022-06-02T09:01:44.000Z</time>
      </trkpt>
      <trkpt lat="47.33373" lon="-2.47147">
        <ele>52.599998474121</ele>
        <time>2022-06-02T09:01:45.000Z</time>
      </trkpt>
      <trkpt lat="47.33374" lon="-2.47146">
        <ele>52.599998474121</ele>
        <time>2022-06-02T09:01:46.000Z</time>
      </trkpt>
      <trkpt lat="47.33379" lon="-2.47137">
        <ele>52.599998474121</ele>
        <time>2022-06-02T09:01:52.000Z</time>
      </trkpt>
      <trkpt lat="47.33384" lon="-2.4712">
        <ele>52.599998474121</ele>
        <time>2022-06-02T09:01:57.000Z</time>
      </trkpt>
      <trkpt lat="47.33392" lon="-2.47081">
        <ele>52.599998474121</ele>
        <time>2022-06-02T09:02:03.000Z</time>
      </trkpt>
      <trkpt lat="47.33394" lon="-2.47074">
        <ele>52.599998474121</ele>
        <time>2022-06-02T09:02:04.000Z</time>
      </trkpt>
      <trkpt lat="47.33404" lon="-2.47049">
        <ele>52.599998474121</ele>
        <time>2022-06-02T09:02:08.000Z</time>
      </trkpt>
      <trkpt lat="47.33407" lon="-2.47043">
        <ele>53</ele>
        <time>2022-06-02T09:02:09.000Z</time>
      </trkpt>
      <trkpt lat="47.33409" lon="-2.47038">
        <ele>53.400001525879</ele>
        <time>2022-06-02T09:02:10.000Z</time>
      </trkpt>
      <trkpt lat="47.33411" lon="-2.47033">
        <ele>53.799999237061</ele>
        <time>2022-06-02T09:02:11.000Z</time>
      </trkpt>
      <trkpt lat="47.33414" lon="-2.47027">
        <ele>54.200000762939</ele>
        <time>2022-06-02T09:02:12.000Z</time>
      </trkpt>
      <trkpt lat="47.33416" lon="-2.47022">
        <ele>54.599998474121</ele>
        <time>2022-06-02T09:02:13.000Z</time>
      </trkpt>
      <trkpt lat="47.33419" lon="-2.47017">
        <ele>54.599998474121</ele>
        <time>2022-06-02T09:02:14.000Z</time>
      </trkpt>
      <trkpt lat="47.33422" lon="-2.47011">
        <ele>54.599998474121</ele>
        <time>2022-06-02T09:02:15.000Z</time>
      </trkpt>
      <trkpt lat="47.33446" lon="-2.46979">
        <ele>54.599998474121</ele>
        <time>2022-06-02T09:02:22.000Z</time>
      </trkpt>
      <trkpt lat="47.33456" lon="-2.46964">
        <ele>54.599998474121</ele>
        <time>2022-06-02T09:02:25.000Z</time>
      </trkpt>
      <trkpt lat="47.33461" lon="-2.46953">
        <ele>54.599998474121</ele>
        <time>2022-06-02T09:02:27.000Z</time>
      </trkpt>
      <trkpt lat="47.33467" lon="-2.46944">
        <ele>54.599998474121</ele>
        <time>2022-06-02T09:02:29.000Z</time>
      </trkpt>
      <trkpt lat="47.33486" lon="-2.46919">
        <ele>54.599998474121</ele>
        <time>2022-06-02T09:02:35.000Z</time>
      </trkpt>
      <trkpt lat="47.3349" lon="-2.46916">
        <ele>54.599998474121</ele>
        <time>2022-06-02T09:02:36.000Z</time>
      </trkpt>
      <trkpt lat="47.33494" lon="-2.46913">
        <ele>55</ele>
        <time>2022-06-02T09:02:37.000Z</time>
      </trkpt>
      <trkpt lat="47.33498" lon="-2.46911">
        <ele>55.400001525879</ele>
        <time>2022-06-02T09:02:38.000Z</time>
      </trkpt>
      <trkpt lat="47.33501" lon="-2.46907">
        <ele>55.799999237061</ele>
        <time>2022-06-02T09:02:39.000Z</time>
      </trkpt>
      <trkpt lat="47.33504" lon="-2.46904">
        <ele>56.200000762939</ele>
        <time>2022-06-02T09:02:40.000Z</time>
      </trkpt>
      <trkpt lat="47.33508" lon="-2.46902">
        <ele>56.599998474121</ele>
        <time>2022-06-02T09:02:41.000Z</time>
      </trkpt>
      <trkpt lat="47.33511" lon="-2.46898">
        <ele>56.599998474121</ele>
        <time>2022-06-02T09:02:42.000Z</time>
      </trkpt>
      <trkpt lat="47.33525" lon="-2.46882">
        <ele>57.200000762939</ele>
        <time>2022-06-02T09:02:47.000Z</time>
      </trkpt>
      <trkpt lat="47.33528" lon="-2.46879">
        <ele>57.599998474121</ele>
        <time>2022-06-02T09:02:48.000Z</time>
      </trkpt>
      <trkpt lat="47.33531" lon="-2.46875">
        <ele>58</ele>
        <time>2022-06-02T09:02:49.000Z</time>
      </trkpt>
      <trkpt lat="47.33532" lon="-2.46872">
        <ele>58.400001525879</ele>
        <time>2022-06-02T09:02:50.000Z</time>
      </trkpt>
      <trkpt lat="47.33533" lon="-2.46867">
        <ele>58.799999237061</ele>
        <time>2022-06-02T09:02:51.000Z</time>
      </trkpt>
      <trkpt lat="47.33533" lon="-2.46853">
        <ele>58.799999237061</ele>
        <time>2022-06-02T09:02:54.000Z</time>
      </trkpt>
      <trkpt lat="47.33532" lon="-2.46845">
        <ele>59.200000762939</ele>
        <time>2022-06-02T09:02:56.000Z</time>
      </trkpt>
      <trkpt lat="47.33533" lon="-2.46841">
        <ele>59.599998474121</ele>
        <time>2022-06-02T09:02:57.000Z</time>
      </trkpt>
      <trkpt lat="47.33535" lon="-2.46837">
        <ele>60</ele>
        <time>2022-06-02T09:02:58.000Z</time>
      </trkpt>
      <trkpt lat="47.33537" lon="-2.46833">
        <ele>60.400001525879</ele>
        <time>2022-06-02T09:02:59.000Z</time>
      </trkpt>
      <trkpt lat="47.33539" lon="-2.46831">
        <ele>60.799999237061</ele>
        <time>2022-06-02T09:03:00.000Z</time>
      </trkpt>
      <trkpt lat="47.33542" lon="-2.46829">
        <ele>60.799999237061</ele>
        <time>2022-06-02T09:03:01.000Z</time>
      </trkpt>
      <trkpt lat="47.33547" lon="-2.46823">
        <ele>60.799999237061</ele>
        <time>2022-06-02T09:03:03.000Z</time>
      </trkpt>
      <trkpt lat="47.33553" lon="-2.46817">
        <ele>61.400001525879</ele>
        <time>2022-06-02T09:03:05.000Z</time>
      </trkpt>
      <trkpt lat="47.33556" lon="-2.46813">
        <ele>61.799999237061</ele>
        <time>2022-06-02T09:03:06.000Z</time>
      </trkpt>
      <trkpt lat="47.33559" lon="-2.46811">
        <ele>62.200000762939</ele>
        <time>2022-06-02T09:03:07.000Z</time>
      </trkpt>
      <trkpt lat="47.33561" lon="-2.46808">
        <ele>63.200000762939</ele>
        <time>2022-06-02T09:03:08.000Z</time>
      </trkpt>
      <trkpt lat="47.33564" lon="-2.46805">
        <ele>63.200000762939</ele>
        <time>2022-06-02T09:03:09.000Z</time>
      </trkpt>
      <trkpt lat="47.33574" lon="-2.46794">
        <ele>63.599998474121</ele>
        <time>2022-06-02T09:03:13.000Z</time>
      </trkpt>
      <trkpt lat="47.33577" lon="-2.46791">
        <ele>64</ele>
        <time>2022-06-02T09:03:14.000Z</time>
      </trkpt>
      <trkpt lat="47.33579" lon="-2.46789">
        <ele>64.400001525879</ele>
        <time>2022-06-02T09:03:15.000Z</time>
      </trkpt>
      <trkpt lat="47.33582" lon="-2.46786">
        <ele>64.800003051758</ele>
        <time>2022-06-02T09:03:16.000Z</time>
      </trkpt>
      <trkpt lat="47.33584" lon="-2.46784">
        <ele>65.199996948242</ele>
        <time>2022-06-02T09:03:17.000Z</time>
      </trkpt>
      <trkpt lat="47.33591" lon="-2.46776">
        <ele>65.599998474121</ele>
        <time>2022-06-02T09:03:20.000Z</time>
      </trkpt>
      <trkpt lat="47.33593" lon="-2.46773">
        <ele>66</ele>
        <time>2022-06-02T09:03:21.000Z</time>
      </trkpt>
      <trkpt lat="47.33595" lon="-2.46771">
        <ele>66.400001525879</ele>
        <time>2022-06-02T09:03:22.000Z</time>
      </trkpt>
      <trkpt lat="47.33598" lon="-2.46768">
        <ele>66.800003051758</ele>
        <time>2022-06-02T09:03:23.000Z</time>
      </trkpt>
      <trkpt lat="47.336" lon="-2.46766">
        <ele>67.199996948242</ele>
        <time>2022-06-02T09:03:24.000Z</time>
      </trkpt>
      <trkpt lat="47.33609" lon="-2.46755">
        <ele>67.599998474121</ele>
        <time>2022-06-02T09:03:28.000Z</time>
      </trkpt>
      <trkpt lat="47.33611" lon="-2.46753">
        <ele>68</ele>
        <time>2022-06-02T09:03:29.000Z</time>
      </trkpt>
      <trkpt lat="47.33613" lon="-2.46751">
        <ele>68.400001525879</ele>
        <time>2022-06-02T09:03:30.000Z</time>
      </trkpt>
      <trkpt lat="47.33615" lon="-2.46749">
        <ele>69</ele>
        <time>2022-06-02T09:03:31.000Z</time>
      </trkpt>
      <trkpt lat="47.33617" lon="-2.46746">
        <ele>69.400001525879</ele>
        <time>2022-06-02T09:03:32.000Z</time>
      </trkpt>
      <trkpt lat="47.33618" lon="-2.46743">
        <ele>69.400001525879</ele>
        <time>2022-06-02T09:03:33.000Z</time>
      </trkpt>
      <trkpt lat="47.33617" lon="-2.46733">
        <ele>69.400001525879</ele>
        <time>2022-06-02T09:03:35.000Z</time>
      </trkpt>
      <trkpt lat="47.3361" lon="-2.46705">
        <ele>69.400001525879</ele>
        <time>2022-06-02T09:03:41.000Z</time>
      </trkpt>
      <trkpt lat="47.33593" lon="-2.46663">
        <ele>69.400001525879</ele>
        <time>2022-06-02T09:03:49.000Z</time>
      </trkpt>
      <trkpt lat="47.33591" lon="-2.46657">
        <ele>69.400001525879</ele>
        <time>2022-06-02T09:03:50.000Z</time>
      </trkpt>
      <trkpt lat="47.33587" lon="-2.46646">
        <ele>69.400001525879</ele>
        <time>2022-06-02T09:03:52.000Z</time>
      </trkpt>
      <trkpt lat="47.33582" lon="-2.46628">
        <ele>69.400001525879</ele>
        <time>2022-06-02T09:03:55.000Z</time>
      </trkpt>
      <trkpt lat="47.33574" lon="-2.46606">
        <ele>69.400001525879</ele>
        <time>2022-06-02T09:03:59.000Z</time>
      </trkpt>
      <trkpt lat="47.3357" lon="-2.46596">
        <ele>69.400001525879</ele>
        <time>2022-06-02T09:04:01.000Z</time>
      </trkpt>
      <trkpt lat="47.33566" lon="-2.46591">
        <ele>69.400001525879</ele>
        <time>2022-06-02T09:04:03.000Z</time>
      </trkpt>
      <trkpt lat="47.33561" lon="-2.46587">
        <ele>69.400001525879</ele>
        <time>2022-06-02T09:04:05.000Z</time>
      </trkpt>
      <trkpt lat="47.33557" lon="-2.46577">
        <ele>69.400001525879</ele>
        <time>2022-06-02T09:04:07.000Z</time>
      </trkpt>
      <trkpt lat="47.33557" lon="-2.4657">
        <ele>69.400001525879</ele>
        <time>2022-06-02T09:04:08.000Z</time>
      </trkpt>
      <trkpt lat="47.33554" lon="-2.46559">
        <ele>69.400001525879</ele>
        <time>2022-06-02T09:04:10.000Z</time>
      </trkpt>
      <trkpt lat="47.33552" lon="-2.46547">
        <ele>69.400001525879</ele>
        <time>2022-06-02T09:04:12.000Z</time>
      </trkpt>
      <trkpt lat="47.3355" lon="-2.46535">
        <ele>69.400001525879</ele>
        <time>2022-06-02T09:04:14.000Z</time>
      </trkpt>
      <trkpt lat="47.3355" lon="-2.46529">
        <ele>69.800003051758</ele>
        <time>2022-06-02T09:04:15.000Z</time>
      </trkpt>
      <trkpt lat="47.33549" lon="-2.46523">
        <ele>70.199996948242</ele>
        <time>2022-06-02T09:04:16.000Z</time>
      </trkpt>
      <trkpt lat="47.33548" lon="-2.46517">
        <ele>70.599998474121</ele>
        <time>2022-06-02T09:04:17.000Z</time>
      </trkpt>
      <trkpt lat="47.33546" lon="-2.4651">
        <ele>71</ele>
        <time>2022-06-02T09:04:18.000Z</time>
      </trkpt>
      <trkpt lat="47.33544" lon="-2.46502">
        <ele>71.400001525879</ele>
        <time>2022-06-02T09:04:19.000Z</time>
      </trkpt>
      <trkpt lat="47.3354" lon="-2.46487">
        <ele>71.800003051758</ele>
        <time>2022-06-02T09:04:22.000Z</time>
      </trkpt>
      <trkpt lat="47.33538" lon="-2.46487">
        <ele>72.199996948242</ele>
        <time>2022-06-02T09:04:23.000Z</time>
      </trkpt>
      <trkpt lat="47.33534" lon="-2.46486">
        <ele>72.800003051758</ele>
        <time>2022-06-02T09:04:24.000Z</time>
      </trkpt>
      <trkpt lat="47.33531" lon="-2.46486">
        <ele>73.199996948242</ele>
        <time>2022-06-02T09:04:25.000Z</time>
      </trkpt>
      <trkpt lat="47.33527" lon="-2.46485">
        <ele>73.599998474121</ele>
        <time>2022-06-02T09:04:26.000Z</time>
      </trkpt>
      <trkpt lat="47.33524" lon="-2.46484">
        <ele>73.599998474121</ele>
        <time>2022-06-02T09:04:27.000Z</time>
      </trkpt>
      <trkpt lat="47.33518" lon="-2.46487">
        <ele>73.599998474121</ele>
        <time>2022-06-02T09:04:28.000Z</time>
      </trkpt>
      <trkpt lat="47.33507" lon="-2.46496">
        <ele>73.599998474121</ele>
        <time>2022-06-02T09:04:30.000Z</time>
      </trkpt>
      <trkpt lat="47.33494" lon="-2.46513">
        <ele>73.199996948242</ele>
        <time>2022-06-02T09:04:33.000Z</time>
      </trkpt>
      <trkpt lat="47.33489" lon="-2.46518">
        <ele>72.800003051758</ele>
        <time>2022-06-02T09:04:34.000Z</time>
      </trkpt>
      <trkpt lat="47.33485" lon="-2.46524">
        <ele>72.199996948242</ele>
        <time>2022-06-02T09:04:35.000Z</time>
      </trkpt>
      <trkpt lat="47.33481" lon="-2.46529">
        <ele>71.800003051758</ele>
        <time>2022-06-02T09:04:36.000Z</time>
      </trkpt>
      <trkpt lat="47.33476" lon="-2.46535">
        <ele>71.400001525879</ele>
        <time>2022-06-02T09:04:37.000Z</time>
      </trkpt>
      <trkpt lat="47.33468" lon="-2.46545">
        <ele>71.400001525879</ele>
        <time>2022-06-02T09:04:39.000Z</time>
      </trkpt>
      <trkpt lat="47.33463" lon="-2.46551">
        <ele>71.400001525879</ele>
        <time>2022-06-02T09:04:40.000Z</time>
      </trkpt>
      <trkpt lat="47.33453" lon="-2.46563">
        <ele>70.800003051758</ele>
        <time>2022-06-02T09:04:42.000Z</time>
      </trkpt>
      <trkpt lat="47.33447" lon="-2.46569">
        <ele>70.400001525879</ele>
        <time>2022-06-02T09:04:43.000Z</time>
      </trkpt>
      <trkpt lat="47.33442" lon="-2.46574">
        <ele>70</ele>
        <time>2022-06-02T09:04:44.000Z</time>
      </trkpt>
      <trkpt lat="47.33436" lon="-2.46578">
        <ele>69.599998474121</ele>
        <time>2022-06-02T09:04:45.000Z</time>
      </trkpt>
      <trkpt lat="47.3343" lon="-2.46582">
        <ele>69</ele>
        <time>2022-06-02T09:04:46.000Z</time>
      </trkpt>
      <trkpt lat="47.33423" lon="-2.46586">
        <ele>68.199996948242</ele>
        <time>2022-06-02T09:04:47.000Z</time>
      </trkpt>
      <trkpt lat="47.33418" lon="-2.46589">
        <ele>67.599998474121</ele>
        <time>2022-06-02T09:04:48.000Z</time>
      </trkpt>
      <trkpt lat="47.33412" lon="-2.46593">
        <ele>67.199996948242</ele>
        <time>2022-06-02T09:04:49.000Z</time>
      </trkpt>
      <trkpt lat="47.33406" lon="-2.46598">
        <ele>66.599998474121</ele>
        <time>2022-06-02T09:04:50.000Z</time>
      </trkpt>
      <trkpt lat="47.334" lon="-2.46603">
        <ele>66.199996948242</ele>
        <time>2022-06-02T09:04:51.000Z</time>
      </trkpt>
      <trkpt lat="47.33395" lon="-2.46607">
        <ele>65.599998474121</ele>
        <time>2022-06-02T09:04:52.000Z</time>
      </trkpt>
      <trkpt lat="47.33389" lon="-2.46614">
        <ele>65.199996948242</ele>
        <time>2022-06-02T09:04:53.000Z</time>
      </trkpt>
      <trkpt lat="47.33384" lon="-2.46621">
        <ele>64.599998474121</ele>
        <time>2022-06-02T09:04:54.000Z</time>
      </trkpt>
      <trkpt lat="47.33373" lon="-2.46633">
        <ele>64.199996948242</ele>
        <time>2022-06-02T09:04:56.000Z</time>
      </trkpt>
      <trkpt lat="47.33368" lon="-2.46639">
        <ele>63.599998474121</ele>
        <time>2022-06-02T09:04:57.000Z</time>
      </trkpt>
      <trkpt lat="47.33361" lon="-2.46642">
        <ele>63.200000762939</ele>
        <time>2022-06-02T09:04:58.000Z</time>
      </trkpt>
      <trkpt lat="47.33355" lon="-2.46645">
        <ele>62.599998474121</ele>
        <time>2022-06-02T09:04:59.000Z</time>
      </trkpt>
      <trkpt lat="47.33349" lon="-2.46648">
        <ele>62.200000762939</ele>
        <time>2022-06-02T09:05:00.000Z</time>
      </trkpt>
      <trkpt lat="47.3333" lon="-2.46655">
        <ele>61.799999237061</ele>
        <time>2022-06-02T09:05:04.000Z</time>
      </trkpt>
      <trkpt lat="47.33328" lon="-2.46654">
        <ele>61.200000762939</ele>
        <time>2022-06-02T09:05:05.000Z</time>
      </trkpt>
      <trkpt lat="47.33327" lon="-2.46649">
        <ele>60.799999237061</ele>
        <time>2022-06-02T09:05:06.000Z</time>
      </trkpt>
      <trkpt lat="47.33326" lon="-2.46644">
        <ele>60.400001525879</ele>
        <time>2022-06-02T09:05:07.000Z</time>
      </trkpt>
      <trkpt lat="47.33326" lon="-2.46638">
        <ele>59.799999237061</ele>
        <time>2022-06-02T09:05:08.000Z</time>
      </trkpt>
      <trkpt lat="47.33326" lon="-2.46628">
        <ele>59.799999237061</ele>
        <time>2022-06-02T09:05:10.000Z</time>
      </trkpt>
      <trkpt lat="47.33324" lon="-2.46622">
        <ele>59.799999237061</ele>
        <time>2022-06-02T09:05:11.000Z</time>
      </trkpt>
      <trkpt lat="47.33314" lon="-2.46609">
        <ele>59.799999237061</ele>
        <time>2022-06-02T09:05:14.000Z</time>
      </trkpt>
      <trkpt lat="47.33308" lon="-2.46599">
        <ele>59.799999237061</ele>
        <time>2022-06-02T09:05:16.000Z</time>
      </trkpt>
      <trkpt lat="47.33301" lon="-2.46588">
        <ele>59.799999237061</ele>
        <time>2022-06-02T09:05:18.000Z</time>
      </trkpt>
      <trkpt lat="47.33297" lon="-2.46575">
        <ele>59.799999237061</ele>
        <time>2022-06-02T09:05:20.000Z</time>
      </trkpt>
      <trkpt lat="47.33291" lon="-2.4654">
        <ele>59.799999237061</ele>
        <time>2022-06-02T09:05:25.000Z</time>
      </trkpt>
      <trkpt lat="47.33289" lon="-2.46509">
        <ele>60.200000762939</ele>
        <time>2022-06-02T09:05:30.000Z</time>
      </trkpt>
      <trkpt lat="47.33288" lon="-2.46504">
        <ele>60.799999237061</ele>
        <time>2022-06-02T09:05:31.000Z</time>
      </trkpt>
      <trkpt lat="47.33288" lon="-2.46498">
        <ele>61.200000762939</ele>
        <time>2022-06-02T09:05:32.000Z</time>
      </trkpt>
      <trkpt lat="47.33287" lon="-2.46493">
        <ele>61.599998474121</ele>
        <time>2022-06-02T09:05:33.000Z</time>
      </trkpt>
      <trkpt lat="47.33286" lon="-2.46487">
        <ele>62</ele>
        <time>2022-06-02T09:05:34.000Z</time>
      </trkpt>
      <trkpt lat="47.33284" lon="-2.46471">
        <ele>62.400001525879</ele>
        <time>2022-06-02T09:05:38.000Z</time>
      </trkpt>
      <trkpt lat="47.33284" lon="-2.46468">
        <ele>62.799999237061</ele>
        <time>2022-06-02T09:05:39.000Z</time>
      </trkpt>
      <trkpt lat="47.33284" lon="-2.46464">
        <ele>63.200000762939</ele>
        <time>2022-06-02T09:05:40.000Z</time>
      </trkpt>
      <trkpt lat="47.33283" lon="-2.4646">
        <ele>63.599998474121</ele>
        <time>2022-06-02T09:05:41.000Z</time>
      </trkpt>
      <trkpt lat="47.33282" lon="-2.46457">
        <ele>64</ele>
        <time>2022-06-02T09:05:42.000Z</time>
      </trkpt>
      <trkpt lat="47.3328" lon="-2.46449">
        <ele>64</ele>
        <time>2022-06-02T09:05:44.000Z</time>
      </trkpt>
      <trkpt lat="47.33267" lon="-2.46429">
        <ele>64</ele>
        <time>2022-06-02T09:05:51.000Z</time>
      </trkpt>
      <trkpt lat="47.33249" lon="-2.4643">
        <ele>64</ele>
        <time>2022-06-02T09:05:56.000Z</time>
      </trkpt>
      <trkpt lat="47.33245" lon="-2.46432">
        <ele>64</ele>
        <time>2022-06-02T09:05:57.000Z</time>
      </trkpt>
      <trkpt lat="47.33241" lon="-2.46435">
        <ele>64</ele>
        <time>2022-06-02T09:05:58.000Z</time>
      </trkpt>
      <trkpt lat="47.33233" lon="-2.46449">
        <ele>63.599998474121</ele>
        <time>2022-06-02T09:06:01.000Z</time>
      </trkpt>
      <trkpt lat="47.33231" lon="-2.46453">
        <ele>63.200000762939</ele>
        <time>2022-06-02T09:06:02.000Z</time>
      </trkpt>
      <trkpt lat="47.33228" lon="-2.46459">
        <ele>62.799999237061</ele>
        <time>2022-06-02T09:06:03.000Z</time>
      </trkpt>
      <trkpt lat="47.33225" lon="-2.46463">
        <ele>62.400001525879</ele>
        <time>2022-06-02T09:06:04.000Z</time>
      </trkpt>
      <trkpt lat="47.33222" lon="-2.46468">
        <ele>61.799999237061</ele>
        <time>2022-06-02T09:06:05.000Z</time>
      </trkpt>
      <trkpt lat="47.33219" lon="-2.46469">
        <ele>61.799999237061</ele>
        <time>2022-06-02T09:06:06.000Z</time>
      </trkpt>
      <trkpt lat="47.33209" lon="-2.46473">
        <ele>61.400001525879</ele>
        <time>2022-06-02T09:06:10.000Z</time>
      </trkpt>
      <trkpt lat="47.33206" lon="-2.46473">
        <ele>61</ele>
        <time>2022-06-02T09:06:11.000Z</time>
      </trkpt>
      <trkpt lat="47.33203" lon="-2.46473">
        <ele>60.400001525879</ele>
        <time>2022-06-02T09:06:12.000Z</time>
      </trkpt>
      <trkpt lat="47.33199" lon="-2.46473">
        <ele>60</ele>
        <time>2022-06-02T09:06:13.000Z</time>
      </trkpt>
      <trkpt lat="47.33196" lon="-2.46473">
        <ele>59.599998474121</ele>
        <time>2022-06-02T09:06:14.000Z</time>
      </trkpt>
      <trkpt lat="47.33187" lon="-2.46476">
        <ele>59.200000762939</ele>
        <time>2022-06-02T09:06:16.000Z</time>
      </trkpt>
      <trkpt lat="47.33182" lon="-2.46479">
        <ele>58.799999237061</ele>
        <time>2022-06-02T09:06:17.000Z</time>
      </trkpt>
      <trkpt lat="47.33176" lon="-2.46482">
        <ele>58.400001525879</ele>
        <time>2022-06-02T09:06:18.000Z</time>
      </trkpt>
      <trkpt lat="47.3317" lon="-2.46485">
        <ele>57.799999237061</ele>
        <time>2022-06-02T09:06:19.000Z</time>
      </trkpt>
      <trkpt lat="47.33163" lon="-2.46488">
        <ele>57.400001525879</ele>
        <time>2022-06-02T09:06:20.000Z</time>
      </trkpt>
      <trkpt lat="47.33157" lon="-2.46491">
        <ele>57</ele>
        <time>2022-06-02T09:06:21.000Z</time>
      </trkpt>
      <trkpt lat="47.3315" lon="-2.46492">
        <ele>56.599998474121</ele>
        <time>2022-06-02T09:06:22.000Z</time>
      </trkpt>
      <trkpt lat="47.33144" lon="-2.46493">
        <ele>56.200000762939</ele>
        <time>2022-06-02T09:06:23.000Z</time>
      </trkpt>
      <trkpt lat="47.33137" lon="-2.46494">
        <ele>55.799999237061</ele>
        <time>2022-06-02T09:06:24.000Z</time>
      </trkpt>
      <trkpt lat="47.3313" lon="-2.46496">
        <ele>55.400001525879</ele>
        <time>2022-06-02T09:06:25.000Z</time>
      </trkpt>
      <trkpt lat="47.33123" lon="-2.46498">
        <ele>55</ele>
        <time>2022-06-02T09:06:26.000Z</time>
      </trkpt>
      <trkpt lat="47.33118" lon="-2.46501">
        <ele>54.599998474121</ele>
        <time>2022-06-02T09:06:27.000Z</time>
      </trkpt>
      <trkpt lat="47.33114" lon="-2.46503">
        <ele>54.200000762939</ele>
        <time>2022-06-02T09:06:28.000Z</time>
      </trkpt>
      <trkpt lat="47.3311" lon="-2.46505">
        <ele>53.599998474121</ele>
        <time>2022-06-02T09:06:29.000Z</time>
      </trkpt>
      <trkpt lat="47.33106" lon="-2.46508">
        <ele>53.200000762939</ele>
        <time>2022-06-02T09:06:30.000Z</time>
      </trkpt>
      <trkpt lat="47.33092" lon="-2.46514">
        <ele>52.799999237061</ele>
        <time>2022-06-02T09:06:33.000Z</time>
      </trkpt>
      <trkpt lat="47.33086" lon="-2.46516">
        <ele>52.400001525879</ele>
        <time>2022-06-02T09:06:34.000Z</time>
      </trkpt>
      <trkpt lat="47.33079" lon="-2.4652">
        <ele>52</ele>
        <time>2022-06-02T09:06:35.000Z</time>
      </trkpt>
      <trkpt lat="47.33072" lon="-2.46524">
        <ele>51.400001525879</ele>
        <time>2022-06-02T09:06:36.000Z</time>
      </trkpt>
      <trkpt lat="47.33064" lon="-2.46527">
        <ele>51</ele>
        <time>2022-06-02T09:06:37.000Z</time>
      </trkpt>
      <trkpt lat="47.33056" lon="-2.46531">
        <ele>50.599998474121</ele>
        <time>2022-06-02T09:06:38.000Z</time>
      </trkpt>
      <trkpt lat="47.33048" lon="-2.46533">
        <ele>50.200000762939</ele>
        <time>2022-06-02T09:06:39.000Z</time>
      </trkpt>
      <trkpt lat="47.33039" lon="-2.46535">
        <ele>49.799999237061</ele>
        <time>2022-06-02T09:06:40.000Z</time>
      </trkpt>
      <trkpt lat="47.33031" lon="-2.46536">
        <ele>49.200000762939</ele>
        <time>2022-06-02T09:06:41.000Z</time>
      </trkpt>
      <trkpt lat="47.33023" lon="-2.46537">
        <ele>48.799999237061</ele>
        <time>2022-06-02T09:06:42.000Z</time>
      </trkpt>
      <trkpt lat="47.33008" lon="-2.46542">
        <ele>48.799999237061</ele>
        <time>2022-06-02T09:06:44.000Z</time>
      </trkpt>
      <trkpt lat="47.33" lon="-2.46545">
        <ele>48.400001525879</ele>
        <time>2022-06-02T09:06:45.000Z</time>
      </trkpt>
      <trkpt lat="47.32993" lon="-2.46548">
        <ele>47.799999237061</ele>
        <time>2022-06-02T09:06:46.000Z</time>
      </trkpt>
      <trkpt lat="47.32986" lon="-2.46552">
        <ele>47.400001525879</ele>
        <time>2022-06-02T09:06:47.000Z</time>
      </trkpt>
      <trkpt lat="47.32979" lon="-2.46555">
        <ele>46.799999237061</ele>
        <time>2022-06-02T09:06:48.000Z</time>
      </trkpt>
      <trkpt lat="47.32973" lon="-2.46558">
        <ele>46.400001525879</ele>
        <time>2022-06-02T09:06:49.000Z</time>
      </trkpt>
      <trkpt lat="47.32967" lon="-2.4656">
        <ele>45.799999237061</ele>
        <time>2022-06-02T09:06:50.000Z</time>
      </trkpt>
      <trkpt lat="47.32963" lon="-2.4656">
        <ele>44.599998474121</ele>
        <time>2022-06-02T09:06:51.000Z</time>
      </trkpt>
      <trkpt lat="47.3296" lon="-2.46556">
        <ele>43.799999237061</ele>
        <time>2022-06-02T09:06:52.000Z</time>
      </trkpt>
      <trkpt lat="47.32958" lon="-2.46551">
        <ele>43.200000762939</ele>
        <time>2022-06-02T09:06:53.000Z</time>
      </trkpt>
      <trkpt lat="47.32956" lon="-2.46544">
        <ele>42.400001525879</ele>
        <time>2022-06-02T09:06:54.000Z</time>
      </trkpt>
      <trkpt lat="47.32956" lon="-2.46536">
        <ele>41.799999237061</ele>
        <time>2022-06-02T09:06:55.000Z</time>
      </trkpt>
      <trkpt lat="47.32956" lon="-2.46528">
        <ele>41</ele>
        <time>2022-06-02T09:06:56.000Z</time>
      </trkpt>
      <trkpt lat="47.32957" lon="-2.46519">
        <ele>41</ele>
        <time>2022-06-02T09:06:57.000Z</time>
      </trkpt>
      <trkpt lat="47.32958" lon="-2.46503">
        <ele>41</ele>
        <time>2022-06-02T09:06:59.000Z</time>
      </trkpt>
      <trkpt lat="47.3296" lon="-2.46467">
        <ele>41.400001525879</ele>
        <time>2022-06-02T09:07:05.000Z</time>
      </trkpt>
      <trkpt lat="47.32961" lon="-2.46462">
        <ele>41.799999237061</ele>
        <time>2022-06-02T09:07:06.000Z</time>
      </trkpt>
      <trkpt lat="47.32961" lon="-2.46457">
        <ele>42.200000762939</ele>
        <time>2022-06-02T09:07:07.000Z</time>
      </trkpt>
      <trkpt lat="47.32961" lon="-2.46452">
        <ele>42.799999237061</ele>
        <time>2022-06-02T09:07:08.000Z</time>
      </trkpt>
      <trkpt lat="47.32962" lon="-2.46447">
        <ele>43.200000762939</ele>
        <time>2022-06-02T09:07:09.000Z</time>
      </trkpt>
      <trkpt lat="47.32962" lon="-2.46432">
        <ele>43.599998474121</ele>
        <time>2022-06-02T09:07:12.000Z</time>
      </trkpt>
      <trkpt lat="47.32962" lon="-2.46426">
        <ele>44</ele>
        <time>2022-06-02T09:07:13.000Z</time>
      </trkpt>
      <trkpt lat="47.32962" lon="-2.4642">
        <ele>44.400001525879</ele>
        <time>2022-06-02T09:07:14.000Z</time>
      </trkpt>
      <trkpt lat="47.32963" lon="-2.46415">
        <ele>44.799999237061</ele>
        <time>2022-06-02T09:07:15.000Z</time>
      </trkpt>
      <trkpt lat="47.32963" lon="-2.46409">
        <ele>45.200000762939</ele>
        <time>2022-06-02T09:07:16.000Z</time>
      </trkpt>
      <trkpt lat="47.32963" lon="-2.46404">
        <ele>45.599998474121</ele>
        <time>2022-06-02T09:07:17.000Z</time>
      </trkpt>
      <trkpt lat="47.32963" lon="-2.46399">
        <ele>46</ele>
        <time>2022-06-02T09:07:18.000Z</time>
      </trkpt>
      <trkpt lat="47.32963" lon="-2.46393">
        <ele>46.599998474121</ele>
        <time>2022-06-02T09:07:19.000Z</time>
      </trkpt>
      <trkpt lat="47.32963" lon="-2.46388">
        <ele>47</ele>
        <time>2022-06-02T09:07:20.000Z</time>
      </trkpt>
      <trkpt lat="47.32963" lon="-2.46382">
        <ele>47.400001525879</ele>
        <time>2022-06-02T09:07:21.000Z</time>
      </trkpt>
      <trkpt lat="47.32961" lon="-2.46367">
        <ele>47.799999237061</ele>
        <time>2022-06-02T09:07:24.000Z</time>
      </trkpt>
      <trkpt lat="47.32961" lon="-2.46361">
        <ele>48.400001525879</ele>
        <time>2022-06-02T09:07:25.000Z</time>
      </trkpt>
      <trkpt lat="47.3296" lon="-2.46355">
        <ele>48.799999237061</ele>
        <time>2022-06-02T09:07:26.000Z</time>
      </trkpt>
      <trkpt lat="47.32958" lon="-2.4635">
        <ele>49.200000762939</ele>
        <time>2022-06-02T09:07:27.000Z</time>
      </trkpt>
      <trkpt lat="47.32957" lon="-2.46344">
        <ele>49.799999237061</ele>
        <time>2022-06-02T09:07:28.000Z</time>
      </trkpt>
      <trkpt lat="47.32956" lon="-2.46339">
        <ele>50.200000762939</ele>
        <time>2022-06-02T09:07:29.000Z</time>
      </trkpt>
      <trkpt lat="47.32954" lon="-2.46334">
        <ele>50.599998474121</ele>
        <time>2022-06-02T09:07:30.000Z</time>
      </trkpt>
      <trkpt lat="47.32952" lon="-2.46329">
        <ele>51.200000762939</ele>
        <time>2022-06-02T09:07:31.000Z</time>
      </trkpt>
      <trkpt lat="47.32951" lon="-2.46325">
        <ele>51.599998474121</ele>
        <time>2022-06-02T09:07:32.000Z</time>
      </trkpt>
      <trkpt lat="47.32949" lon="-2.4632">
        <ele>52</ele>
        <time>2022-06-02T09:07:33.000Z</time>
      </trkpt>
      <trkpt lat="47.32946" lon="-2.4631">
        <ele>52</ele>
        <time>2022-06-02T09:07:35.000Z</time>
      </trkpt>
      <trkpt lat="47.32942" lon="-2.46295">
        <ele>52.400001525879</ele>
        <time>2022-06-02T09:07:38.000Z</time>
      </trkpt>
      <trkpt lat="47.3294" lon="-2.4629">
        <ele>52.799999237061</ele>
        <time>2022-06-02T09:07:39.000Z</time>
      </trkpt>
      <trkpt lat="47.32939" lon="-2.46284">
        <ele>53.799999237061</ele>
        <time>2022-06-02T09:07:40.000Z</time>
      </trkpt>
      <trkpt lat="47.32937" lon="-2.46279">
        <ele>54.200000762939</ele>
        <time>2022-06-02T09:07:41.000Z</time>
      </trkpt>
      <trkpt lat="47.32934" lon="-2.46266">
        <ele>54.200000762939</ele>
        <time>2022-06-02T09:07:43.000Z</time>
      </trkpt>
      <trkpt lat="47.32918" lon="-2.46207">
        <ele>54.200000762939</ele>
        <time>2022-06-02T09:07:52.000Z</time>
      </trkpt>
      <trkpt lat="47.32908" lon="-2.46172">
        <ele>54.200000762939</ele>
        <time>2022-06-02T09:07:58.000Z</time>
      </trkpt>
      <trkpt lat="47.32907" lon="-2.46166">
        <ele>54.200000762939</ele>
        <time>2022-06-02T09:07:59.000Z</time>
      </trkpt>
      <trkpt lat="47.32901" lon="-2.46151">
        <ele>54.200000762939</ele>
        <time>2022-06-02T09:08:02.000Z</time>
      </trkpt>
      <trkpt lat="47.32897" lon="-2.46149">
        <ele>54.200000762939</ele>
        <time>2022-06-02T09:08:03.000Z</time>
      </trkpt>
      <trkpt lat="47.32883" lon="-2.46152">
        <ele>54.200000762939</ele>
        <time>2022-06-02T09:08:06.000Z</time>
      </trkpt>
      <trkpt lat="47.32879" lon="-2.46155">
        <ele>54.200000762939</ele>
        <time>2022-06-02T09:08:07.000Z</time>
      </trkpt>
      <trkpt lat="47.32858" lon="-2.46169">
        <ele>54.200000762939</ele>
        <time>2022-06-02T09:08:11.000Z</time>
      </trkpt>
      <trkpt lat="47.32839" lon="-2.46181">
        <ele>53.599998474121</ele>
        <time>2022-06-02T09:08:14.000Z</time>
      </trkpt>
      <trkpt lat="47.32833" lon="-2.46185">
        <ele>53.200000762939</ele>
        <time>2022-06-02T09:08:15.000Z</time>
      </trkpt>
      <trkpt lat="47.32827" lon="-2.46189">
        <ele>52.799999237061</ele>
        <time>2022-06-02T09:08:16.000Z</time>
      </trkpt>
      <trkpt lat="47.32822" lon="-2.46191">
        <ele>52.200000762939</ele>
        <time>2022-06-02T09:08:17.000Z</time>
      </trkpt>
      <trkpt lat="47.32816" lon="-2.46191">
        <ele>51.799999237061</ele>
        <time>2022-06-02T09:08:18.000Z</time>
      </trkpt>
      <trkpt lat="47.32811" lon="-2.4619">
        <ele>51.400001525879</ele>
        <time>2022-06-02T09:08:19.000Z</time>
      </trkpt>
      <trkpt lat="47.32805" lon="-2.46187">
        <ele>51</ele>
        <time>2022-06-02T09:08:20.000Z</time>
      </trkpt>
      <trkpt lat="47.32799" lon="-2.46184">
        <ele>50.599998474121</ele>
        <time>2022-06-02T09:08:21.000Z</time>
      </trkpt>
      <trkpt lat="47.32794" lon="-2.46181">
        <ele>50</ele>
        <time>2022-06-02T09:08:22.000Z</time>
      </trkpt>
      <trkpt lat="47.32789" lon="-2.46177">
        <ele>49.599998474121</ele>
        <time>2022-06-02T09:08:23.000Z</time>
      </trkpt>
      <trkpt lat="47.32785" lon="-2.46173">
        <ele>49.599998474121</ele>
        <time>2022-06-02T09:08:24.000Z</time>
      </trkpt>
      <trkpt lat="47.32772" lon="-2.46157">
        <ele>49.599998474121</ele>
        <time>2022-06-02T09:08:27.000Z</time>
      </trkpt>
      <trkpt lat="47.32766" lon="-2.46144">
        <ele>49.599998474121</ele>
        <time>2022-06-02T09:08:29.000Z</time>
      </trkpt>
      <trkpt lat="47.32765" lon="-2.46137">
        <ele>48.799999237061</ele>
        <time>2022-06-02T09:08:30.000Z</time>
      </trkpt>
      <trkpt lat="47.32763" lon="-2.46131">
        <ele>48.400001525879</ele>
        <time>2022-06-02T09:08:31.000Z</time>
      </trkpt>
      <trkpt lat="47.32762" lon="-2.46125">
        <ele>48</ele>
        <time>2022-06-02T09:08:32.000Z</time>
      </trkpt>
      <trkpt lat="47.3276" lon="-2.46119">
        <ele>47.599998474121</ele>
        <time>2022-06-02T09:08:33.000Z</time>
      </trkpt>
      <trkpt lat="47.32758" lon="-2.46112">
        <ele>47.599998474121</ele>
        <time>2022-06-02T09:08:34.000Z</time>
      </trkpt>
      <trkpt lat="47.32755" lon="-2.46105">
        <ele>47.200000762939</ele>
        <time>2022-06-02T09:08:35.000Z</time>
      </trkpt>
      <trkpt lat="47.32752" lon="-2.46098">
        <ele>46.799999237061</ele>
        <time>2022-06-02T09:08:36.000Z</time>
      </trkpt>
      <trkpt lat="47.32749" lon="-2.46092">
        <ele>46.200000762939</ele>
        <time>2022-06-02T09:08:37.000Z</time>
      </trkpt>
      <trkpt lat="47.32745" lon="-2.46087">
        <ele>45.799999237061</ele>
        <time>2022-06-02T09:08:38.000Z</time>
      </trkpt>
      <trkpt lat="47.3274" lon="-2.46083">
        <ele>45.400001525879</ele>
        <time>2022-06-02T09:08:39.000Z</time>
      </trkpt>
      <trkpt lat="47.32726" lon="-2.46067">
        <ele>45.400001525879</ele>
        <time>2022-06-02T09:08:43.000Z</time>
      </trkpt>
      <trkpt lat="47.32723" lon="-2.46063">
        <ele>45.400001525879</ele>
        <time>2022-06-02T09:08:44.000Z</time>
      </trkpt>
      <trkpt lat="47.32714" lon="-2.46052">
        <ele>45</ele>
        <time>2022-06-02T09:08:47.000Z</time>
      </trkpt>
      <trkpt lat="47.32711" lon="-2.4605">
        <ele>44.599998474121</ele>
        <time>2022-06-02T09:08:48.000Z</time>
      </trkpt>
      <trkpt lat="47.32708" lon="-2.46047">
        <ele>44</ele>
        <time>2022-06-02T09:08:49.000Z</time>
      </trkpt>
      <trkpt lat="47.32705" lon="-2.46044">
        <ele>43.599998474121</ele>
        <time>2022-06-02T09:08:50.000Z</time>
      </trkpt>
      <trkpt lat="47.32702" lon="-2.4604">
        <ele>43.200000762939</ele>
        <time>2022-06-02T09:08:51.000Z</time>
      </trkpt>
      <trkpt lat="47.32696" lon="-2.4603">
        <ele>43.200000762939</ele>
        <time>2022-06-02T09:08:53.000Z</time>
      </trkpt>
      <trkpt lat="47.3269" lon="-2.46021">
        <ele>43.200000762939</ele>
        <time>2022-06-02T09:08:55.000Z</time>
      </trkpt>
      <trkpt lat="47.32684" lon="-2.46009">
        <ele>43.200000762939</ele>
        <time>2022-06-02T09:08:57.000Z</time>
      </trkpt>
      <trkpt lat="47.3268" lon="-2.46005">
        <ele>43.200000762939</ele>
        <time>2022-06-02T09:08:58.000Z</time>
      </trkpt>
      <trkpt lat="47.32659" lon="-2.45983">
        <ele>43.200000762939</ele>
        <time>2022-06-02T09:09:03.000Z</time>
      </trkpt>
      <trkpt lat="47.32654" lon="-2.45978">
        <ele>43.200000762939</ele>
        <time>2022-06-02T09:09:04.000Z</time>
      </trkpt>
      <trkpt lat="47.32636" lon="-2.45959">
        <ele>43.200000762939</ele>
        <time>2022-06-02T09:09:08.000Z</time>
      </trkpt>
      <trkpt lat="47.32632" lon="-2.45953">
        <ele>43.200000762939</ele>
        <time>2022-06-02T09:09:09.000Z</time>
      </trkpt>
      <trkpt lat="47.32606" lon="-2.45912">
        <ele>43.200000762939</ele>
        <time>2022-06-02T09:09:16.000Z</time>
      </trkpt>
      <trkpt lat="47.32577" lon="-2.45874">
        <ele>43.200000762939</ele>
        <time>2022-06-02T09:09:24.000Z</time>
      </trkpt>
      <trkpt lat="47.32559" lon="-2.45841">
        <ele>43.200000762939</ele>
        <time>2022-06-02T09:09:29.000Z</time>
      </trkpt>
      <trkpt lat="47.32551" lon="-2.45828">
        <ele>43.200000762939</ele>
        <time>2022-06-02T09:09:31.000Z</time>
      </trkpt>
      <trkpt lat="47.32538" lon="-2.4581">
        <ele>43.200000762939</ele>
        <time>2022-06-02T09:09:34.000Z</time>
      </trkpt>
      <trkpt lat="47.32525" lon="-2.4579">
        <ele>43.200000762939</ele>
        <time>2022-06-02T09:09:37.000Z</time>
      </trkpt>
      <trkpt lat="47.32513" lon="-2.45768">
        <ele>42.799999237061</ele>
        <time>2022-06-02T09:09:40.000Z</time>
      </trkpt>
      <trkpt lat="47.32509" lon="-2.4576">
        <ele>42.400001525879</ele>
        <time>2022-06-02T09:09:41.000Z</time>
      </trkpt>
      <trkpt lat="47.32505" lon="-2.45753">
        <ele>42</ele>
        <time>2022-06-02T09:09:42.000Z</time>
      </trkpt>
      <trkpt lat="47.32501" lon="-2.45745">
        <ele>41.599998474121</ele>
        <time>2022-06-02T09:09:43.000Z</time>
      </trkpt>
      <trkpt lat="47.32497" lon="-2.45737">
        <ele>41.200000762939</ele>
        <time>2022-06-02T09:09:44.000Z</time>
      </trkpt>
      <trkpt lat="47.32479" lon="-2.45708">
        <ele>41.200000762939</ele>
        <time>2022-06-02T09:09:48.000Z</time>
      </trkpt>
      <trkpt lat="47.32446" lon="-2.45653">
        <ele>41.200000762939</ele>
        <time>2022-06-02T09:09:56.000Z</time>
      </trkpt>
      <trkpt lat="47.32426" lon="-2.45622">
        <ele>41.200000762939</ele>
        <time>2022-06-02T09:10:01.000Z</time>
      </trkpt>
      <trkpt lat="47.32423" lon="-2.45616">
        <ele>41.200000762939</ele>
        <time>2022-06-02T09:10:02.000Z</time>
      </trkpt>
      <trkpt lat="47.32414" lon="-2.45598">
        <ele>41.200000762939</ele>
        <time>2022-06-02T09:10:06.000Z</time>
      </trkpt>
      <trkpt lat="47.32405" lon="-2.45578">
        <ele>41.200000762939</ele>
        <time>2022-06-02T09:10:11.000Z</time>
      </trkpt>
      <trkpt lat="47.32387" lon="-2.45544">
        <ele>41.200000762939</ele>
        <time>2022-06-02T09:10:17.000Z</time>
      </trkpt>
      <trkpt lat="47.32374" lon="-2.45517">
        <ele>41.200000762939</ele>
        <time>2022-06-02T09:10:21.000Z</time>
      </trkpt>
      <trkpt lat="47.32366" lon="-2.45504">
        <ele>41.200000762939</ele>
        <time>2022-06-02T09:10:23.000Z</time>
      </trkpt>
      <trkpt lat="47.32358" lon="-2.45492">
        <ele>41.200000762939</ele>
        <time>2022-06-02T09:10:25.000Z</time>
      </trkpt>
      <trkpt lat="47.32345" lon="-2.45472">
        <ele>41.200000762939</ele>
        <time>2022-06-02T09:10:28.000Z</time>
      </trkpt>
      <trkpt lat="47.32319" lon="-2.45429">
        <ele>41.200000762939</ele>
        <time>2022-06-02T09:10:35.000Z</time>
      </trkpt>
      <trkpt lat="47.32311" lon="-2.45411">
        <ele>41.200000762939</ele>
        <time>2022-06-02T09:10:39.000Z</time>
      </trkpt>
      <trkpt lat="47.32316" lon="-2.45396">
        <ele>41.200000762939</ele>
        <time>2022-06-02T09:10:42.000Z</time>
      </trkpt>
      <trkpt lat="47.32319" lon="-2.45375">
        <ele>41.200000762939</ele>
        <time>2022-06-02T09:10:46.000Z</time>
      </trkpt>
      <trkpt lat="47.32319" lon="-2.4537">
        <ele>41.200000762939</ele>
        <time>2022-06-02T09:10:47.000Z</time>
      </trkpt>
      <trkpt lat="47.32318" lon="-2.45353">
        <ele>41.200000762939</ele>
        <time>2022-06-02T09:10:50.000Z</time>
      </trkpt>
      <trkpt lat="47.32318" lon="-2.45347">
        <ele>41.599998474121</ele>
        <time>2022-06-02T09:10:51.000Z</time>
      </trkpt>
      <trkpt lat="47.32318" lon="-2.45342">
        <ele>42</ele>
        <time>2022-06-02T09:10:52.000Z</time>
      </trkpt>
      <trkpt lat="47.32318" lon="-2.45336">
        <ele>42.400001525879</ele>
        <time>2022-06-02T09:10:53.000Z</time>
      </trkpt>
      <trkpt lat="47.32319" lon="-2.45331">
        <ele>42.799999237061</ele>
        <time>2022-06-02T09:10:54.000Z</time>
      </trkpt>
      <trkpt lat="47.32319" lon="-2.45325">
        <ele>43.400001525879</ele>
        <time>2022-06-02T09:10:55.000Z</time>
      </trkpt>
      <trkpt lat="47.32319" lon="-2.45313">
        <ele>43.400001525879</ele>
        <time>2022-06-02T09:10:57.000Z</time>
      </trkpt>
      <trkpt lat="47.32313" lon="-2.45287">
        <ele>43.400001525879</ele>
        <time>2022-06-02T09:11:01.000Z</time>
      </trkpt>
      <trkpt lat="47.32311" lon="-2.4528">
        <ele>43.400001525879</ele>
        <time>2022-06-02T09:11:02.000Z</time>
      </trkpt>
      <trkpt lat="47.32304" lon="-2.4526">
        <ele>43.400001525879</ele>
        <time>2022-06-02T09:11:05.000Z</time>
      </trkpt>
      <trkpt lat="47.32296" lon="-2.45235">
        <ele>43.400001525879</ele>
        <time>2022-06-02T09:11:08.000Z</time>
      </trkpt>
      <trkpt lat="47.32287" lon="-2.45217">
        <ele>43.400001525879</ele>
        <time>2022-06-02T09:11:10.000Z</time>
      </trkpt>
      <trkpt lat="47.32278" lon="-2.452">
        <ele>43.400001525879</ele>
        <time>2022-06-02T09:11:12.000Z</time>
      </trkpt>
      <trkpt lat="47.32272" lon="-2.45184">
        <ele>43.400001525879</ele>
        <time>2022-06-02T09:11:14.000Z</time>
      </trkpt>
      <trkpt lat="47.32268" lon="-2.45169">
        <ele>43.400001525879</ele>
        <time>2022-06-02T09:11:16.000Z</time>
      </trkpt>
      <trkpt lat="47.32259" lon="-2.45136">
        <ele>43.799999237061</ele>
        <time>2022-06-02T09:11:21.000Z</time>
      </trkpt>
      <trkpt lat="47.32258" lon="-2.45129">
        <ele>44.200000762939</ele>
        <time>2022-06-02T09:11:22.000Z</time>
      </trkpt>
      <trkpt lat="47.32256" lon="-2.45123">
        <ele>44.599998474121</ele>
        <time>2022-06-02T09:11:23.000Z</time>
      </trkpt>
      <trkpt lat="47.32253" lon="-2.45117">
        <ele>45.400001525879</ele>
        <time>2022-06-02T09:11:24.000Z</time>
      </trkpt>
      <trkpt lat="47.32242" lon="-2.45086">
        <ele>45.400001525879</ele>
        <time>2022-06-02T09:11:29.000Z</time>
      </trkpt>
      <trkpt lat="47.32236" lon="-2.45075">
        <ele>45.400001525879</ele>
        <time>2022-06-02T09:11:31.000Z</time>
      </trkpt>
      <trkpt lat="47.32223" lon="-2.45048">
        <ele>45.400001525879</ele>
        <time>2022-06-02T09:11:36.000Z</time>
      </trkpt>
      <trkpt lat="47.32219" lon="-2.45037">
        <ele>45.400001525879</ele>
        <time>2022-06-02T09:11:38.000Z</time>
      </trkpt>
      <trkpt lat="47.32219" lon="-2.45025">
        <ele>45.400001525879</ele>
        <time>2022-06-02T09:11:40.000Z</time>
      </trkpt>
      <trkpt lat="47.32229" lon="-2.45013">
        <ele>45.400001525879</ele>
        <time>2022-06-02T09:11:44.000Z</time>
      </trkpt>
      <trkpt lat="47.32232" lon="-2.45011">
        <ele>45.799999237061</ele>
        <time>2022-06-02T09:11:45.000Z</time>
      </trkpt>
      <trkpt lat="47.32235" lon="-2.45008">
        <ele>46.200000762939</ele>
        <time>2022-06-02T09:11:46.000Z</time>
      </trkpt>
      <trkpt lat="47.32237" lon="-2.45004">
        <ele>46.599998474121</ele>
        <time>2022-06-02T09:11:47.000Z</time>
      </trkpt>
      <trkpt lat="47.3224" lon="-2.45001">
        <ele>47.599998474121</ele>
        <time>2022-06-02T09:11:48.000Z</time>
      </trkpt>
      <trkpt lat="47.32244" lon="-2.44996">
        <ele>48</ele>
        <time>2022-06-02T09:11:50.000Z</time>
      </trkpt>
      <trkpt lat="47.32247" lon="-2.44993">
        <ele>48.400001525879</ele>
        <time>2022-06-02T09:11:51.000Z</time>
      </trkpt>
      <trkpt lat="47.32249" lon="-2.4499">
        <ele>48.799999237061</ele>
        <time>2022-06-02T09:11:52.000Z</time>
      </trkpt>
      <trkpt lat="47.32251" lon="-2.44988">
        <ele>49.200000762939</ele>
        <time>2022-06-02T09:11:53.000Z</time>
      </trkpt>
      <trkpt lat="47.32254" lon="-2.44985">
        <ele>49.599998474121</ele>
        <time>2022-06-02T09:11:54.000Z</time>
      </trkpt>
      <trkpt lat="47.32256" lon="-2.44982">
        <ele>49.599998474121</ele>
        <time>2022-06-02T09:11:55.000Z</time>
      </trkpt>
      <trkpt lat="47.32259" lon="-2.4498">
        <ele>50.200000762939</ele>
        <time>2022-06-02T09:11:56.000Z</time>
      </trkpt>
      <trkpt lat="47.32261" lon="-2.44977">
        <ele>50.599998474121</ele>
        <time>2022-06-02T09:11:57.000Z</time>
      </trkpt>
      <trkpt lat="47.32263" lon="-2.44974">
        <ele>51</ele>
        <time>2022-06-02T09:11:58.000Z</time>
      </trkpt>
      <trkpt lat="47.32266" lon="-2.44971">
        <ele>51.599998474121</ele>
        <time>2022-06-02T09:11:59.000Z</time>
      </trkpt>
      <trkpt lat="47.32268" lon="-2.44968">
        <ele>52</ele>
        <time>2022-06-02T09:12:00.000Z</time>
      </trkpt>
      <trkpt lat="47.32271" lon="-2.44965">
        <ele>52</ele>
        <time>2022-06-02T09:12:01.000Z</time>
      </trkpt>
      <trkpt lat="47.32283" lon="-2.44951">
        <ele>52.400001525879</ele>
        <time>2022-06-02T09:12:06.000Z</time>
      </trkpt>
      <trkpt lat="47.32285" lon="-2.44947">
        <ele>52.799999237061</ele>
        <time>2022-06-02T09:12:07.000Z</time>
      </trkpt>
      <trkpt lat="47.32288" lon="-2.44944">
        <ele>53.200000762939</ele>
        <time>2022-06-02T09:12:08.000Z</time>
      </trkpt>
      <trkpt lat="47.32291" lon="-2.4494">
        <ele>53.599998474121</ele>
        <time>2022-06-02T09:12:09.000Z</time>
      </trkpt>
      <trkpt lat="47.32294" lon="-2.44936">
        <ele>54</ele>
        <time>2022-06-02T09:12:10.000Z</time>
      </trkpt>
      <trkpt lat="47.32305" lon="-2.44923">
        <ele>54</ele>
        <time>2022-06-02T09:12:14.000Z</time>
      </trkpt>
      <trkpt lat="47.32324" lon="-2.44898">
        <ele>54</ele>
        <time>2022-06-02T09:12:20.000Z</time>
      </trkpt>
      <trkpt lat="47.32348" lon="-2.44866">
        <ele>54</ele>
        <time>2022-06-02T09:12:28.000Z</time>
      </trkpt>
      <trkpt lat="47.32372" lon="-2.44847">
        <ele>54.400001525879</ele>
        <time>2022-06-02T09:12:34.000Z</time>
      </trkpt>
      <trkpt lat="47.32376" lon="-2.44844">
        <ele>55</ele>
        <time>2022-06-02T09:12:35.000Z</time>
      </trkpt>
      <trkpt lat="47.32381" lon="-2.4484">
        <ele>55.400001525879</ele>
        <time>2022-06-02T09:12:36.000Z</time>
      </trkpt>
      <trkpt lat="47.32386" lon="-2.44837">
        <ele>55.799999237061</ele>
        <time>2022-06-02T09:12:37.000Z</time>
      </trkpt>
      <trkpt lat="47.32391" lon="-2.44833">
        <ele>56.200000762939</ele>
        <time>2022-06-02T09:12:38.000Z</time>
      </trkpt>
      <trkpt lat="47.324" lon="-2.44828">
        <ele>56.200000762939</ele>
        <time>2022-06-02T09:12:40.000Z</time>
      </trkpt>
      <trkpt lat="47.32424" lon="-2.4481">
        <ele>56.200000762939</ele>
        <time>2022-06-02T09:12:46.000Z</time>
      </trkpt>
      <trkpt lat="47.32439" lon="-2.44801">
        <ele>56.599998474121</ele>
        <time>2022-06-02T09:12:50.000Z</time>
      </trkpt>
      <trkpt lat="47.32443" lon="-2.44799">
        <ele>57</ele>
        <time>2022-06-02T09:12:51.000Z</time>
      </trkpt>
      <trkpt lat="47.32447" lon="-2.44796">
        <ele>57.400001525879</ele>
        <time>2022-06-02T09:12:52.000Z</time>
      </trkpt>
      <trkpt lat="47.3245" lon="-2.44794">
        <ele>57.799999237061</ele>
        <time>2022-06-02T09:12:53.000Z</time>
      </trkpt>
      <trkpt lat="47.32454" lon="-2.44791">
        <ele>58.200000762939</ele>
        <time>2022-06-02T09:12:54.000Z</time>
      </trkpt>
      <trkpt lat="47.32481" lon="-2.44773">
        <ele>58.799999237061</ele>
        <time>2022-06-02T09:13:02.000Z</time>
      </trkpt>
      <trkpt lat="47.32485" lon="-2.44771">
        <ele>59.200000762939</ele>
        <time>2022-06-02T09:13:03.000Z</time>
      </trkpt>
      <trkpt lat="47.32488" lon="-2.44769">
        <ele>59.599998474121</ele>
        <time>2022-06-02T09:13:04.000Z</time>
      </trkpt>
      <trkpt lat="47.32491" lon="-2.44766">
        <ele>60</ele>
        <time>2022-06-02T09:13:05.000Z</time>
      </trkpt>
      <trkpt lat="47.32494" lon="-2.44764">
        <ele>60.599998474121</ele>
        <time>2022-06-02T09:13:06.000Z</time>
      </trkpt>
      <trkpt lat="47.325" lon="-2.44758">
        <ele>60.599998474121</ele>
        <time>2022-06-02T09:13:08.000Z</time>
      </trkpt>
      <trkpt lat="47.32511" lon="-2.44751">
        <ele>61</ele>
        <time>2022-06-02T09:13:11.000Z</time>
      </trkpt>
      <trkpt lat="47.32514" lon="-2.44748">
        <ele>61.400001525879</ele>
        <time>2022-06-02T09:13:12.000Z</time>
      </trkpt>
      <trkpt lat="47.32517" lon="-2.44747">
        <ele>61.799999237061</ele>
        <time>2022-06-02T09:13:13.000Z</time>
      </trkpt>
      <trkpt lat="47.3252" lon="-2.44744">
        <ele>62.200000762939</ele>
        <time>2022-06-02T09:13:14.000Z</time>
      </trkpt>
      <trkpt lat="47.32524" lon="-2.44741">
        <ele>62.799999237061</ele>
        <time>2022-06-02T09:13:15.000Z</time>
      </trkpt>
      <trkpt lat="47.32528" lon="-2.44733">
        <ele>62.799999237061</ele>
        <time>2022-06-02T09:13:17.000Z</time>
      </trkpt>
      <trkpt lat="47.32529" lon="-2.44729">
        <ele>62.799999237061</ele>
        <time>2022-06-02T09:13:18.000Z</time>
      </trkpt>
      <trkpt lat="47.32536" lon="-2.44713">
        <ele>63.200000762939</ele>
        <time>2022-06-02T09:13:22.000Z</time>
      </trkpt>
      <trkpt lat="47.32539" lon="-2.44708">
        <ele>63.599998474121</ele>
        <time>2022-06-02T09:13:23.000Z</time>
      </trkpt>
      <trkpt lat="47.32541" lon="-2.44704">
        <ele>64</ele>
        <time>2022-06-02T09:13:24.000Z</time>
      </trkpt>
      <trkpt lat="47.32543" lon="-2.447">
        <ele>64.400001525879</ele>
        <time>2022-06-02T09:13:25.000Z</time>
      </trkpt>
      <trkpt lat="47.32546" lon="-2.44696">
        <ele>64.800003051758</ele>
        <time>2022-06-02T09:13:26.000Z</time>
      </trkpt>
      <trkpt lat="47.32551" lon="-2.44688">
        <ele>64.800003051758</ele>
        <time>2022-06-02T09:13:28.000Z</time>
      </trkpt>
      <trkpt lat="47.32561" lon="-2.44674">
        <ele>65.199996948242</ele>
        <time>2022-06-02T09:13:32.000Z</time>
      </trkpt>
      <trkpt lat="47.32564" lon="-2.4467">
        <ele>65.599998474121</ele>
        <time>2022-06-02T09:13:33.000Z</time>
      </trkpt>
      <trkpt lat="47.32567" lon="-2.44666">
        <ele>66</ele>
        <time>2022-06-02T09:13:34.000Z</time>
      </trkpt>
      <trkpt lat="47.32569" lon="-2.44662">
        <ele>66.400001525879</ele>
        <time>2022-06-02T09:13:35.000Z</time>
      </trkpt>
      <trkpt lat="47.32572" lon="-2.44658">
        <ele>66.800003051758</ele>
        <time>2022-06-02T09:13:36.000Z</time>
      </trkpt>
      <trkpt lat="47.32579" lon="-2.44648">
        <ele>66.800003051758</ele>
        <time>2022-06-02T09:13:39.000Z</time>
      </trkpt>
      <trkpt lat="47.32582" lon="-2.44645">
        <ele>66.800003051758</ele>
        <time>2022-06-02T09:13:40.000Z</time>
      </trkpt>
      <trkpt lat="47.32588" lon="-2.44638">
        <ele>67.199996948242</ele>
        <time>2022-06-02T09:13:43.000Z</time>
      </trkpt>
      <trkpt lat="47.32591" lon="-2.44636">
        <ele>67.599998474121</ele>
        <time>2022-06-02T09:13:44.000Z</time>
      </trkpt>
      <trkpt lat="47.32594" lon="-2.44633">
        <ele>68.199996948242</ele>
        <time>2022-06-02T09:13:45.000Z</time>
      </trkpt>
      <trkpt lat="47.32597" lon="-2.4463">
        <ele>68.599998474121</ele>
        <time>2022-06-02T09:13:46.000Z</time>
      </trkpt>
      <trkpt lat="47.326" lon="-2.44627">
        <ele>69</ele>
        <time>2022-06-02T09:13:47.000Z</time>
      </trkpt>
      <trkpt lat="47.32609" lon="-2.44612">
        <ele>69</ele>
        <time>2022-06-02T09:13:51.000Z</time>
      </trkpt>
      <trkpt lat="47.32621" lon="-2.44594">
        <ele>69.400001525879</ele>
        <time>2022-06-02T09:13:56.000Z</time>
      </trkpt>
      <trkpt lat="47.32623" lon="-2.44589">
        <ele>69.800003051758</ele>
        <time>2022-06-02T09:13:57.000Z</time>
      </trkpt>
      <trkpt lat="47.32625" lon="-2.44585">
        <ele>70.400001525879</ele>
        <time>2022-06-02T09:13:58.000Z</time>
      </trkpt>
      <trkpt lat="47.32627" lon="-2.44581">
        <ele>70.800003051758</ele>
        <time>2022-06-02T09:13:59.000Z</time>
      </trkpt>
      <trkpt lat="47.3263" lon="-2.44577">
        <ele>71.199996948242</ele>
        <time>2022-06-02T09:14:00.000Z</time>
      </trkpt>
      <trkpt lat="47.32635" lon="-2.44569">
        <ele>71.199996948242</ele>
        <time>2022-06-02T09:14:02.000Z</time>
      </trkpt>
      <trkpt lat="47.32654" lon="-2.44536">
        <ele>71.199996948242</ele>
        <time>2022-06-02T09:14:10.000Z</time>
      </trkpt>
      <trkpt lat="47.32663" lon="-2.44516">
        <ele>71.599998474121</ele>
        <time>2022-06-02T09:14:15.000Z</time>
      </trkpt>
      <trkpt lat="47.32665" lon="-2.44512">
        <ele>72.599998474121</ele>
        <time>2022-06-02T09:14:16.000Z</time>
      </trkpt>
      <trkpt lat="47.32667" lon="-2.44509">
        <ele>73</ele>
        <time>2022-06-02T09:14:17.000Z</time>
      </trkpt>
      <trkpt lat="47.32669" lon="-2.44505">
        <ele>73.400001525879</ele>
        <time>2022-06-02T09:14:18.000Z</time>
      </trkpt>
      <trkpt lat="47.32669" lon="-2.44501">
        <ele>73.400001525879</ele>
        <time>2022-06-02T09:14:19.000Z</time>
      </trkpt>
      <trkpt lat="47.32668" lon="-2.44497">
        <ele>73.400001525879</ele>
        <time>2022-06-02T09:14:20.000Z</time>
      </trkpt>
      <trkpt lat="47.32658" lon="-2.44491">
        <ele>73.400001525879</ele>
        <time>2022-06-02T09:14:23.000Z</time>
      </trkpt>
      <trkpt lat="47.32655" lon="-2.44488">
        <ele>73.400001525879</ele>
        <time>2022-06-02T09:14:24.000Z</time>
      </trkpt>
      <trkpt lat="47.32652" lon="-2.44482">
        <ele>73.400001525879</ele>
        <time>2022-06-02T09:14:25.000Z</time>
      </trkpt>
      <trkpt lat="47.32648" lon="-2.4447">
        <ele>73.400001525879</ele>
        <time>2022-06-02T09:14:27.000Z</time>
      </trkpt>
      <trkpt lat="47.3263" lon="-2.44417">
        <ele>73.400001525879</ele>
        <time>2022-06-02T09:14:35.000Z</time>
      </trkpt>
      <trkpt lat="47.32619" lon="-2.44393">
        <ele>73.400001525879</ele>
        <time>2022-06-02T09:14:40.000Z</time>
      </trkpt>
      <trkpt lat="47.32613" lon="-2.44388">
        <ele>72.800003051758</ele>
        <time>2022-06-02T09:14:43.000Z</time>
      </trkpt>
      <trkpt lat="47.32612" lon="-2.44387">
        <ele>72.400001525879</ele>
        <time>2022-06-02T09:14:44.000Z</time>
      </trkpt>
      <trkpt lat="47.3261" lon="-2.44385">
        <ele>72</ele>
        <time>2022-06-02T09:14:45.000Z</time>
      </trkpt>
      <trkpt lat="47.32608" lon="-2.44384">
        <ele>71.599998474121</ele>
        <time>2022-06-02T09:14:46.000Z</time>
      </trkpt>
      <trkpt lat="47.32605" lon="-2.44382">
        <ele>71.199996948242</ele>
        <time>2022-06-02T09:14:47.000Z</time>
      </trkpt>
      <trkpt lat="47.32598" lon="-2.44375">
        <ele>71.199996948242</ele>
        <time>2022-06-02T09:14:50.000Z</time>
      </trkpt>
      <trkpt lat="47.3259" lon="-2.44356">
        <ele>71.199996948242</ele>
        <time>2022-06-02T09:14:55.000Z</time>
      </trkpt>
      <trkpt lat="47.3258" lon="-2.44326">
        <ele>71.199996948242</ele>
        <time>2022-06-02T09:15:02.000Z</time>
      </trkpt>
      <trkpt lat="47.32569" lon="-2.44293">
        <ele>71.199996948242</ele>
        <time>2022-06-02T09:15:08.000Z</time>
      </trkpt>
      <trkpt lat="47.32562" lon="-2.44267">
        <ele>71.199996948242</ele>
        <time>2022-06-02T09:15:14.000Z</time>
      </trkpt>
      <trkpt lat="47.32558" lon="-2.44254">
        <ele>71.199996948242</ele>
        <time>2022-06-02T09:15:19.000Z</time>
      </trkpt>
      <trkpt lat="47.32548" lon="-2.44238">
        <ele>71.199996948242</ele>
        <time>2022-06-02T09:15:24.000Z</time>
      </trkpt>
      <trkpt lat="47.32534" lon="-2.44213">
        <ele>71.199996948242</ele>
        <time>2022-06-02T09:15:32.000Z</time>
      </trkpt>
      <trkpt lat="47.32528" lon="-2.44198">
        <ele>71.199996948242</ele>
        <time>2022-06-02T09:15:37.000Z</time>
      </trkpt>
      <trkpt lat="47.32524" lon="-2.44187">
        <ele>71.199996948242</ele>
        <time>2022-06-02T09:15:41.000Z</time>
      </trkpt>
      <trkpt lat="47.32527" lon="-2.44178">
        <ele>71.199996948242</ele>
        <time>2022-06-02T09:15:47.000Z</time>
      </trkpt>
      <trkpt lat="47.32529" lon="-2.44169">
        <ele>71.199996948242</ele>
        <time>2022-06-02T09:15:53.000Z</time>
      </trkpt>
      <trkpt lat="47.3253" lon="-2.44167">
        <ele>71.199996948242</ele>
        <time>2022-06-02T09:16:07.000Z</time>
      </trkpt>
      <trkpt lat="47.32535" lon="-2.44151">
        <ele>71.199996948242</ele>
        <time>2022-06-02T09:16:12.000Z</time>
      </trkpt>
      <trkpt lat="47.32545" lon="-2.4412">
        <ele>71.199996948242</ele>
        <time>2022-06-02T09:16:19.000Z</time>
      </trkpt>
      <trkpt lat="47.32546" lon="-2.44115">
        <ele>72.199996948242</ele>
        <time>2022-06-02T09:16:20.000Z</time>
      </trkpt>
      <trkpt lat="47.32547" lon="-2.4411">
        <ele>72.599998474121</ele>
        <time>2022-06-02T09:16:21.000Z</time>
      </trkpt>
      <trkpt lat="47.32548" lon="-2.44106">
        <ele>73</ele>
        <time>2022-06-02T09:16:22.000Z</time>
      </trkpt>
      <trkpt lat="47.3255" lon="-2.44101">
        <ele>73.400001525879</ele>
        <time>2022-06-02T09:16:23.000Z</time>
      </trkpt>
      <trkpt lat="47.32554" lon="-2.44084">
        <ele>73.400001525879</ele>
        <time>2022-06-02T09:16:26.000Z</time>
      </trkpt>
      <trkpt lat="47.32564" lon="-2.44051">
        <ele>73.400001525879</ele>
        <time>2022-06-02T09:16:32.000Z</time>
      </trkpt>
      <trkpt lat="47.32569" lon="-2.44039">
        <ele>73.400001525879</ele>
        <time>2022-06-02T09:16:35.000Z</time>
      </trkpt>
      <trkpt lat="47.32568" lon="-2.44036">
        <ele>73.400001525879</ele>
        <time>2022-06-02T09:16:36.000Z</time>
      </trkpt>
      <trkpt lat="47.32559" lon="-2.4403">
        <ele>73.400001525879</ele>
        <time>2022-06-02T09:16:39.000Z</time>
      </trkpt>
      <trkpt lat="47.32555" lon="-2.44028">
        <ele>73.400001525879</ele>
        <time>2022-06-02T09:16:40.000Z</time>
      </trkpt>
      <trkpt lat="47.32535" lon="-2.44017">
        <ele>73</ele>
        <time>2022-06-02T09:16:45.000Z</time>
      </trkpt>
      <trkpt lat="47.32531" lon="-2.44015">
        <ele>72.599998474121</ele>
        <time>2022-06-02T09:16:46.000Z</time>
      </trkpt>
      <trkpt lat="47.32528" lon="-2.44012">
        <ele>72.199996948242</ele>
        <time>2022-06-02T09:16:47.000Z</time>
      </trkpt>
      <trkpt lat="47.32525" lon="-2.4401">
        <ele>71.800003051758</ele>
        <time>2022-06-02T09:16:48.000Z</time>
      </trkpt>
      <trkpt lat="47.32522" lon="-2.44007">
        <ele>71.400001525879</ele>
        <time>2022-06-02T09:16:49.000Z</time>
      </trkpt>
      <trkpt lat="47.32513" lon="-2.43997">
        <ele>71.400001525879</ele>
        <time>2022-06-02T09:16:53.000Z</time>
      </trkpt>
      <trkpt lat="47.32507" lon="-2.43987">
        <ele>71.400001525879</ele>
        <time>2022-06-02T09:16:58.000Z</time>
      </trkpt>
      <trkpt lat="47.32507" lon="-2.43985">
        <ele>71.400001525879</ele>
        <time>2022-06-02T09:17:00.000Z</time>
      </trkpt>
      <trkpt lat="47.32504" lon="-2.43984">
        <ele>71.400001525879</ele>
        <time>2022-06-02T09:17:13.000Z</time>
      </trkpt>
      <trkpt lat="47.325" lon="-2.43985">
        <ele>71.400001525879</ele>
        <time>2022-06-02T09:17:15.000Z</time>
      </trkpt>
      <trkpt lat="47.32497" lon="-2.43988">
        <ele>71.400001525879</ele>
        <time>2022-06-02T09:17:17.000Z</time>
      </trkpt>
      <trkpt lat="47.32489" lon="-2.43991">
        <ele>71.400001525879</ele>
        <time>2022-06-02T09:17:21.000Z</time>
      </trkpt>
      <trkpt lat="47.32473" lon="-2.44002">
        <ele>71.400001525879</ele>
        <time>2022-06-02T09:17:27.000Z</time>
      </trkpt>
      <trkpt lat="47.32451" lon="-2.44017">
        <ele>71.400001525879</ele>
        <time>2022-06-02T09:17:32.000Z</time>
      </trkpt>
      <trkpt lat="47.32423" lon="-2.44036">
        <ele>71.400001525879</ele>
        <time>2022-06-02T09:17:38.000Z</time>
      </trkpt>
      <trkpt lat="47.32396" lon="-2.44052">
        <ele>70.800003051758</ele>
        <time>2022-06-02T09:17:43.000Z</time>
      </trkpt>
      <trkpt lat="47.3239" lon="-2.44055">
        <ele>70.400001525879</ele>
        <time>2022-06-02T09:17:44.000Z</time>
      </trkpt>
      <trkpt lat="47.32384" lon="-2.44058">
        <ele>70</ele>
        <time>2022-06-02T09:17:45.000Z</time>
      </trkpt>
      <trkpt lat="47.32378" lon="-2.44062">
        <ele>69.599998474121</ele>
        <time>2022-06-02T09:17:46.000Z</time>
      </trkpt>
      <trkpt lat="47.32371" lon="-2.44064">
        <ele>69</ele>
        <time>2022-06-02T09:17:47.000Z</time>
      </trkpt>
      <trkpt lat="47.32351" lon="-2.44068">
        <ele>69</ele>
        <time>2022-06-02T09:17:50.000Z</time>
      </trkpt>
      <trkpt lat="47.32331" lon="-2.44064">
        <ele>68.599998474121</ele>
        <time>2022-06-02T09:17:53.000Z</time>
      </trkpt>
      <trkpt lat="47.32324" lon="-2.44062">
        <ele>68.199996948242</ele>
        <time>2022-06-02T09:17:54.000Z</time>
      </trkpt>
      <trkpt lat="47.32317" lon="-2.44059">
        <ele>67.800003051758</ele>
        <time>2022-06-02T09:17:55.000Z</time>
      </trkpt>
      <trkpt lat="47.3231" lon="-2.44057">
        <ele>67.400001525879</ele>
        <time>2022-06-02T09:17:56.000Z</time>
      </trkpt>
      <trkpt lat="47.32304" lon="-2.44054">
        <ele>67</ele>
        <time>2022-06-02T09:17:57.000Z</time>
      </trkpt>
      <trkpt lat="47.32285" lon="-2.44048">
        <ele>67</ele>
        <time>2022-06-02T09:18:00.000Z</time>
      </trkpt>
      <trkpt lat="47.32278" lon="-2.44046">
        <ele>66.599998474121</ele>
        <time>2022-06-02T09:18:01.000Z</time>
      </trkpt>
      <trkpt lat="47.32272" lon="-2.44044">
        <ele>66.199996948242</ele>
        <time>2022-06-02T09:18:02.000Z</time>
      </trkpt>
      <trkpt lat="47.32265" lon="-2.44043">
        <ele>65.800003051758</ele>
        <time>2022-06-02T09:18:03.000Z</time>
      </trkpt>
      <trkpt lat="47.32258" lon="-2.44042">
        <ele>65.400001525879</ele>
        <time>2022-06-02T09:18:04.000Z</time>
      </trkpt>
      <trkpt lat="47.32252" lon="-2.44041">
        <ele>65</ele>
        <time>2022-06-02T09:18:05.000Z</time>
      </trkpt>
      <trkpt lat="47.32239" lon="-2.44042">
        <ele>65</ele>
        <time>2022-06-02T09:18:07.000Z</time>
      </trkpt>
      <trkpt lat="47.32221" lon="-2.44034">
        <ele>65</ele>
        <time>2022-06-02T09:18:10.000Z</time>
      </trkpt>
      <trkpt lat="47.3221" lon="-2.44024">
        <ele>65</ele>
        <time>2022-06-02T09:18:12.000Z</time>
      </trkpt>
      <trkpt lat="47.32194" lon="-2.44005">
        <ele>64.599998474121</ele>
        <time>2022-06-02T09:18:15.000Z</time>
      </trkpt>
      <trkpt lat="47.3219" lon="-2.43999">
        <ele>64.199996948242</ele>
        <time>2022-06-02T09:18:16.000Z</time>
      </trkpt>
      <trkpt lat="47.32184" lon="-2.43991">
        <ele>63.599998474121</ele>
        <time>2022-06-02T09:18:17.000Z</time>
      </trkpt>
      <trkpt lat="47.32179" lon="-2.43985">
        <ele>63.200000762939</ele>
        <time>2022-06-02T09:18:18.000Z</time>
      </trkpt>
      <trkpt lat="47.32174" lon="-2.43978">
        <ele>62.799999237061</ele>
        <time>2022-06-02T09:18:19.000Z</time>
      </trkpt>
      <trkpt lat="47.32159" lon="-2.43957">
        <ele>62.799999237061</ele>
        <time>2022-06-02T09:18:22.000Z</time>
      </trkpt>
      <trkpt lat="47.32149" lon="-2.43943">
        <ele>62.400001525879</ele>
        <time>2022-06-02T09:18:24.000Z</time>
      </trkpt>
      <trkpt lat="47.32144" lon="-2.43936">
        <ele>62</ele>
        <time>2022-06-02T09:18:25.000Z</time>
      </trkpt>
      <trkpt lat="47.32139" lon="-2.43929">
        <ele>61.599998474121</ele>
        <time>2022-06-02T09:18:26.000Z</time>
      </trkpt>
      <trkpt lat="47.32134" lon="-2.43922">
        <ele>61.200000762939</ele>
        <time>2022-06-02T09:18:27.000Z</time>
      </trkpt>
      <trkpt lat="47.32128" lon="-2.43916">
        <ele>60.599998474121</ele>
        <time>2022-06-02T09:18:28.000Z</time>
      </trkpt>
      <trkpt lat="47.32122" lon="-2.43911">
        <ele>60.200000762939</ele>
        <time>2022-06-02T09:18:29.000Z</time>
      </trkpt>
      <trkpt lat="47.32115" lon="-2.43907">
        <ele>59.599998474121</ele>
        <time>2022-06-02T09:18:30.000Z</time>
      </trkpt>
      <trkpt lat="47.32108" lon="-2.43903">
        <ele>59.200000762939</ele>
        <time>2022-06-02T09:18:31.000Z</time>
      </trkpt>
      <trkpt lat="47.32101" lon="-2.43899">
        <ele>58.599998474121</ele>
        <time>2022-06-02T09:18:32.000Z</time>
      </trkpt>
      <trkpt lat="47.32094" lon="-2.43895">
        <ele>58.200000762939</ele>
        <time>2022-06-02T09:18:33.000Z</time>
      </trkpt>
      <trkpt lat="47.32087" lon="-2.43891">
        <ele>57.799999237061</ele>
        <time>2022-06-02T09:18:34.000Z</time>
      </trkpt>
      <trkpt lat="47.32081" lon="-2.43885">
        <ele>57.200000762939</ele>
        <time>2022-06-02T09:18:35.000Z</time>
      </trkpt>
      <trkpt lat="47.32076" lon="-2.43877">
        <ele>56.799999237061</ele>
        <time>2022-06-02T09:18:36.000Z</time>
      </trkpt>
      <trkpt lat="47.32071" lon="-2.4387">
        <ele>56.400001525879</ele>
        <time>2022-06-02T09:18:37.000Z</time>
      </trkpt>
      <trkpt lat="47.32054" lon="-2.43838">
        <ele>56.400001525879</ele>
        <time>2022-06-02T09:18:41.000Z</time>
      </trkpt>
      <trkpt lat="47.32038" lon="-2.4381">
        <ele>56</ele>
        <time>2022-06-02T09:18:45.000Z</time>
      </trkpt>
      <trkpt lat="47.32035" lon="-2.43803">
        <ele>55.599998474121</ele>
        <time>2022-06-02T09:18:46.000Z</time>
      </trkpt>
      <trkpt lat="47.3203" lon="-2.438">
        <ele>55</ele>
        <time>2022-06-02T09:18:47.000Z</time>
      </trkpt>
      <trkpt lat="47.32024" lon="-2.43801">
        <ele>54.599998474121</ele>
        <time>2022-06-02T09:18:48.000Z</time>
      </trkpt>
      <trkpt lat="47.32018" lon="-2.43804">
        <ele>54.200000762939</ele>
        <time>2022-06-02T09:18:49.000Z</time>
      </trkpt>
      <trkpt lat="47.32013" lon="-2.43809">
        <ele>53.799999237061</ele>
        <time>2022-06-02T09:18:50.000Z</time>
      </trkpt>
      <trkpt lat="47.32007" lon="-2.43816">
        <ele>53.200000762939</ele>
        <time>2022-06-02T09:18:51.000Z</time>
      </trkpt>
      <trkpt lat="47.32001" lon="-2.43824">
        <ele>52.799999237061</ele>
        <time>2022-06-02T09:18:52.000Z</time>
      </trkpt>
      <trkpt lat="47.31996" lon="-2.4383">
        <ele>52.200000762939</ele>
        <time>2022-06-02T09:18:53.000Z</time>
      </trkpt>
      <trkpt lat="47.3199" lon="-2.43835">
        <ele>51.599998474121</ele>
        <time>2022-06-02T09:18:54.000Z</time>
      </trkpt>
      <trkpt lat="47.31983" lon="-2.43836">
        <ele>51</ele>
        <time>2022-06-02T09:18:55.000Z</time>
      </trkpt>
      <trkpt lat="47.31977" lon="-2.43834">
        <ele>50.599998474121</ele>
        <time>2022-06-02T09:18:56.000Z</time>
      </trkpt>
      <trkpt lat="47.31971" lon="-2.43829">
        <ele>50</ele>
        <time>2022-06-02T09:18:57.000Z</time>
      </trkpt>
      <trkpt lat="47.31966" lon="-2.43822">
        <ele>49.400001525879</ele>
        <time>2022-06-02T09:18:58.000Z</time>
      </trkpt>
      <trkpt lat="47.31961" lon="-2.43815">
        <ele>49.400001525879</ele>
        <time>2022-06-02T09:18:59.000Z</time>
      </trkpt>
      <trkpt lat="47.31952" lon="-2.43799">
        <ele>49</ele>
        <time>2022-06-02T09:19:01.000Z</time>
      </trkpt>
      <trkpt lat="47.31948" lon="-2.4379">
        <ele>48.400001525879</ele>
        <time>2022-06-02T09:19:02.000Z</time>
      </trkpt>
      <trkpt lat="47.31944" lon="-2.43781">
        <ele>48</ele>
        <time>2022-06-02T09:19:03.000Z</time>
      </trkpt>
      <trkpt lat="47.31941" lon="-2.43771">
        <ele>47.599998474121</ele>
        <time>2022-06-02T09:19:04.000Z</time>
      </trkpt>
      <trkpt lat="47.31938" lon="-2.43762">
        <ele>47.200000762939</ele>
        <time>2022-06-02T09:19:05.000Z</time>
      </trkpt>
      <trkpt lat="47.31931" lon="-2.43743">
        <ele>47.200000762939</ele>
        <time>2022-06-02T09:19:07.000Z</time>
      </trkpt>
      <trkpt lat="47.3191" lon="-2.43688">
        <ele>47.200000762939</ele>
        <time>2022-06-02T09:19:13.000Z</time>
      </trkpt>
      <trkpt lat="47.31906" lon="-2.4368">
        <ele>47.200000762939</ele>
        <time>2022-06-02T09:19:14.000Z</time>
      </trkpt>
      <trkpt lat="47.31898" lon="-2.43663">
        <ele>46.799999237061</ele>
        <time>2022-06-02T09:19:16.000Z</time>
      </trkpt>
      <trkpt lat="47.31894" lon="-2.43656">
        <ele>46.400001525879</ele>
        <time>2022-06-02T09:19:17.000Z</time>
      </trkpt>
      <trkpt lat="47.31891" lon="-2.43648">
        <ele>46</ele>
        <time>2022-06-02T09:19:18.000Z</time>
      </trkpt>
      <trkpt lat="47.3189" lon="-2.4364">
        <ele>45.599998474121</ele>
        <time>2022-06-02T09:19:19.000Z</time>
      </trkpt>
      <trkpt lat="47.3189" lon="-2.43633">
        <ele>45.200000762939</ele>
        <time>2022-06-02T09:19:20.000Z</time>
      </trkpt>
      <trkpt lat="47.31893" lon="-2.4362">
        <ele>45.200000762939</ele>
        <time>2022-06-02T09:19:22.000Z</time>
      </trkpt>
      <trkpt lat="47.31903" lon="-2.43609">
        <ele>45.200000762939</ele>
        <time>2022-06-02T09:19:25.000Z</time>
      </trkpt>
      <trkpt lat="47.31907" lon="-2.43605">
        <ele>45.200000762939</ele>
        <time>2022-06-02T09:19:26.000Z</time>
      </trkpt>
      <trkpt lat="47.31921" lon="-2.4359">
        <ele>45.599998474121</ele>
        <time>2022-06-02T09:19:30.000Z</time>
      </trkpt>
      <trkpt lat="47.31924" lon="-2.43586">
        <ele>46</ele>
        <time>2022-06-02T09:19:31.000Z</time>
      </trkpt>
      <trkpt lat="47.31926" lon="-2.4358">
        <ele>46.400001525879</ele>
        <time>2022-06-02T09:19:32.000Z</time>
      </trkpt>
      <trkpt lat="47.31927" lon="-2.43574">
        <ele>46.799999237061</ele>
        <time>2022-06-02T09:19:33.000Z</time>
      </trkpt>
      <trkpt lat="47.31927" lon="-2.43568">
        <ele>47.200000762939</ele>
        <time>2022-06-02T09:19:34.000Z</time>
      </trkpt>
      <trkpt lat="47.31928" lon="-2.43555">
        <ele>47.200000762939</ele>
        <time>2022-06-02T09:19:36.000Z</time>
      </trkpt>
      <trkpt lat="47.31928" lon="-2.43549">
        <ele>47.200000762939</ele>
        <time>2022-06-02T09:19:37.000Z</time>
      </trkpt>
      <trkpt lat="47.31928" lon="-2.43542">
        <ele>47.599998474121</ele>
        <time>2022-06-02T09:19:38.000Z</time>
      </trkpt>
      <trkpt lat="47.31928" lon="-2.43536">
        <ele>48</ele>
        <time>2022-06-02T09:19:39.000Z</time>
      </trkpt>
      <trkpt lat="47.31928" lon="-2.43529">
        <ele>48.400001525879</ele>
        <time>2022-06-02T09:19:40.000Z</time>
      </trkpt>
      <trkpt lat="47.31927" lon="-2.43523">
        <ele>48.799999237061</ele>
        <time>2022-06-02T09:19:41.000Z</time>
      </trkpt>
      <trkpt lat="47.31927" lon="-2.43517">
        <ele>49.400001525879</ele>
        <time>2022-06-02T09:19:42.000Z</time>
      </trkpt>
      <trkpt lat="47.31927" lon="-2.43503">
        <ele>49.400001525879</ele>
        <time>2022-06-02T09:19:44.000Z</time>
      </trkpt>
      <trkpt lat="47.31929" lon="-2.43483">
        <ele>49.400001525879</ele>
        <time>2022-06-02T09:19:47.000Z</time>
      </trkpt>
      <trkpt lat="47.31938" lon="-2.43449">
        <ele>49.799999237061</ele>
        <time>2022-06-02T09:19:53.000Z</time>
      </trkpt>
      <trkpt lat="47.31941" lon="-2.43444">
        <ele>50.200000762939</ele>
        <time>2022-06-02T09:19:54.000Z</time>
      </trkpt>
      <trkpt lat="47.31943" lon="-2.43438">
        <ele>50.599998474121</ele>
        <time>2022-06-02T09:19:55.000Z</time>
      </trkpt>
      <trkpt lat="47.31944" lon="-2.43433">
        <ele>51</ele>
        <time>2022-06-02T09:19:56.000Z</time>
      </trkpt>
      <trkpt lat="47.31946" lon="-2.43427">
        <ele>51.599998474121</ele>
        <time>2022-06-02T09:19:57.000Z</time>
      </trkpt>
      <trkpt lat="47.31948" lon="-2.43422">
        <ele>51.599998474121</ele>
        <time>2022-06-02T09:19:58.000Z</time>
      </trkpt>
      <trkpt lat="47.3195" lon="-2.43417">
        <ele>51.599998474121</ele>
        <time>2022-06-02T09:19:59.000Z</time>
      </trkpt>
      <trkpt lat="47.31954" lon="-2.43406">
        <ele>51.599998474121</ele>
        <time>2022-06-02T09:20:01.000Z</time>
      </trkpt>
      <trkpt lat="47.31957" lon="-2.43395">
        <ele>52</ele>
        <time>2022-06-02T09:20:03.000Z</time>
      </trkpt>
      <trkpt lat="47.31959" lon="-2.4339">
        <ele>52.400001525879</ele>
        <time>2022-06-02T09:20:04.000Z</time>
      </trkpt>
      <trkpt lat="47.31961" lon="-2.43384">
        <ele>52.799999237061</ele>
        <time>2022-06-02T09:20:05.000Z</time>
      </trkpt>
      <trkpt lat="47.31963" lon="-2.43379">
        <ele>53.200000762939</ele>
        <time>2022-06-02T09:20:06.000Z</time>
      </trkpt>
      <trkpt lat="47.31964" lon="-2.43373">
        <ele>53.599998474121</ele>
        <time>2022-06-02T09:20:07.000Z</time>
      </trkpt>
      <trkpt lat="47.31972" lon="-2.43346">
        <ele>53.599998474121</ele>
        <time>2022-06-02T09:20:12.000Z</time>
      </trkpt>
      <trkpt lat="47.31973" lon="-2.4334">
        <ele>54</ele>
        <time>2022-06-02T09:20:13.000Z</time>
      </trkpt>
      <trkpt lat="47.31974" lon="-2.43334">
        <ele>54.400001525879</ele>
        <time>2022-06-02T09:20:14.000Z</time>
      </trkpt>
      <trkpt lat="47.31975" lon="-2.43329">
        <ele>54.799999237061</ele>
        <time>2022-06-02T09:20:15.000Z</time>
      </trkpt>
      <trkpt lat="47.31976" lon="-2.43323">
        <ele>55.200000762939</ele>
        <time>2022-06-02T09:20:16.000Z</time>
      </trkpt>
      <trkpt lat="47.31977" lon="-2.43318">
        <ele>55.599998474121</ele>
        <time>2022-06-02T09:20:17.000Z</time>
      </trkpt>
      <trkpt lat="47.31977" lon="-2.43312">
        <ele>55.599998474121</ele>
        <time>2022-06-02T09:20:18.000Z</time>
      </trkpt>
      <trkpt lat="47.31983" lon="-2.43277">
        <ele>55.599998474121</ele>
        <time>2022-06-02T09:20:25.000Z</time>
      </trkpt>
      <trkpt lat="47.31994" lon="-2.43264">
        <ele>56</ele>
        <time>2022-06-02T09:20:29.000Z</time>
      </trkpt>
      <trkpt lat="47.31998" lon="-2.43262">
        <ele>56.400001525879</ele>
        <time>2022-06-02T09:20:30.000Z</time>
      </trkpt>
      <trkpt lat="47.32001" lon="-2.4326">
        <ele>57</ele>
        <time>2022-06-02T09:20:31.000Z</time>
      </trkpt>
      <trkpt lat="47.32005" lon="-2.43257">
        <ele>57.400001525879</ele>
        <time>2022-06-02T09:20:32.000Z</time>
      </trkpt>
      <trkpt lat="47.32008" lon="-2.43255">
        <ele>57.799999237061</ele>
        <time>2022-06-02T09:20:33.000Z</time>
      </trkpt>
      <trkpt lat="47.32023" lon="-2.43245">
        <ele>57.799999237061</ele>
        <time>2022-06-02T09:20:38.000Z</time>
      </trkpt>
      <trkpt lat="47.32032" lon="-2.43238">
        <ele>58.200000762939</ele>
        <time>2022-06-02T09:20:41.000Z</time>
      </trkpt>
      <trkpt lat="47.32034" lon="-2.43236">
        <ele>58.599998474121</ele>
        <time>2022-06-02T09:20:42.000Z</time>
      </trkpt>
      <trkpt lat="47.32037" lon="-2.43232">
        <ele>59</ele>
        <time>2022-06-02T09:20:43.000Z</time>
      </trkpt>
      <trkpt lat="47.32038" lon="-2.43228">
        <ele>59.400001525879</ele>
        <time>2022-06-02T09:20:44.000Z</time>
      </trkpt>
      <trkpt lat="47.32039" lon="-2.43223">
        <ele>59.799999237061</ele>
        <time>2022-06-02T09:20:45.000Z</time>
      </trkpt>
      <trkpt lat="47.32035" lon="-2.432">
        <ele>59.799999237061</ele>
        <time>2022-06-02T09:20:49.000Z</time>
      </trkpt>
      <trkpt lat="47.32034" lon="-2.43193">
        <ele>59.799999237061</ele>
        <time>2022-06-02T09:20:50.000Z</time>
      </trkpt>
      <trkpt lat="47.32022" lon="-2.43138">
        <ele>59.799999237061</ele>
        <time>2022-06-02T09:20:58.000Z</time>
      </trkpt>
      <trkpt lat="47.32013" lon="-2.43094">
        <ele>60.400001525879</ele>
        <time>2022-06-02T09:21:06.000Z</time>
      </trkpt>
      <trkpt lat="47.32012" lon="-2.43088">
        <ele>60.799999237061</ele>
        <time>2022-06-02T09:21:07.000Z</time>
      </trkpt>
      <trkpt lat="47.3201" lon="-2.43082">
        <ele>61.200000762939</ele>
        <time>2022-06-02T09:21:08.000Z</time>
      </trkpt>
      <trkpt lat="47.32009" lon="-2.43076">
        <ele>61.799999237061</ele>
        <time>2022-06-02T09:21:09.000Z</time>
      </trkpt>
      <trkpt lat="47.32007" lon="-2.43071">
        <ele>62.200000762939</ele>
        <time>2022-06-02T09:21:10.000Z</time>
      </trkpt>
      <trkpt lat="47.32005" lon="-2.43059">
        <ele>62.200000762939</ele>
        <time>2022-06-02T09:21:12.000Z</time>
      </trkpt>
      <trkpt lat="47.32002" lon="-2.43047">
        <ele>62.200000762939</ele>
        <time>2022-06-02T09:21:14.000Z</time>
      </trkpt>
      <trkpt lat="47.31999" lon="-2.43037">
        <ele>62.599998474121</ele>
        <time>2022-06-02T09:21:16.000Z</time>
      </trkpt>
      <trkpt lat="47.31998" lon="-2.43031">
        <ele>63</ele>
        <time>2022-06-02T09:21:17.000Z</time>
      </trkpt>
      <trkpt lat="47.31997" lon="-2.43026">
        <ele>63.400001525879</ele>
        <time>2022-06-02T09:21:18.000Z</time>
      </trkpt>
      <trkpt lat="47.31997" lon="-2.4302">
        <ele>64.199996948242</ele>
        <time>2022-06-02T09:21:19.000Z</time>
      </trkpt>
      <trkpt lat="47.31996" lon="-2.42991">
        <ele>64.199996948242</ele>
        <time>2022-06-02T09:21:24.000Z</time>
      </trkpt>
      <trkpt lat="47.31996" lon="-2.42968">
        <ele>64.599998474121</ele>
        <time>2022-06-02T09:21:28.000Z</time>
      </trkpt>
      <trkpt lat="47.31996" lon="-2.42963">
        <ele>65</ele>
        <time>2022-06-02T09:21:29.000Z</time>
      </trkpt>
      <trkpt lat="47.31997" lon="-2.42958">
        <ele>65.400001525879</ele>
        <time>2022-06-02T09:21:30.000Z</time>
      </trkpt>
      <trkpt lat="47.31997" lon="-2.42952">
        <ele>65.800003051758</ele>
        <time>2022-06-02T09:21:31.000Z</time>
      </trkpt>
      <trkpt lat="47.31998" lon="-2.42946">
        <ele>66.199996948242</ele>
        <time>2022-06-02T09:21:32.000Z</time>
      </trkpt>
      <trkpt lat="47.32001" lon="-2.42914">
        <ele>66.199996948242</ele>
        <time>2022-06-02T09:21:37.000Z</time>
      </trkpt>
      <trkpt lat="47.32004" lon="-2.4287">
        <ele>66.199996948242</ele>
        <time>2022-06-02T09:21:43.000Z</time>
      </trkpt>
      <trkpt lat="47.32005" lon="-2.42855">
        <ele>65.800003051758</ele>
        <time>2022-06-02T09:21:45.000Z</time>
      </trkpt>
      <trkpt lat="47.32005" lon="-2.4285">
        <ele>65.400001525879</ele>
        <time>2022-06-02T09:21:46.000Z</time>
      </trkpt>
      <trkpt lat="47.32006" lon="-2.42845">
        <ele>65</ele>
        <time>2022-06-02T09:21:47.000Z</time>
      </trkpt>
      <trkpt lat="47.32008" lon="-2.4284">
        <ele>64.599998474121</ele>
        <time>2022-06-02T09:21:48.000Z</time>
      </trkpt>
      <trkpt lat="47.32011" lon="-2.42835">
        <ele>64.199996948242</ele>
        <time>2022-06-02T09:21:49.000Z</time>
      </trkpt>
      <trkpt lat="47.32022" lon="-2.4282">
        <ele>64.199996948242</ele>
        <time>2022-06-02T09:21:53.000Z</time>
      </trkpt>
      <trkpt lat="47.32046" lon="-2.42793">
        <ele>64.199996948242</ele>
        <time>2022-06-02T09:22:00.000Z</time>
      </trkpt>
      <trkpt lat="47.3205" lon="-2.4279">
        <ele>64.199996948242</ele>
        <time>2022-06-02T09:22:01.000Z</time>
      </trkpt>
      <trkpt lat="47.3207" lon="-2.4278">
        <ele>64.199996948242</ele>
        <time>2022-06-02T09:22:06.000Z</time>
      </trkpt>
      <trkpt lat="47.32074" lon="-2.42778">
        <ele>64.599998474121</ele>
        <time>2022-06-02T09:22:07.000Z</time>
      </trkpt>
      <trkpt lat="47.32078" lon="-2.42776">
        <ele>65.400001525879</ele>
        <time>2022-06-02T09:22:08.000Z</time>
      </trkpt>
      <trkpt lat="47.32082" lon="-2.42774">
        <ele>65.800003051758</ele>
        <time>2022-06-02T09:22:09.000Z</time>
      </trkpt>
      <trkpt lat="47.32086" lon="-2.42773">
        <ele>66.199996948242</ele>
        <time>2022-06-02T09:22:10.000Z</time>
      </trkpt>
      <trkpt lat="47.32102" lon="-2.42764">
        <ele>66.199996948242</ele>
        <time>2022-06-02T09:22:14.000Z</time>
      </trkpt>
      <trkpt lat="47.32105" lon="-2.42762">
        <ele>66.199996948242</ele>
        <time>2022-06-02T09:22:15.000Z</time>
      </trkpt>
      <trkpt lat="47.32125" lon="-2.42742">
        <ele>66.599998474121</ele>
        <time>2022-06-02T09:22:21.000Z</time>
      </trkpt>
      <trkpt lat="47.32128" lon="-2.42738">
        <ele>67</ele>
        <time>2022-06-02T09:22:22.000Z</time>
      </trkpt>
      <trkpt lat="47.32131" lon="-2.42733">
        <ele>67.599998474121</ele>
        <time>2022-06-02T09:22:23.000Z</time>
      </trkpt>
      <trkpt lat="47.32134" lon="-2.42729">
        <ele>68</ele>
        <time>2022-06-02T09:22:24.000Z</time>
      </trkpt>
      <trkpt lat="47.32137" lon="-2.42726">
        <ele>68.400001525879</ele>
        <time>2022-06-02T09:22:25.000Z</time>
      </trkpt>
      <trkpt lat="47.32149" lon="-2.42709">
        <ele>68.400001525879</ele>
        <time>2022-06-02T09:22:29.000Z</time>
      </trkpt>
      <trkpt lat="47.32164" lon="-2.42687">
        <ele>68.800003051758</ele>
        <time>2022-06-02T09:22:34.000Z</time>
      </trkpt>
      <trkpt lat="47.32167" lon="-2.42683">
        <ele>69.199996948242</ele>
        <time>2022-06-02T09:22:35.000Z</time>
      </trkpt>
      <trkpt lat="47.3217" lon="-2.42679">
        <ele>69.599998474121</ele>
        <time>2022-06-02T09:22:36.000Z</time>
      </trkpt>
      <trkpt lat="47.32173" lon="-2.42676">
        <ele>70.199996948242</ele>
        <time>2022-06-02T09:22:37.000Z</time>
      </trkpt>
      <trkpt lat="47.32176" lon="-2.42672">
        <ele>70.599998474121</ele>
        <time>2022-06-02T09:22:38.000Z</time>
      </trkpt>
      <trkpt lat="47.32191" lon="-2.42651">
        <ele>70.599998474121</ele>
        <time>2022-06-02T09:22:43.000Z</time>
      </trkpt>
      <trkpt lat="47.32194" lon="-2.42647">
        <ele>71</ele>
        <time>2022-06-02T09:22:44.000Z</time>
      </trkpt>
      <trkpt lat="47.32197" lon="-2.42644">
        <ele>71.400001525879</ele>
        <time>2022-06-02T09:22:45.000Z</time>
      </trkpt>
      <trkpt lat="47.322" lon="-2.4264">
        <ele>71.800003051758</ele>
        <time>2022-06-02T09:22:46.000Z</time>
      </trkpt>
      <trkpt lat="47.32203" lon="-2.42635">
        <ele>72.199996948242</ele>
        <time>2022-06-02T09:22:47.000Z</time>
      </trkpt>
      <trkpt lat="47.32206" lon="-2.42632">
        <ele>72.599998474121</ele>
        <time>2022-06-02T09:22:48.000Z</time>
      </trkpt>
      <trkpt lat="47.32215" lon="-2.42619">
        <ele>72.599998474121</ele>
        <time>2022-06-02T09:22:51.000Z</time>
      </trkpt>
      <trkpt lat="47.32229" lon="-2.42596">
        <ele>73</ele>
        <time>2022-06-02T09:22:56.000Z</time>
      </trkpt>
      <trkpt lat="47.32232" lon="-2.42592">
        <ele>73.400001525879</ele>
        <time>2022-06-02T09:22:57.000Z</time>
      </trkpt>
      <trkpt lat="47.32235" lon="-2.42588">
        <ele>74.199996948242</ele>
        <time>2022-06-02T09:22:58.000Z</time>
      </trkpt>
      <trkpt lat="47.32238" lon="-2.42583">
        <ele>74.800003051758</ele>
        <time>2022-06-02T09:22:59.000Z</time>
      </trkpt>
      <trkpt lat="47.32253" lon="-2.42555">
        <ele>75.199996948242</ele>
        <time>2022-06-02T09:23:05.000Z</time>
      </trkpt>
      <trkpt lat="47.32255" lon="-2.4255">
        <ele>75.599998474121</ele>
        <time>2022-06-02T09:23:06.000Z</time>
      </trkpt>
      <trkpt lat="47.32257" lon="-2.42546">
        <ele>76</ele>
        <time>2022-06-02T09:23:07.000Z</time>
      </trkpt>
      <trkpt lat="47.3226" lon="-2.42542">
        <ele>76.400001525879</ele>
        <time>2022-06-02T09:23:08.000Z</time>
      </trkpt>
      <trkpt lat="47.32262" lon="-2.42538">
        <ele>76.800003051758</ele>
        <time>2022-06-02T09:23:09.000Z</time>
      </trkpt>
      <trkpt lat="47.32268" lon="-2.42525">
        <ele>76.800003051758</ele>
        <time>2022-06-02T09:23:12.000Z</time>
      </trkpt>
      <trkpt lat="47.3227" lon="-2.42521">
        <ele>77.199996948242</ele>
        <time>2022-06-02T09:23:13.000Z</time>
      </trkpt>
      <trkpt lat="47.32272" lon="-2.42517">
        <ele>77.599998474121</ele>
        <time>2022-06-02T09:23:14.000Z</time>
      </trkpt>
      <trkpt lat="47.32273" lon="-2.42513">
        <ele>78.199996948242</ele>
        <time>2022-06-02T09:23:15.000Z</time>
      </trkpt>
      <trkpt lat="47.32275" lon="-2.42509">
        <ele>78.599998474121</ele>
        <time>2022-06-02T09:23:16.000Z</time>
      </trkpt>
      <trkpt lat="47.32277" lon="-2.42506">
        <ele>79</ele>
        <time>2022-06-02T09:23:17.000Z</time>
      </trkpt>
      <trkpt lat="47.3228" lon="-2.42497">
        <ele>79</ele>
        <time>2022-06-02T09:23:19.000Z</time>
      </trkpt>
      <trkpt lat="47.32286" lon="-2.42485">
        <ele>79.800003051758</ele>
        <time>2022-06-02T09:23:22.000Z</time>
      </trkpt>
      <trkpt lat="47.32288" lon="-2.42481">
        <ele>80.199996948242</ele>
        <time>2022-06-02T09:23:23.000Z</time>
      </trkpt>
      <trkpt lat="47.3229" lon="-2.42477">
        <ele>80.599998474121</ele>
        <time>2022-06-02T09:23:24.000Z</time>
      </trkpt>
      <trkpt lat="47.32292" lon="-2.42473">
        <ele>81</ele>
        <time>2022-06-02T09:23:25.000Z</time>
      </trkpt>
      <trkpt lat="47.32294" lon="-2.42468">
        <ele>81</ele>
        <time>2022-06-02T09:23:26.000Z</time>
      </trkpt>
      <trkpt lat="47.32306" lon="-2.42438">
        <ele>81</ele>
        <time>2022-06-02T09:23:33.000Z</time>
      </trkpt>
      <trkpt lat="47.32322" lon="-2.42404">
        <ele>81</ele>
        <time>2022-06-02T09:23:40.000Z</time>
      </trkpt>
      <trkpt lat="47.32323" lon="-2.42392">
        <ele>81.400001525879</ele>
        <time>2022-06-02T09:23:42.000Z</time>
      </trkpt>
      <trkpt lat="47.32323" lon="-2.42386">
        <ele>81.800003051758</ele>
        <time>2022-06-02T09:23:43.000Z</time>
      </trkpt>
      <trkpt lat="47.32323" lon="-2.4238">
        <ele>82.199996948242</ele>
        <time>2022-06-02T09:23:44.000Z</time>
      </trkpt>
      <trkpt lat="47.32322" lon="-2.42374">
        <ele>82.599998474121</ele>
        <time>2022-06-02T09:23:45.000Z</time>
      </trkpt>
      <trkpt lat="47.32322" lon="-2.42367">
        <ele>83</ele>
        <time>2022-06-02T09:23:46.000Z</time>
      </trkpt>
      <trkpt lat="47.32318" lon="-2.42336">
        <ele>83</ele>
        <time>2022-06-02T09:23:51.000Z</time>
      </trkpt>
      <trkpt lat="47.32317" lon="-2.42295">
        <ele>83.400001525879</ele>
        <time>2022-06-02T09:23:58.000Z</time>
      </trkpt>
      <trkpt lat="47.32318" lon="-2.4229">
        <ele>83.800003051758</ele>
        <time>2022-06-02T09:23:59.000Z</time>
      </trkpt>
      <trkpt lat="47.3232" lon="-2.42286">
        <ele>84.199996948242</ele>
        <time>2022-06-02T09:24:00.000Z</time>
      </trkpt>
      <trkpt lat="47.32322" lon="-2.42281">
        <ele>84.599998474121</ele>
        <time>2022-06-02T09:24:01.000Z</time>
      </trkpt>
      <trkpt lat="47.32324" lon="-2.42278">
        <ele>85</ele>
        <time>2022-06-02T09:24:02.000Z</time>
      </trkpt>
      <trkpt lat="47.32327" lon="-2.42274">
        <ele>85</ele>
        <time>2022-06-02T09:24:03.000Z</time>
      </trkpt>
      <trkpt lat="47.32337" lon="-2.42257">
        <ele>85</ele>
        <time>2022-06-02T09:24:07.000Z</time>
      </trkpt>
      <trkpt lat="47.32343" lon="-2.42247">
        <ele>85</ele>
        <time>2022-06-02T09:24:09.000Z</time>
      </trkpt>
      <trkpt lat="47.32361" lon="-2.42221">
        <ele>85</ele>
        <time>2022-06-02T09:24:15.000Z</time>
      </trkpt>
      <trkpt lat="47.32364" lon="-2.42218">
        <ele>85</ele>
        <time>2022-06-02T09:24:16.000Z</time>
      </trkpt>
      <trkpt lat="47.32379" lon="-2.42202">
        <ele>85</ele>
        <time>2022-06-02T09:24:21.000Z</time>
      </trkpt>
      <trkpt lat="47.32403" lon="-2.42175">
        <ele>85</ele>
        <time>2022-06-02T09:24:29.000Z</time>
      </trkpt>
      <trkpt lat="47.32425" lon="-2.42147">
        <ele>85</ele>
        <time>2022-06-02T09:24:36.000Z</time>
      </trkpt>
      <trkpt lat="47.32436" lon="-2.42124">
        <ele>85</ele>
        <time>2022-06-02T09:24:42.000Z</time>
      </trkpt>
      <trkpt lat="47.32439" lon="-2.4211">
        <ele>85</ele>
        <time>2022-06-02T09:24:46.000Z</time>
      </trkpt>
      <trkpt lat="47.32436" lon="-2.42107">
        <ele>85</ele>
        <time>2022-06-02T09:24:47.000Z</time>
      </trkpt>
      <trkpt lat="47.32426" lon="-2.42095">
        <ele>85</ele>
        <time>2022-06-02T09:24:50.000Z</time>
      </trkpt>
      <trkpt lat="47.32418" lon="-2.42086">
        <ele>85</ele>
        <time>2022-06-02T09:24:52.000Z</time>
      </trkpt>
      <trkpt lat="47.3239" lon="-2.42056">
        <ele>85</ele>
        <time>2022-06-02T09:24:58.000Z</time>
      </trkpt>
      <trkpt lat="47.32355" lon="-2.42019">
        <ele>85</ele>
        <time>2022-06-02T09:25:05.000Z</time>
      </trkpt>
      <trkpt lat="47.3234" lon="-2.42004">
        <ele>84.599998474121</ele>
        <time>2022-06-02T09:25:08.000Z</time>
      </trkpt>
      <trkpt lat="47.32336" lon="-2.41998">
        <ele>84.199996948242</ele>
        <time>2022-06-02T09:25:09.000Z</time>
      </trkpt>
      <trkpt lat="47.32331" lon="-2.41993">
        <ele>83.800003051758</ele>
        <time>2022-06-02T09:25:10.000Z</time>
      </trkpt>
      <trkpt lat="47.32325" lon="-2.41987">
        <ele>83.400001525879</ele>
        <time>2022-06-02T09:25:11.000Z</time>
      </trkpt>
      <trkpt lat="47.32321" lon="-2.4198">
        <ele>83</ele>
        <time>2022-06-02T09:25:12.000Z</time>
      </trkpt>
      <trkpt lat="47.323" lon="-2.41958">
        <ele>83</ele>
        <time>2022-06-02T09:25:16.000Z</time>
      </trkpt>
      <trkpt lat="47.32295" lon="-2.41952">
        <ele>83</ele>
        <time>2022-06-02T09:25:17.000Z</time>
      </trkpt>
      <trkpt lat="47.32285" lon="-2.41932">
        <ele>83</ele>
        <time>2022-06-02T09:25:20.000Z</time>
      </trkpt>
      <trkpt lat="47.32283" lon="-2.41927">
        <ele>83</ele>
        <time>2022-06-02T09:25:21.000Z</time>
      </trkpt>
      <trkpt lat="47.32272" lon="-2.41911">
        <ele>83</ele>
        <time>2022-06-02T09:25:25.000Z</time>
      </trkpt>
      <trkpt lat="47.3226" lon="-2.41891">
        <ele>83</ele>
        <time>2022-06-02T09:25:29.000Z</time>
      </trkpt>
      <trkpt lat="47.32257" lon="-2.41887">
        <ele>83</ele>
        <time>2022-06-02T09:25:30.000Z</time>
      </trkpt>
      <trkpt lat="47.32251" lon="-2.41868">
        <ele>83</ele>
        <time>2022-06-02T09:25:34.000Z</time>
      </trkpt>
      <trkpt lat="47.32248" lon="-2.41856">
        <ele>83</ele>
        <time>2022-06-02T09:25:36.000Z</time>
      </trkpt>
      <trkpt lat="47.32249" lon="-2.41849">
        <ele>82.599998474121</ele>
        <time>2022-06-02T09:25:37.000Z</time>
      </trkpt>
      <trkpt lat="47.32252" lon="-2.41843">
        <ele>82.199996948242</ele>
        <time>2022-06-02T09:25:38.000Z</time>
      </trkpt>
      <trkpt lat="47.32255" lon="-2.41837">
        <ele>81.800003051758</ele>
        <time>2022-06-02T09:25:39.000Z</time>
      </trkpt>
      <trkpt lat="47.32258" lon="-2.41831">
        <ele>81.400001525879</ele>
        <time>2022-06-02T09:25:40.000Z</time>
      </trkpt>
      <trkpt lat="47.32261" lon="-2.41824">
        <ele>81</ele>
        <time>2022-06-02T09:25:41.000Z</time>
      </trkpt>
      <trkpt lat="47.32282" lon="-2.41781">
        <ele>81</ele>
        <time>2022-06-02T09:25:48.000Z</time>
      </trkpt>
      <trkpt lat="47.32284" lon="-2.41775">
        <ele>81</ele>
        <time>2022-06-02T09:25:49.000Z</time>
      </trkpt>
      <trkpt lat="47.32283" lon="-2.41762">
        <ele>81</ele>
        <time>2022-06-02T09:25:51.000Z</time>
      </trkpt>
      <trkpt lat="47.32286" lon="-2.41741">
        <ele>81</ele>
        <time>2022-06-02T09:25:55.000Z</time>
      </trkpt>
      <trkpt lat="47.32288" lon="-2.41736">
        <ele>81</ele>
        <time>2022-06-02T09:25:56.000Z</time>
      </trkpt>
      <trkpt lat="47.32291" lon="-2.4173">
        <ele>81</ele>
        <time>2022-06-02T09:25:57.000Z</time>
      </trkpt>
      <trkpt lat="47.32296" lon="-2.41718">
        <ele>81</ele>
        <time>2022-06-02T09:25:59.000Z</time>
      </trkpt>
      <trkpt lat="47.32298" lon="-2.41712">
        <ele>81</ele>
        <time>2022-06-02T09:26:00.000Z</time>
      </trkpt>
      <trkpt lat="47.323" lon="-2.41688">
        <ele>81.400001525879</ele>
        <time>2022-06-02T09:26:04.000Z</time>
      </trkpt>
      <trkpt lat="47.32299" lon="-2.41682">
        <ele>81.800003051758</ele>
        <time>2022-06-02T09:26:05.000Z</time>
      </trkpt>
      <trkpt lat="47.32299" lon="-2.41677">
        <ele>82.199996948242</ele>
        <time>2022-06-02T09:26:06.000Z</time>
      </trkpt>
      <trkpt lat="47.32299" lon="-2.41672">
        <ele>82.599998474121</ele>
        <time>2022-06-02T09:26:07.000Z</time>
      </trkpt>
      <trkpt lat="47.32299" lon="-2.41667">
        <ele>83</ele>
        <time>2022-06-02T09:26:08.000Z</time>
      </trkpt>
      <trkpt lat="47.32301" lon="-2.41644">
        <ele>83</ele>
        <time>2022-06-02T09:26:12.000Z</time>
      </trkpt>
      <trkpt lat="47.32312" lon="-2.41617">
        <ele>83</ele>
        <time>2022-06-02T09:26:16.000Z</time>
      </trkpt>
      <trkpt lat="47.32314" lon="-2.4161">
        <ele>83</ele>
        <time>2022-06-02T09:26:17.000Z</time>
      </trkpt>
      <trkpt lat="47.32318" lon="-2.41586">
        <ele>83</ele>
        <time>2022-06-02T09:26:20.000Z</time>
      </trkpt>
      <trkpt lat="47.3233" lon="-2.4156">
        <ele>83</ele>
        <time>2022-06-02T09:26:24.000Z</time>
      </trkpt>
      <trkpt lat="47.32349" lon="-2.41547">
        <ele>83</ele>
        <time>2022-06-02T09:26:28.000Z</time>
      </trkpt>
      <trkpt lat="47.32369" lon="-2.41546">
        <ele>83</ele>
        <time>2022-06-02T09:26:32.000Z</time>
      </trkpt>
      <trkpt lat="47.32379" lon="-2.41549">
        <ele>83</ele>
        <time>2022-06-02T09:26:34.000Z</time>
      </trkpt>
      <trkpt lat="47.32384" lon="-2.41551">
        <ele>83</ele>
        <time>2022-06-02T09:26:35.000Z</time>
      </trkpt>
      <trkpt lat="47.32394" lon="-2.41558">
        <ele>83</ele>
        <time>2022-06-02T09:26:37.000Z</time>
      </trkpt>
      <trkpt lat="47.32408" lon="-2.41565">
        <ele>83</ele>
        <time>2022-06-02T09:26:40.000Z</time>
      </trkpt>
      <trkpt lat="47.32418" lon="-2.41565">
        <ele>83</ele>
        <time>2022-06-02T09:26:42.000Z</time>
      </trkpt>
      <trkpt lat="47.32429" lon="-2.41564">
        <ele>83.599998474121</ele>
        <time>2022-06-02T09:26:44.000Z</time>
      </trkpt>
      <trkpt lat="47.32434" lon="-2.41564">
        <ele>84</ele>
        <time>2022-06-02T09:26:45.000Z</time>
      </trkpt>
      <trkpt lat="47.32439" lon="-2.41565">
        <ele>84.400001525879</ele>
        <time>2022-06-02T09:26:46.000Z</time>
      </trkpt>
      <trkpt lat="47.32445" lon="-2.41565">
        <ele>84.800003051758</ele>
        <time>2022-06-02T09:26:47.000Z</time>
      </trkpt>
      <trkpt lat="47.3245" lon="-2.41567">
        <ele>85.199996948242</ele>
        <time>2022-06-02T09:26:48.000Z</time>
      </trkpt>
      <trkpt lat="47.32481" lon="-2.41579">
        <ele>85.199996948242</ele>
        <time>2022-06-02T09:26:54.000Z</time>
      </trkpt>
      <trkpt lat="47.32506" lon="-2.41588">
        <ele>85.199996948242</ele>
        <time>2022-06-02T09:26:59.000Z</time>
      </trkpt>
      <trkpt lat="47.32516" lon="-2.41588">
        <ele>85.199996948242</ele>
        <time>2022-06-02T09:27:01.000Z</time>
      </trkpt>
      <trkpt lat="47.3253" lon="-2.41583">
        <ele>85.199996948242</ele>
        <time>2022-06-02T09:27:04.000Z</time>
      </trkpt>
      <trkpt lat="47.32539" lon="-2.41579">
        <ele>85.199996948242</ele>
        <time>2022-06-02T09:27:06.000Z</time>
      </trkpt>
      <trkpt lat="47.32544" lon="-2.41578">
        <ele>85.199996948242</ele>
        <time>2022-06-02T09:27:07.000Z</time>
      </trkpt>
      <trkpt lat="47.3256" lon="-2.41582">
        <ele>85.199996948242</ele>
        <time>2022-06-02T09:27:10.000Z</time>
      </trkpt>
      <trkpt lat="47.3257" lon="-2.4159">
        <ele>85.199996948242</ele>
        <time>2022-06-02T09:27:12.000Z</time>
      </trkpt>
      <trkpt lat="47.32577" lon="-2.41596">
        <ele>85.199996948242</ele>
        <time>2022-06-02T09:27:14.000Z</time>
      </trkpt>
      <trkpt lat="47.32597" lon="-2.41606">
        <ele>85.199996948242</ele>
        <time>2022-06-02T09:27:20.000Z</time>
      </trkpt>
      <trkpt lat="47.32601" lon="-2.41605">
        <ele>85.199996948242</ele>
        <time>2022-06-02T09:27:21.000Z</time>
      </trkpt>
      <trkpt lat="47.32618" lon="-2.41603">
        <ele>85.199996948242</ele>
        <time>2022-06-02T09:27:25.000Z</time>
      </trkpt>
      <trkpt lat="47.32643" lon="-2.41613">
        <ele>85.199996948242</ele>
        <time>2022-06-02T09:27:30.000Z</time>
      </trkpt>
      <trkpt lat="47.32649" lon="-2.41614">
        <ele>84.599998474121</ele>
        <time>2022-06-02T09:27:31.000Z</time>
      </trkpt>
      <trkpt lat="47.32655" lon="-2.41615">
        <ele>84.199996948242</ele>
        <time>2022-06-02T09:27:32.000Z</time>
      </trkpt>
      <trkpt lat="47.32661" lon="-2.41617">
        <ele>83.800003051758</ele>
        <time>2022-06-02T09:27:33.000Z</time>
      </trkpt>
      <trkpt lat="47.32667" lon="-2.41619">
        <ele>83.199996948242</ele>
        <time>2022-06-02T09:27:34.000Z</time>
      </trkpt>
      <trkpt lat="47.32673" lon="-2.41621">
        <ele>82.800003051758</ele>
        <time>2022-06-02T09:27:35.000Z</time>
      </trkpt>
      <trkpt lat="47.32678" lon="-2.41623">
        <ele>82.800003051758</ele>
        <time>2022-06-02T09:27:36.000Z</time>
      </trkpt>
      <trkpt lat="47.3269" lon="-2.41623">
        <ele>82.800003051758</ele>
        <time>2022-06-02T09:27:39.000Z</time>
      </trkpt>
      <trkpt lat="47.32695" lon="-2.41614">
        <ele>82.800003051758</ele>
        <time>2022-06-02T09:27:43.000Z</time>
      </trkpt>
      <trkpt lat="47.32698" lon="-2.41606">
        <ele>82.800003051758</ele>
        <time>2022-06-02T09:27:48.000Z</time>
      </trkpt>
      <trkpt lat="47.32697" lon="-2.41606">
        <ele>82.800003051758</ele>
        <time>2022-06-02T09:27:49.000Z</time>
      </trkpt>
      <trkpt lat="47.32698" lon="-2.41604">
        <ele>81.599998474121</ele>
        <time>2022-06-02T09:27:53.000Z</time>
      </trkpt>
      <trkpt lat="47.32699" lon="-2.41599">
        <ele>81.199996948242</ele>
        <time>2022-06-02T09:27:54.000Z</time>
      </trkpt>
      <trkpt lat="47.327" lon="-2.41598">
        <ele>80.599998474121</ele>
        <time>2022-06-02T09:27:55.000Z</time>
      </trkpt>
      <trkpt lat="47.32702" lon="-2.41594">
        <ele>80.599998474121</ele>
        <time>2022-06-02T09:27:57.000Z</time>
      </trkpt>
      <trkpt lat="47.32705" lon="-2.41583">
        <ele>80.599998474121</ele>
        <time>2022-06-02T09:28:02.000Z</time>
      </trkpt>
      <trkpt lat="47.32703" lon="-2.41581">
        <ele>80.599998474121</ele>
        <time>2022-06-02T09:28:04.000Z</time>
      </trkpt>
      <trkpt lat="47.32699" lon="-2.41577">
        <ele>80.599998474121</ele>
        <time>2022-06-02T09:28:07.000Z</time>
      </trkpt>
      <trkpt lat="47.327" lon="-2.41565">
        <ele>80.599998474121</ele>
        <time>2022-06-02T09:28:10.000Z</time>
      </trkpt>
      <trkpt lat="47.327" lon="-2.41559">
        <ele>80.599998474121</ele>
        <time>2022-06-02T09:28:11.000Z</time>
      </trkpt>
      <trkpt lat="47.327" lon="-2.41547">
        <ele>80.599998474121</ele>
        <time>2022-06-02T09:28:13.000Z</time>
      </trkpt>
      <trkpt lat="47.32694" lon="-2.41542">
        <ele>80.599998474121</ele>
        <time>2022-06-02T09:28:15.000Z</time>
      </trkpt>
      <trkpt lat="47.32685" lon="-2.4154">
        <ele>80.599998474121</ele>
        <time>2022-06-02T09:28:17.000Z</time>
      </trkpt>
      <trkpt lat="47.32671" lon="-2.41538">
        <ele>80.599998474121</ele>
        <time>2022-06-02T09:28:20.000Z</time>
      </trkpt>
      <trkpt lat="47.32653" lon="-2.41533">
        <ele>81.199996948242</ele>
        <time>2022-06-02T09:28:24.000Z</time>
      </trkpt>
      <trkpt lat="47.32647" lon="-2.41531">
        <ele>81.599998474121</ele>
        <time>2022-06-02T09:28:25.000Z</time>
      </trkpt>
      <trkpt lat="47.32642" lon="-2.4153">
        <ele>82</ele>
        <time>2022-06-02T09:28:26.000Z</time>
      </trkpt>
      <trkpt lat="47.32636" lon="-2.41529">
        <ele>82.400001525879</ele>
        <time>2022-06-02T09:28:27.000Z</time>
      </trkpt>
      <trkpt lat="47.32631" lon="-2.41528">
        <ele>82.800003051758</ele>
        <time>2022-06-02T09:28:28.000Z</time>
      </trkpt>
      <trkpt lat="47.32599" lon="-2.41521">
        <ele>82.800003051758</ele>
        <time>2022-06-02T09:28:34.000Z</time>
      </trkpt>
      <trkpt lat="47.32594" lon="-2.4152">
        <ele>82.800003051758</ele>
        <time>2022-06-02T09:28:35.000Z</time>
      </trkpt>
      <trkpt lat="47.32576" lon="-2.41513">
        <ele>82.800003051758</ele>
        <time>2022-06-02T09:28:39.000Z</time>
      </trkpt>
      <trkpt lat="47.32574" lon="-2.41509">
        <ele>82.800003051758</ele>
        <time>2022-06-02T09:28:40.000Z</time>
      </trkpt>
      <trkpt lat="47.32571" lon="-2.41489">
        <ele>82.800003051758</ele>
        <time>2022-06-02T09:28:43.000Z</time>
      </trkpt>
      <trkpt lat="47.32571" lon="-2.41482">
        <ele>82.800003051758</ele>
        <time>2022-06-02T09:28:44.000Z</time>
      </trkpt>
      <trkpt lat="47.32566" lon="-2.41456">
        <ele>82.800003051758</ele>
        <time>2022-06-02T09:28:48.000Z</time>
      </trkpt>
      <trkpt lat="47.32563" lon="-2.41452">
        <ele>82.800003051758</ele>
        <time>2022-06-02T09:28:49.000Z</time>
      </trkpt>
      <trkpt lat="47.32559" lon="-2.41447">
        <ele>83.199996948242</ele>
        <time>2022-06-02T09:28:50.000Z</time>
      </trkpt>
      <trkpt lat="47.32556" lon="-2.41442">
        <ele>83.599998474121</ele>
        <time>2022-06-02T09:28:51.000Z</time>
      </trkpt>
      <trkpt lat="47.32554" lon="-2.41437">
        <ele>84.199996948242</ele>
        <time>2022-06-02T09:28:52.000Z</time>
      </trkpt>
      <trkpt lat="47.32551" lon="-2.41431">
        <ele>84.599998474121</ele>
        <time>2022-06-02T09:28:53.000Z</time>
      </trkpt>
      <trkpt lat="47.32548" lon="-2.41426">
        <ele>85</ele>
        <time>2022-06-02T09:28:54.000Z</time>
      </trkpt>
      <trkpt lat="47.32535" lon="-2.41401">
        <ele>85</ele>
        <time>2022-06-02T09:28:58.000Z</time>
      </trkpt>
      <trkpt lat="47.32512" lon="-2.41356">
        <ele>85</ele>
        <time>2022-06-02T09:29:05.000Z</time>
      </trkpt>
      <trkpt lat="47.32492" lon="-2.41317">
        <ele>85</ele>
        <time>2022-06-02T09:29:11.000Z</time>
      </trkpt>
      <trkpt lat="47.32482" lon="-2.41298">
        <ele>85</ele>
        <time>2022-06-02T09:29:14.000Z</time>
      </trkpt>
      <trkpt lat="47.32471" lon="-2.41278">
        <ele>85</ele>
        <time>2022-06-02T09:29:17.000Z</time>
      </trkpt>
      <trkpt lat="47.32451" lon="-2.41239">
        <ele>85</ele>
        <time>2022-06-02T09:29:23.000Z</time>
      </trkpt>
      <trkpt lat="47.32427" lon="-2.4119">
        <ele>85</ele>
        <time>2022-06-02T09:29:31.000Z</time>
      </trkpt>
      <trkpt lat="47.32422" lon="-2.41185">
        <ele>85</ele>
        <time>2022-06-02T09:29:33.000Z</time>
      </trkpt>
      <trkpt lat="47.32419" lon="-2.41176">
        <ele>85</ele>
        <time>2022-06-02T09:29:35.000Z</time>
      </trkpt>
      <trkpt lat="47.32414" lon="-2.41165">
        <ele>85</ele>
        <time>2022-06-02T09:29:37.000Z</time>
      </trkpt>
      <trkpt lat="47.32407" lon="-2.41154">
        <ele>85</ele>
        <time>2022-06-02T09:29:39.000Z</time>
      </trkpt>
      <trkpt lat="47.32398" lon="-2.41136">
        <ele>85.400001525879</ele>
        <time>2022-06-02T09:29:42.000Z</time>
      </trkpt>
      <trkpt lat="47.32395" lon="-2.4113">
        <ele>85.800003051758</ele>
        <time>2022-06-02T09:29:43.000Z</time>
      </trkpt>
      <trkpt lat="47.32392" lon="-2.41124">
        <ele>86.199996948242</ele>
        <time>2022-06-02T09:29:44.000Z</time>
      </trkpt>
      <trkpt lat="47.32388" lon="-2.41118">
        <ele>86.599998474121</ele>
        <time>2022-06-02T09:29:45.000Z</time>
      </trkpt>
      <trkpt lat="47.32385" lon="-2.41111">
        <ele>87</ele>
        <time>2022-06-02T09:29:46.000Z</time>
      </trkpt>
      <trkpt lat="47.32373" lon="-2.41086">
        <ele>87</ele>
        <time>2022-06-02T09:29:50.000Z</time>
      </trkpt>
      <trkpt lat="47.32369" lon="-2.41073">
        <ele>87</ele>
        <time>2022-06-02T09:29:52.000Z</time>
      </trkpt>
      <trkpt lat="47.32358" lon="-2.41059">
        <ele>87</ele>
        <time>2022-06-02T09:29:55.000Z</time>
      </trkpt>
      <trkpt lat="47.32354" lon="-2.41054">
        <ele>87</ele>
        <time>2022-06-02T09:29:56.000Z</time>
      </trkpt>
      <trkpt lat="47.32342" lon="-2.41029">
        <ele>87</ele>
        <time>2022-06-02T09:30:00.000Z</time>
      </trkpt>
      <trkpt lat="47.32317" lon="-2.40981">
        <ele>87</ele>
        <time>2022-06-02T09:30:07.000Z</time>
      </trkpt>
      <trkpt lat="47.32288" lon="-2.40928">
        <ele>87</ele>
        <time>2022-06-02T09:30:14.000Z</time>
      </trkpt>
      <trkpt lat="47.32274" lon="-2.40899">
        <ele>86.599998474121</ele>
        <time>2022-06-02T09:30:18.000Z</time>
      </trkpt>
      <trkpt lat="47.3227" lon="-2.40892">
        <ele>86.199996948242</ele>
        <time>2022-06-02T09:30:19.000Z</time>
      </trkpt>
      <trkpt lat="47.32266" lon="-2.40886">
        <ele>85.800003051758</ele>
        <time>2022-06-02T09:30:20.000Z</time>
      </trkpt>
      <trkpt lat="47.32262" lon="-2.40879">
        <ele>85.400001525879</ele>
        <time>2022-06-02T09:30:21.000Z</time>
      </trkpt>
      <trkpt lat="47.32258" lon="-2.40873">
        <ele>85</ele>
        <time>2022-06-02T09:30:22.000Z</time>
      </trkpt>
      <trkpt lat="47.32233" lon="-2.4083">
        <ele>85</ele>
        <time>2022-06-02T09:30:29.000Z</time>
      </trkpt>
      <trkpt lat="47.32219" lon="-2.40809">
        <ele>85</ele>
        <time>2022-06-02T09:30:33.000Z</time>
      </trkpt>
      <trkpt lat="47.32213" lon="-2.408">
        <ele>85</ele>
        <time>2022-06-02T09:30:35.000Z</time>
      </trkpt>
      <trkpt lat="47.32208" lon="-2.40791">
        <ele>85</ele>
        <time>2022-06-02T09:30:37.000Z</time>
      </trkpt>
      <trkpt lat="47.32201" lon="-2.40781">
        <ele>85</ele>
        <time>2022-06-02T09:30:40.000Z</time>
      </trkpt>
      <trkpt lat="47.3219" lon="-2.40765">
        <ele>85</ele>
        <time>2022-06-02T09:30:44.000Z</time>
      </trkpt>
      <trkpt lat="47.32187" lon="-2.4076">
        <ele>85</ele>
        <time>2022-06-02T09:30:45.000Z</time>
      </trkpt>
      <trkpt lat="47.32162" lon="-2.40727">
        <ele>85</ele>
        <time>2022-06-02T09:30:51.000Z</time>
      </trkpt>
      <trkpt lat="47.32126" lon="-2.4069">
        <ele>85</ele>
        <time>2022-06-02T09:30:58.000Z</time>
      </trkpt>
      <trkpt lat="47.32085" lon="-2.40646">
        <ele>85</ele>
        <time>2022-06-02T09:31:06.000Z</time>
      </trkpt>
      <trkpt lat="47.32065" lon="-2.40625">
        <ele>84.599998474121</ele>
        <time>2022-06-02T09:31:10.000Z</time>
      </trkpt>
      <trkpt lat="47.32059" lon="-2.40619">
        <ele>84.199996948242</ele>
        <time>2022-06-02T09:31:11.000Z</time>
      </trkpt>
      <trkpt lat="47.32054" lon="-2.40615">
        <ele>83.800003051758</ele>
        <time>2022-06-02T09:31:12.000Z</time>
      </trkpt>
      <trkpt lat="47.32048" lon="-2.4061">
        <ele>83.400001525879</ele>
        <time>2022-06-02T09:31:13.000Z</time>
      </trkpt>
      <trkpt lat="47.32043" lon="-2.40604">
        <ele>83</ele>
        <time>2022-06-02T09:31:14.000Z</time>
      </trkpt>
      <trkpt lat="47.32025" lon="-2.40589">
        <ele>83</ele>
        <time>2022-06-02T09:31:17.000Z</time>
      </trkpt>
      <trkpt lat="47.31982" lon="-2.40555">
        <ele>83</ele>
        <time>2022-06-02T09:31:24.000Z</time>
      </trkpt>
      <trkpt lat="47.31963" lon="-2.4054">
        <ele>82.599998474121</ele>
        <time>2022-06-02T09:31:27.000Z</time>
      </trkpt>
      <trkpt lat="47.31957" lon="-2.40535">
        <ele>82.199996948242</ele>
        <time>2022-06-02T09:31:28.000Z</time>
      </trkpt>
      <trkpt lat="47.3195" lon="-2.40531">
        <ele>81.800003051758</ele>
        <time>2022-06-02T09:31:29.000Z</time>
      </trkpt>
      <trkpt lat="47.31944" lon="-2.40527">
        <ele>81.400001525879</ele>
        <time>2022-06-02T09:31:30.000Z</time>
      </trkpt>
      <trkpt lat="47.31938" lon="-2.40523">
        <ele>81</ele>
        <time>2022-06-02T09:31:31.000Z</time>
      </trkpt>
      <trkpt lat="47.31896" lon="-2.40489">
        <ele>81</ele>
        <time>2022-06-02T09:31:38.000Z</time>
      </trkpt>
      <trkpt lat="47.31861" lon="-2.40462">
        <ele>81</ele>
        <time>2022-06-02T09:31:44.000Z</time>
      </trkpt>
      <trkpt lat="47.31823" lon="-2.40435">
        <ele>80.599998474121</ele>
        <time>2022-06-02T09:31:50.000Z</time>
      </trkpt>
      <trkpt lat="47.31816" lon="-2.4043">
        <ele>80.199996948242</ele>
        <time>2022-06-02T09:31:51.000Z</time>
      </trkpt>
      <trkpt lat="47.31809" lon="-2.40425">
        <ele>79.599998474121</ele>
        <time>2022-06-02T09:31:52.000Z</time>
      </trkpt>
      <trkpt lat="47.31803" lon="-2.40419">
        <ele>79.199996948242</ele>
        <time>2022-06-02T09:31:53.000Z</time>
      </trkpt>
      <trkpt lat="47.31796" lon="-2.40415">
        <ele>78.800003051758</ele>
        <time>2022-06-02T09:31:54.000Z</time>
      </trkpt>
      <trkpt lat="47.31767" lon="-2.40394">
        <ele>78.800003051758</ele>
        <time>2022-06-02T09:31:58.000Z</time>
      </trkpt>
      <trkpt lat="47.31725" lon="-2.4036">
        <ele>78.800003051758</ele>
        <time>2022-06-02T09:32:04.000Z</time>
      </trkpt>
      <trkpt lat="47.31705" lon="-2.40344">
        <ele>78.400001525879</ele>
        <time>2022-06-02T09:32:07.000Z</time>
      </trkpt>
      <trkpt lat="47.31697" lon="-2.4034">
        <ele>78</ele>
        <time>2022-06-02T09:32:08.000Z</time>
      </trkpt>
      <trkpt lat="47.3169" lon="-2.40335">
        <ele>77.599998474121</ele>
        <time>2022-06-02T09:32:09.000Z</time>
      </trkpt>
      <trkpt lat="47.31685" lon="-2.40333">
        <ele>77.199996948242</ele>
        <time>2022-06-02T09:32:10.000Z</time>
      </trkpt>
      <trkpt lat="47.31679" lon="-2.4033">
        <ele>76.800003051758</ele>
        <time>2022-06-02T09:32:11.000Z</time>
      </trkpt>
      <trkpt lat="47.31671" lon="-2.40321">
        <ele>76.800003051758</ele>
        <time>2022-06-02T09:32:13.000Z</time>
      </trkpt>
      <trkpt lat="47.31647" lon="-2.40297">
        <ele>76.800003051758</ele>
        <time>2022-06-02T09:32:18.000Z</time>
      </trkpt>
      <trkpt lat="47.31617" lon="-2.40274">
        <ele>76.400001525879</ele>
        <time>2022-06-02T09:32:23.000Z</time>
      </trkpt>
      <trkpt lat="47.31611" lon="-2.40271">
        <ele>76</ele>
        <time>2022-06-02T09:32:24.000Z</time>
      </trkpt>
      <trkpt lat="47.31605" lon="-2.40266">
        <ele>75.599998474121</ele>
        <time>2022-06-02T09:32:25.000Z</time>
      </trkpt>
      <trkpt lat="47.31598" lon="-2.40262">
        <ele>75.199996948242</ele>
        <time>2022-06-02T09:32:26.000Z</time>
      </trkpt>
      <trkpt lat="47.31593" lon="-2.40258">
        <ele>74.599998474121</ele>
        <time>2022-06-02T09:32:27.000Z</time>
      </trkpt>
      <trkpt lat="47.31575" lon="-2.40244">
        <ele>74.599998474121</ele>
        <time>2022-06-02T09:32:30.000Z</time>
      </trkpt>
      <trkpt lat="47.31552" lon="-2.40225">
        <ele>74.599998474121</ele>
        <time>2022-06-02T09:32:35.000Z</time>
      </trkpt>
      <trkpt lat="47.31534" lon="-2.40209">
        <ele>74.199996948242</ele>
        <time>2022-06-02T09:32:39.000Z</time>
      </trkpt>
      <trkpt lat="47.31529" lon="-2.40206">
        <ele>73.800003051758</ele>
        <time>2022-06-02T09:32:40.000Z</time>
      </trkpt>
      <trkpt lat="47.31524" lon="-2.40201">
        <ele>73.400001525879</ele>
        <time>2022-06-02T09:32:41.000Z</time>
      </trkpt>
      <trkpt lat="47.31518" lon="-2.40197">
        <ele>73</ele>
        <time>2022-06-02T09:32:42.000Z</time>
      </trkpt>
      <trkpt lat="47.31513" lon="-2.40193">
        <ele>72.599998474121</ele>
        <time>2022-06-02T09:32:43.000Z</time>
      </trkpt>
      <trkpt lat="47.31495" lon="-2.40178">
        <ele>72.599998474121</ele>
        <time>2022-06-02T09:32:47.000Z</time>
      </trkpt>
      <trkpt lat="47.31485" lon="-2.40174">
        <ele>72.599998474121</ele>
        <time>2022-06-02T09:32:50.000Z</time>
      </trkpt>
      <trkpt lat="47.31469" lon="-2.40165">
        <ele>72.599998474121</ele>
        <time>2022-06-02T09:32:55.000Z</time>
      </trkpt>
      <trkpt lat="47.31456" lon="-2.40155">
        <ele>72.599998474121</ele>
        <time>2022-06-02T09:32:58.000Z</time>
      </trkpt>
      <trkpt lat="47.31448" lon="-2.40147">
        <ele>72.599998474121</ele>
        <time>2022-06-02T09:33:00.000Z</time>
      </trkpt>
      <trkpt lat="47.31432" lon="-2.40136">
        <ele>72.199996948242</ele>
        <time>2022-06-02T09:33:03.000Z</time>
      </trkpt>
      <trkpt lat="47.31427" lon="-2.40133">
        <ele>71.800003051758</ele>
        <time>2022-06-02T09:33:04.000Z</time>
      </trkpt>
      <trkpt lat="47.31423" lon="-2.40129">
        <ele>71.400001525879</ele>
        <time>2022-06-02T09:33:05.000Z</time>
      </trkpt>
      <trkpt lat="47.31418" lon="-2.40126">
        <ele>71</ele>
        <time>2022-06-02T09:33:06.000Z</time>
      </trkpt>
      <trkpt lat="47.31413" lon="-2.40123">
        <ele>70.599998474121</ele>
        <time>2022-06-02T09:33:07.000Z</time>
      </trkpt>
      <trkpt lat="47.31392" lon="-2.40111">
        <ele>70.599998474121</ele>
        <time>2022-06-02T09:33:11.000Z</time>
      </trkpt>
      <trkpt lat="47.31355" lon="-2.4009">
        <ele>70.599998474121</ele>
        <time>2022-06-02T09:33:18.000Z</time>
      </trkpt>
      <trkpt lat="47.31323" lon="-2.40078">
        <ele>70.599998474121</ele>
        <time>2022-06-02T09:33:24.000Z</time>
      </trkpt>
      <trkpt lat="47.31308" lon="-2.40073">
        <ele>70.199996948242</ele>
        <time>2022-06-02T09:33:27.000Z</time>
      </trkpt>
      <trkpt lat="47.31303" lon="-2.40071">
        <ele>69.800003051758</ele>
        <time>2022-06-02T09:33:28.000Z</time>
      </trkpt>
      <trkpt lat="47.31297" lon="-2.4007">
        <ele>69.400001525879</ele>
        <time>2022-06-02T09:33:29.000Z</time>
      </trkpt>
      <trkpt lat="47.31293" lon="-2.40069">
        <ele>69</ele>
        <time>2022-06-02T09:33:30.000Z</time>
      </trkpt>
      <trkpt lat="47.31288" lon="-2.40068">
        <ele>68.400001525879</ele>
        <time>2022-06-02T09:33:31.000Z</time>
      </trkpt>
      <trkpt lat="47.31283" lon="-2.40068">
        <ele>68.400001525879</ele>
        <time>2022-06-02T09:33:32.000Z</time>
      </trkpt>
      <trkpt lat="47.31277" lon="-2.40068">
        <ele>68.400001525879</ele>
        <time>2022-06-02T09:33:33.000Z</time>
      </trkpt>
      <trkpt lat="47.31266" lon="-2.40065">
        <ele>68.400001525879</ele>
        <time>2022-06-02T09:33:35.000Z</time>
      </trkpt>
      <trkpt lat="47.31259" lon="-2.40061">
        <ele>68.400001525879</ele>
        <time>2022-06-02T09:33:36.000Z</time>
      </trkpt>
      <trkpt lat="47.31249" lon="-2.40049">
        <ele>68.400001525879</ele>
        <time>2022-06-02T09:33:39.000Z</time>
      </trkpt>
      <trkpt lat="47.31238" lon="-2.40041">
        <ele>68.400001525879</ele>
        <time>2022-06-02T09:33:43.000Z</time>
      </trkpt>
      <trkpt lat="47.31235" lon="-2.40025">
        <ele>68.400001525879</ele>
        <time>2022-06-02T09:33:46.000Z</time>
      </trkpt>
      <trkpt lat="47.31229" lon="-2.40006">
        <ele>68.400001525879</ele>
        <time>2022-06-02T09:33:51.000Z</time>
      </trkpt>
      <trkpt lat="47.31224" lon="-2.39989">
        <ele>68.400001525879</ele>
        <time>2022-06-02T09:33:57.000Z</time>
      </trkpt>
      <trkpt lat="47.31219" lon="-2.39976">
        <ele>69</ele>
        <time>2022-06-02T09:34:01.000Z</time>
      </trkpt>
      <trkpt lat="47.31219" lon="-2.39973">
        <ele>69.400001525879</ele>
        <time>2022-06-02T09:34:02.000Z</time>
      </trkpt>
      <trkpt lat="47.31217" lon="-2.39969">
        <ele>69.800003051758</ele>
        <time>2022-06-02T09:34:03.000Z</time>
      </trkpt>
      <trkpt lat="47.31216" lon="-2.39966">
        <ele>70.199996948242</ele>
        <time>2022-06-02T09:34:04.000Z</time>
      </trkpt>
      <trkpt lat="47.31215" lon="-2.39962">
        <ele>70.599998474121</ele>
        <time>2022-06-02T09:34:05.000Z</time>
      </trkpt>
      <trkpt lat="47.31204" lon="-2.39934">
        <ele>70.599998474121</ele>
        <time>2022-06-02T09:34:12.000Z</time>
      </trkpt>
      <trkpt lat="47.31199" lon="-2.39923">
        <ele>70.599998474121</ele>
        <time>2022-06-02T09:34:15.000Z</time>
      </trkpt>
      <trkpt lat="47.31194" lon="-2.39912">
        <ele>71</ele>
        <time>2022-06-02T09:34:18.000Z</time>
      </trkpt>
      <trkpt lat="47.31193" lon="-2.39909">
        <ele>71.400001525879</ele>
        <time>2022-06-02T09:34:19.000Z</time>
      </trkpt>
      <trkpt lat="47.31191" lon="-2.39906">
        <ele>71.800003051758</ele>
        <time>2022-06-02T09:34:20.000Z</time>
      </trkpt>
      <trkpt lat="47.31189" lon="-2.39902">
        <ele>72.199996948242</ele>
        <time>2022-06-02T09:34:21.000Z</time>
      </trkpt>
      <trkpt lat="47.31188" lon="-2.39896">
        <ele>72.599998474121</ele>
        <time>2022-06-02T09:34:22.000Z</time>
      </trkpt>
      <trkpt lat="47.31188" lon="-2.39887">
        <ele>73.199996948242</ele>
        <time>2022-06-02T09:34:24.000Z</time>
      </trkpt>
      <trkpt lat="47.31186" lon="-2.39883">
        <ele>73.599998474121</ele>
        <time>2022-06-02T09:34:25.000Z</time>
      </trkpt>
      <trkpt lat="47.31184" lon="-2.39878">
        <ele>74</ele>
        <time>2022-06-02T09:34:26.000Z</time>
      </trkpt>
      <trkpt lat="47.31182" lon="-2.3987">
        <ele>74.400001525879</ele>
        <time>2022-06-02T09:34:27.000Z</time>
      </trkpt>
      <trkpt lat="47.31179" lon="-2.39862">
        <ele>75</ele>
        <time>2022-06-02T09:34:28.000Z</time>
      </trkpt>
      <trkpt lat="47.31177" lon="-2.39855">
        <ele>75</ele>
        <time>2022-06-02T09:34:29.000Z</time>
      </trkpt>
      <trkpt lat="47.31168" lon="-2.39829">
        <ele>75</ele>
        <time>2022-06-02T09:34:33.000Z</time>
      </trkpt>
      <trkpt lat="47.3115" lon="-2.39787">
        <ele>75</ele>
        <time>2022-06-02T09:34:39.000Z</time>
      </trkpt>
      <trkpt lat="47.3113" lon="-2.39733">
        <ele>75</ele>
        <time>2022-06-02T09:34:47.000Z</time>
      </trkpt>
      <trkpt lat="47.31116" lon="-2.39693">
        <ele>75</ele>
        <time>2022-06-02T09:34:53.000Z</time>
      </trkpt>
      <trkpt lat="47.31113" lon="-2.39687">
        <ele>75</ele>
        <time>2022-06-02T09:34:54.000Z</time>
      </trkpt>
      <trkpt lat="47.31111" lon="-2.3968">
        <ele>75</ele>
        <time>2022-06-02T09:34:55.000Z</time>
      </trkpt>
      <trkpt lat="47.31104" lon="-2.39661">
        <ele>75.400001525879</ele>
        <time>2022-06-02T09:34:58.000Z</time>
      </trkpt>
      <trkpt lat="47.31102" lon="-2.39654">
        <ele>75.800003051758</ele>
        <time>2022-06-02T09:34:59.000Z</time>
      </trkpt>
      <trkpt lat="47.311" lon="-2.39647">
        <ele>76.199996948242</ele>
        <time>2022-06-02T09:35:00.000Z</time>
      </trkpt>
      <trkpt lat="47.31097" lon="-2.39641">
        <ele>76.599998474121</ele>
        <time>2022-06-02T09:35:01.000Z</time>
      </trkpt>
      <trkpt lat="47.31095" lon="-2.39635">
        <ele>77</ele>
        <time>2022-06-02T09:35:02.000Z</time>
      </trkpt>
      <trkpt lat="47.31089" lon="-2.39615">
        <ele>77</ele>
        <time>2022-06-02T09:35:05.000Z</time>
      </trkpt>
      <trkpt lat="47.31067" lon="-2.39552">
        <ele>77</ele>
        <time>2022-06-02T09:35:14.000Z</time>
      </trkpt>
      <trkpt lat="47.31043" lon="-2.39479">
        <ele>77</ele>
        <time>2022-06-02T09:35:24.000Z</time>
      </trkpt>
      <trkpt lat="47.31043" lon="-2.39471">
        <ele>76.599998474121</ele>
        <time>2022-06-02T09:35:25.000Z</time>
      </trkpt>
      <trkpt lat="47.31044" lon="-2.39464">
        <ele>76.199996948242</ele>
        <time>2022-06-02T09:35:26.000Z</time>
      </trkpt>
      <trkpt lat="47.31047" lon="-2.39458">
        <ele>75.800003051758</ele>
        <time>2022-06-02T09:35:27.000Z</time>
      </trkpt>
      <trkpt lat="47.31051" lon="-2.39453">
        <ele>75.400001525879</ele>
        <time>2022-06-02T09:35:28.000Z</time>
      </trkpt>
      <trkpt lat="47.31055" lon="-2.39449">
        <ele>75</ele>
        <time>2022-06-02T09:35:29.000Z</time>
      </trkpt>
      <trkpt lat="47.31059" lon="-2.39444">
        <ele>75</ele>
        <time>2022-06-02T09:35:30.000Z</time>
      </trkpt>
      <trkpt lat="47.31063" lon="-2.39439">
        <ele>75</ele>
        <time>2022-06-02T09:35:31.000Z</time>
      </trkpt>
      <trkpt lat="47.31094" lon="-2.39402">
        <ele>75</ele>
        <time>2022-06-02T09:35:39.000Z</time>
      </trkpt>
      <trkpt lat="47.31122" lon="-2.39366">
        <ele>75</ele>
        <time>2022-06-02T09:35:47.000Z</time>
      </trkpt>
      <trkpt lat="47.3115" lon="-2.39336">
        <ele>75</ele>
        <time>2022-06-02T09:35:54.000Z</time>
      </trkpt>
      <trkpt lat="47.31168" lon="-2.39323">
        <ele>75</ele>
        <time>2022-06-02T09:35:58.000Z</time>
      </trkpt>
      <trkpt lat="47.31177" lon="-2.39318">
        <ele>75</ele>
        <time>2022-06-02T09:36:00.000Z</time>
      </trkpt>
      <trkpt lat="47.31204" lon="-2.393">
        <ele>75.400001525879</ele>
        <time>2022-06-02T09:36:06.000Z</time>
      </trkpt>
      <trkpt lat="47.31208" lon="-2.39296">
        <ele>75.800003051758</ele>
        <time>2022-06-02T09:36:07.000Z</time>
      </trkpt>
      <trkpt lat="47.31212" lon="-2.39292">
        <ele>76.599998474121</ele>
        <time>2022-06-02T09:36:08.000Z</time>
      </trkpt>
      <trkpt lat="47.31216" lon="-2.39289">
        <ele>77</ele>
        <time>2022-06-02T09:36:09.000Z</time>
      </trkpt>
      <trkpt lat="47.31231" lon="-2.39274">
        <ele>77</ele>
        <time>2022-06-02T09:36:13.000Z</time>
      </trkpt>
      <trkpt lat="47.31253" lon="-2.39246">
        <ele>77.400001525879</ele>
        <time>2022-06-02T09:36:19.000Z</time>
      </trkpt>
      <trkpt lat="47.31256" lon="-2.39241">
        <ele>78</ele>
        <time>2022-06-02T09:36:20.000Z</time>
      </trkpt>
      <trkpt lat="47.3126" lon="-2.39235">
        <ele>78.400001525879</ele>
        <time>2022-06-02T09:36:21.000Z</time>
      </trkpt>
      <trkpt lat="47.31264" lon="-2.39229">
        <ele>78.800003051758</ele>
        <time>2022-06-02T09:36:22.000Z</time>
      </trkpt>
      <trkpt lat="47.31268" lon="-2.39223">
        <ele>79.199996948242</ele>
        <time>2022-06-02T09:36:23.000Z</time>
      </trkpt>
      <trkpt lat="47.31288" lon="-2.39195">
        <ele>79.199996948242</ele>
        <time>2022-06-02T09:36:28.000Z</time>
      </trkpt>
      <trkpt lat="47.3132" lon="-2.39161">
        <ele>79.199996948242</ele>
        <time>2022-06-02T09:36:35.000Z</time>
      </trkpt>
      <trkpt lat="47.31351" lon="-2.39129">
        <ele>79.199996948242</ele>
        <time>2022-06-02T09:36:42.000Z</time>
      </trkpt>
      <trkpt lat="47.31376" lon="-2.39103">
        <ele>79.199996948242</ele>
        <time>2022-06-02T09:36:48.000Z</time>
      </trkpt>
      <trkpt lat="47.31403" lon="-2.39068">
        <ele>79.199996948242</ele>
        <time>2022-06-02T09:36:54.000Z</time>
      </trkpt>
      <trkpt lat="47.31424" lon="-2.39033">
        <ele>79.199996948242</ele>
        <time>2022-06-02T09:36:59.000Z</time>
      </trkpt>
      <trkpt lat="47.3143" lon="-2.39018">
        <ele>79.199996948242</ele>
        <time>2022-06-02T09:37:01.000Z</time>
      </trkpt>
      <trkpt lat="47.31449" lon="-2.38973">
        <ele>78.800003051758</ele>
        <time>2022-06-02T09:37:07.000Z</time>
      </trkpt>
      <trkpt lat="47.31452" lon="-2.38965">
        <ele>78.400001525879</ele>
        <time>2022-06-02T09:37:08.000Z</time>
      </trkpt>
      <trkpt lat="47.31456" lon="-2.38957">
        <ele>78</ele>
        <time>2022-06-02T09:37:09.000Z</time>
      </trkpt>
      <trkpt lat="47.3146" lon="-2.38949">
        <ele>77.599998474121</ele>
        <time>2022-06-02T09:37:10.000Z</time>
      </trkpt>
      <trkpt lat="47.31464" lon="-2.38941">
        <ele>77.199996948242</ele>
        <time>2022-06-02T09:37:11.000Z</time>
      </trkpt>
      <trkpt lat="47.31485" lon="-2.38901">
        <ele>77.199996948242</ele>
        <time>2022-06-02T09:37:16.000Z</time>
      </trkpt>
      <trkpt lat="47.31518" lon="-2.38837">
        <ele>77.199996948242</ele>
        <time>2022-06-02T09:37:24.000Z</time>
      </trkpt>
      <trkpt lat="47.31521" lon="-2.38829">
        <ele>77.199996948242</ele>
        <time>2022-06-02T09:37:25.000Z</time>
      </trkpt>
      <trkpt lat="47.31528" lon="-2.38814">
        <ele>76.599998474121</ele>
        <time>2022-06-02T09:37:27.000Z</time>
      </trkpt>
      <trkpt lat="47.31532" lon="-2.38806">
        <ele>76.199996948242</ele>
        <time>2022-06-02T09:37:28.000Z</time>
      </trkpt>
      <trkpt lat="47.31536" lon="-2.38799">
        <ele>75.800003051758</ele>
        <time>2022-06-02T09:37:29.000Z</time>
      </trkpt>
      <trkpt lat="47.3154" lon="-2.38791">
        <ele>75.400001525879</ele>
        <time>2022-06-02T09:37:30.000Z</time>
      </trkpt>
      <trkpt lat="47.31544" lon="-2.38783">
        <ele>75</ele>
        <time>2022-06-02T09:37:31.000Z</time>
      </trkpt>
      <trkpt lat="47.31549" lon="-2.38775">
        <ele>75</ele>
        <time>2022-06-02T09:37:32.000Z</time>
      </trkpt>
      <trkpt lat="47.31578" lon="-2.38732">
        <ele>75</ele>
        <time>2022-06-02T09:37:38.000Z</time>
      </trkpt>
      <trkpt lat="47.31614" lon="-2.38679">
        <ele>75</ele>
        <time>2022-06-02T09:37:46.000Z</time>
      </trkpt>
      <trkpt lat="47.31635" lon="-2.38647">
        <ele>75</ele>
        <time>2022-06-02T09:37:51.000Z</time>
      </trkpt>
      <trkpt lat="47.31644" lon="-2.38636">
        <ele>75</ele>
        <time>2022-06-02T09:37:53.000Z</time>
      </trkpt>
      <trkpt lat="47.31681" lon="-2.38607">
        <ele>75</ele>
        <time>2022-06-02T09:38:00.000Z</time>
      </trkpt>
      <trkpt lat="47.31719" lon="-2.38585">
        <ele>75</ele>
        <time>2022-06-02T09:38:07.000Z</time>
      </trkpt>
      <trkpt lat="47.31762" lon="-2.38559">
        <ele>75</ele>
        <time>2022-06-02T09:38:15.000Z</time>
      </trkpt>
      <trkpt lat="47.31797" lon="-2.38539">
        <ele>75</ele>
        <time>2022-06-02T09:38:22.000Z</time>
      </trkpt>
      <trkpt lat="47.31802" lon="-2.38535">
        <ele>75</ele>
        <time>2022-06-02T09:38:23.000Z</time>
      </trkpt>
      <trkpt lat="47.31811" lon="-2.38516">
        <ele>75</ele>
        <time>2022-06-02T09:38:26.000Z</time>
      </trkpt>
      <trkpt lat="47.31811" lon="-2.3848">
        <ele>75</ele>
        <time>2022-06-02T09:38:30.000Z</time>
      </trkpt>
      <trkpt lat="47.3181" lon="-2.38415">
        <ele>74.599998474121</ele>
        <time>2022-06-02T09:38:37.000Z</time>
      </trkpt>
      <trkpt lat="47.3181" lon="-2.38406">
        <ele>74.199996948242</ele>
        <time>2022-06-02T09:38:38.000Z</time>
      </trkpt>
      <trkpt lat="47.3181" lon="-2.38396">
        <ele>73.800003051758</ele>
        <time>2022-06-02T09:38:39.000Z</time>
      </trkpt>
      <trkpt lat="47.3181" lon="-2.38386">
        <ele>73.400001525879</ele>
        <time>2022-06-02T09:38:40.000Z</time>
      </trkpt>
      <trkpt lat="47.3181" lon="-2.38377">
        <ele>73</ele>
        <time>2022-06-02T09:38:41.000Z</time>
      </trkpt>
      <trkpt lat="47.31809" lon="-2.38304">
        <ele>72.400001525879</ele>
        <time>2022-06-02T09:38:48.000Z</time>
      </trkpt>
      <trkpt lat="47.31809" lon="-2.38293">
        <ele>72</ele>
        <time>2022-06-02T09:38:49.000Z</time>
      </trkpt>
      <trkpt lat="47.31809" lon="-2.38281">
        <ele>71.599998474121</ele>
        <time>2022-06-02T09:38:50.000Z</time>
      </trkpt>
      <trkpt lat="47.31808" lon="-2.3827">
        <ele>71.199996948242</ele>
        <time>2022-06-02T09:38:51.000Z</time>
      </trkpt>
      <trkpt lat="47.31808" lon="-2.38258">
        <ele>70.800003051758</ele>
        <time>2022-06-02T09:38:52.000Z</time>
      </trkpt>
      <trkpt lat="47.31806" lon="-2.3821">
        <ele>70.199996948242</ele>
        <time>2022-06-02T09:38:56.000Z</time>
      </trkpt>
      <trkpt lat="47.31806" lon="-2.38198">
        <ele>69.800003051758</ele>
        <time>2022-06-02T09:38:57.000Z</time>
      </trkpt>
      <trkpt lat="47.31805" lon="-2.38186">
        <ele>69.400001525879</ele>
        <time>2022-06-02T09:38:58.000Z</time>
      </trkpt>
      <trkpt lat="47.31805" lon="-2.38174">
        <ele>69</ele>
        <time>2022-06-02T09:38:59.000Z</time>
      </trkpt>
      <trkpt lat="47.31804" lon="-2.38162">
        <ele>68.599998474121</ele>
        <time>2022-06-02T09:39:00.000Z</time>
      </trkpt>
      <trkpt lat="47.31801" lon="-2.38117">
        <ele>68.599998474121</ele>
        <time>2022-06-02T09:39:04.000Z</time>
      </trkpt>
      <trkpt lat="47.31801" lon="-2.38106">
        <ele>68.199996948242</ele>
        <time>2022-06-02T09:39:05.000Z</time>
      </trkpt>
      <trkpt lat="47.31801" lon="-2.38096">
        <ele>67.800003051758</ele>
        <time>2022-06-02T09:39:06.000Z</time>
      </trkpt>
      <trkpt lat="47.318" lon="-2.38084">
        <ele>67.400001525879</ele>
        <time>2022-06-02T09:39:07.000Z</time>
      </trkpt>
      <trkpt lat="47.31799" lon="-2.38073">
        <ele>67</ele>
        <time>2022-06-02T09:39:08.000Z</time>
      </trkpt>
      <trkpt lat="47.31799" lon="-2.38062">
        <ele>66.599998474121</ele>
        <time>2022-06-02T09:39:09.000Z</time>
      </trkpt>
      <trkpt lat="47.31797" lon="-2.38031">
        <ele>66.599998474121</ele>
        <time>2022-06-02T09:39:12.000Z</time>
      </trkpt>
      <trkpt lat="47.31795" lon="-2.37964">
        <ele>66.599998474121</ele>
        <time>2022-06-02T09:39:19.000Z</time>
      </trkpt>
      <trkpt lat="47.31798" lon="-2.37905">
        <ele>66.599998474121</ele>
        <time>2022-06-02T09:39:26.000Z</time>
      </trkpt>
      <trkpt lat="47.31802" lon="-2.37863">
        <ele>67</ele>
        <time>2022-06-02T09:39:31.000Z</time>
      </trkpt>
      <trkpt lat="47.31803" lon="-2.37856">
        <ele>67.400001525879</ele>
        <time>2022-06-02T09:39:32.000Z</time>
      </trkpt>
      <trkpt lat="47.31804" lon="-2.37848">
        <ele>67.800003051758</ele>
        <time>2022-06-02T09:39:33.000Z</time>
      </trkpt>
      <trkpt lat="47.31805" lon="-2.3784">
        <ele>68.199996948242</ele>
        <time>2022-06-02T09:39:34.000Z</time>
      </trkpt>
      <trkpt lat="47.31806" lon="-2.37832">
        <ele>68.599998474121</ele>
        <time>2022-06-02T09:39:35.000Z</time>
      </trkpt>
      <trkpt lat="47.31812" lon="-2.37777">
        <ele>68.599998474121</ele>
        <time>2022-06-02T09:39:42.000Z</time>
      </trkpt>
      <trkpt lat="47.31814" lon="-2.37755">
        <ele>69</ele>
        <time>2022-06-02T09:39:45.000Z</time>
      </trkpt>
      <trkpt lat="47.31814" lon="-2.37747">
        <ele>69.400001525879</ele>
        <time>2022-06-02T09:39:46.000Z</time>
      </trkpt>
      <trkpt lat="47.31814" lon="-2.3774">
        <ele>69.800003051758</ele>
        <time>2022-06-02T09:39:47.000Z</time>
      </trkpt>
      <trkpt lat="47.31815" lon="-2.37733">
        <ele>70.199996948242</ele>
        <time>2022-06-02T09:39:48.000Z</time>
      </trkpt>
      <trkpt lat="47.31815" lon="-2.37725">
        <ele>70.599998474121</ele>
        <time>2022-06-02T09:39:49.000Z</time>
      </trkpt>
      <trkpt lat="47.31822" lon="-2.37675">
        <ele>70.599998474121</ele>
        <time>2022-06-02T09:39:56.000Z</time>
      </trkpt>
      <trkpt lat="47.31823" lon="-2.37669">
        <ele>70.599998474121</ele>
        <time>2022-06-02T09:39:57.000Z</time>
      </trkpt>
      <trkpt lat="47.31819" lon="-2.37653">
        <ele>70.599998474121</ele>
        <time>2022-06-02T09:40:00.000Z</time>
      </trkpt>
      <trkpt lat="47.31805" lon="-2.37654">
        <ele>70.599998474121</ele>
        <time>2022-06-02T09:40:03.000Z</time>
      </trkpt>
      <trkpt lat="47.318" lon="-2.37657">
        <ele>70.599998474121</ele>
        <time>2022-06-02T09:40:04.000Z</time>
      </trkpt>
      <trkpt lat="47.31785" lon="-2.37669">
        <ele>70.599998474121</ele>
        <time>2022-06-02T09:40:07.000Z</time>
      </trkpt>
      <trkpt lat="47.3178" lon="-2.37674">
        <ele>70.599998474121</ele>
        <time>2022-06-02T09:40:08.000Z</time>
      </trkpt>
      <trkpt lat="47.31761" lon="-2.37692">
        <ele>70.599998474121</ele>
        <time>2022-06-02T09:40:12.000Z</time>
      </trkpt>
      <trkpt lat="47.3175" lon="-2.377">
        <ele>70.599998474121</ele>
        <time>2022-06-02T09:40:14.000Z</time>
      </trkpt>
      <trkpt lat="47.31727" lon="-2.37713">
        <ele>70.599998474121</ele>
        <time>2022-06-02T09:40:18.000Z</time>
      </trkpt>
      <trkpt lat="47.31715" lon="-2.37715">
        <ele>70.599998474121</ele>
        <time>2022-06-02T09:40:20.000Z</time>
      </trkpt>
      <trkpt lat="47.31691" lon="-2.3771">
        <ele>70.599998474121</ele>
        <time>2022-06-02T09:40:24.000Z</time>
      </trkpt>
      <trkpt lat="47.3168" lon="-2.37702">
        <ele>70.599998474121</ele>
        <time>2022-06-02T09:40:26.000Z</time>
      </trkpt>
      <trkpt lat="47.3167" lon="-2.37692">
        <ele>70.599998474121</ele>
        <time>2022-06-02T09:40:28.000Z</time>
      </trkpt>
      <trkpt lat="47.31666" lon="-2.37687">
        <ele>70.599998474121</ele>
        <time>2022-06-02T09:40:29.000Z</time>
      </trkpt>
      <trkpt lat="47.31652" lon="-2.3767">
        <ele>70.599998474121</ele>
        <time>2022-06-02T09:40:32.000Z</time>
      </trkpt>
      <trkpt lat="47.31637" lon="-2.37659">
        <ele>70.599998474121</ele>
        <time>2022-06-02T09:40:35.000Z</time>
      </trkpt>
      <trkpt lat="47.31632" lon="-2.37656">
        <ele>70.599998474121</ele>
        <time>2022-06-02T09:40:36.000Z</time>
      </trkpt>
      <trkpt lat="47.31621" lon="-2.37649">
        <ele>70.599998474121</ele>
        <time>2022-06-02T09:40:38.000Z</time>
      </trkpt>
      <trkpt lat="47.31614" lon="-2.37637">
        <ele>70.599998474121</ele>
        <time>2022-06-02T09:40:40.000Z</time>
      </trkpt>
      <trkpt lat="47.3161" lon="-2.37604">
        <ele>70.599998474121</ele>
        <time>2022-06-02T09:40:44.000Z</time>
      </trkpt>
      <trkpt lat="47.3161" lon="-2.37595">
        <ele>70.599998474121</ele>
        <time>2022-06-02T09:40:45.000Z</time>
      </trkpt>
      <trkpt lat="47.31615" lon="-2.37554">
        <ele>70.599998474121</ele>
        <time>2022-06-02T09:40:50.000Z</time>
      </trkpt>
      <trkpt lat="47.31617" lon="-2.37546">
        <ele>70.599998474121</ele>
        <time>2022-06-02T09:40:51.000Z</time>
      </trkpt>
      <trkpt lat="47.31627" lon="-2.37517">
        <ele>70.599998474121</ele>
        <time>2022-06-02T09:40:55.000Z</time>
      </trkpt>
      <trkpt lat="47.3163" lon="-2.3751">
        <ele>70.599998474121</ele>
        <time>2022-06-02T09:40:56.000Z</time>
      </trkpt>
      <trkpt lat="47.31634" lon="-2.37485">
        <ele>70.599998474121</ele>
        <time>2022-06-02T09:40:59.000Z</time>
      </trkpt>
      <trkpt lat="47.31635" lon="-2.37468">
        <ele>71</ele>
        <time>2022-06-02T09:41:01.000Z</time>
      </trkpt>
      <trkpt lat="47.31635" lon="-2.3746">
        <ele>71.400001525879</ele>
        <time>2022-06-02T09:41:02.000Z</time>
      </trkpt>
      <trkpt lat="47.31634" lon="-2.37452">
        <ele>71.800003051758</ele>
        <time>2022-06-02T09:41:03.000Z</time>
      </trkpt>
      <trkpt lat="47.31634" lon="-2.37444">
        <ele>72.199996948242</ele>
        <time>2022-06-02T09:41:04.000Z</time>
      </trkpt>
      <trkpt lat="47.31633" lon="-2.37435">
        <ele>72.599998474121</ele>
        <time>2022-06-02T09:41:05.000Z</time>
      </trkpt>
      <trkpt lat="47.3163" lon="-2.37385">
        <ele>72.599998474121</ele>
        <time>2022-06-02T09:41:11.000Z</time>
      </trkpt>
      <trkpt lat="47.31628" lon="-2.37377">
        <ele>72.599998474121</ele>
        <time>2022-06-02T09:41:12.000Z</time>
      </trkpt>
      <trkpt lat="47.31619" lon="-2.37329">
        <ele>72.599998474121</ele>
        <time>2022-06-02T09:41:18.000Z</time>
      </trkpt>
      <trkpt lat="47.31618" lon="-2.37321">
        <ele>72.599998474121</ele>
        <time>2022-06-02T09:41:19.000Z</time>
      </trkpt>
      <trkpt lat="47.31617" lon="-2.37313">
        <ele>72.599998474121</ele>
        <time>2022-06-02T09:41:20.000Z</time>
      </trkpt>
      <trkpt lat="47.31621" lon="-2.37289">
        <ele>72.599998474121</ele>
        <time>2022-06-02T09:41:23.000Z</time>
      </trkpt>
      <trkpt lat="47.31638" lon="-2.37268">
        <ele>72.599998474121</ele>
        <time>2022-06-02T09:41:27.000Z</time>
      </trkpt>
      <trkpt lat="47.31668" lon="-2.37244">
        <ele>72.599998474121</ele>
        <time>2022-06-02T09:41:33.000Z</time>
      </trkpt>
      <trkpt lat="47.31681" lon="-2.37228">
        <ele>72.599998474121</ele>
        <time>2022-06-02T09:41:36.000Z</time>
      </trkpt>
      <trkpt lat="47.31688" lon="-2.37214">
        <ele>72.599998474121</ele>
        <time>2022-06-02T09:41:38.000Z</time>
      </trkpt>
      <trkpt lat="47.3169" lon="-2.37188">
        <ele>72.599998474121</ele>
        <time>2022-06-02T09:41:41.000Z</time>
      </trkpt>
      <trkpt lat="47.31679" lon="-2.37156">
        <ele>72.599998474121</ele>
        <time>2022-06-02T09:41:45.000Z</time>
      </trkpt>
      <trkpt lat="47.31655" lon="-2.37108">
        <ele>72.599998474121</ele>
        <time>2022-06-02T09:41:52.000Z</time>
      </trkpt>
      <trkpt lat="47.31624" lon="-2.37047">
        <ele>72.599998474121</ele>
        <time>2022-06-02T09:42:00.000Z</time>
      </trkpt>
      <trkpt lat="47.31605" lon="-2.36992">
        <ele>72.599998474121</ele>
        <time>2022-06-02T09:42:06.000Z</time>
      </trkpt>
      <trkpt lat="47.31581" lon="-2.36912">
        <ele>72.599998474121</ele>
        <time>2022-06-02T09:42:14.000Z</time>
      </trkpt>
      <trkpt lat="47.31578" lon="-2.36902">
        <ele>72.599998474121</ele>
        <time>2022-06-02T09:42:15.000Z</time>
      </trkpt>
      <trkpt lat="47.31575" lon="-2.36892">
        <ele>72.199996948242</ele>
        <time>2022-06-02T09:42:16.000Z</time>
      </trkpt>
      <trkpt lat="47.31573" lon="-2.36881">
        <ele>71.800003051758</ele>
        <time>2022-06-02T09:42:17.000Z</time>
      </trkpt>
      <trkpt lat="47.3157" lon="-2.36871">
        <ele>71.400001525879</ele>
        <time>2022-06-02T09:42:18.000Z</time>
      </trkpt>
      <trkpt lat="47.31567" lon="-2.3686">
        <ele>70.599998474121</ele>
        <time>2022-06-02T09:42:19.000Z</time>
      </trkpt>
      <trkpt lat="47.31561" lon="-2.36839">
        <ele>70</ele>
        <time>2022-06-02T09:42:21.000Z</time>
      </trkpt>
      <trkpt lat="47.31557" lon="-2.36828">
        <ele>69.599998474121</ele>
        <time>2022-06-02T09:42:22.000Z</time>
      </trkpt>
      <trkpt lat="47.31554" lon="-2.36818">
        <ele>69.199996948242</ele>
        <time>2022-06-02T09:42:23.000Z</time>
      </trkpt>
      <trkpt lat="47.31551" lon="-2.36807">
        <ele>68.800003051758</ele>
        <time>2022-06-02T09:42:24.000Z</time>
      </trkpt>
      <trkpt lat="47.31548" lon="-2.36796">
        <ele>68.199996948242</ele>
        <time>2022-06-02T09:42:25.000Z</time>
      </trkpt>
      <trkpt lat="47.31543" lon="-2.36775">
        <ele>67.800003051758</ele>
        <time>2022-06-02T09:42:27.000Z</time>
      </trkpt>
      <trkpt lat="47.3154" lon="-2.36764">
        <ele>67.400001525879</ele>
        <time>2022-06-02T09:42:28.000Z</time>
      </trkpt>
      <trkpt lat="47.31538" lon="-2.36753">
        <ele>66.800003051758</ele>
        <time>2022-06-02T09:42:29.000Z</time>
      </trkpt>
      <trkpt lat="47.31535" lon="-2.36741">
        <ele>66.400001525879</ele>
        <time>2022-06-02T09:42:30.000Z</time>
      </trkpt>
      <trkpt lat="47.31532" lon="-2.36731">
        <ele>66</ele>
        <time>2022-06-02T09:42:31.000Z</time>
      </trkpt>
      <trkpt lat="47.31524" lon="-2.36698">
        <ele>65.599998474121</ele>
        <time>2022-06-02T09:42:34.000Z</time>
      </trkpt>
      <trkpt lat="47.31522" lon="-2.36687">
        <ele>65.199996948242</ele>
        <time>2022-06-02T09:42:35.000Z</time>
      </trkpt>
      <trkpt lat="47.31519" lon="-2.36677">
        <ele>64.800003051758</ele>
        <time>2022-06-02T09:42:36.000Z</time>
      </trkpt>
      <trkpt lat="47.31515" lon="-2.36666">
        <ele>64.199996948242</ele>
        <time>2022-06-02T09:42:37.000Z</time>
      </trkpt>
      <trkpt lat="47.31512" lon="-2.36655">
        <ele>63.799999237061</ele>
        <time>2022-06-02T09:42:38.000Z</time>
      </trkpt>
      <trkpt lat="47.31504" lon="-2.36624">
        <ele>63.799999237061</ele>
        <time>2022-06-02T09:42:41.000Z</time>
      </trkpt>
      <trkpt lat="47.31498" lon="-2.36596">
        <ele>63.400001525879</ele>
        <time>2022-06-02T09:42:44.000Z</time>
      </trkpt>
      <trkpt lat="47.31497" lon="-2.36587">
        <ele>63</ele>
        <time>2022-06-02T09:42:45.000Z</time>
      </trkpt>
      <trkpt lat="47.31497" lon="-2.36579">
        <ele>62.599998474121</ele>
        <time>2022-06-02T09:42:46.000Z</time>
      </trkpt>
      <trkpt lat="47.31499" lon="-2.36571">
        <ele>62.200000762939</ele>
        <time>2022-06-02T09:42:47.000Z</time>
      </trkpt>
      <trkpt lat="47.31499" lon="-2.36563">
        <ele>61.799999237061</ele>
        <time>2022-06-02T09:42:48.000Z</time>
      </trkpt>
      <trkpt lat="47.31499" lon="-2.36549">
        <ele>61.799999237061</ele>
        <time>2022-06-02T09:42:50.000Z</time>
      </trkpt>
      <trkpt lat="47.31499" lon="-2.36542">
        <ele>61.799999237061</ele>
        <time>2022-06-02T09:42:51.000Z</time>
      </trkpt>
      <trkpt lat="47.31498" lon="-2.36513">
        <ele>61.799999237061</ele>
        <time>2022-06-02T09:42:55.000Z</time>
      </trkpt>
      <trkpt lat="47.31497" lon="-2.36506">
        <ele>61.799999237061</ele>
        <time>2022-06-02T09:42:56.000Z</time>
      </trkpt>
      <trkpt lat="47.31496" lon="-2.36476">
        <ele>61.799999237061</ele>
        <time>2022-06-02T09:43:00.000Z</time>
      </trkpt>
      <trkpt lat="47.31491" lon="-2.36427">
        <ele>61.799999237061</ele>
        <time>2022-06-02T09:43:06.000Z</time>
      </trkpt>
      <trkpt lat="47.3149" lon="-2.36411">
        <ele>62.200000762939</ele>
        <time>2022-06-02T09:43:08.000Z</time>
      </trkpt>
      <trkpt lat="47.31489" lon="-2.36404">
        <ele>63.200000762939</ele>
        <time>2022-06-02T09:43:09.000Z</time>
      </trkpt>
      <trkpt lat="47.31488" lon="-2.36397">
        <ele>63.599998474121</ele>
        <time>2022-06-02T09:43:10.000Z</time>
      </trkpt>
      <trkpt lat="47.31488" lon="-2.3639">
        <ele>64</ele>
        <time>2022-06-02T09:43:11.000Z</time>
      </trkpt>
      <trkpt lat="47.31488" lon="-2.36377">
        <ele>64</ele>
        <time>2022-06-02T09:43:13.000Z</time>
      </trkpt>
      <trkpt lat="47.31487" lon="-2.36364">
        <ele>64.400001525879</ele>
        <time>2022-06-02T09:43:15.000Z</time>
      </trkpt>
      <trkpt lat="47.31487" lon="-2.36357">
        <ele>64.800003051758</ele>
        <time>2022-06-02T09:43:16.000Z</time>
      </trkpt>
      <trkpt lat="47.31488" lon="-2.36349">
        <ele>65.400001525879</ele>
        <time>2022-06-02T09:43:17.000Z</time>
      </trkpt>
      <trkpt lat="47.31488" lon="-2.36342">
        <ele>65.800003051758</ele>
        <time>2022-06-02T09:43:18.000Z</time>
      </trkpt>
      <trkpt lat="47.31488" lon="-2.36335">
        <ele>66.199996948242</ele>
        <time>2022-06-02T09:43:19.000Z</time>
      </trkpt>
      <trkpt lat="47.31483" lon="-2.36302">
        <ele>66.199996948242</ele>
        <time>2022-06-02T09:43:24.000Z</time>
      </trkpt>
      <trkpt lat="47.31478" lon="-2.36276">
        <ele>66.199996948242</ele>
        <time>2022-06-02T09:43:28.000Z</time>
      </trkpt>
      <trkpt lat="47.31475" lon="-2.36264">
        <ele>66.599998474121</ele>
        <time>2022-06-02T09:43:30.000Z</time>
      </trkpt>
      <trkpt lat="47.31474" lon="-2.36258">
        <ele>67</ele>
        <time>2022-06-02T09:43:31.000Z</time>
      </trkpt>
      <trkpt lat="47.31472" lon="-2.36251">
        <ele>67.400001525879</ele>
        <time>2022-06-02T09:43:32.000Z</time>
      </trkpt>
      <trkpt lat="47.31471" lon="-2.36245">
        <ele>68.199996948242</ele>
        <time>2022-06-02T09:43:33.000Z</time>
      </trkpt>
      <trkpt lat="47.3147" lon="-2.36239">
        <ele>68.199996948242</ele>
        <time>2022-06-02T09:43:34.000Z</time>
      </trkpt>
      <trkpt lat="47.31467" lon="-2.36226">
        <ele>68.199996948242</ele>
        <time>2022-06-02T09:43:36.000Z</time>
      </trkpt>
      <trkpt lat="47.3146" lon="-2.3619">
        <ele>68.599998474121</ele>
        <time>2022-06-02T09:43:42.000Z</time>
      </trkpt>
      <trkpt lat="47.31459" lon="-2.36184">
        <ele>69</ele>
        <time>2022-06-02T09:43:43.000Z</time>
      </trkpt>
      <trkpt lat="47.31458" lon="-2.36178">
        <ele>69.400001525879</ele>
        <time>2022-06-02T09:43:44.000Z</time>
      </trkpt>
      <trkpt lat="47.31457" lon="-2.36173">
        <ele>69.800003051758</ele>
        <time>2022-06-02T09:43:45.000Z</time>
      </trkpt>
      <trkpt lat="47.31456" lon="-2.36168">
        <ele>70.199996948242</ele>
        <time>2022-06-02T09:43:46.000Z</time>
      </trkpt>
      <trkpt lat="47.31453" lon="-2.36156">
        <ele>70.199996948242</ele>
        <time>2022-06-02T09:43:49.000Z</time>
      </trkpt>
      <trkpt lat="47.31453" lon="-2.36152">
        <ele>70.199996948242</ele>
        <time>2022-06-02T09:43:51.000Z</time>
      </trkpt>
      <trkpt lat="47.31453" lon="-2.36149">
        <ele>70.199996948242</ele>
        <time>2022-06-02T09:44:01.000Z</time>
      </trkpt>
      <trkpt lat="47.31448" lon="-2.36131">
        <ele>70.199996948242</ele>
        <time>2022-06-02T09:44:06.000Z</time>
      </trkpt>
      <trkpt lat="47.31442" lon="-2.36108">
        <ele>70.199996948242</ele>
        <time>2022-06-02T09:44:10.000Z</time>
      </trkpt>
      <trkpt lat="47.31439" lon="-2.36103">
        <ele>70.199996948242</ele>
        <time>2022-06-02T09:44:11.000Z</time>
      </trkpt>
      <trkpt lat="47.31426" lon="-2.3606">
        <ele>70.199996948242</ele>
        <time>2022-06-02T09:44:17.000Z</time>
      </trkpt>
      <trkpt lat="47.31414" lon="-2.36019">
        <ele>69.800003051758</ele>
        <time>2022-06-02T09:44:22.000Z</time>
      </trkpt>
      <trkpt lat="47.31411" lon="-2.36011">
        <ele>69</ele>
        <time>2022-06-02T09:44:23.000Z</time>
      </trkpt>
      <trkpt lat="47.31407" lon="-2.36002">
        <ele>68.599998474121</ele>
        <time>2022-06-02T09:44:24.000Z</time>
      </trkpt>
      <trkpt lat="47.31405" lon="-2.35993">
        <ele>68.199996948242</ele>
        <time>2022-06-02T09:44:25.000Z</time>
      </trkpt>
      <trkpt lat="47.31402" lon="-2.35984">
        <ele>68.199996948242</ele>
        <time>2022-06-02T09:44:26.000Z</time>
      </trkpt>
      <trkpt lat="47.31396" lon="-2.35965">
        <ele>67.800003051758</ele>
        <time>2022-06-02T09:44:28.000Z</time>
      </trkpt>
      <trkpt lat="47.31393" lon="-2.35956">
        <ele>67.400001525879</ele>
        <time>2022-06-02T09:44:29.000Z</time>
      </trkpt>
      <trkpt lat="47.31389" lon="-2.35948">
        <ele>67</ele>
        <time>2022-06-02T09:44:30.000Z</time>
      </trkpt>
      <trkpt lat="47.31384" lon="-2.3594">
        <ele>66.599998474121</ele>
        <time>2022-06-02T09:44:31.000Z</time>
      </trkpt>
      <trkpt lat="47.31379" lon="-2.35932">
        <ele>66.199996948242</ele>
        <time>2022-06-02T09:44:32.000Z</time>
      </trkpt>
      <trkpt lat="47.31374" lon="-2.35924">
        <ele>66.199996948242</ele>
        <time>2022-06-02T09:44:33.000Z</time>
      </trkpt>
      <trkpt lat="47.31354" lon="-2.35887">
        <ele>66.199996948242</ele>
        <time>2022-06-02T09:44:38.000Z</time>
      </trkpt>
      <trkpt lat="47.31341" lon="-2.35854">
        <ele>66.199996948242</ele>
        <time>2022-06-02T09:44:43.000Z</time>
      </trkpt>
      <trkpt lat="47.31337" lon="-2.35812">
        <ele>66.199996948242</ele>
        <time>2022-06-02T09:44:48.000Z</time>
      </trkpt>
      <trkpt lat="47.31332" lon="-2.35772">
        <ele>66.599998474121</ele>
        <time>2022-06-02T09:44:53.000Z</time>
      </trkpt>
      <trkpt lat="47.31331" lon="-2.35764">
        <ele>67</ele>
        <time>2022-06-02T09:44:54.000Z</time>
      </trkpt>
      <trkpt lat="47.3133" lon="-2.35756">
        <ele>67.400001525879</ele>
        <time>2022-06-02T09:44:55.000Z</time>
      </trkpt>
      <trkpt lat="47.3133" lon="-2.35748">
        <ele>67.800003051758</ele>
        <time>2022-06-02T09:44:56.000Z</time>
      </trkpt>
      <trkpt lat="47.3133" lon="-2.35741">
        <ele>68.199996948242</ele>
        <time>2022-06-02T09:44:57.000Z</time>
      </trkpt>
      <trkpt lat="47.31331" lon="-2.35724">
        <ele>68.199996948242</ele>
        <time>2022-06-02T09:44:59.000Z</time>
      </trkpt>
      <trkpt lat="47.31331" lon="-2.35707">
        <ele>68.199996948242</ele>
        <time>2022-06-02T09:45:01.000Z</time>
      </trkpt>
      <trkpt lat="47.3133" lon="-2.35648">
        <ele>68.199996948242</ele>
        <time>2022-06-02T09:45:08.000Z</time>
      </trkpt>
      <trkpt lat="47.31328" lon="-2.35593">
        <ele>68.199996948242</ele>
        <time>2022-06-02T09:45:14.000Z</time>
      </trkpt>
      <trkpt lat="47.31327" lon="-2.35564">
        <ele>68.199996948242</ele>
        <time>2022-06-02T09:45:17.000Z</time>
      </trkpt>
      <trkpt lat="47.31329" lon="-2.35536">
        <ele>68.199996948242</ele>
        <time>2022-06-02T09:45:20.000Z</time>
      </trkpt>
      <trkpt lat="47.3133" lon="-2.35457">
        <ele>68.199996948242</ele>
        <time>2022-06-02T09:45:28.000Z</time>
      </trkpt>
      <trkpt lat="47.31329" lon="-2.35438">
        <ele>67.800003051758</ele>
        <time>2022-06-02T09:45:30.000Z</time>
      </trkpt>
      <trkpt lat="47.31328" lon="-2.35428">
        <ele>67.400001525879</ele>
        <time>2022-06-02T09:45:31.000Z</time>
      </trkpt>
      <trkpt lat="47.31328" lon="-2.35419">
        <ele>67</ele>
        <time>2022-06-02T09:45:32.000Z</time>
      </trkpt>
      <trkpt lat="47.31327" lon="-2.3541">
        <ele>66.599998474121</ele>
        <time>2022-06-02T09:45:33.000Z</time>
      </trkpt>
      <trkpt lat="47.31327" lon="-2.35401">
        <ele>66.199996948242</ele>
        <time>2022-06-02T09:45:34.000Z</time>
      </trkpt>
      <trkpt lat="47.31328" lon="-2.35341">
        <ele>66.199996948242</ele>
        <time>2022-06-02T09:45:40.000Z</time>
      </trkpt>
      <trkpt lat="47.31332" lon="-2.35259">
        <ele>66.199996948242</ele>
        <time>2022-06-02T09:45:48.000Z</time>
      </trkpt>
      <trkpt lat="47.31334" lon="-2.35198">
        <ele>66.199996948242</ele>
        <time>2022-06-02T09:45:54.000Z</time>
      </trkpt>
      <trkpt lat="47.31341" lon="-2.35124">
        <ele>66.199996948242</ele>
        <time>2022-06-02T09:46:01.000Z</time>
      </trkpt>
      <trkpt lat="47.31341" lon="-2.35061">
        <ele>66.199996948242</ele>
        <time>2022-06-02T09:46:07.000Z</time>
      </trkpt>
      <trkpt lat="47.31336" lon="-2.34983">
        <ele>66.199996948242</ele>
        <time>2022-06-02T09:46:15.000Z</time>
      </trkpt>
      <trkpt lat="47.31323" lon="-2.34923">
        <ele>66.199996948242</ele>
        <time>2022-06-02T09:46:22.000Z</time>
      </trkpt>
      <trkpt lat="47.31306" lon="-2.34873">
        <ele>66.199996948242</ele>
        <time>2022-06-02T09:46:29.000Z</time>
      </trkpt>
      <trkpt lat="47.31296" lon="-2.34822">
        <ele>66.199996948242</ele>
        <time>2022-06-02T09:46:36.000Z</time>
      </trkpt>
      <trkpt lat="47.31285" lon="-2.34771">
        <ele>66.199996948242</ele>
        <time>2022-06-02T09:46:44.000Z</time>
      </trkpt>
      <trkpt lat="47.31277" lon="-2.34723">
        <ele>66.199996948242</ele>
        <time>2022-06-02T09:46:52.000Z</time>
      </trkpt>
      <trkpt lat="47.31276" lon="-2.34702">
        <ele>66.199996948242</ele>
        <time>2022-06-02T09:46:57.000Z</time>
      </trkpt>
      <trkpt lat="47.31276" lon="-2.34691">
        <ele>66.199996948242</ele>
        <time>2022-06-02T09:47:00.000Z</time>
      </trkpt>
      <trkpt lat="47.31279" lon="-2.34681">
        <ele>66.199996948242</ele>
        <time>2022-06-02T09:47:02.000Z</time>
      </trkpt>
      <trkpt lat="47.31282" lon="-2.34669">
        <ele>66.199996948242</ele>
        <time>2022-06-02T09:47:04.000Z</time>
      </trkpt>
      <trkpt lat="47.31286" lon="-2.34647">
        <ele>66.199996948242</ele>
        <time>2022-06-02T09:47:07.000Z</time>
      </trkpt>
      <trkpt lat="47.31286" lon="-2.34609">
        <ele>65.599998474121</ele>
        <time>2022-06-02T09:47:11.000Z</time>
      </trkpt>
      <trkpt lat="47.31285" lon="-2.34598">
        <ele>65.199996948242</ele>
        <time>2022-06-02T09:47:12.000Z</time>
      </trkpt>
      <trkpt lat="47.31284" lon="-2.34588">
        <ele>64.599998474121</ele>
        <time>2022-06-02T09:47:13.000Z</time>
      </trkpt>
      <trkpt lat="47.31283" lon="-2.34577">
        <ele>64.199996948242</ele>
        <time>2022-06-02T09:47:14.000Z</time>
      </trkpt>
      <trkpt lat="47.31282" lon="-2.34566">
        <ele>63.799999237061</ele>
        <time>2022-06-02T09:47:15.000Z</time>
      </trkpt>
      <trkpt lat="47.31277" lon="-2.3451">
        <ele>63.200000762939</ele>
        <time>2022-06-02T09:47:20.000Z</time>
      </trkpt>
      <trkpt lat="47.31276" lon="-2.345">
        <ele>62.799999237061</ele>
        <time>2022-06-02T09:47:21.000Z</time>
      </trkpt>
      <trkpt lat="47.31275" lon="-2.34489">
        <ele>62.400001525879</ele>
        <time>2022-06-02T09:47:22.000Z</time>
      </trkpt>
      <trkpt lat="47.31273" lon="-2.34478">
        <ele>62</ele>
        <time>2022-06-02T09:47:23.000Z</time>
      </trkpt>
      <trkpt lat="47.31272" lon="-2.34467">
        <ele>61.599998474121</ele>
        <time>2022-06-02T09:47:24.000Z</time>
      </trkpt>
      <trkpt lat="47.31268" lon="-2.34432">
        <ele>61.599998474121</ele>
        <time>2022-06-02T09:47:27.000Z</time>
      </trkpt>
      <trkpt lat="47.31267" lon="-2.3442">
        <ele>61.200000762939</ele>
        <time>2022-06-02T09:47:28.000Z</time>
      </trkpt>
      <trkpt lat="47.31266" lon="-2.34408">
        <ele>60.599998474121</ele>
        <time>2022-06-02T09:47:29.000Z</time>
      </trkpt>
      <trkpt lat="47.31265" lon="-2.34396">
        <ele>60.200000762939</ele>
        <time>2022-06-02T09:47:30.000Z</time>
      </trkpt>
      <trkpt lat="47.31263" lon="-2.34385">
        <ele>59.799999237061</ele>
        <time>2022-06-02T09:47:31.000Z</time>
      </trkpt>
      <trkpt lat="47.3126" lon="-2.34373">
        <ele>59.400001525879</ele>
        <time>2022-06-02T09:47:32.000Z</time>
      </trkpt>
      <trkpt lat="47.31255" lon="-2.34363">
        <ele>59.400001525879</ele>
        <time>2022-06-02T09:47:33.000Z</time>
      </trkpt>
      <trkpt lat="47.3124" lon="-2.34341">
        <ele>59</ele>
        <time>2022-06-02T09:47:36.000Z</time>
      </trkpt>
      <trkpt lat="47.31236" lon="-2.34335">
        <ele>58.400001525879</ele>
        <time>2022-06-02T09:47:37.000Z</time>
      </trkpt>
      <trkpt lat="47.31231" lon="-2.3433">
        <ele>58</ele>
        <time>2022-06-02T09:47:38.000Z</time>
      </trkpt>
      <trkpt lat="47.31226" lon="-2.34325">
        <ele>57.599998474121</ele>
        <time>2022-06-02T09:47:39.000Z</time>
      </trkpt>
      <trkpt lat="47.31218" lon="-2.34321">
        <ele>57</ele>
        <time>2022-06-02T09:47:40.000Z</time>
      </trkpt>
      <trkpt lat="47.3121" lon="-2.34316">
        <ele>57</ele>
        <time>2022-06-02T09:47:41.000Z</time>
      </trkpt>
      <trkpt lat="47.31203" lon="-2.34309">
        <ele>57</ele>
        <time>2022-06-02T09:47:42.000Z</time>
      </trkpt>
      <trkpt lat="47.31175" lon="-2.34265">
        <ele>57</ele>
        <time>2022-06-02T09:47:47.000Z</time>
      </trkpt>
      <trkpt lat="47.31147" lon="-2.34219">
        <ele>57</ele>
        <time>2022-06-02T09:47:53.000Z</time>
      </trkpt>
      <trkpt lat="47.31124" lon="-2.34181">
        <ele>57</ele>
        <time>2022-06-02T09:47:59.000Z</time>
      </trkpt>
      <trkpt lat="47.31117" lon="-2.3417">
        <ele>57</ele>
        <time>2022-06-02T09:48:01.000Z</time>
      </trkpt>
      <trkpt lat="47.31107" lon="-2.34151">
        <ele>57.400001525879</ele>
        <time>2022-06-02T09:48:04.000Z</time>
      </trkpt>
      <trkpt lat="47.31103" lon="-2.34145">
        <ele>58</ele>
        <time>2022-06-02T09:48:05.000Z</time>
      </trkpt>
      <trkpt lat="47.311" lon="-2.34139">
        <ele>58.799999237061</ele>
        <time>2022-06-02T09:48:06.000Z</time>
      </trkpt>
      <trkpt lat="47.31097" lon="-2.34134">
        <ele>59.200000762939</ele>
        <time>2022-06-02T09:48:07.000Z</time>
      </trkpt>
      <trkpt lat="47.31089" lon="-2.34119">
        <ele>59.599998474121</ele>
        <time>2022-06-02T09:48:10.000Z</time>
      </trkpt>
      <trkpt lat="47.31086" lon="-2.34114">
        <ele>60</ele>
        <time>2022-06-02T09:48:11.000Z</time>
      </trkpt>
      <trkpt lat="47.31083" lon="-2.34108">
        <ele>60.400001525879</ele>
        <time>2022-06-02T09:48:12.000Z</time>
      </trkpt>
      <trkpt lat="47.3108" lon="-2.34102">
        <ele>60.799999237061</ele>
        <time>2022-06-02T09:48:13.000Z</time>
      </trkpt>
      <trkpt lat="47.31078" lon="-2.34096">
        <ele>61.200000762939</ele>
        <time>2022-06-02T09:48:14.000Z</time>
      </trkpt>
      <trkpt lat="47.31071" lon="-2.34077">
        <ele>61.200000762939</ele>
        <time>2022-06-02T09:48:17.000Z</time>
      </trkpt>
      <trkpt lat="47.31067" lon="-2.34057">
        <ele>61.799999237061</ele>
        <time>2022-06-02T09:48:20.000Z</time>
      </trkpt>
      <trkpt lat="47.31065" lon="-2.34051">
        <ele>62.200000762939</ele>
        <time>2022-06-02T09:48:21.000Z</time>
      </trkpt>
      <trkpt lat="47.31064" lon="-2.34043">
        <ele>62.599998474121</ele>
        <time>2022-06-02T09:48:22.000Z</time>
      </trkpt>
      <trkpt lat="47.31064" lon="-2.34036">
        <ele>63</ele>
        <time>2022-06-02T09:48:23.000Z</time>
      </trkpt>
      <trkpt lat="47.31063" lon="-2.34029">
        <ele>63.400001525879</ele>
        <time>2022-06-02T09:48:24.000Z</time>
      </trkpt>
      <trkpt lat="47.31061" lon="-2.33983">
        <ele>63.400001525879</ele>
        <time>2022-06-02T09:48:30.000Z</time>
      </trkpt>
      <trkpt lat="47.3106" lon="-2.33961">
        <ele>63.400001525879</ele>
        <time>2022-06-02T09:48:33.000Z</time>
      </trkpt>
      <trkpt lat="47.31057" lon="-2.33949">
        <ele>63.400001525879</ele>
        <time>2022-06-02T09:48:35.000Z</time>
      </trkpt>
      <trkpt lat="47.31044" lon="-2.33944">
        <ele>63.400001525879</ele>
        <time>2022-06-02T09:48:38.000Z</time>
      </trkpt>
      <trkpt lat="47.31034" lon="-2.33946">
        <ele>63.400001525879</ele>
        <time>2022-06-02T09:48:40.000Z</time>
      </trkpt>
      <trkpt lat="47.31019" lon="-2.3395">
        <ele>63.799999237061</ele>
        <time>2022-06-02T09:48:43.000Z</time>
      </trkpt>
      <trkpt lat="47.31014" lon="-2.3395">
        <ele>64.400001525879</ele>
        <time>2022-06-02T09:48:44.000Z</time>
      </trkpt>
      <trkpt lat="47.31009" lon="-2.33951">
        <ele>64.800003051758</ele>
        <time>2022-06-02T09:48:45.000Z</time>
      </trkpt>
      <trkpt lat="47.31005" lon="-2.33951">
        <ele>65.199996948242</ele>
        <time>2022-06-02T09:48:46.000Z</time>
      </trkpt>
      <trkpt lat="47.31" lon="-2.33952">
        <ele>65.599998474121</ele>
        <time>2022-06-02T09:48:47.000Z</time>
      </trkpt>
      <trkpt lat="47.30971" lon="-2.33955">
        <ele>65.599998474121</ele>
        <time>2022-06-02T09:48:53.000Z</time>
      </trkpt>
      <trkpt lat="47.30961" lon="-2.33954">
        <ele>65.599998474121</ele>
        <time>2022-06-02T09:48:55.000Z</time>
      </trkpt>
      <trkpt lat="47.30942" lon="-2.3395">
        <ele>65.599998474121</ele>
        <time>2022-06-02T09:48:59.000Z</time>
      </trkpt>
      <trkpt lat="47.30901" lon="-2.33946">
        <ele>65.599998474121</ele>
        <time>2022-06-02T09:49:07.000Z</time>
      </trkpt>
      <trkpt lat="47.30857" lon="-2.33952">
        <ele>65.599998474121</ele>
        <time>2022-06-02T09:49:15.000Z</time>
      </trkpt>
      <trkpt lat="47.30823" lon="-2.3396">
        <ele>65.599998474121</ele>
        <time>2022-06-02T09:49:21.000Z</time>
      </trkpt>
      <trkpt lat="47.30785" lon="-2.33971">
        <ele>65.599998474121</ele>
        <time>2022-06-02T09:49:28.000Z</time>
      </trkpt>
      <trkpt lat="47.30782" lon="-2.33976">
        <ele>65.599998474121</ele>
        <time>2022-06-02T09:49:29.000Z</time>
      </trkpt>
      <trkpt lat="47.30779" lon="-2.34003">
        <ele>65.599998474121</ele>
        <time>2022-06-02T09:49:33.000Z</time>
      </trkpt>
      <trkpt lat="47.30778" lon="-2.3401">
        <ele>65.599998474121</ele>
        <time>2022-06-02T09:49:34.000Z</time>
      </trkpt>
      <trkpt lat="47.30778" lon="-2.34024">
        <ele>65.599998474121</ele>
        <time>2022-06-02T09:49:36.000Z</time>
      </trkpt>
      <trkpt lat="47.30778" lon="-2.34051">
        <ele>65.599998474121</ele>
        <time>2022-06-02T09:49:40.000Z</time>
      </trkpt>
      <trkpt lat="47.30777" lon="-2.34085">
        <ele>66</ele>
        <time>2022-06-02T09:49:45.000Z</time>
      </trkpt>
      <trkpt lat="47.30777" lon="-2.34092">
        <ele>66.400001525879</ele>
        <time>2022-06-02T09:49:46.000Z</time>
      </trkpt>
      <trkpt lat="47.30777" lon="-2.34099">
        <ele>66.800003051758</ele>
        <time>2022-06-02T09:49:47.000Z</time>
      </trkpt>
      <trkpt lat="47.30777" lon="-2.34107">
        <ele>67.199996948242</ele>
        <time>2022-06-02T09:49:48.000Z</time>
      </trkpt>
      <trkpt lat="47.30776" lon="-2.34114">
        <ele>67.599998474121</ele>
        <time>2022-06-02T09:49:49.000Z</time>
      </trkpt>
      <trkpt lat="47.30772" lon="-2.34152">
        <ele>67.599998474121</ele>
        <time>2022-06-02T09:49:54.000Z</time>
      </trkpt>
      <trkpt lat="47.3077" lon="-2.34201">
        <ele>67.599998474121</ele>
        <time>2022-06-02T09:50:01.000Z</time>
      </trkpt>
      <trkpt lat="47.30767" lon="-2.34207">
        <ele>67.599998474121</ele>
        <time>2022-06-02T09:50:02.000Z</time>
      </trkpt>
      <trkpt lat="47.30758" lon="-2.34215">
        <ele>67.599998474121</ele>
        <time>2022-06-02T09:50:04.000Z</time>
      </trkpt>
      <trkpt lat="47.30738" lon="-2.34221">
        <ele>67.599998474121</ele>
        <time>2022-06-02T09:50:08.000Z</time>
      </trkpt>
      <trkpt lat="47.30734" lon="-2.34223">
        <ele>67.599998474121</ele>
        <time>2022-06-02T09:50:09.000Z</time>
      </trkpt>
      <trkpt lat="47.30729" lon="-2.34233">
        <ele>67.599998474121</ele>
        <time>2022-06-02T09:50:11.000Z</time>
      </trkpt>
      <trkpt lat="47.30726" lon="-2.34261">
        <ele>67.599998474121</ele>
        <time>2022-06-02T09:50:15.000Z</time>
      </trkpt>
      <trkpt lat="47.30721" lon="-2.3428">
        <ele>67.599998474121</ele>
        <time>2022-06-02T09:50:18.000Z</time>
      </trkpt>
      <trkpt lat="47.30716" lon="-2.34291">
        <ele>67.599998474121</ele>
        <time>2022-06-02T09:50:20.000Z</time>
      </trkpt>
      <trkpt lat="47.30713" lon="-2.34298">
        <ele>67.599998474121</ele>
        <time>2022-06-02T09:50:21.000Z</time>
      </trkpt>
      <trkpt lat="47.30701" lon="-2.34322">
        <ele>67.599998474121</ele>
        <time>2022-06-02T09:50:25.000Z</time>
      </trkpt>
      <trkpt lat="47.30698" lon="-2.34328">
        <ele>67.599998474121</ele>
        <time>2022-06-02T09:50:26.000Z</time>
      </trkpt>
      <trkpt lat="47.30688" lon="-2.34351">
        <ele>67.599998474121</ele>
        <time>2022-06-02T09:50:30.000Z</time>
      </trkpt>
      <trkpt lat="47.30685" lon="-2.34356">
        <ele>67.599998474121</ele>
        <time>2022-06-02T09:50:31.000Z</time>
      </trkpt>
      <trkpt lat="47.30667" lon="-2.34385">
        <ele>67.599998474121</ele>
        <time>2022-06-02T09:50:37.000Z</time>
      </trkpt>
      <trkpt lat="47.30663" lon="-2.3439">
        <ele>67.599998474121</ele>
        <time>2022-06-02T09:50:38.000Z</time>
      </trkpt>
      <trkpt lat="47.30659" lon="-2.34394">
        <ele>68</ele>
        <time>2022-06-02T09:50:39.000Z</time>
      </trkpt>
      <trkpt lat="47.30655" lon="-2.344">
        <ele>68.400001525879</ele>
        <time>2022-06-02T09:50:40.000Z</time>
      </trkpt>
      <trkpt lat="47.30651" lon="-2.34405">
        <ele>68.800003051758</ele>
        <time>2022-06-02T09:50:41.000Z</time>
      </trkpt>
      <trkpt lat="47.30646" lon="-2.34411">
        <ele>69.199996948242</ele>
        <time>2022-06-02T09:50:42.000Z</time>
      </trkpt>
      <trkpt lat="47.30642" lon="-2.34416">
        <ele>69.800003051758</ele>
        <time>2022-06-02T09:50:43.000Z</time>
      </trkpt>
      <trkpt lat="47.30634" lon="-2.34427">
        <ele>69.800003051758</ele>
        <time>2022-06-02T09:50:45.000Z</time>
      </trkpt>
      <trkpt lat="47.30627" lon="-2.34436">
        <ele>69.800003051758</ele>
        <time>2022-06-02T09:50:47.000Z</time>
      </trkpt>
      <trkpt lat="47.30607" lon="-2.34474">
        <ele>69.800003051758</ele>
        <time>2022-06-02T09:50:52.000Z</time>
      </trkpt>
      <trkpt lat="47.30582" lon="-2.34522">
        <ele>69.800003051758</ele>
        <time>2022-06-02T09:50:58.000Z</time>
      </trkpt>
      <trkpt lat="47.3055" lon="-2.34575">
        <ele>69.800003051758</ele>
        <time>2022-06-02T09:51:05.000Z</time>
      </trkpt>
      <trkpt lat="47.30525" lon="-2.34609">
        <ele>69.800003051758</ele>
        <time>2022-06-02T09:51:10.000Z</time>
      </trkpt>
      <trkpt lat="47.30502" lon="-2.34648">
        <ele>69.800003051758</ele>
        <time>2022-06-02T09:51:16.000Z</time>
      </trkpt>
      <trkpt lat="47.30486" lon="-2.34667">
        <ele>69.199996948242</ele>
        <time>2022-06-02T09:51:19.000Z</time>
      </trkpt>
      <trkpt lat="47.30481" lon="-2.34674">
        <ele>68.800003051758</ele>
        <time>2022-06-02T09:51:20.000Z</time>
      </trkpt>
      <trkpt lat="47.30475" lon="-2.34679">
        <ele>68.400001525879</ele>
        <time>2022-06-02T09:51:21.000Z</time>
      </trkpt>
      <trkpt lat="47.3047" lon="-2.34684">
        <ele>68</ele>
        <time>2022-06-02T09:51:22.000Z</time>
      </trkpt>
      <trkpt lat="47.30465" lon="-2.34688">
        <ele>67.599998474121</ele>
        <time>2022-06-02T09:51:23.000Z</time>
      </trkpt>
      <trkpt lat="47.30448" lon="-2.34703">
        <ele>67.599998474121</ele>
        <time>2022-06-02T09:51:26.000Z</time>
      </trkpt>
      <trkpt lat="47.30442" lon="-2.34708">
        <ele>67.599998474121</ele>
        <time>2022-06-02T09:51:27.000Z</time>
      </trkpt>
      <trkpt lat="47.30432" lon="-2.34719">
        <ele>67.599998474121</ele>
        <time>2022-06-02T09:51:29.000Z</time>
      </trkpt>
      <trkpt lat="47.30411" lon="-2.34735">
        <ele>67.599998474121</ele>
        <time>2022-06-02T09:51:33.000Z</time>
      </trkpt>
      <trkpt lat="47.30367" lon="-2.34763">
        <ele>67.599998474121</ele>
        <time>2022-06-02T09:51:41.000Z</time>
      </trkpt>
      <trkpt lat="47.30346" lon="-2.34778">
        <ele>67.599998474121</ele>
        <time>2022-06-02T09:51:45.000Z</time>
      </trkpt>
      <trkpt lat="47.30337" lon="-2.3479">
        <ele>67.599998474121</ele>
        <time>2022-06-02T09:51:47.000Z</time>
      </trkpt>
      <trkpt lat="47.30329" lon="-2.34805">
        <ele>67.599998474121</ele>
        <time>2022-06-02T09:51:49.000Z</time>
      </trkpt>
      <trkpt lat="47.30316" lon="-2.34826">
        <ele>67.599998474121</ele>
        <time>2022-06-02T09:51:52.000Z</time>
      </trkpt>
      <trkpt lat="47.30312" lon="-2.34832">
        <ele>67.599998474121</ele>
        <time>2022-06-02T09:51:53.000Z</time>
      </trkpt>
      <trkpt lat="47.30293" lon="-2.34854">
        <ele>67.599998474121</ele>
        <time>2022-06-02T09:51:57.000Z</time>
      </trkpt>
      <trkpt lat="47.30282" lon="-2.34861">
        <ele>67.599998474121</ele>
        <time>2022-06-02T09:51:59.000Z</time>
      </trkpt>
      <trkpt lat="47.30246" lon="-2.34883">
        <ele>67.599998474121</ele>
        <time>2022-06-02T09:52:05.000Z</time>
      </trkpt>
      <trkpt lat="47.30218" lon="-2.34907">
        <ele>67.599998474121</ele>
        <time>2022-06-02T09:52:10.000Z</time>
      </trkpt>
      <trkpt lat="47.3021" lon="-2.34929">
        <ele>67.599998474121</ele>
        <time>2022-06-02T09:52:13.000Z</time>
      </trkpt>
      <trkpt lat="47.3021" lon="-2.34948">
        <ele>67.599998474121</ele>
        <time>2022-06-02T09:52:15.000Z</time>
      </trkpt>
      <trkpt lat="47.30209" lon="-2.34969">
        <ele>67.599998474121</ele>
        <time>2022-06-02T09:52:17.000Z</time>
      </trkpt>
      <trkpt lat="47.30208" lon="-2.35003">
        <ele>67.599998474121</ele>
        <time>2022-06-02T09:52:20.000Z</time>
      </trkpt>
      <trkpt lat="47.30209" lon="-2.35026">
        <ele>67.599998474121</ele>
        <time>2022-06-02T09:52:22.000Z</time>
      </trkpt>
      <trkpt lat="47.30209" lon="-2.35048">
        <ele>67.199996948242</ele>
        <time>2022-06-02T09:52:24.000Z</time>
      </trkpt>
      <trkpt lat="47.30209" lon="-2.3506">
        <ele>66.800003051758</ele>
        <time>2022-06-02T09:52:25.000Z</time>
      </trkpt>
      <trkpt lat="47.30208" lon="-2.35071">
        <ele>66.400001525879</ele>
        <time>2022-06-02T09:52:26.000Z</time>
      </trkpt>
      <trkpt lat="47.30208" lon="-2.35083">
        <ele>66</ele>
        <time>2022-06-02T09:52:27.000Z</time>
      </trkpt>
      <trkpt lat="47.30208" lon="-2.35094">
        <ele>65.599998474121</ele>
        <time>2022-06-02T09:52:28.000Z</time>
      </trkpt>
      <trkpt lat="47.30207" lon="-2.35146">
        <ele>65.599998474121</ele>
        <time>2022-06-02T09:52:33.000Z</time>
      </trkpt>
      <trkpt lat="47.30205" lon="-2.35155">
        <ele>65.599998474121</ele>
        <time>2022-06-02T09:52:34.000Z</time>
      </trkpt>
      <trkpt lat="47.30202" lon="-2.35162">
        <ele>65.199996948242</ele>
        <time>2022-06-02T09:52:35.000Z</time>
      </trkpt>
      <trkpt lat="47.30198" lon="-2.35166">
        <ele>64.800003051758</ele>
        <time>2022-06-02T09:52:36.000Z</time>
      </trkpt>
      <trkpt lat="47.30195" lon="-2.35168">
        <ele>64.400001525879</ele>
        <time>2022-06-02T09:52:37.000Z</time>
      </trkpt>
      <trkpt lat="47.30191" lon="-2.3517">
        <ele>63.599998474121</ele>
        <time>2022-06-02T09:52:38.000Z</time>
      </trkpt>
      <trkpt lat="47.30188" lon="-2.35171">
        <ele>63.599998474121</ele>
        <time>2022-06-02T09:52:39.000Z</time>
      </trkpt>
      <trkpt lat="47.30177" lon="-2.35176">
        <ele>63.599998474121</ele>
        <time>2022-06-02T09:52:42.000Z</time>
      </trkpt>
      <trkpt lat="47.30168" lon="-2.3518">
        <ele>63.599998474121</ele>
        <time>2022-06-02T09:52:44.000Z</time>
      </trkpt>
      <trkpt lat="47.30165" lon="-2.35184">
        <ele>63.599998474121</ele>
        <time>2022-06-02T09:52:45.000Z</time>
      </trkpt>
      <trkpt lat="47.30149" lon="-2.35195">
        <ele>63.599998474121</ele>
        <time>2022-06-02T09:52:50.000Z</time>
      </trkpt>
      <trkpt lat="47.30138" lon="-2.35195">
        <ele>63.599998474121</ele>
        <time>2022-06-02T09:52:53.000Z</time>
      </trkpt>
      <trkpt lat="47.30129" lon="-2.35196">
        <ele>63.599998474121</ele>
        <time>2022-06-02T09:52:55.000Z</time>
      </trkpt>
      <trkpt lat="47.30124" lon="-2.35198">
        <ele>63.599998474121</ele>
        <time>2022-06-02T09:52:56.000Z</time>
      </trkpt>
      <trkpt lat="47.30109" lon="-2.35206">
        <ele>63.599998474121</ele>
        <time>2022-06-02T09:52:59.000Z</time>
      </trkpt>
      <trkpt lat="47.30097" lon="-2.3521">
        <ele>63.200000762939</ele>
        <time>2022-06-02T09:53:01.000Z</time>
      </trkpt>
      <trkpt lat="47.30091" lon="-2.35213">
        <ele>62.799999237061</ele>
        <time>2022-06-02T09:53:02.000Z</time>
      </trkpt>
      <trkpt lat="47.30085" lon="-2.35215">
        <ele>61.799999237061</ele>
        <time>2022-06-02T09:53:03.000Z</time>
      </trkpt>
      <trkpt lat="47.30079" lon="-2.35217">
        <ele>61.400001525879</ele>
        <time>2022-06-02T09:53:04.000Z</time>
      </trkpt>
      <trkpt lat="47.30074" lon="-2.3522">
        <ele>61.400001525879</ele>
        <time>2022-06-02T09:53:05.000Z</time>
      </trkpt>
      <trkpt lat="47.3006" lon="-2.3523">
        <ele>61.400001525879</ele>
        <time>2022-06-02T09:53:08.000Z</time>
      </trkpt>
      <trkpt lat="47.30034" lon="-2.35244">
        <ele>61.400001525879</ele>
        <time>2022-06-02T09:53:13.000Z</time>
      </trkpt>
      <trkpt lat="47.30029" lon="-2.35245">
        <ele>61.400001525879</ele>
        <time>2022-06-02T09:53:15.000Z</time>
      </trkpt>
      <trkpt lat="47.30028" lon="-2.35245">
        <ele>61.400001525879</ele>
        <time>2022-06-02T09:53:16.000Z</time>
      </trkpt>
      <trkpt lat="47.30015" lon="-2.35253">
        <ele>61.400001525879</ele>
        <time>2022-06-02T09:53:20.000Z</time>
      </trkpt>
      <trkpt lat="47.29999" lon="-2.35262">
        <ele>61.400001525879</ele>
        <time>2022-06-02T09:53:26.000Z</time>
      </trkpt>
      <trkpt lat="47.29998" lon="-2.35262">
        <ele>61.400001525879</ele>
        <time>2022-06-02T09:53:28.000Z</time>
      </trkpt>
      <trkpt lat="47.29995" lon="-2.35265">
        <ele>61.400001525879</ele>
        <time>2022-06-02T09:54:23.000Z</time>
      </trkpt>
      <trkpt lat="47.29994" lon="-2.35266">
        <ele>61.400001525879</ele>
        <time>2022-06-02T09:54:24.000Z</time>
      </trkpt>
      <trkpt lat="47.29982" lon="-2.3528">
        <ele>61.400001525879</ele>
        <time>2022-06-02T09:54:30.000Z</time>
      </trkpt>
      <trkpt lat="47.29967" lon="-2.35296">
        <ele>61.400001525879</ele>
        <time>2022-06-02T09:54:35.000Z</time>
      </trkpt>
      <trkpt lat="47.29961" lon="-2.35305">
        <ele>61.400001525879</ele>
        <time>2022-06-02T09:54:37.000Z</time>
      </trkpt>
      <trkpt lat="47.29948" lon="-2.35321">
        <ele>61.400001525879</ele>
        <time>2022-06-02T09:54:41.000Z</time>
      </trkpt>
      <trkpt lat="47.29924" lon="-2.3535">
        <ele>61.400001525879</ele>
        <time>2022-06-02T09:54:48.000Z</time>
      </trkpt>
      <trkpt lat="47.29898" lon="-2.35382">
        <ele>61.400001525879</ele>
        <time>2022-06-02T09:54:55.000Z</time>
      </trkpt>
      <trkpt lat="47.29863" lon="-2.35416">
        <ele>61.400001525879</ele>
        <time>2022-06-02T09:55:03.000Z</time>
      </trkpt>
      <trkpt lat="47.29846" lon="-2.35433">
        <ele>61.799999237061</ele>
        <time>2022-06-02T09:55:07.000Z</time>
      </trkpt>
      <trkpt lat="47.29842" lon="-2.35438">
        <ele>62.200000762939</ele>
        <time>2022-06-02T09:55:08.000Z</time>
      </trkpt>
      <trkpt lat="47.29838" lon="-2.35443">
        <ele>62.599998474121</ele>
        <time>2022-06-02T09:55:09.000Z</time>
      </trkpt>
      <trkpt lat="47.29834" lon="-2.35448">
        <ele>63</ele>
        <time>2022-06-02T09:55:10.000Z</time>
      </trkpt>
      <trkpt lat="47.29831" lon="-2.35454">
        <ele>63.400001525879</ele>
        <time>2022-06-02T09:55:11.000Z</time>
      </trkpt>
      <trkpt lat="47.29826" lon="-2.35475">
        <ele>63.400001525879</ele>
        <time>2022-06-02T09:55:14.000Z</time>
      </trkpt>
      <trkpt lat="47.29831" lon="-2.35499">
        <ele>63.400001525879</ele>
        <time>2022-06-02T09:55:18.000Z</time>
      </trkpt>
      <trkpt lat="47.29835" lon="-2.35511">
        <ele>63.400001525879</ele>
        <time>2022-06-02T09:55:20.000Z</time>
      </trkpt>
      <trkpt lat="47.29843" lon="-2.35537">
        <ele>63.400001525879</ele>
        <time>2022-06-02T09:55:24.000Z</time>
      </trkpt>
      <trkpt lat="47.2985" lon="-2.35562">
        <ele>64</ele>
        <time>2022-06-02T09:55:28.000Z</time>
      </trkpt>
      <trkpt lat="47.29852" lon="-2.35569">
        <ele>64.400001525879</ele>
        <time>2022-06-02T09:55:29.000Z</time>
      </trkpt>
      <trkpt lat="47.29854" lon="-2.35575">
        <ele>64.800003051758</ele>
        <time>2022-06-02T09:55:30.000Z</time>
      </trkpt>
      <trkpt lat="47.29856" lon="-2.35582">
        <ele>65.199996948242</ele>
        <time>2022-06-02T09:55:31.000Z</time>
      </trkpt>
      <trkpt lat="47.29858" lon="-2.35588">
        <ele>65.599998474121</ele>
        <time>2022-06-02T09:55:32.000Z</time>
      </trkpt>
      <trkpt lat="47.29871" lon="-2.35635">
        <ele>65.599998474121</ele>
        <time>2022-06-02T09:55:39.000Z</time>
      </trkpt>
      <trkpt lat="47.29879" lon="-2.35682">
        <ele>65.599998474121</ele>
        <time>2022-06-02T09:55:46.000Z</time>
      </trkpt>
      <trkpt lat="47.29888" lon="-2.35728">
        <ele>65.599998474121</ele>
        <time>2022-06-02T09:55:53.000Z</time>
      </trkpt>
      <trkpt lat="47.29891" lon="-2.3575">
        <ele>65.599998474121</ele>
        <time>2022-06-02T09:55:57.000Z</time>
      </trkpt>
      <trkpt lat="47.29889" lon="-2.35754">
        <ele>65.599998474121</ele>
        <time>2022-06-02T09:55:58.000Z</time>
      </trkpt>
      <trkpt lat="47.29877" lon="-2.35759">
        <ele>65.599998474121</ele>
        <time>2022-06-02T09:56:02.000Z</time>
      </trkpt>
      <trkpt lat="47.29855" lon="-2.35767">
        <ele>65.599998474121</ele>
        <time>2022-06-02T09:56:08.000Z</time>
      </trkpt>
      <trkpt lat="47.29847" lon="-2.35771">
        <ele>65.599998474121</ele>
        <time>2022-06-02T09:56:10.000Z</time>
      </trkpt>
      <trkpt lat="47.2984" lon="-2.35779">
        <ele>66</ele>
        <time>2022-06-02T09:56:12.000Z</time>
      </trkpt>
      <trkpt lat="47.29836" lon="-2.35782">
        <ele>66.400001525879</ele>
        <time>2022-06-02T09:56:13.000Z</time>
      </trkpt>
      <trkpt lat="47.29832" lon="-2.35784">
        <ele>66.800003051758</ele>
        <time>2022-06-02T09:56:14.000Z</time>
      </trkpt>
      <trkpt lat="47.29827" lon="-2.35785">
        <ele>67.400001525879</ele>
        <time>2022-06-02T09:56:15.000Z</time>
      </trkpt>
      <trkpt lat="47.29823" lon="-2.35787">
        <ele>67.800003051758</ele>
        <time>2022-06-02T09:56:16.000Z</time>
      </trkpt>
      <trkpt lat="47.29818" lon="-2.35788">
        <ele>67.800003051758</ele>
        <time>2022-06-02T09:56:17.000Z</time>
      </trkpt>
      <trkpt lat="47.29804" lon="-2.35793">
        <ele>67.800003051758</ele>
        <time>2022-06-02T09:56:20.000Z</time>
      </trkpt>
      <trkpt lat="47.29771" lon="-2.35805">
        <ele>67.800003051758</ele>
        <time>2022-06-02T09:56:27.000Z</time>
      </trkpt>
      <trkpt lat="47.29731" lon="-2.35823">
        <ele>67.800003051758</ele>
        <time>2022-06-02T09:56:35.000Z</time>
      </trkpt>
      <trkpt lat="47.29693" lon="-2.35843">
        <ele>67.800003051758</ele>
        <time>2022-06-02T09:56:41.000Z</time>
      </trkpt>
      <trkpt lat="47.29672" lon="-2.3585">
        <ele>67.800003051758</ele>
        <time>2022-06-02T09:56:45.000Z</time>
      </trkpt>
      <trkpt lat="47.29668" lon="-2.35853">
        <ele>67.800003051758</ele>
        <time>2022-06-02T09:56:46.000Z</time>
      </trkpt>
      <trkpt lat="47.29656" lon="-2.35864">
        <ele>67.800003051758</ele>
        <time>2022-06-02T09:56:49.000Z</time>
      </trkpt>
      <trkpt lat="47.29651" lon="-2.35867">
        <ele>67.800003051758</ele>
        <time>2022-06-02T09:56:50.000Z</time>
      </trkpt>
      <trkpt lat="47.29647" lon="-2.3587">
        <ele>67.400001525879</ele>
        <time>2022-06-02T09:56:51.000Z</time>
      </trkpt>
      <trkpt lat="47.29643" lon="-2.35872">
        <ele>66.800003051758</ele>
        <time>2022-06-02T09:56:52.000Z</time>
      </trkpt>
      <trkpt lat="47.29638" lon="-2.35874">
        <ele>66.400001525879</ele>
        <time>2022-06-02T09:56:53.000Z</time>
      </trkpt>
      <trkpt lat="47.29633" lon="-2.35877">
        <ele>66</ele>
        <time>2022-06-02T09:56:54.000Z</time>
      </trkpt>
      <trkpt lat="47.29629" lon="-2.3588">
        <ele>65.599998474121</ele>
        <time>2022-06-02T09:56:55.000Z</time>
      </trkpt>
      <trkpt lat="47.29624" lon="-2.35883">
        <ele>65.599998474121</ele>
        <time>2022-06-02T09:56:56.000Z</time>
      </trkpt>
      <trkpt lat="47.2959" lon="-2.35903">
        <ele>65.599998474121</ele>
        <time>2022-06-02T09:57:03.000Z</time>
      </trkpt>
      <trkpt lat="47.29561" lon="-2.35919">
        <ele>65.599998474121</ele>
        <time>2022-06-02T09:57:09.000Z</time>
      </trkpt>
      <trkpt lat="47.29521" lon="-2.35937">
        <ele>65.599998474121</ele>
        <time>2022-06-02T09:57:17.000Z</time>
      </trkpt>
      <trkpt lat="47.29507" lon="-2.35933">
        <ele>65.599998474121</ele>
        <time>2022-06-02T09:57:21.000Z</time>
      </trkpt>
      <trkpt lat="47.29499" lon="-2.35909">
        <ele>65.599998474121</ele>
        <time>2022-06-02T09:57:25.000Z</time>
      </trkpt>
      <trkpt lat="47.2949" lon="-2.35897">
        <ele>65.599998474121</ele>
        <time>2022-06-02T09:57:29.000Z</time>
      </trkpt>
      <trkpt lat="47.29477" lon="-2.35899">
        <ele>65.599998474121</ele>
        <time>2022-06-02T09:57:33.000Z</time>
      </trkpt>
      <trkpt lat="47.29452" lon="-2.35906">
        <ele>65.599998474121</ele>
        <time>2022-06-02T09:57:40.000Z</time>
      </trkpt>
      <trkpt lat="47.29448" lon="-2.35908">
        <ele>65.599998474121</ele>
        <time>2022-06-02T09:57:44.000Z</time>
      </trkpt>
      <trkpt lat="47.29439" lon="-2.35913">
        <ele>65.599998474121</ele>
        <time>2022-06-02T09:57:48.000Z</time>
      </trkpt>
      <trkpt lat="47.29436" lon="-2.35911">
        <ele>65.599998474121</ele>
        <time>2022-06-02T09:57:49.000Z</time>
      </trkpt>
      <trkpt lat="47.29431" lon="-2.359">
        <ele>65.599998474121</ele>
        <time>2022-06-02T09:57:51.000Z</time>
      </trkpt>
      <trkpt lat="47.29427" lon="-2.35895">
        <ele>65.599998474121</ele>
        <time>2022-06-02T09:57:52.000Z</time>
      </trkpt>
      <trkpt lat="47.29414" lon="-2.35879">
        <ele>65.599998474121</ele>
        <time>2022-06-02T09:57:55.000Z</time>
      </trkpt>
      <trkpt lat="47.29382" lon="-2.35844">
        <ele>65.599998474121</ele>
        <time>2022-06-02T09:58:02.000Z</time>
      </trkpt>
      <trkpt lat="47.29364" lon="-2.35824">
        <ele>65.599998474121</ele>
        <time>2022-06-02T09:58:06.000Z</time>
      </trkpt>
      <trkpt lat="47.29358" lon="-2.3582">
        <ele>65.599998474121</ele>
        <time>2022-06-02T09:58:07.000Z</time>
      </trkpt>
      <trkpt lat="47.29332" lon="-2.35799">
        <ele>65.599998474121</ele>
        <time>2022-06-02T09:58:12.000Z</time>
      </trkpt>
      <trkpt lat="47.29296" lon="-2.35768">
        <ele>65.599998474121</ele>
        <time>2022-06-02T09:58:19.000Z</time>
      </trkpt>
      <trkpt lat="47.29287" lon="-2.35759">
        <ele>65.599998474121</ele>
        <time>2022-06-02T09:58:21.000Z</time>
      </trkpt>
      <trkpt lat="47.29272" lon="-2.35747">
        <ele>65.599998474121</ele>
        <time>2022-06-02T09:58:24.000Z</time>
      </trkpt>
      <trkpt lat="47.29255" lon="-2.35734">
        <ele>65.599998474121</ele>
        <time>2022-06-02T09:58:28.000Z</time>
      </trkpt>
      <trkpt lat="47.29251" lon="-2.35736">
        <ele>65.599998474121</ele>
        <time>2022-06-02T09:58:29.000Z</time>
      </trkpt>
      <trkpt lat="47.29241" lon="-2.35754">
        <ele>65.599998474121</ele>
        <time>2022-06-02T09:58:32.000Z</time>
      </trkpt>
      <trkpt lat="47.29237" lon="-2.3576">
        <ele>65.599998474121</ele>
        <time>2022-06-02T09:58:33.000Z</time>
      </trkpt>
      <trkpt lat="47.2922" lon="-2.3578">
        <ele>65.599998474121</ele>
        <time>2022-06-02T09:58:37.000Z</time>
      </trkpt>
      <trkpt lat="47.29179" lon="-2.35814">
        <ele>65.599998474121</ele>
        <time>2022-06-02T09:58:45.000Z</time>
      </trkpt>
      <trkpt lat="47.29135" lon="-2.3585">
        <ele>65.599998474121</ele>
        <time>2022-06-02T09:58:54.000Z</time>
      </trkpt>
      <trkpt lat="47.29107" lon="-2.35883">
        <ele>65.599998474121</ele>
        <time>2022-06-02T09:59:01.000Z</time>
      </trkpt>
      <trkpt lat="47.29092" lon="-2.35902">
        <ele>65.599998474121</ele>
        <time>2022-06-02T09:59:06.000Z</time>
      </trkpt>
      <trkpt lat="47.29067" lon="-2.35931">
        <ele>65.599998474121</ele>
        <time>2022-06-02T09:59:13.000Z</time>
      </trkpt>
      <trkpt lat="47.29037" lon="-2.35963">
        <ele>65.599998474121</ele>
        <time>2022-06-02T09:59:20.000Z</time>
      </trkpt>
      <trkpt lat="47.29024" lon="-2.35978">
        <ele>65.599998474121</ele>
        <time>2022-06-02T09:59:23.000Z</time>
      </trkpt>
      <trkpt lat="47.2901" lon="-2.35991">
        <ele>65.599998474121</ele>
        <time>2022-06-02T09:59:26.000Z</time>
      </trkpt>
      <trkpt lat="47.2898" lon="-2.3602">
        <ele>65.599998474121</ele>
        <time>2022-06-02T09:59:32.000Z</time>
      </trkpt>
      <trkpt lat="47.2896" lon="-2.36039">
        <ele>65.599998474121</ele>
        <time>2022-06-02T09:59:36.000Z</time>
      </trkpt>
      <trkpt lat="47.28943" lon="-2.3605">
        <ele>65.599998474121</ele>
        <time>2022-06-02T09:59:39.000Z</time>
      </trkpt>
      <trkpt lat="47.28922" lon="-2.36063">
        <ele>65.599998474121</ele>
        <time>2022-06-02T09:59:43.000Z</time>
      </trkpt>
      <trkpt lat="47.28902" lon="-2.3608">
        <ele>65.599998474121</ele>
        <time>2022-06-02T09:59:47.000Z</time>
      </trkpt>
      <trkpt lat="47.28859" lon="-2.36122">
        <ele>65.599998474121</ele>
        <time>2022-06-02T09:59:56.000Z</time>
      </trkpt>
      <trkpt lat="47.28829" lon="-2.36159">
        <ele>65.599998474121</ele>
        <time>2022-06-02T10:00:03.000Z</time>
      </trkpt>
      <trkpt lat="47.28812" lon="-2.36181">
        <ele>65.599998474121</ele>
        <time>2022-06-02T10:00:07.000Z</time>
      </trkpt>
      <trkpt lat="47.28802" lon="-2.36188">
        <ele>65.599998474121</ele>
        <time>2022-06-02T10:00:09.000Z</time>
      </trkpt>
      <trkpt lat="47.28771" lon="-2.36208">
        <ele>65.599998474121</ele>
        <time>2022-06-02T10:00:16.000Z</time>
      </trkpt>
      <trkpt lat="47.28752" lon="-2.36219">
        <ele>65.599998474121</ele>
        <time>2022-06-02T10:00:22.000Z</time>
      </trkpt>
      <trkpt lat="47.28738" lon="-2.36229">
        <ele>65.599998474121</ele>
        <time>2022-06-02T10:00:27.000Z</time>
      </trkpt>
      <trkpt lat="47.28725" lon="-2.36243">
        <ele>65.599998474121</ele>
        <time>2022-06-02T10:00:32.000Z</time>
      </trkpt>
      <trkpt lat="47.28717" lon="-2.36257">
        <ele>66</ele>
        <time>2022-06-02T10:00:36.000Z</time>
      </trkpt>
      <trkpt lat="47.28715" lon="-2.3626">
        <ele>66.400001525879</ele>
        <time>2022-06-02T10:00:37.000Z</time>
      </trkpt>
      <trkpt lat="47.28713" lon="-2.36263">
        <ele>66.800003051758</ele>
        <time>2022-06-02T10:00:38.000Z</time>
      </trkpt>
      <trkpt lat="47.28711" lon="-2.36266">
        <ele>67.400001525879</ele>
        <time>2022-06-02T10:00:39.000Z</time>
      </trkpt>
      <trkpt lat="47.28709" lon="-2.36269">
        <ele>67.800003051758</ele>
        <time>2022-06-02T10:00:40.000Z</time>
      </trkpt>
      <trkpt lat="47.28699" lon="-2.36273">
        <ele>67.800003051758</ele>
        <time>2022-06-02T10:00:43.000Z</time>
      </trkpt>
      <trkpt lat="47.28693" lon="-2.36275">
        <ele>68.199996948242</ele>
        <time>2022-06-02T10:00:45.000Z</time>
      </trkpt>
      <trkpt lat="47.2869" lon="-2.36275">
        <ele>68.599998474121</ele>
        <time>2022-06-02T10:00:46.000Z</time>
      </trkpt>
      <trkpt lat="47.28687" lon="-2.36275">
        <ele>69</ele>
        <time>2022-06-02T10:00:47.000Z</time>
      </trkpt>
      <trkpt lat="47.28685" lon="-2.36274">
        <ele>69.400001525879</ele>
        <time>2022-06-02T10:00:48.000Z</time>
      </trkpt>
      <trkpt lat="47.28682" lon="-2.36273">
        <ele>69.800003051758</ele>
        <time>2022-06-02T10:00:49.000Z</time>
      </trkpt>
      <trkpt lat="47.28675" lon="-2.36267">
        <ele>69.800003051758</ele>
        <time>2022-06-02T10:00:52.000Z</time>
      </trkpt>
      <trkpt lat="47.28674" lon="-2.36264">
        <ele>69.800003051758</ele>
        <time>2022-06-02T10:00:53.000Z</time>
      </trkpt>
      <trkpt lat="47.28672" lon="-2.36252">
        <ele>69.800003051758</ele>
        <time>2022-06-02T10:00:56.000Z</time>
      </trkpt>
      <trkpt lat="47.28672" lon="-2.36241">
        <ele>70.199996948242</ele>
        <time>2022-06-02T10:00:59.000Z</time>
      </trkpt>
      <trkpt lat="47.28672" lon="-2.36237">
        <ele>70.599998474121</ele>
        <time>2022-06-02T10:01:00.000Z</time>
      </trkpt>
      <trkpt lat="47.28672" lon="-2.36233">
        <ele>71</ele>
        <time>2022-06-02T10:01:01.000Z</time>
      </trkpt>
      <trkpt lat="47.28672" lon="-2.36229">
        <ele>71.400001525879</ele>
        <time>2022-06-02T10:01:02.000Z</time>
      </trkpt>
      <trkpt lat="47.28671" lon="-2.36225">
        <ele>71.800003051758</ele>
        <time>2022-06-02T10:01:03.000Z</time>
      </trkpt>
      <trkpt lat="47.28668" lon="-2.36203">
        <ele>71.800003051758</ele>
        <time>2022-06-02T10:01:09.000Z</time>
      </trkpt>
      <trkpt lat="47.28657" lon="-2.36184">
        <ele>71.800003051758</ele>
        <time>2022-06-02T10:01:14.000Z</time>
      </trkpt>
      <trkpt lat="47.28643" lon="-2.36167">
        <ele>72.800003051758</ele>
        <time>2022-06-02T10:01:19.000Z</time>
      </trkpt>
      <trkpt lat="47.28641" lon="-2.36165">
        <ele>73.199996948242</ele>
        <time>2022-06-02T10:01:20.000Z</time>
      </trkpt>
      <trkpt lat="47.28639" lon="-2.36162">
        <ele>73.599998474121</ele>
        <time>2022-06-02T10:01:21.000Z</time>
      </trkpt>
      <trkpt lat="47.28638" lon="-2.36158">
        <ele>74</ele>
        <time>2022-06-02T10:01:22.000Z</time>
      </trkpt>
      <trkpt lat="47.28633" lon="-2.3615">
        <ele>74</ele>
        <time>2022-06-02T10:01:25.000Z</time>
      </trkpt>
      <trkpt lat="47.2863" lon="-2.3615">
        <ele>74</ele>
        <time>2022-06-02T10:01:26.000Z</time>
      </trkpt>
      <trkpt lat="47.28619" lon="-2.36158">
        <ele>74</ele>
        <time>2022-06-02T10:01:31.000Z</time>
      </trkpt>
      <trkpt lat="47.28613" lon="-2.36161">
        <ele>74</ele>
        <time>2022-06-02T10:01:33.000Z</time>
      </trkpt>
      <trkpt lat="47.28603" lon="-2.36161">
        <ele>74</ele>
        <time>2022-06-02T10:01:36.000Z</time>
      </trkpt>
      <trkpt lat="47.286" lon="-2.3616">
        <ele>74.400001525879</ele>
        <time>2022-06-02T10:01:37.000Z</time>
      </trkpt>
      <trkpt lat="47.28597" lon="-2.36159">
        <ele>74.800003051758</ele>
        <time>2022-06-02T10:01:38.000Z</time>
      </trkpt>
      <trkpt lat="47.28594" lon="-2.36158">
        <ele>75.199996948242</ele>
        <time>2022-06-02T10:01:39.000Z</time>
      </trkpt>
      <trkpt lat="47.28591" lon="-2.36157">
        <ele>75.800003051758</ele>
        <time>2022-06-02T10:01:40.000Z</time>
      </trkpt>
      <trkpt lat="47.28588" lon="-2.36156">
        <ele>76.199996948242</ele>
        <time>2022-06-02T10:01:41.000Z</time>
      </trkpt>
      <trkpt lat="47.28585" lon="-2.36156">
        <ele>76.199996948242</ele>
        <time>2022-06-02T10:01:42.000Z</time>
      </trkpt>
      <trkpt lat="47.28567" lon="-2.3616">
        <ele>75.599998474121</ele>
        <time>2022-06-02T10:01:46.000Z</time>
      </trkpt>
      <trkpt lat="47.28562" lon="-2.36161">
        <ele>75</ele>
        <time>2022-06-02T10:01:47.000Z</time>
      </trkpt>
      <trkpt lat="47.28558" lon="-2.36161">
        <ele>74.599998474121</ele>
        <time>2022-06-02T10:01:48.000Z</time>
      </trkpt>
      <trkpt lat="47.28553" lon="-2.36157">
        <ele>74</ele>
        <time>2022-06-02T10:01:49.000Z</time>
      </trkpt>
      <trkpt lat="47.28549" lon="-2.36151">
        <ele>73.599998474121</ele>
        <time>2022-06-02T10:01:50.000Z</time>
      </trkpt>
      <trkpt lat="47.28539" lon="-2.36128">
        <ele>73.599998474121</ele>
        <time>2022-06-02T10:01:53.000Z</time>
      </trkpt>
      <trkpt lat="47.28538" lon="-2.36119">
        <ele>73.599998474121</ele>
        <time>2022-06-02T10:01:54.000Z</time>
      </trkpt>
      <trkpt lat="47.2853" lon="-2.36084">
        <ele>73.599998474121</ele>
        <time>2022-06-02T10:02:00.000Z</time>
      </trkpt>
      <trkpt lat="47.28518" lon="-2.36062">
        <ele>73.599998474121</ele>
        <time>2022-06-02T10:02:05.000Z</time>
      </trkpt>
      <trkpt lat="47.28498" lon="-2.36037">
        <ele>73.599998474121</ele>
        <time>2022-06-02T10:02:10.000Z</time>
      </trkpt>
      <trkpt lat="47.28483" lon="-2.36027">
        <ele>73.599998474121</ele>
        <time>2022-06-02T10:02:14.000Z</time>
      </trkpt>
      <trkpt lat="47.28479" lon="-2.36027">
        <ele>73.599998474121</ele>
        <time>2022-06-02T10:02:15.000Z</time>
      </trkpt>
      <trkpt lat="47.28467" lon="-2.36016">
        <ele>73.599998474121</ele>
        <time>2022-06-02T10:02:18.000Z</time>
      </trkpt>
      <trkpt lat="47.28464" lon="-2.36012">
        <ele>73.599998474121</ele>
        <time>2022-06-02T10:02:19.000Z</time>
      </trkpt>
      <trkpt lat="47.28457" lon="-2.36001">
        <ele>73.599998474121</ele>
        <time>2022-06-02T10:02:21.000Z</time>
      </trkpt>
      <trkpt lat="47.28451" lon="-2.35988">
        <ele>73.599998474121</ele>
        <time>2022-06-02T10:02:24.000Z</time>
      </trkpt>
      <trkpt lat="47.28448" lon="-2.35987">
        <ele>73.199996948242</ele>
        <time>2022-06-02T10:02:25.000Z</time>
      </trkpt>
      <trkpt lat="47.28445" lon="-2.35988">
        <ele>72.800003051758</ele>
        <time>2022-06-02T10:02:26.000Z</time>
      </trkpt>
      <trkpt lat="47.28442" lon="-2.35988">
        <ele>72.400001525879</ele>
        <time>2022-06-02T10:02:27.000Z</time>
      </trkpt>
      <trkpt lat="47.2844" lon="-2.35991">
        <ele>71.800003051758</ele>
        <time>2022-06-02T10:02:28.000Z</time>
      </trkpt>
      <trkpt lat="47.28437" lon="-2.35994">
        <ele>71.400001525879</ele>
        <time>2022-06-02T10:02:29.000Z</time>
      </trkpt>
      <trkpt lat="47.2843" lon="-2.35999">
        <ele>71.400001525879</ele>
        <time>2022-06-02T10:02:31.000Z</time>
      </trkpt>
      <trkpt lat="47.28426" lon="-2.36004">
        <ele>71.400001525879</ele>
        <time>2022-06-02T10:02:32.000Z</time>
      </trkpt>
      <trkpt lat="47.2841" lon="-2.36017">
        <ele>71.400001525879</ele>
        <time>2022-06-02T10:02:36.000Z</time>
      </trkpt>
      <trkpt lat="47.28405" lon="-2.3602">
        <ele>71.400001525879</ele>
        <time>2022-06-02T10:02:37.000Z</time>
      </trkpt>
      <trkpt lat="47.28384" lon="-2.36029">
        <ele>71</ele>
        <time>2022-06-02T10:02:41.000Z</time>
      </trkpt>
      <trkpt lat="47.28379" lon="-2.36031">
        <ele>70.599998474121</ele>
        <time>2022-06-02T10:02:42.000Z</time>
      </trkpt>
      <trkpt lat="47.28373" lon="-2.36034">
        <ele>70.199996948242</ele>
        <time>2022-06-02T10:02:43.000Z</time>
      </trkpt>
      <trkpt lat="47.28367" lon="-2.36037">
        <ele>69.400001525879</ele>
        <time>2022-06-02T10:02:44.000Z</time>
      </trkpt>
      <trkpt lat="47.2836" lon="-2.3604">
        <ele>68.599998474121</ele>
        <time>2022-06-02T10:02:45.000Z</time>
      </trkpt>
      <trkpt lat="47.28353" lon="-2.36044">
        <ele>67.800003051758</ele>
        <time>2022-06-02T10:02:46.000Z</time>
      </trkpt>
      <trkpt lat="47.28347" lon="-2.36048">
        <ele>67</ele>
        <time>2022-06-02T10:02:47.000Z</time>
      </trkpt>
      <trkpt lat="47.2834" lon="-2.36053">
        <ele>66.199996948242</ele>
        <time>2022-06-02T10:02:48.000Z</time>
      </trkpt>
      <trkpt lat="47.28333" lon="-2.36058">
        <ele>65.800003051758</ele>
        <time>2022-06-02T10:02:49.000Z</time>
      </trkpt>
      <trkpt lat="47.28327" lon="-2.36061">
        <ele>65.400001525879</ele>
        <time>2022-06-02T10:02:50.000Z</time>
      </trkpt>
      <trkpt lat="47.28322" lon="-2.36061">
        <ele>65</ele>
        <time>2022-06-02T10:02:51.000Z</time>
      </trkpt>
      <trkpt lat="47.28317" lon="-2.36061">
        <ele>64.599998474121</ele>
        <time>2022-06-02T10:02:52.000Z</time>
      </trkpt>
      <trkpt lat="47.28312" lon="-2.36061">
        <ele>64.199996948242</ele>
        <time>2022-06-02T10:02:53.000Z</time>
      </trkpt>
      <trkpt lat="47.28298" lon="-2.3606">
        <ele>64.199996948242</ele>
        <time>2022-06-02T10:02:56.000Z</time>
      </trkpt>
      <trkpt lat="47.28294" lon="-2.36056">
        <ele>63.799999237061</ele>
        <time>2022-06-02T10:02:57.000Z</time>
      </trkpt>
      <trkpt lat="47.2829" lon="-2.3605">
        <ele>62.799999237061</ele>
        <time>2022-06-02T10:02:58.000Z</time>
      </trkpt>
      <trkpt lat="47.28286" lon="-2.36044">
        <ele>62</ele>
        <time>2022-06-02T10:02:59.000Z</time>
      </trkpt>
      <trkpt lat="47.28283" lon="-2.36038">
        <ele>61.200000762939</ele>
        <time>2022-06-02T10:03:00.000Z</time>
      </trkpt>
      <trkpt lat="47.28281" lon="-2.36031">
        <ele>60.400001525879</ele>
        <time>2022-06-02T10:03:01.000Z</time>
      </trkpt>
      <trkpt lat="47.2828" lon="-2.36023">
        <ele>59.599998474121</ele>
        <time>2022-06-02T10:03:02.000Z</time>
      </trkpt>
      <trkpt lat="47.2828" lon="-2.36014">
        <ele>58.799999237061</ele>
        <time>2022-06-02T10:03:03.000Z</time>
      </trkpt>
      <trkpt lat="47.2828" lon="-2.36006">
        <ele>58</ele>
        <time>2022-06-02T10:03:04.000Z</time>
      </trkpt>
      <trkpt lat="47.2828" lon="-2.35998">
        <ele>57.200000762939</ele>
        <time>2022-06-02T10:03:05.000Z</time>
      </trkpt>
      <trkpt lat="47.2828" lon="-2.35992">
        <ele>56.400001525879</ele>
        <time>2022-06-02T10:03:06.000Z</time>
      </trkpt>
      <trkpt lat="47.2828" lon="-2.35986">
        <ele>55.599998474121</ele>
        <time>2022-06-02T10:03:07.000Z</time>
      </trkpt>
      <trkpt lat="47.28279" lon="-2.3598">
        <ele>55.599998474121</ele>
        <time>2022-06-02T10:03:08.000Z</time>
      </trkpt>
      <trkpt lat="47.28266" lon="-2.35946">
        <ele>55.599998474121</ele>
        <time>2022-06-02T10:03:14.000Z</time>
      </trkpt>
      <trkpt lat="47.2826" lon="-2.35933">
        <ele>56</ele>
        <time>2022-06-02T10:03:17.000Z</time>
      </trkpt>
      <trkpt lat="47.28259" lon="-2.35929">
        <ele>56.400001525879</ele>
        <time>2022-06-02T10:03:18.000Z</time>
      </trkpt>
      <trkpt lat="47.28258" lon="-2.35925">
        <ele>56.799999237061</ele>
        <time>2022-06-02T10:03:19.000Z</time>
      </trkpt>
      <trkpt lat="47.28256" lon="-2.3592">
        <ele>57.400001525879</ele>
        <time>2022-06-02T10:03:20.000Z</time>
      </trkpt>
      <trkpt lat="47.28253" lon="-2.35916">
        <ele>57.799999237061</ele>
        <time>2022-06-02T10:03:21.000Z</time>
      </trkpt>
      <trkpt lat="47.28249" lon="-2.35915">
        <ele>57.799999237061</ele>
        <time>2022-06-02T10:03:22.000Z</time>
      </trkpt>
      <trkpt lat="47.28246" lon="-2.35916">
        <ele>57.799999237061</ele>
        <time>2022-06-02T10:03:23.000Z</time>
      </trkpt>
      <trkpt lat="47.28226" lon="-2.35911">
        <ele>57.799999237061</ele>
        <time>2022-06-02T10:03:27.000Z</time>
      </trkpt>
      <trkpt lat="47.28214" lon="-2.35901">
        <ele>57.400001525879</ele>
        <time>2022-06-02T10:03:30.000Z</time>
      </trkpt>
      <trkpt lat="47.28211" lon="-2.35896">
        <ele>57</ele>
        <time>2022-06-02T10:03:31.000Z</time>
      </trkpt>
      <trkpt lat="47.28208" lon="-2.35891">
        <ele>56.599998474121</ele>
        <time>2022-06-02T10:03:32.000Z</time>
      </trkpt>
      <trkpt lat="47.28206" lon="-2.35885">
        <ele>56.200000762939</ele>
        <time>2022-06-02T10:03:33.000Z</time>
      </trkpt>
      <trkpt lat="47.28203" lon="-2.35879">
        <ele>55.799999237061</ele>
        <time>2022-06-02T10:03:34.000Z</time>
      </trkpt>
      <trkpt lat="47.28199" lon="-2.35868">
        <ele>55.799999237061</ele>
        <time>2022-06-02T10:03:36.000Z</time>
      </trkpt>
      <trkpt lat="47.28192" lon="-2.3585">
        <ele>55.799999237061</ele>
        <time>2022-06-02T10:03:39.000Z</time>
      </trkpt>
      <trkpt lat="47.28184" lon="-2.35834">
        <ele>55.799999237061</ele>
        <time>2022-06-02T10:03:42.000Z</time>
      </trkpt>
      <trkpt lat="47.28173" lon="-2.35799">
        <ele>55.799999237061</ele>
        <time>2022-06-02T10:03:48.000Z</time>
      </trkpt>
      <trkpt lat="47.28165" lon="-2.35775">
        <ele>55.799999237061</ele>
        <time>2022-06-02T10:03:54.000Z</time>
      </trkpt>
      <trkpt lat="47.28151" lon="-2.35749">
        <ele>55.799999237061</ele>
        <time>2022-06-02T10:04:00.000Z</time>
      </trkpt>
      <trkpt lat="47.28146" lon="-2.35747">
        <ele>55.799999237061</ele>
        <time>2022-06-02T10:04:01.000Z</time>
      </trkpt>
      <trkpt lat="47.28135" lon="-2.35748">
        <ele>55.799999237061</ele>
        <time>2022-06-02T10:04:03.000Z</time>
      </trkpt>
      <trkpt lat="47.28123" lon="-2.35751">
        <ele>55.400001525879</ele>
        <time>2022-06-02T10:04:05.000Z</time>
      </trkpt>
      <trkpt lat="47.28119" lon="-2.35753">
        <ele>55</ele>
        <time>2022-06-02T10:04:06.000Z</time>
      </trkpt>
      <trkpt lat="47.28115" lon="-2.35757">
        <ele>54.400001525879</ele>
        <time>2022-06-02T10:04:07.000Z</time>
      </trkpt>
      <trkpt lat="47.2811" lon="-2.35761">
        <ele>54</ele>
        <time>2022-06-02T10:04:08.000Z</time>
      </trkpt>
      <trkpt lat="47.28106" lon="-2.35767">
        <ele>53.599998474121</ele>
        <time>2022-06-02T10:04:09.000Z</time>
      </trkpt>
      <trkpt lat="47.28099" lon="-2.35784">
        <ele>53.599998474121</ele>
        <time>2022-06-02T10:04:12.000Z</time>
      </trkpt>
      <trkpt lat="47.28084" lon="-2.35807">
        <ele>53.599998474121</ele>
        <time>2022-06-02T10:04:17.000Z</time>
      </trkpt>
      <trkpt lat="47.2808" lon="-2.35802">
        <ele>53.599998474121</ele>
        <time>2022-06-02T10:04:20.000Z</time>
      </trkpt>
      <trkpt lat="47.28082" lon="-2.35791">
        <ele>54</ele>
        <time>2022-06-02T10:04:22.000Z</time>
      </trkpt>
      <trkpt lat="47.28083" lon="-2.35787">
        <ele>54.400001525879</ele>
        <time>2022-06-02T10:04:23.000Z</time>
      </trkpt>
      <trkpt lat="47.28084" lon="-2.35783">
        <ele>54.799999237061</ele>
        <time>2022-06-02T10:04:24.000Z</time>
      </trkpt>
      <trkpt lat="47.28085" lon="-2.35778">
        <ele>55.400001525879</ele>
        <time>2022-06-02T10:04:25.000Z</time>
      </trkpt>
      <trkpt lat="47.28086" lon="-2.35773">
        <ele>55.799999237061</ele>
        <time>2022-06-02T10:04:26.000Z</time>
      </trkpt>
      <trkpt lat="47.28089" lon="-2.35746">
        <ele>55.799999237061</ele>
        <time>2022-06-02T10:04:31.000Z</time>
      </trkpt>
      <trkpt lat="47.28091" lon="-2.35735">
        <ele>56.200000762939</ele>
        <time>2022-06-02T10:04:33.000Z</time>
      </trkpt>
      <trkpt lat="47.28093" lon="-2.35731">
        <ele>56.599998474121</ele>
        <time>2022-06-02T10:04:34.000Z</time>
      </trkpt>
      <trkpt lat="47.28095" lon="-2.35727">
        <ele>57</ele>
        <time>2022-06-02T10:04:35.000Z</time>
      </trkpt>
      <trkpt lat="47.28095" lon="-2.35723">
        <ele>57.400001525879</ele>
        <time>2022-06-02T10:04:36.000Z</time>
      </trkpt>
      <trkpt lat="47.28096" lon="-2.35719">
        <ele>57.799999237061</ele>
        <time>2022-06-02T10:04:37.000Z</time>
      </trkpt>
      <trkpt lat="47.28095" lon="-2.35699">
        <ele>57.799999237061</ele>
        <time>2022-06-02T10:04:41.000Z</time>
      </trkpt>
      <trkpt lat="47.28093" lon="-2.35688">
        <ele>57.799999237061</ele>
        <time>2022-06-02T10:04:43.000Z</time>
      </trkpt>
      <trkpt lat="47.28093" lon="-2.35679">
        <ele>57.799999237061</ele>
        <time>2022-06-02T10:04:44.000Z</time>
      </trkpt>
      <trkpt lat="47.28089" lon="-2.35661">
        <ele>57.799999237061</ele>
        <time>2022-06-02T10:04:46.000Z</time>
      </trkpt>
      <trkpt lat="47.28084" lon="-2.35643">
        <ele>57.400001525879</ele>
        <time>2022-06-02T10:04:49.000Z</time>
      </trkpt>
      <trkpt lat="47.28083" lon="-2.35636">
        <ele>56.799999237061</ele>
        <time>2022-06-02T10:04:50.000Z</time>
      </trkpt>
      <trkpt lat="47.28082" lon="-2.3563">
        <ele>56.200000762939</ele>
        <time>2022-06-02T10:04:51.000Z</time>
      </trkpt>
      <trkpt lat="47.28082" lon="-2.35625">
        <ele>55.799999237061</ele>
        <time>2022-06-02T10:04:52.000Z</time>
      </trkpt>
      <trkpt lat="47.28082" lon="-2.35622">
        <ele>55.200000762939</ele>
        <time>2022-06-02T10:04:53.000Z</time>
      </trkpt>
      <trkpt lat="47.28084" lon="-2.3562">
        <ele>54.599998474121</ele>
        <time>2022-06-02T10:04:54.000Z</time>
      </trkpt>
      <trkpt lat="47.28086" lon="-2.35619">
        <ele>54.200000762939</ele>
        <time>2022-06-02T10:04:55.000Z</time>
      </trkpt>
      <trkpt lat="47.28087" lon="-2.35619">
        <ele>53.599998474121</ele>
        <time>2022-06-02T10:04:56.000Z</time>
      </trkpt>
      <trkpt lat="47.28088" lon="-2.35619">
        <ele>53</ele>
        <time>2022-06-02T10:04:57.000Z</time>
      </trkpt>
      <trkpt lat="47.28087" lon="-2.35619">
        <ele>53</ele>
        <time>2022-06-02T10:04:58.000Z</time>
      </trkpt>
      <trkpt lat="47.28089" lon="-2.35621">
        <ele>53</ele>
        <time>2022-06-02T10:05:01.000Z</time>
      </trkpt>
      <trkpt lat="47.28079" lon="-2.35616">
        <ele>53</ele>
        <time>2022-06-02T10:27:18.000Z</time>
      </trkpt>
      <trkpt lat="47.28078" lon="-2.35614">
        <ele>53</ele>
        <time>2022-06-02T10:27:19.000Z</time>
      </trkpt>
      <trkpt lat="47.28068" lon="-2.35595">
        <ele>53</ele>
        <time>2022-06-02T10:27:25.000Z</time>
      </trkpt>
      <trkpt lat="47.28052" lon="-2.35581">
        <ele>53</ele>
        <time>2022-06-02T10:27:30.000Z</time>
      </trkpt>
      <trkpt lat="47.28042" lon="-2.3558">
        <ele>53</ele>
        <time>2022-06-02T10:27:32.000Z</time>
      </trkpt>
      <trkpt lat="47.28027" lon="-2.35577">
        <ele>53</ele>
        <time>2022-06-02T10:27:35.000Z</time>
      </trkpt>
      <trkpt lat="47.28018" lon="-2.35578">
        <ele>53</ele>
        <time>2022-06-02T10:27:37.000Z</time>
      </trkpt>
      <trkpt lat="47.28005" lon="-2.35582">
        <ele>53</ele>
        <time>2022-06-02T10:27:40.000Z</time>
      </trkpt>
      <trkpt lat="47.27988" lon="-2.35588">
        <ele>52.599998474121</ele>
        <time>2022-06-02T10:27:44.000Z</time>
      </trkpt>
      <trkpt lat="47.27983" lon="-2.35588">
        <ele>52.200000762939</ele>
        <time>2022-06-02T10:27:45.000Z</time>
      </trkpt>
      <trkpt lat="47.27979" lon="-2.35588">
        <ele>51.799999237061</ele>
        <time>2022-06-02T10:27:46.000Z</time>
      </trkpt>
      <trkpt lat="47.27974" lon="-2.35586">
        <ele>51.400001525879</ele>
        <time>2022-06-02T10:27:47.000Z</time>
      </trkpt>
      <trkpt lat="47.27969" lon="-2.35584">
        <ele>51</ele>
        <time>2022-06-02T10:27:48.000Z</time>
      </trkpt>
      <trkpt lat="47.27964" lon="-2.35583">
        <ele>51</ele>
        <time>2022-06-02T10:27:49.000Z</time>
      </trkpt>
      <trkpt lat="47.27938" lon="-2.35587">
        <ele>51</ele>
        <time>2022-06-02T10:27:54.000Z</time>
      </trkpt>
      <trkpt lat="47.27928" lon="-2.3559">
        <ele>51</ele>
        <time>2022-06-02T10:27:56.000Z</time>
      </trkpt>
      <trkpt lat="47.27902" lon="-2.35596">
        <ele>51</ele>
        <time>2022-06-02T10:28:01.000Z</time>
      </trkpt>
      <trkpt lat="47.2789" lon="-2.35599">
        <ele>50.400001525879</ele>
        <time>2022-06-02T10:28:03.000Z</time>
      </trkpt>
      <trkpt lat="47.27884" lon="-2.356">
        <ele>50</ele>
        <time>2022-06-02T10:28:04.000Z</time>
      </trkpt>
      <trkpt lat="47.27878" lon="-2.35601">
        <ele>49.599998474121</ele>
        <time>2022-06-02T10:28:05.000Z</time>
      </trkpt>
      <trkpt lat="47.27872" lon="-2.35603">
        <ele>48.599998474121</ele>
        <time>2022-06-02T10:28:06.000Z</time>
      </trkpt>
      <trkpt lat="47.2786" lon="-2.35606">
        <ele>48.599998474121</ele>
        <time>2022-06-02T10:28:08.000Z</time>
      </trkpt>
      <trkpt lat="47.27822" lon="-2.35616">
        <ele>48.599998474121</ele>
        <time>2022-06-02T10:28:14.000Z</time>
      </trkpt>
      <trkpt lat="47.27803" lon="-2.35621">
        <ele>48.200000762939</ele>
        <time>2022-06-02T10:28:17.000Z</time>
      </trkpt>
      <trkpt lat="47.27797" lon="-2.35623">
        <ele>47.799999237061</ele>
        <time>2022-06-02T10:28:18.000Z</time>
      </trkpt>
      <trkpt lat="47.2779" lon="-2.35627">
        <ele>47.400001525879</ele>
        <time>2022-06-02T10:28:19.000Z</time>
      </trkpt>
      <trkpt lat="47.27784" lon="-2.35631">
        <ele>47</ele>
        <time>2022-06-02T10:28:20.000Z</time>
      </trkpt>
      <trkpt lat="47.27778" lon="-2.35635">
        <ele>46.599998474121</ele>
        <time>2022-06-02T10:28:21.000Z</time>
      </trkpt>
      <trkpt lat="47.27757" lon="-2.35656">
        <ele>46.599998474121</ele>
        <time>2022-06-02T10:28:25.000Z</time>
      </trkpt>
      <trkpt lat="47.27752" lon="-2.35663">
        <ele>46.599998474121</ele>
        <time>2022-06-02T10:28:26.000Z</time>
      </trkpt>
      <trkpt lat="47.27727" lon="-2.35701">
        <ele>46.200000762939</ele>
        <time>2022-06-02T10:28:32.000Z</time>
      </trkpt>
      <trkpt lat="47.27722" lon="-2.35708">
        <ele>45.599998474121</ele>
        <time>2022-06-02T10:28:33.000Z</time>
      </trkpt>
      <trkpt lat="47.27717" lon="-2.35713">
        <ele>45.200000762939</ele>
        <time>2022-06-02T10:28:34.000Z</time>
      </trkpt>
      <trkpt lat="47.27711" lon="-2.35719">
        <ele>44.799999237061</ele>
        <time>2022-06-02T10:28:35.000Z</time>
      </trkpt>
      <trkpt lat="47.27705" lon="-2.35725">
        <ele>44.400001525879</ele>
        <time>2022-06-02T10:28:36.000Z</time>
      </trkpt>
      <trkpt lat="47.27699" lon="-2.35729">
        <ele>44.400001525879</ele>
        <time>2022-06-02T10:28:37.000Z</time>
      </trkpt>
      <trkpt lat="47.27693" lon="-2.35734">
        <ele>44.400001525879</ele>
        <time>2022-06-02T10:28:38.000Z</time>
      </trkpt>
      <trkpt lat="47.27688" lon="-2.3574">
        <ele>44.400001525879</ele>
        <time>2022-06-02T10:28:39.000Z</time>
      </trkpt>
      <trkpt lat="47.27677" lon="-2.35747">
        <ele>44</ele>
        <time>2022-06-02T10:28:41.000Z</time>
      </trkpt>
      <trkpt lat="47.27672" lon="-2.35747">
        <ele>43.599998474121</ele>
        <time>2022-06-02T10:28:42.000Z</time>
      </trkpt>
      <trkpt lat="47.27668" lon="-2.35744">
        <ele>43.200000762939</ele>
        <time>2022-06-02T10:28:43.000Z</time>
      </trkpt>
      <trkpt lat="47.27664" lon="-2.3574">
        <ele>42.799999237061</ele>
        <time>2022-06-02T10:28:44.000Z</time>
      </trkpt>
      <trkpt lat="47.2766" lon="-2.35735">
        <ele>42.400001525879</ele>
        <time>2022-06-02T10:28:45.000Z</time>
      </trkpt>
      <trkpt lat="47.27656" lon="-2.35731">
        <ele>42.400001525879</ele>
        <time>2022-06-02T10:28:46.000Z</time>
      </trkpt>
      <trkpt lat="47.27644" lon="-2.35726">
        <ele>42.400001525879</ele>
        <time>2022-06-02T10:28:48.000Z</time>
      </trkpt>
      <trkpt lat="47.27608" lon="-2.35718">
        <ele>42.400001525879</ele>
        <time>2022-06-02T10:28:54.000Z</time>
      </trkpt>
      <trkpt lat="47.27595" lon="-2.35714">
        <ele>42</ele>
        <time>2022-06-02T10:28:56.000Z</time>
      </trkpt>
      <trkpt lat="47.27588" lon="-2.35713">
        <ele>41.400001525879</ele>
        <time>2022-06-02T10:28:57.000Z</time>
      </trkpt>
      <trkpt lat="47.27582" lon="-2.35711">
        <ele>41</ele>
        <time>2022-06-02T10:28:58.000Z</time>
      </trkpt>
      <trkpt lat="47.27575" lon="-2.35709">
        <ele>40.599998474121</ele>
        <time>2022-06-02T10:28:59.000Z</time>
      </trkpt>
      <trkpt lat="47.27569" lon="-2.35706">
        <ele>40.200000762939</ele>
        <time>2022-06-02T10:29:00.000Z</time>
      </trkpt>
      <trkpt lat="47.27556" lon="-2.35702">
        <ele>40.200000762939</ele>
        <time>2022-06-02T10:29:02.000Z</time>
      </trkpt>
      <trkpt lat="47.27543" lon="-2.35697">
        <ele>40.200000762939</ele>
        <time>2022-06-02T10:29:04.000Z</time>
      </trkpt>
      <trkpt lat="47.27524" lon="-2.35695">
        <ele>40.200000762939</ele>
        <time>2022-06-02T10:29:07.000Z</time>
      </trkpt>
      <trkpt lat="47.27512" lon="-2.35692">
        <ele>40.200000762939</ele>
        <time>2022-06-02T10:29:09.000Z</time>
      </trkpt>
      <trkpt lat="47.27493" lon="-2.35688">
        <ele>40.200000762939</ele>
        <time>2022-06-02T10:29:12.000Z</time>
      </trkpt>
      <trkpt lat="47.27481" lon="-2.35685">
        <ele>39.799999237061</ele>
        <time>2022-06-02T10:29:14.000Z</time>
      </trkpt>
      <trkpt lat="47.27476" lon="-2.35685">
        <ele>39.200000762939</ele>
        <time>2022-06-02T10:29:15.000Z</time>
      </trkpt>
      <trkpt lat="47.2747" lon="-2.35684">
        <ele>38.799999237061</ele>
        <time>2022-06-02T10:29:16.000Z</time>
      </trkpt>
      <trkpt lat="47.27464" lon="-2.35683">
        <ele>38.400001525879</ele>
        <time>2022-06-02T10:29:17.000Z</time>
      </trkpt>
      <trkpt lat="47.27457" lon="-2.3568">
        <ele>37.799999237061</ele>
        <time>2022-06-02T10:29:18.000Z</time>
      </trkpt>
      <trkpt lat="47.27451" lon="-2.35679">
        <ele>37.799999237061</ele>
        <time>2022-06-02T10:29:19.000Z</time>
      </trkpt>
      <trkpt lat="47.27413" lon="-2.35672">
        <ele>37.799999237061</ele>
        <time>2022-06-02T10:29:25.000Z</time>
      </trkpt>
      <trkpt lat="47.27407" lon="-2.35673">
        <ele>37.799999237061</ele>
        <time>2022-06-02T10:29:26.000Z</time>
      </trkpt>
      <trkpt lat="47.27394" lon="-2.35679">
        <ele>37.799999237061</ele>
        <time>2022-06-02T10:29:28.000Z</time>
      </trkpt>
      <trkpt lat="47.27388" lon="-2.35683">
        <ele>37.799999237061</ele>
        <time>2022-06-02T10:29:29.000Z</time>
      </trkpt>
      <trkpt lat="47.27382" lon="-2.35686">
        <ele>37.799999237061</ele>
        <time>2022-06-02T10:29:30.000Z</time>
      </trkpt>
      <trkpt lat="47.27331" lon="-2.35723">
        <ele>37.799999237061</ele>
        <time>2022-06-02T10:29:39.000Z</time>
      </trkpt>
      <trkpt lat="47.27324" lon="-2.35733">
        <ele>37.799999237061</ele>
        <time>2022-06-02T10:29:41.000Z</time>
      </trkpt>
      <trkpt lat="47.27319" lon="-2.35741">
        <ele>37.799999237061</ele>
        <time>2022-06-02T10:29:43.000Z</time>
      </trkpt>
      <trkpt lat="47.27312" lon="-2.35742">
        <ele>37.799999237061</ele>
        <time>2022-06-02T10:29:45.000Z</time>
      </trkpt>
      <trkpt lat="47.27308" lon="-2.35738">
        <ele>37.799999237061</ele>
        <time>2022-06-02T10:29:46.000Z</time>
      </trkpt>
      <trkpt lat="47.27305" lon="-2.35721">
        <ele>37.799999237061</ele>
        <time>2022-06-02T10:29:49.000Z</time>
      </trkpt>
      <trkpt lat="47.27304" lon="-2.35715">
        <ele>37.799999237061</ele>
        <time>2022-06-02T10:29:50.000Z</time>
      </trkpt>
      <trkpt lat="47.27296" lon="-2.35696">
        <ele>37.799999237061</ele>
        <time>2022-06-02T10:29:53.000Z</time>
      </trkpt>
      <trkpt lat="47.27276" lon="-2.3565">
        <ele>37.799999237061</ele>
        <time>2022-06-02T10:30:00.000Z</time>
      </trkpt>
      <trkpt lat="47.27257" lon="-2.35609">
        <ele>38.200000762939</ele>
        <time>2022-06-02T10:30:06.000Z</time>
      </trkpt>
      <trkpt lat="47.27255" lon="-2.35603">
        <ele>38.599998474121</ele>
        <time>2022-06-02T10:30:07.000Z</time>
      </trkpt>
      <trkpt lat="47.27252" lon="-2.35596">
        <ele>39.200000762939</ele>
        <time>2022-06-02T10:30:08.000Z</time>
      </trkpt>
      <trkpt lat="47.27249" lon="-2.3559">
        <ele>39.599998474121</ele>
        <time>2022-06-02T10:30:09.000Z</time>
      </trkpt>
      <trkpt lat="47.27246" lon="-2.35583">
        <ele>40</ele>
        <time>2022-06-02T10:30:10.000Z</time>
      </trkpt>
      <trkpt lat="47.2723" lon="-2.35545">
        <ele>40</ele>
        <time>2022-06-02T10:30:16.000Z</time>
      </trkpt>
      <trkpt lat="47.27206" lon="-2.35494">
        <ele>40</ele>
        <time>2022-06-02T10:30:24.000Z</time>
      </trkpt>
      <trkpt lat="47.27183" lon="-2.35449">
        <ele>40</ele>
        <time>2022-06-02T10:30:31.000Z</time>
      </trkpt>
      <trkpt lat="47.27157" lon="-2.35399">
        <ele>40</ele>
        <time>2022-06-02T10:30:39.000Z</time>
      </trkpt>
      <trkpt lat="47.27134" lon="-2.35354">
        <ele>40</ele>
        <time>2022-06-02T10:30:46.000Z</time>
      </trkpt>
      <trkpt lat="47.27102" lon="-2.35304">
        <ele>40</ele>
        <time>2022-06-02T10:30:54.000Z</time>
      </trkpt>
      <trkpt lat="47.27075" lon="-2.35262">
        <ele>40</ele>
        <time>2022-06-02T10:31:01.000Z</time>
      </trkpt>
      <trkpt lat="47.27043" lon="-2.35212">
        <ele>40</ele>
        <time>2022-06-02T10:31:09.000Z</time>
      </trkpt>
      <trkpt lat="47.27039" lon="-2.35206">
        <ele>40</ele>
        <time>2022-06-02T10:31:10.000Z</time>
      </trkpt>
      <trkpt lat="47.27012" lon="-2.35165">
        <ele>40</ele>
        <time>2022-06-02T10:31:17.000Z</time>
      </trkpt>
      <trkpt lat="47.26973" lon="-2.35105">
        <ele>40</ele>
        <time>2022-06-02T10:31:27.000Z</time>
      </trkpt>
      <trkpt lat="47.26938" lon="-2.35052">
        <ele>40</ele>
        <time>2022-06-02T10:31:36.000Z</time>
      </trkpt>
      <trkpt lat="47.26924" lon="-2.35037">
        <ele>40</ele>
        <time>2022-06-02T10:31:39.000Z</time>
      </trkpt>
      <trkpt lat="47.26916" lon="-2.35029">
        <ele>40</ele>
        <time>2022-06-02T10:31:41.000Z</time>
      </trkpt>
      <trkpt lat="47.26901" lon="-2.35011">
        <ele>40</ele>
        <time>2022-06-02T10:31:46.000Z</time>
      </trkpt>
      <trkpt lat="47.2688" lon="-2.34983">
        <ele>40</ele>
        <time>2022-06-02T10:31:52.000Z</time>
      </trkpt>
      <trkpt lat="47.26852" lon="-2.34939">
        <ele>40</ele>
        <time>2022-06-02T10:32:00.000Z</time>
      </trkpt>
      <trkpt lat="47.26826" lon="-2.34898">
        <ele>40</ele>
        <time>2022-06-02T10:32:07.000Z</time>
      </trkpt>
      <trkpt lat="47.26798" lon="-2.34858">
        <ele>40</ele>
        <time>2022-06-02T10:32:14.000Z</time>
      </trkpt>
      <trkpt lat="47.26767" lon="-2.34813">
        <ele>40</ele>
        <time>2022-06-02T10:32:22.000Z</time>
      </trkpt>
      <trkpt lat="47.26751" lon="-2.34792">
        <ele>40</ele>
        <time>2022-06-02T10:32:26.000Z</time>
      </trkpt>
      <trkpt lat="47.26747" lon="-2.34787">
        <ele>40</ele>
        <time>2022-06-02T10:32:27.000Z</time>
      </trkpt>
      <trkpt lat="47.2671" lon="-2.34737">
        <ele>40</ele>
        <time>2022-06-02T10:32:36.000Z</time>
      </trkpt>
      <trkpt lat="47.2668" lon="-2.34702">
        <ele>40</ele>
        <time>2022-06-02T10:32:43.000Z</time>
      </trkpt>
      <trkpt lat="47.26646" lon="-2.34663">
        <ele>40</ele>
        <time>2022-06-02T10:32:51.000Z</time>
      </trkpt>
      <trkpt lat="47.26608" lon="-2.34616">
        <ele>40</ele>
        <time>2022-06-02T10:33:00.000Z</time>
      </trkpt>
      <trkpt lat="47.26573" lon="-2.34576">
        <ele>40</ele>
        <time>2022-06-02T10:33:08.000Z</time>
      </trkpt>
      <trkpt lat="47.26538" lon="-2.34539">
        <ele>40</ele>
        <time>2022-06-02T10:33:16.000Z</time>
      </trkpt>
      <trkpt lat="47.26534" lon="-2.34535">
        <ele>40</ele>
        <time>2022-06-02T10:33:17.000Z</time>
      </trkpt>
      <trkpt lat="47.26516" lon="-2.34519">
        <ele>40</ele>
        <time>2022-06-02T10:33:21.000Z</time>
      </trkpt>
      <trkpt lat="47.26506" lon="-2.34512">
        <ele>40</ele>
        <time>2022-06-02T10:33:23.000Z</time>
      </trkpt>
      <trkpt lat="47.26485" lon="-2.34497">
        <ele>40</ele>
        <time>2022-06-02T10:33:27.000Z</time>
      </trkpt>
      <trkpt lat="47.26446" lon="-2.34471">
        <ele>40</ele>
        <time>2022-06-02T10:33:35.000Z</time>
      </trkpt>
      <trkpt lat="47.26413" lon="-2.34446">
        <ele>40</ele>
        <time>2022-06-02T10:33:42.000Z</time>
      </trkpt>
      <trkpt lat="47.26371" lon="-2.3441">
        <ele>40</ele>
        <time>2022-06-02T10:33:51.000Z</time>
      </trkpt>
      <trkpt lat="47.26335" lon="-2.34382">
        <ele>40</ele>
        <time>2022-06-02T10:33:59.000Z</time>
      </trkpt>
      <trkpt lat="47.2632" lon="-2.34375">
        <ele>40</ele>
        <time>2022-06-02T10:34:02.000Z</time>
      </trkpt>
      <trkpt lat="47.2631" lon="-2.34356">
        <ele>40</ele>
        <time>2022-06-02T10:34:05.000Z</time>
      </trkpt>
      <trkpt lat="47.26306" lon="-2.3435">
        <ele>40</ele>
        <time>2022-06-02T10:34:06.000Z</time>
      </trkpt>
      <trkpt lat="47.26292" lon="-2.34337">
        <ele>40</ele>
        <time>2022-06-02T10:34:09.000Z</time>
      </trkpt>
      <trkpt lat="47.26251" lon="-2.34294">
        <ele>40</ele>
        <time>2022-06-02T10:34:18.000Z</time>
      </trkpt>
      <trkpt lat="47.26221" lon="-2.3426">
        <ele>40</ele>
        <time>2022-06-02T10:34:25.000Z</time>
      </trkpt>
      <trkpt lat="47.26188" lon="-2.34227">
        <ele>40</ele>
        <time>2022-06-02T10:34:32.000Z</time>
      </trkpt>
      <trkpt lat="47.26153" lon="-2.34193">
        <ele>40</ele>
        <time>2022-06-02T10:34:40.000Z</time>
      </trkpt>
      <trkpt lat="47.26144" lon="-2.34185">
        <ele>39.599998474121</ele>
        <time>2022-06-02T10:34:42.000Z</time>
      </trkpt>
      <trkpt lat="47.26139" lon="-2.34184">
        <ele>39.200000762939</ele>
        <time>2022-06-02T10:34:43.000Z</time>
      </trkpt>
      <trkpt lat="47.26133" lon="-2.34182">
        <ele>38.799999237061</ele>
        <time>2022-06-02T10:34:44.000Z</time>
      </trkpt>
      <trkpt lat="47.26129" lon="-2.34178">
        <ele>38.400001525879</ele>
        <time>2022-06-02T10:34:45.000Z</time>
      </trkpt>
      <trkpt lat="47.26125" lon="-2.34174">
        <ele>38</ele>
        <time>2022-06-02T10:34:46.000Z</time>
      </trkpt>
      <trkpt lat="47.26111" lon="-2.34161">
        <ele>38</ele>
        <time>2022-06-02T10:34:49.000Z</time>
      </trkpt>
      <trkpt lat="47.26094" lon="-2.34153">
        <ele>38</ele>
        <time>2022-06-02T10:34:52.000Z</time>
      </trkpt>
      <trkpt lat="47.26083" lon="-2.34147">
        <ele>38</ele>
        <time>2022-06-02T10:34:54.000Z</time>
      </trkpt>
      <trkpt lat="47.26039" lon="-2.34124">
        <ele>38</ele>
        <time>2022-06-02T10:35:02.000Z</time>
      </trkpt>
      <trkpt lat="47.25998" lon="-2.34104">
        <ele>38</ele>
        <time>2022-06-02T10:35:10.000Z</time>
      </trkpt>
      <trkpt lat="47.25963" lon="-2.34087">
        <ele>38</ele>
        <time>2022-06-02T10:35:17.000Z</time>
      </trkpt>
      <trkpt lat="47.25923" lon="-2.34072">
        <ele>38</ele>
        <time>2022-06-02T10:35:25.000Z</time>
      </trkpt>
      <trkpt lat="47.25908" lon="-2.3407">
        <ele>38</ele>
        <time>2022-06-02T10:35:28.000Z</time>
      </trkpt>
      <trkpt lat="47.25904" lon="-2.34068">
        <ele>38</ele>
        <time>2022-06-02T10:35:29.000Z</time>
      </trkpt>
      <trkpt lat="47.25895" lon="-2.34049">
        <ele>38</ele>
        <time>2022-06-02T10:35:32.000Z</time>
      </trkpt>
      <trkpt lat="47.25894" lon="-2.34018">
        <ele>38</ele>
        <time>2022-06-02T10:35:36.000Z</time>
      </trkpt>
      <trkpt lat="47.25901" lon="-2.33998">
        <ele>38</ele>
        <time>2022-06-02T10:35:39.000Z</time>
      </trkpt>
      <trkpt lat="47.25903" lon="-2.33991">
        <ele>38</ele>
        <time>2022-06-02T10:35:40.000Z</time>
      </trkpt>
      <trkpt lat="47.25912" lon="-2.33964">
        <ele>38</ele>
        <time>2022-06-02T10:35:44.000Z</time>
      </trkpt>
      <trkpt lat="47.25919" lon="-2.33951">
        <ele>38</ele>
        <time>2022-06-02T10:35:46.000Z</time>
      </trkpt>
      <trkpt lat="47.2594" lon="-2.33916">
        <ele>38</ele>
        <time>2022-06-02T10:35:52.000Z</time>
      </trkpt>
      <trkpt lat="47.25943" lon="-2.3391">
        <ele>38</ele>
        <time>2022-06-02T10:35:53.000Z</time>
      </trkpt>
      <trkpt lat="47.25956" lon="-2.33869">
        <ele>38</ele>
        <time>2022-06-02T10:35:59.000Z</time>
      </trkpt>
      <trkpt lat="47.25961" lon="-2.33848">
        <ele>38</ele>
        <time>2022-06-02T10:36:02.000Z</time>
      </trkpt>
      <trkpt lat="47.25966" lon="-2.33835">
        <ele>38</ele>
        <time>2022-06-02T10:36:04.000Z</time>
      </trkpt>
      <trkpt lat="47.2598" lon="-2.33802">
        <ele>38</ele>
        <time>2022-06-02T10:36:10.000Z</time>
      </trkpt>
      <trkpt lat="47.25988" lon="-2.33777">
        <ele>38</ele>
        <time>2022-06-02T10:36:14.000Z</time>
      </trkpt>
      <trkpt lat="47.25994" lon="-2.33764">
        <ele>38</ele>
        <time>2022-06-02T10:36:16.000Z</time>
      </trkpt>
      <trkpt lat="47.26008" lon="-2.33726">
        <ele>38</ele>
        <time>2022-06-02T10:36:22.000Z</time>
      </trkpt>
      <trkpt lat="47.2601" lon="-2.33719">
        <ele>37.400001525879</ele>
        <time>2022-06-02T10:36:23.000Z</time>
      </trkpt>
      <trkpt lat="47.26012" lon="-2.33712">
        <ele>37</ele>
        <time>2022-06-02T10:36:24.000Z</time>
      </trkpt>
      <trkpt lat="47.26014" lon="-2.33704">
        <ele>36.599998474121</ele>
        <time>2022-06-02T10:36:25.000Z</time>
      </trkpt>
      <trkpt lat="47.26015" lon="-2.33696">
        <ele>36.200000762939</ele>
        <time>2022-06-02T10:36:26.000Z</time>
      </trkpt>
      <trkpt lat="47.26016" lon="-2.33689">
        <ele>35.799999237061</ele>
        <time>2022-06-02T10:36:27.000Z</time>
      </trkpt>
      <trkpt lat="47.26018" lon="-2.33682">
        <ele>35.799999237061</ele>
        <time>2022-06-02T10:36:28.000Z</time>
      </trkpt>
      <trkpt lat="47.26021" lon="-2.3367">
        <ele>35.799999237061</ele>
        <time>2022-06-02T10:36:30.000Z</time>
      </trkpt>
      <trkpt lat="47.26029" lon="-2.33663">
        <ele>35.799999237061</ele>
        <time>2022-06-02T10:36:33.000Z</time>
      </trkpt>
      <trkpt lat="47.26038" lon="-2.33665">
        <ele>35.799999237061</ele>
        <time>2022-06-02T10:36:35.000Z</time>
      </trkpt>
      <trkpt lat="47.26047" lon="-2.33665">
        <ele>35.799999237061</ele>
        <time>2022-06-02T10:36:37.000Z</time>
      </trkpt>
      <trkpt lat="47.2605" lon="-2.33662">
        <ele>35.799999237061</ele>
        <time>2022-06-02T10:36:38.000Z</time>
      </trkpt>
      <trkpt lat="47.26056" lon="-2.33652">
        <ele>35.799999237061</ele>
        <time>2022-06-02T10:36:40.000Z</time>
      </trkpt>
      <trkpt lat="47.26061" lon="-2.33641">
        <ele>35.799999237061</ele>
        <time>2022-06-02T10:36:42.000Z</time>
      </trkpt>
      <trkpt lat="47.26063" lon="-2.33635">
        <ele>35.799999237061</ele>
        <time>2022-06-02T10:36:43.000Z</time>
      </trkpt>
      <trkpt lat="47.26068" lon="-2.3362">
        <ele>35.799999237061</ele>
        <time>2022-06-02T10:36:46.000Z</time>
      </trkpt>
      <trkpt lat="47.2607" lon="-2.33614">
        <ele>35.799999237061</ele>
        <time>2022-06-02T10:36:47.000Z</time>
      </trkpt>
      <trkpt lat="47.26076" lon="-2.33599">
        <ele>35.799999237061</ele>
        <time>2022-06-02T10:36:50.000Z</time>
      </trkpt>
      <trkpt lat="47.2608" lon="-2.33589">
        <ele>35.799999237061</ele>
        <time>2022-06-02T10:36:52.000Z</time>
      </trkpt>
      <trkpt lat="47.26083" lon="-2.33588">
        <ele>35.799999237061</ele>
        <time>2022-06-02T10:36:53.000Z</time>
      </trkpt>
      <trkpt lat="47.26091" lon="-2.3359">
        <ele>35.799999237061</ele>
        <time>2022-06-02T10:36:55.000Z</time>
      </trkpt>
      <trkpt lat="47.26099" lon="-2.33576">
        <ele>35.799999237061</ele>
        <time>2022-06-02T10:36:58.000Z</time>
      </trkpt>
      <trkpt lat="47.26101" lon="-2.33571">
        <ele>35.799999237061</ele>
        <time>2022-06-02T10:36:59.000Z</time>
      </trkpt>
      <trkpt lat="47.26119" lon="-2.33536">
        <ele>35.799999237061</ele>
        <time>2022-06-02T10:37:05.000Z</time>
      </trkpt>
      <trkpt lat="47.26137" lon="-2.33503">
        <ele>35.799999237061</ele>
        <time>2022-06-02T10:37:11.000Z</time>
      </trkpt>
      <trkpt lat="47.26139" lon="-2.33497">
        <ele>35.799999237061</ele>
        <time>2022-06-02T10:37:12.000Z</time>
      </trkpt>
      <trkpt lat="47.26142" lon="-2.33477">
        <ele>35.799999237061</ele>
        <time>2022-06-02T10:37:15.000Z</time>
      </trkpt>
      <trkpt lat="47.26144" lon="-2.33466">
        <ele>35.799999237061</ele>
        <time>2022-06-02T10:37:17.000Z</time>
      </trkpt>
      <trkpt lat="47.26142" lon="-2.3345">
        <ele>35.799999237061</ele>
        <time>2022-06-02T10:37:21.000Z</time>
      </trkpt>
      <trkpt lat="47.2614" lon="-2.33449">
        <ele>35.799999237061</ele>
        <time>2022-06-02T10:37:22.000Z</time>
      </trkpt>
      <trkpt lat="47.26133" lon="-2.33442">
        <ele>35.799999237061</ele>
        <time>2022-06-02T10:37:26.000Z</time>
      </trkpt>
      <trkpt lat="47.26131" lon="-2.33436">
        <ele>35.799999237061</ele>
        <time>2022-06-02T10:37:28.000Z</time>
      </trkpt>
      <trkpt lat="47.26121" lon="-2.33414">
        <ele>35.799999237061</ele>
        <time>2022-06-02T10:37:33.000Z</time>
      </trkpt>
      <trkpt lat="47.26115" lon="-2.33404">
        <ele>35.799999237061</ele>
        <time>2022-06-02T10:37:35.000Z</time>
      </trkpt>
      <trkpt lat="47.26104" lon="-2.3339">
        <ele>35.799999237061</ele>
        <time>2022-06-02T10:37:38.000Z</time>
      </trkpt>
      <trkpt lat="47.26078" lon="-2.33354">
        <ele>35.799999237061</ele>
        <time>2022-06-02T10:37:45.000Z</time>
      </trkpt>
      <trkpt lat="47.26062" lon="-2.33314">
        <ele>35.799999237061</ele>
        <time>2022-06-02T10:37:51.000Z</time>
      </trkpt>
      <trkpt lat="47.26047" lon="-2.33269">
        <ele>35.799999237061</ele>
        <time>2022-06-02T10:37:58.000Z</time>
      </trkpt>
      <trkpt lat="47.26027" lon="-2.33211">
        <ele>35.799999237061</ele>
        <time>2022-06-02T10:38:07.000Z</time>
      </trkpt>
      <trkpt lat="47.26008" lon="-2.3316">
        <ele>35.799999237061</ele>
        <time>2022-06-02T10:38:15.000Z</time>
      </trkpt>
      <trkpt lat="47.25992" lon="-2.33114">
        <ele>35.799999237061</ele>
        <time>2022-06-02T10:38:22.000Z</time>
      </trkpt>
      <trkpt lat="47.2599" lon="-2.33106">
        <ele>35.799999237061</ele>
        <time>2022-06-02T10:38:23.000Z</time>
      </trkpt>
      <trkpt lat="47.25984" lon="-2.33084">
        <ele>35.799999237061</ele>
        <time>2022-06-02T10:38:26.000Z</time>
      </trkpt>
      <trkpt lat="47.25979" lon="-2.33071">
        <ele>35.799999237061</ele>
        <time>2022-06-02T10:38:28.000Z</time>
      </trkpt>
      <trkpt lat="47.2596" lon="-2.33018">
        <ele>35.799999237061</ele>
        <time>2022-06-02T10:38:36.000Z</time>
      </trkpt>
      <trkpt lat="47.25941" lon="-2.32964">
        <ele>35.799999237061</ele>
        <time>2022-06-02T10:38:44.000Z</time>
      </trkpt>
      <trkpt lat="47.25927" lon="-2.3292">
        <ele>35.799999237061</ele>
        <time>2022-06-02T10:38:51.000Z</time>
      </trkpt>
      <trkpt lat="47.25925" lon="-2.32914">
        <ele>35.799999237061</ele>
        <time>2022-06-02T10:38:52.000Z</time>
      </trkpt>
      <trkpt lat="47.25908" lon="-2.32876">
        <ele>35.799999237061</ele>
        <time>2022-06-02T10:38:59.000Z</time>
      </trkpt>
      <trkpt lat="47.25889" lon="-2.32822">
        <ele>35.799999237061</ele>
        <time>2022-06-02T10:39:07.000Z</time>
      </trkpt>
      <trkpt lat="47.25869" lon="-2.32759">
        <ele>35.799999237061</ele>
        <time>2022-06-02T10:39:16.000Z</time>
      </trkpt>
      <trkpt lat="47.25864" lon="-2.32746">
        <ele>35.799999237061</ele>
        <time>2022-06-02T10:39:18.000Z</time>
      </trkpt>
      <trkpt lat="47.25865" lon="-2.32732">
        <ele>35.799999237061</ele>
        <time>2022-06-02T10:39:20.000Z</time>
      </trkpt>
      <trkpt lat="47.2586" lon="-2.32706">
        <ele>35.799999237061</ele>
        <time>2022-06-02T10:39:24.000Z</time>
      </trkpt>
      <trkpt lat="47.25853" lon="-2.32698">
        <ele>35.799999237061</ele>
        <time>2022-06-02T10:39:26.000Z</time>
      </trkpt>
      <trkpt lat="47.2585" lon="-2.32691">
        <ele>35.799999237061</ele>
        <time>2022-06-02T10:39:27.000Z</time>
      </trkpt>
      <trkpt lat="47.25848" lon="-2.32684">
        <ele>35.799999237061</ele>
        <time>2022-06-02T10:39:28.000Z</time>
      </trkpt>
      <trkpt lat="47.25833" lon="-2.32628">
        <ele>35.799999237061</ele>
        <time>2022-06-02T10:39:36.000Z</time>
      </trkpt>
      <trkpt lat="47.2582" lon="-2.32572">
        <ele>35.799999237061</ele>
        <time>2022-06-02T10:39:44.000Z</time>
      </trkpt>
      <trkpt lat="47.25808" lon="-2.32524">
        <ele>35.799999237061</ele>
        <time>2022-06-02T10:39:51.000Z</time>
      </trkpt>
      <trkpt lat="47.25799" lon="-2.32489">
        <ele>35.799999237061</ele>
        <time>2022-06-02T10:39:57.000Z</time>
      </trkpt>
      <trkpt lat="47.25799" lon="-2.32473">
        <ele>35.799999237061</ele>
        <time>2022-06-02T10:40:02.000Z</time>
      </trkpt>
      <trkpt lat="47.25811" lon="-2.32455">
        <ele>35.799999237061</ele>
        <time>2022-06-02T10:40:08.000Z</time>
      </trkpt>
      <trkpt lat="47.25823" lon="-2.32463">
        <ele>35.799999237061</ele>
        <time>2022-06-02T10:40:11.000Z</time>
      </trkpt>
      <trkpt lat="47.25827" lon="-2.32466">
        <ele>35.799999237061</ele>
        <time>2022-06-02T10:40:12.000Z</time>
      </trkpt>
      <trkpt lat="47.25835" lon="-2.32471">
        <ele>35.799999237061</ele>
        <time>2022-06-02T10:40:14.000Z</time>
      </trkpt>
      <trkpt lat="47.25848" lon="-2.32474">
        <ele>35.799999237061</ele>
        <time>2022-06-02T10:40:17.000Z</time>
      </trkpt>
      <trkpt lat="47.25858" lon="-2.32474">
        <ele>35.799999237061</ele>
        <time>2022-06-02T10:40:19.000Z</time>
      </trkpt>
      <trkpt lat="47.25868" lon="-2.32473">
        <ele>35.799999237061</ele>
        <time>2022-06-02T10:40:21.000Z</time>
      </trkpt>
      <trkpt lat="47.25877" lon="-2.32471">
        <ele>35.799999237061</ele>
        <time>2022-06-02T10:40:23.000Z</time>
      </trkpt>
      <trkpt lat="47.25891" lon="-2.32467">
        <ele>35.799999237061</ele>
        <time>2022-06-02T10:40:26.000Z</time>
      </trkpt>
      <trkpt lat="47.25898" lon="-2.32458">
        <ele>35.799999237061</ele>
        <time>2022-06-02T10:40:28.000Z</time>
      </trkpt>
      <trkpt lat="47.25906" lon="-2.32448">
        <ele>35.799999237061</ele>
        <time>2022-06-02T10:40:30.000Z</time>
      </trkpt>
      <trkpt lat="47.25927" lon="-2.32421">
        <ele>35.799999237061</ele>
        <time>2022-06-02T10:40:35.000Z</time>
      </trkpt>
      <trkpt lat="47.25959" lon="-2.32382">
        <ele>35.799999237061</ele>
        <time>2022-06-02T10:40:43.000Z</time>
      </trkpt>
      <trkpt lat="47.25989" lon="-2.32342">
        <ele>35.799999237061</ele>
        <time>2022-06-02T10:40:51.000Z</time>
      </trkpt>
      <trkpt lat="47.26017" lon="-2.32309">
        <ele>35.799999237061</ele>
        <time>2022-06-02T10:40:58.000Z</time>
      </trkpt>
      <trkpt lat="47.26048" lon="-2.32272">
        <ele>35.799999237061</ele>
        <time>2022-06-02T10:41:06.000Z</time>
      </trkpt>
      <trkpt lat="47.26076" lon="-2.3224">
        <ele>35.799999237061</ele>
        <time>2022-06-02T10:41:13.000Z</time>
      </trkpt>
      <trkpt lat="47.26098" lon="-2.3221">
        <ele>35.799999237061</ele>
        <time>2022-06-02T10:41:19.000Z</time>
      </trkpt>
      <trkpt lat="47.26101" lon="-2.32204">
        <ele>35.799999237061</ele>
        <time>2022-06-02T10:41:20.000Z</time>
      </trkpt>
      <trkpt lat="47.26112" lon="-2.3218">
        <ele>35.799999237061</ele>
        <time>2022-06-02T10:41:24.000Z</time>
      </trkpt>
      <trkpt lat="47.26126" lon="-2.32144">
        <ele>35.799999237061</ele>
        <time>2022-06-02T10:41:30.000Z</time>
      </trkpt>
      <trkpt lat="47.26128" lon="-2.32137">
        <ele>35.799999237061</ele>
        <time>2022-06-02T10:41:31.000Z</time>
      </trkpt>
      <trkpt lat="47.26131" lon="-2.32123">
        <ele>35.799999237061</ele>
        <time>2022-06-02T10:41:33.000Z</time>
      </trkpt>
      <trkpt lat="47.26132" lon="-2.32116">
        <ele>35.799999237061</ele>
        <time>2022-06-02T10:41:34.000Z</time>
      </trkpt>
      <trkpt lat="47.26135" lon="-2.32102">
        <ele>35.799999237061</ele>
        <time>2022-06-02T10:41:36.000Z</time>
      </trkpt>
      <trkpt lat="47.26144" lon="-2.32075">
        <ele>35.799999237061</ele>
        <time>2022-06-02T10:41:40.000Z</time>
      </trkpt>
      <trkpt lat="47.26156" lon="-2.32038">
        <ele>35.799999237061</ele>
        <time>2022-06-02T10:41:46.000Z</time>
      </trkpt>
      <trkpt lat="47.26159" lon="-2.32032">
        <ele>35.799999237061</ele>
        <time>2022-06-02T10:41:47.000Z</time>
      </trkpt>
      <trkpt lat="47.26169" lon="-2.32022">
        <ele>35.799999237061</ele>
        <time>2022-06-02T10:41:50.000Z</time>
      </trkpt>
      <trkpt lat="47.26183" lon="-2.32021">
        <ele>35.799999237061</ele>
        <time>2022-06-02T10:41:54.000Z</time>
      </trkpt>
      <trkpt lat="47.26191" lon="-2.32025">
        <ele>35.799999237061</ele>
        <time>2022-06-02T10:41:58.000Z</time>
      </trkpt>
      <trkpt lat="47.26194" lon="-2.32023">
        <ele>35.799999237061</ele>
        <time>2022-06-02T10:42:00.000Z</time>
      </trkpt>
      <trkpt lat="47.26196" lon="-2.32015">
        <ele>35.799999237061</ele>
        <time>2022-06-02T10:42:02.000Z</time>
      </trkpt>
      <trkpt lat="47.26202" lon="-2.32004">
        <ele>35.799999237061</ele>
        <time>2022-06-02T10:42:06.000Z</time>
      </trkpt>
      <trkpt lat="47.26207" lon="-2.31999">
        <ele>35.799999237061</ele>
        <time>2022-06-02T10:42:08.000Z</time>
      </trkpt>
      <trkpt lat="47.26217" lon="-2.31989">
        <ele>35.799999237061</ele>
        <time>2022-06-02T10:42:12.000Z</time>
      </trkpt>
      <trkpt lat="47.26224" lon="-2.31983">
        <ele>35.799999237061</ele>
        <time>2022-06-02T10:42:15.000Z</time>
      </trkpt>
      <trkpt lat="47.26227" lon="-2.31983">
        <ele>35.799999237061</ele>
        <time>2022-06-02T10:42:16.000Z</time>
      </trkpt>
      <trkpt lat="47.26239" lon="-2.31967">
        <ele>35.799999237061</ele>
        <time>2022-06-02T10:42:20.000Z</time>
      </trkpt>
      <trkpt lat="47.26241" lon="-2.31961">
        <ele>35.799999237061</ele>
        <time>2022-06-02T10:42:21.000Z</time>
      </trkpt>
      <trkpt lat="47.26255" lon="-2.3194">
        <ele>35.799999237061</ele>
        <time>2022-06-02T10:42:26.000Z</time>
      </trkpt>
      <trkpt lat="47.26265" lon="-2.31923">
        <ele>35.799999237061</ele>
        <time>2022-06-02T10:42:31.000Z</time>
      </trkpt>
      <trkpt lat="47.26287" lon="-2.31904">
        <ele>35.799999237061</ele>
        <time>2022-06-02T10:42:37.000Z</time>
      </trkpt>
      <trkpt lat="47.26294" lon="-2.31897">
        <ele>35.799999237061</ele>
        <time>2022-06-02T10:42:39.000Z</time>
      </trkpt>
      <trkpt lat="47.26299" lon="-2.31886">
        <ele>35.799999237061</ele>
        <time>2022-06-02T10:42:41.000Z</time>
      </trkpt>
      <trkpt lat="47.263" lon="-2.31868">
        <ele>35.799999237061</ele>
        <time>2022-06-02T10:42:44.000Z</time>
      </trkpt>
      <trkpt lat="47.263" lon="-2.31855">
        <ele>35.799999237061</ele>
        <time>2022-06-02T10:42:46.000Z</time>
      </trkpt>
      <trkpt lat="47.26303" lon="-2.31822">
        <ele>35.799999237061</ele>
        <time>2022-06-02T10:42:52.000Z</time>
      </trkpt>
      <trkpt lat="47.26303" lon="-2.3178">
        <ele>35.799999237061</ele>
        <time>2022-06-02T10:42:59.000Z</time>
      </trkpt>
      <trkpt lat="47.26299" lon="-2.31734">
        <ele>35.799999237061</ele>
        <time>2022-06-02T10:43:06.000Z</time>
      </trkpt>
      <trkpt lat="47.26306" lon="-2.31713">
        <ele>35.799999237061</ele>
        <time>2022-06-02T10:43:10.000Z</time>
      </trkpt>
      <trkpt lat="47.26327" lon="-2.31702">
        <ele>35.799999237061</ele>
        <time>2022-06-02T10:43:16.000Z</time>
      </trkpt>
      <trkpt lat="47.26333" lon="-2.31691">
        <ele>35.799999237061</ele>
        <time>2022-06-02T10:43:19.000Z</time>
      </trkpt>
      <trkpt lat="47.26341" lon="-2.31685">
        <ele>36.200000762939</ele>
        <time>2022-06-02T10:43:22.000Z</time>
      </trkpt>
      <trkpt lat="47.26344" lon="-2.31684">
        <ele>36.599998474121</ele>
        <time>2022-06-02T10:43:23.000Z</time>
      </trkpt>
      <trkpt lat="47.26347" lon="-2.31682">
        <ele>37.200000762939</ele>
        <time>2022-06-02T10:43:24.000Z</time>
      </trkpt>
      <trkpt lat="47.2635" lon="-2.3168">
        <ele>37.599998474121</ele>
        <time>2022-06-02T10:43:25.000Z</time>
      </trkpt>
      <trkpt lat="47.26353" lon="-2.31679">
        <ele>38</ele>
        <time>2022-06-02T10:43:26.000Z</time>
      </trkpt>
      <trkpt lat="47.26364" lon="-2.31675">
        <ele>38</ele>
        <time>2022-06-02T10:43:30.000Z</time>
      </trkpt>
      <trkpt lat="47.26386" lon="-2.31663">
        <ele>38</ele>
        <time>2022-06-02T10:43:37.000Z</time>
      </trkpt>
      <trkpt lat="47.26401" lon="-2.31655">
        <ele>38</ele>
        <time>2022-06-02T10:43:43.000Z</time>
      </trkpt>
      <trkpt lat="47.26408" lon="-2.31649">
        <ele>38</ele>
        <time>2022-06-02T10:43:46.000Z</time>
      </trkpt>
      <trkpt lat="47.26409" lon="-2.31646">
        <ele>38</ele>
        <time>2022-06-02T10:43:47.000Z</time>
      </trkpt>
      <trkpt lat="47.26409" lon="-2.31643">
        <ele>38.400001525879</ele>
        <time>2022-06-02T10:43:48.000Z</time>
      </trkpt>
      <trkpt lat="47.26408" lon="-2.31639">
        <ele>38.799999237061</ele>
        <time>2022-06-02T10:43:49.000Z</time>
      </trkpt>
      <trkpt lat="47.26408" lon="-2.31635">
        <ele>39.200000762939</ele>
        <time>2022-06-02T10:43:50.000Z</time>
      </trkpt>
      <trkpt lat="47.26408" lon="-2.3163">
        <ele>39.599998474121</ele>
        <time>2022-06-02T10:43:51.000Z</time>
      </trkpt>
      <trkpt lat="47.26408" lon="-2.31626">
        <ele>40</ele>
        <time>2022-06-02T10:43:52.000Z</time>
      </trkpt>
      <trkpt lat="47.2641" lon="-2.31592">
        <ele>40</ele>
        <time>2022-06-02T10:43:59.000Z</time>
      </trkpt>
      <trkpt lat="47.26411" lon="-2.31566">
        <ele>40</ele>
        <time>2022-06-02T10:44:05.000Z</time>
      </trkpt>
      <trkpt lat="47.26414" lon="-2.31553">
        <ele>40</ele>
        <time>2022-06-02T10:44:09.000Z</time>
      </trkpt>
      <trkpt lat="47.26416" lon="-2.31553">
        <ele>40</ele>
        <time>2022-06-02T10:44:10.000Z</time>
      </trkpt>
      <trkpt lat="47.26418" lon="-2.31553">
        <ele>40</ele>
        <time>2022-06-02T10:44:13.000Z</time>
      </trkpt>
    </trkseg>
  </trk>
</gpx>